<?xml version="1.0" encoding="UTF-8"?>
<gpx version="1.1" creator="Garmin Connect"
  xsi:schemaLocation="http://www.topografix.com/GPX/1/1 http://www.topografix.com/GPX/1/1/gpx.xsd http://www.garmin.com/xmlschemas/GpxExtensions/v3 http://www.garmin.com/xmlschemas/GpxExtensionsv3.xsd http://www.garmin.com/xmlschemas/TrackPointExtension/v1 http://www.garmin.com/xmlschemas/TrackPointExtensionv1.xsd"
  xmlns="http://www.topografix.com/GPX/1/1"
  xmlns:gpxtpx="http://www.garmin.com/xmlschemas/TrackPointExtension/v1"
  xmlns:gpxx="http://www.garmin.com/xmlschemas/GpxExtensions/v3" xmlns:xsi="http://www.w3.org/2001/XMLSchema-instance">
  <metadata>
    <link href="connect.garmin.com">
      <text>Garmin Connect</text>
    </link>
    <time>2015-10-21T08:21:55.000Z</time>
  </metadata>
  <trk>
    <name>Saillon-Fully-Chiboz-Ovonnaz-Saillon 21.10.2015</name>
    <trkseg>
      <trkpt lon="7.192247919738293" lat="46.17056496441364">
        <ele>465.20001220703125</ele>
        <time>2015-10-21T08:21:55.000Z</time>
      </trkpt>
      <trkpt lon="7.192247919738293" lat="46.17056496441364">
        <ele>465.20001220703125</ele>
        <time>2015-10-21T08:21:56.000Z</time>
      </trkpt>
      <trkpt lon="7.192010963335633" lat="46.17068792693317">
        <ele>465.6000061035156</ele>
        <time>2015-10-21T08:22:06.000Z</time>
      </trkpt>
      <trkpt lon="7.192200981080532" lat="46.17058893665671">
        <ele>465.20001220703125</ele>
        <time>2015-10-21T08:22:09.000Z</time>
      </trkpt>
      <trkpt lon="7.19189596362412" lat="46.17074794135988">
        <ele>465.79998779296875</ele>
        <time>2015-10-21T08:22:17.000Z</time>
      </trkpt>
      <trkpt lon="7.191623970866203" lat="46.17088892497122">
        <ele>466.0</ele>
        <time>2015-10-21T08:22:24.000Z</time>
      </trkpt>
      <trkpt lon="7.1913559176027775" lat="46.17102798074484">
        <ele>466.0</ele>
        <time>2015-10-21T08:22:31.000Z</time>
      </trkpt>
      <trkpt lon="7.19116891734302" lat="46.17112495936453">
        <ele>465.79998779296875</ele>
        <time>2015-10-21T08:22:36.000Z</time>
      </trkpt>
      <trkpt lon="7.191124996170402" lat="46.17114691995084">
        <ele>465.79998779296875</ele>
        <time>2015-10-21T08:22:39.000Z</time>
      </trkpt>
      <trkpt lon="7.191124996170402" lat="46.17114691995084">
        <ele>465.79998779296875</ele>
        <time>2015-10-21T08:23:15.000Z</time>
      </trkpt>
      <trkpt lon="7.191124996170402" lat="46.17114691995084">
        <ele>465.79998779296875</ele>
        <time>2015-10-21T08:23:16.000Z</time>
      </trkpt>
      <trkpt lon="7.1910549234598875" lat="46.17118396796286">
        <ele>465.6000061035156</ele>
        <time>2015-10-21T08:28:58.000Z</time>
      </trkpt>
      <trkpt lon="7.1909259259700775" lat="46.1712509393692">
        <ele>465.3999938964844</ele>
        <time>2015-10-21T08:29:02.000Z</time>
      </trkpt>
      <trkpt lon="7.190723922103643" lat="46.171361999586225">
        <ele>465.0</ele>
        <time>2015-10-21T08:29:07.000Z</time>
      </trkpt>
      <trkpt lon="7.190333995968103" lat="46.171578923240304">
        <ele>463.3999938964844</ele>
        <time>2015-10-21T08:29:16.000Z</time>
      </trkpt>
      <trkpt lon="7.189935939386487" lat="46.17178997956216">
        <ele>463.6000061035156</ele>
        <time>2015-10-21T08:29:25.000Z</time>
      </trkpt>
      <trkpt lon="7.189607955515385" lat="46.1719539295882">
        <ele>464.79998779296875</ele>
        <time>2015-10-21T08:29:32.000Z</time>
      </trkpt>
      <trkpt lon="7.189256921410561" lat="46.17215098813176">
        <ele>464.20001220703125</ele>
        <time>2015-10-21T08:29:40.000Z</time>
      </trkpt>
      <trkpt lon="7.188904965296388" lat="46.172332959249616">
        <ele>463.79998779296875</ele>
        <time>2015-10-21T08:29:48.000Z</time>
      </trkpt>
      <trkpt lon="7.188658956438303" lat="46.172459945082664">
        <ele>463.6000061035156</ele>
        <time>2015-10-21T08:29:54.000Z</time>
      </trkpt>
      <trkpt lon="7.188423927873373" lat="46.17258299142122">
        <ele>463.20001220703125</ele>
        <time>2015-10-21T08:29:59.000Z</time>
      </trkpt>
      <trkpt lon="7.1883289609104395" lat="46.172632947564125">
        <ele>462.79998779296875</ele>
        <time>2015-10-21T08:30:01.000Z</time>
      </trkpt>
      <trkpt lon="7.188198957592249" lat="46.172700924798846">
        <ele>462.79998779296875</ele>
        <time>2015-10-21T08:30:05.000Z</time>
      </trkpt>
      <trkpt lon="7.188342958688736" lat="46.17285297252238">
        <ele>462.6000061035156</ele>
        <time>2015-10-21T08:30:07.000Z</time>
      </trkpt>
      <trkpt lon="7.1884929947555065" lat="46.17298398166895">
        <ele>463.0</ele>
        <time>2015-10-21T08:30:11.000Z</time>
      </trkpt>
      <trkpt lon="7.188325943425298" lat="46.17306595668197">
        <ele>462.20001220703125</ele>
        <time>2015-10-21T08:30:13.000Z</time>
      </trkpt>
      <trkpt lon="7.188270958140492" lat="46.17302496917546">
        <ele>462.20001220703125</ele>
        <time>2015-10-21T08:30:14.000Z</time>
      </trkpt>
      <trkpt lon="7.187957977876067" lat="46.172740990296006">
        <ele>463.6000061035156</ele>
        <time>2015-10-21T08:30:23.000Z</time>
      </trkpt>
      <trkpt lon="7.1878209337592125" lat="46.17261693812907">
        <ele>464.20001220703125</ele>
        <time>2015-10-21T08:30:27.000Z</time>
      </trkpt>
      <trkpt lon="7.187678944319487" lat="46.17248894646764">
        <ele>465.0</ele>
        <time>2015-10-21T08:30:31.000Z</time>
      </trkpt>
      <trkpt lon="7.187455985695124" lat="46.17228593677282">
        <ele>466.0</ele>
        <time>2015-10-21T08:30:38.000Z</time>
      </trkpt>
      <trkpt lon="7.187368981540203" lat="46.17220798507333">
        <ele>466.0</ele>
        <time>2015-10-21T08:30:42.000Z</time>
      </trkpt>
      <trkpt lon="7.187150968238711" lat="46.17201796732843">
        <ele>466.3999938964844</ele>
        <time>2015-10-21T08:30:50.000Z</time>
      </trkpt>
      <trkpt lon="7.18699598684907" lat="46.171883940696716">
        <ele>466.3999938964844</ele>
        <time>2015-10-21T08:30:55.000Z</time>
      </trkpt>
      <trkpt lon="7.186795994639397" lat="46.171709932386875">
        <ele>466.6000061035156</ele>
        <time>2015-10-21T08:31:01.000Z</time>
      </trkpt>
      <trkpt lon="7.186496928334236" lat="46.17144296877086">
        <ele>468.79998779296875</ele>
        <time>2015-10-21T08:31:10.000Z</time>
      </trkpt>
      <trkpt lon="7.186221918091178" lat="46.17119796574116">
        <ele>471.20001220703125</ele>
        <time>2015-10-21T08:31:18.000Z</time>
      </trkpt>
      <trkpt lon="7.185956966131926" lat="46.17101297713816">
        <ele>474.6000061035156</ele>
        <time>2015-10-21T08:31:25.000Z</time>
      </trkpt>
      <trkpt lon="7.1855599991977215" lat="46.17077493108809">
        <ele>478.0</ele>
        <time>2015-10-21T08:31:34.000Z</time>
      </trkpt>
      <trkpt lon="7.185124978423119" lat="46.17051794193685">
        <ele>479.0</ele>
        <time>2015-10-21T08:31:43.000Z</time>
      </trkpt>
      <trkpt lon="7.184744942933321" lat="46.17029397748411">
        <ele>477.6000061035156</ele>
        <time>2015-10-21T08:31:51.000Z</time>
      </trkpt>
      <trkpt lon="7.184236999601126" lat="46.16999298334122">
        <ele>475.6000061035156</ele>
        <time>2015-10-21T08:32:02.000Z</time>
      </trkpt>
      <trkpt lon="7.183828968554735" lat="46.16971495561302">
        <ele>476.20001220703125</ele>
        <time>2015-10-21T08:32:11.000Z</time>
      </trkpt>
      <trkpt lon="7.183708939701319" lat="46.16940197534859">
        <ele>471.20001220703125</ele>
        <time>2015-10-21T08:32:19.000Z</time>
      </trkpt>
      <trkpt lon="7.1834769286215305" lat="46.169262919574976">
        <ele>474.0</ele>
        <time>2015-10-21T08:32:25.000Z</time>
      </trkpt>
      <trkpt lon="7.1832819655537605" lat="46.16914599202573">
        <ele>476.20001220703125</ele>
        <time>2015-10-21T08:32:31.000Z</time>
      </trkpt>
      <trkpt lon="7.1831099689006805" lat="46.16903099231422">
        <ele>473.79998779296875</ele>
        <time>2015-10-21T08:32:36.000Z</time>
      </trkpt>
      <trkpt lon="7.182925986126065" lat="46.16911296732724">
        <ele>476.79998779296875</ele>
        <time>2015-10-21T08:32:38.000Z</time>
      </trkpt>
      <trkpt lon="7.182900924235582" lat="46.16926895454526">
        <ele>481.0</ele>
        <time>2015-10-21T08:32:43.000Z</time>
      </trkpt>
      <trkpt lon="7.182622980326414" lat="46.16928798146546">
        <ele>485.0</ele>
        <time>2015-10-21T08:32:48.000Z</time>
      </trkpt>
      <trkpt lon="7.182362973690033" lat="46.169146997854114">
        <ele>482.3999938964844</ele>
        <time>2015-10-21T08:32:53.000Z</time>
      </trkpt>
      <trkpt lon="7.182017974555492" lat="46.168998973444104">
        <ele>476.20001220703125</ele>
        <time>2015-10-21T08:33:00.000Z</time>
      </trkpt>
      <trkpt lon="7.181600974872708" lat="46.16892194375396">
        <ele>473.79998779296875</ele>
        <time>2015-10-21T08:33:07.000Z</time>
      </trkpt>
      <trkpt lon="7.181363934651017" lat="46.168892942368984">
        <ele>472.3999938964844</ele>
        <time>2015-10-21T08:33:11.000Z</time>
      </trkpt>
      <trkpt lon="7.1809459291398525" lat="46.16915596649051">
        <ele>476.3999938964844</ele>
        <time>2015-10-21T08:33:19.000Z</time>
      </trkpt>
      <trkpt lon="7.180486936122179" lat="46.16938194260001">
        <ele>479.3999938964844</ele>
        <time>2015-10-21T08:33:28.000Z</time>
      </trkpt>
      <trkpt lon="7.180376965552568" lat="46.16943298839033">
        <ele>481.6000061035156</ele>
        <time>2015-10-21T08:33:30.000Z</time>
      </trkpt>
      <trkpt lon="7.18001595698297" lat="46.16952996701002">
        <ele>492.6000061035156</ele>
        <time>2015-10-21T08:33:36.000Z</time>
      </trkpt>
      <trkpt lon="7.179947979748249" lat="46.16952996701002">
        <ele>493.79998779296875</ele>
        <time>2015-10-21T08:33:37.000Z</time>
      </trkpt>
      <trkpt lon="7.1793909184634686" lat="46.169454948976636">
        <ele>495.6000061035156</ele>
        <time>2015-10-21T08:33:45.000Z</time>
      </trkpt>
      <trkpt lon="7.178830923512578" lat="46.169322934001684">
        <ele>494.0</ele>
        <time>2015-10-21T08:33:54.000Z</time>
      </trkpt>
      <trkpt lon="7.178686922416091" lat="46.16929292678833">
        <ele>492.79998779296875</ele>
        <time>2015-10-21T08:33:56.000Z</time>
      </trkpt>
      <trkpt lon="7.17851391993463" lat="46.16926593706012">
        <ele>492.3999938964844</ele>
        <time>2015-10-21T08:33:59.000Z</time>
      </trkpt>
      <trkpt lon="7.177870944142342" lat="46.16914297454059">
        <ele>487.20001220703125</ele>
        <time>2015-10-21T08:34:09.000Z</time>
      </trkpt>
      <trkpt lon="7.177806990221143" lat="46.16914297454059">
        <ele>487.20001220703125</ele>
        <time>2015-10-21T08:34:10.000Z</time>
      </trkpt>
      <trkpt lon="7.177562993019819" lat="46.169176921248436">
        <ele>487.20001220703125</ele>
        <time>2015-10-21T08:34:14.000Z</time>
      </trkpt>
      <trkpt lon="7.177205923944712" lat="46.169342966750264">
        <ele>489.79998779296875</ele>
        <time>2015-10-21T08:34:21.000Z</time>
      </trkpt>
      <trkpt lon="7.1770369447767735" lat="46.16931698285043">
        <ele>487.20001220703125</ele>
        <time>2015-10-21T08:34:25.000Z</time>
      </trkpt>
      <trkpt lon="7.176698986440897" lat="46.16918597370386">
        <ele>477.20001220703125</ele>
        <time>2015-10-21T08:34:32.000Z</time>
      </trkpt>
      <trkpt lon="7.176536964252591" lat="46.1690959520638">
        <ele>473.0</ele>
        <time>2015-10-21T08:34:36.000Z</time>
      </trkpt>
      <trkpt lon="7.176259942352772" lat="46.16906896233559">
        <ele>472.20001220703125</ele>
        <time>2015-10-21T08:34:41.000Z</time>
      </trkpt>
      <trkpt lon="7.175985937938094" lat="46.16914599202573">
        <ele>474.20001220703125</ele>
        <time>2015-10-21T08:34:46.000Z</time>
      </trkpt>
      <trkpt lon="7.175917960703373" lat="46.1691649351269">
        <ele>475.20001220703125</ele>
        <time>2015-10-21T08:34:50.000Z</time>
      </trkpt>
      <trkpt lon="7.175765996798873" lat="46.16930893622339">
        <ele>480.3999938964844</ele>
        <time>2015-10-21T08:34:52.000Z</time>
      </trkpt>
      <trkpt lon="7.175694918259978" lat="46.16950197145343">
        <ele>486.3999938964844</ele>
        <time>2015-10-21T08:34:58.000Z</time>
      </trkpt>
      <trkpt lon="7.175681926310062" lat="46.16952996701002">
        <ele>487.3999938964844</ele>
        <time>2015-10-21T08:34:59.000Z</time>
      </trkpt>
      <trkpt lon="7.175575979053974" lat="46.16956299170852">
        <ele>488.6000061035156</ele>
        <time>2015-10-21T08:35:03.000Z</time>
      </trkpt>
      <trkpt lon="7.175480928272009" lat="46.1694619897753">
        <ele>485.3999938964844</ele>
        <time>2015-10-21T08:35:06.000Z</time>
      </trkpt>
      <trkpt lon="7.175408927723765" lat="46.16926895454526">
        <ele>479.6000061035156</ele>
        <time>2015-10-21T08:35:10.000Z</time>
      </trkpt>
      <trkpt lon="7.175374981015921" lat="46.16922293789685">
        <ele>478.20001220703125</ele>
        <time>2015-10-21T08:35:11.000Z</time>
      </trkpt>
      <trkpt lon="7.1749509405344725" lat="46.168974917382">
        <ele>470.79998779296875</ele>
        <time>2015-10-21T08:35:18.000Z</time>
      </trkpt>
      <trkpt lon="7.1748849749565125" lat="46.16893292404711">
        <ele>470.0</ele>
        <time>2015-10-21T08:35:19.000Z</time>
      </trkpt>
      <trkpt lon="7.174549950286746" lat="46.16884298622608">
        <ele>469.6000061035156</ele>
        <time>2015-10-21T08:35:23.000Z</time>
      </trkpt>
      <trkpt lon="7.173810917884111" lat="46.16897097788751">
        <ele>472.3999938964844</ele>
        <time>2015-10-21T08:35:32.000Z</time>
      </trkpt>
      <trkpt lon="7.173518976196647" lat="46.1690319981426">
        <ele>475.3999938964844</ele>
        <time>2015-10-21T08:35:36.000Z</time>
      </trkpt>
      <trkpt lon="7.173052942380309" lat="46.16899495013058">
        <ele>478.3999938964844</ele>
        <time>2015-10-21T08:35:42.000Z</time>
      </trkpt>
      <trkpt lon="7.172978930175304" lat="46.168979946523905">
        <ele>478.6000061035156</ele>
        <time>2015-10-21T08:35:43.000Z</time>
      </trkpt>
      <trkpt lon="7.17256193049252" lat="46.1686849873513">
        <ele>476.6000061035156</ele>
        <time>2015-10-21T08:35:50.000Z</time>
      </trkpt>
      <trkpt lon="7.172202933579683" lat="46.16834996268153">
        <ele>473.3999938964844</ele>
        <time>2015-10-21T08:35:58.000Z</time>
      </trkpt>
      <trkpt lon="7.171737989410758" lat="46.16797495633364">
        <ele>470.6000061035156</ele>
        <time>2015-10-21T08:36:07.000Z</time>
      </trkpt>
      <trkpt lon="7.171186963096261" lat="46.167710926383734">
        <ele>469.3999938964844</ele>
        <time>2015-10-21T08:36:16.000Z</time>
      </trkpt>
      <trkpt lon="7.171132983639836" lat="46.16768393665552">
        <ele>469.6000061035156</ele>
        <time>2015-10-21T08:36:17.000Z</time>
      </trkpt>
      <trkpt lon="7.170804999768734" lat="46.16752895526588">
        <ele>470.3999938964844</ele>
        <time>2015-10-21T08:36:22.000Z</time>
      </trkpt>
      <trkpt lon="7.17028196901083" lat="46.16713399998844">
        <ele>468.6000061035156</ele>
        <time>2015-10-21T08:36:32.000Z</time>
      </trkpt>
      <trkpt lon="7.169818952679634" lat="46.166788917034864">
        <ele>467.6000061035156</ele>
        <time>2015-10-21T08:36:41.000Z</time>
      </trkpt>
      <trkpt lon="7.16929592192173" lat="46.16641097702086">
        <ele>464.6000061035156</ele>
        <time>2015-10-21T08:36:51.000Z</time>
      </trkpt>
      <trkpt lon="7.168772974982858" lat="46.16611098870635">
        <ele>466.0</ele>
        <time>2015-10-21T08:37:00.000Z</time>
      </trkpt>
      <trkpt lon="7.168178949505091" lat="46.165904961526394">
        <ele>472.79998779296875</ele>
        <time>2015-10-21T08:37:09.000Z</time>
      </trkpt>
      <trkpt lon="7.167967977002263" lat="46.165844947099686">
        <ele>474.20001220703125</ele>
        <time>2015-10-21T08:37:12.000Z</time>
      </trkpt>
      <trkpt lon="7.167608980089426" lat="46.165689965710044">
        <ele>475.6000061035156</ele>
        <time>2015-10-21T08:37:17.000Z</time>
      </trkpt>
      <trkpt lon="7.167576961219311" lat="46.16564093157649">
        <ele>475.0</ele>
        <time>2015-10-21T08:37:18.000Z</time>
      </trkpt>
      <trkpt lon="7.167308991774917" lat="46.165222926065326">
        <ele>474.20001220703125</ele>
        <time>2015-10-21T08:37:27.000Z</time>
      </trkpt>
      <trkpt lon="7.167222993448377" lat="46.165088983252645">
        <ele>474.3999938964844</ele>
        <time>2015-10-21T08:37:30.000Z</time>
      </trkpt>
      <trkpt lon="7.166933985427022" lat="46.16470894776285">
        <ele>475.79998779296875</ele>
        <time>2015-10-21T08:37:39.000Z</time>
      </trkpt>
      <trkpt lon="7.166633997112513" lat="46.16449596360326">
        <ele>478.79998779296875</ele>
        <time>2015-10-21T08:37:45.000Z</time>
      </trkpt>
      <trkpt lon="7.166243987157941" lat="46.16428893059492">
        <ele>479.79998779296875</ele>
        <time>2015-10-21T08:37:52.000Z</time>
      </trkpt>
      <trkpt lon="7.1656739339232445" lat="46.16403194144368">
        <ele>486.6000061035156</ele>
        <time>2015-10-21T08:38:01.000Z</time>
      </trkpt>
      <trkpt lon="7.165305968374014" lat="46.16377495229244">
        <ele>487.0</ele>
        <time>2015-10-21T08:38:08.000Z</time>
      </trkpt>
      <trkpt lon="7.164907995611429" lat="46.16345291957259">
        <ele>486.20001220703125</ele>
        <time>2015-10-21T08:38:16.000Z</time>
      </trkpt>
      <trkpt lon="7.164586968719959" lat="46.163094928488135">
        <ele>478.79998779296875</ele>
        <time>2015-10-21T08:38:24.000Z</time>
      </trkpt>
      <trkpt lon="7.164397956803441" lat="46.16288596764207">
        <ele>477.20001220703125</ele>
        <time>2015-10-21T08:38:29.000Z</time>
      </trkpt>
      <trkpt lon="7.164335930719972" lat="46.16269494406879">
        <ele>473.3999938964844</ele>
        <time>2015-10-21T08:38:33.000Z</time>
      </trkpt>
      <trkpt lon="7.164465934038162" lat="46.16253895685077">
        <ele>468.20001220703125</ele>
        <time>2015-10-21T08:38:37.000Z</time>
      </trkpt>
      <trkpt lon="7.165196919813752" lat="46.16200695745647">
        <ele>462.6000061035156</ele>
        <time>2015-10-21T08:38:41.000Z</time>
      </trkpt>
      <trkpt lon="7.165059959515929" lat="46.161890951916575">
        <ele>462.6000061035156</ele>
        <time>2015-10-21T08:38:49.000Z</time>
      </trkpt>
      <trkpt lon="7.163975927978754" lat="46.161587946116924">
        <ele>463.20001220703125</ele>
        <time>2015-10-21T08:38:58.000Z</time>
      </trkpt>
      <trkpt lon="7.163359941914678" lat="46.161416955292225">
        <ele>463.79998779296875</ele>
        <time>2015-10-21T08:39:08.000Z</time>
      </trkpt>
      <trkpt lon="7.162855938076973" lat="46.16127597168088">
        <ele>465.6000061035156</ele>
        <time>2015-10-21T08:39:16.000Z</time>
      </trkpt>
      <trkpt lon="7.1627909783273935" lat="46.16125795058906">
        <ele>465.79998779296875</ele>
        <time>2015-10-21T08:39:17.000Z</time>
      </trkpt>
      <trkpt lon="7.162539940327406" lat="46.1611919850111">
        <ele>467.20001220703125</ele>
        <time>2015-10-21T08:39:22.000Z</time>
      </trkpt>
      <trkpt lon="7.16242091730237" lat="46.161160971969366">
        <ele>467.79998779296875</ele>
        <time>2015-10-21T08:39:27.000Z</time>
      </trkpt>
      <trkpt lon="7.1618379559367895" lat="46.16088998503983">
        <ele>467.79998779296875</ele>
        <time>2015-10-21T08:39:36.000Z</time>
      </trkpt>
      <trkpt lon="7.161280978471041" lat="46.16059192456305">
        <ele>468.20001220703125</ele>
        <time>2015-10-21T08:39:46.000Z</time>
      </trkpt>
      <trkpt lon="7.1608139388263226" lat="46.16032596677542">
        <ele>469.20001220703125</ele>
        <time>2015-10-21T08:39:54.000Z</time>
      </trkpt>
      <trkpt lon="7.160295937210321" lat="46.15995096042752">
        <ele>463.79998779296875</ele>
        <time>2015-10-21T08:40:04.000Z</time>
      </trkpt>
      <trkpt lon="7.159765949472785" lat="46.15958299487829">
        <ele>461.3999938964844</ele>
        <time>2015-10-21T08:40:14.000Z</time>
      </trkpt>
      <trkpt lon="7.159307962283492" lat="46.1592389177531">
        <ele>463.3999938964844</ele>
        <time>2015-10-21T08:40:23.000Z</time>
      </trkpt>
      <trkpt lon="7.15872592292726" lat="46.15882996469736">
        <ele>463.6000061035156</ele>
        <time>2015-10-21T08:40:34.000Z</time>
      </trkpt>
      <trkpt lon="7.158298948779702" lat="46.158557971939445">
        <ele>464.3999938964844</ele>
        <time>2015-10-21T08:40:42.000Z</time>
      </trkpt>
      <trkpt lon="7.158250920474529" lat="46.15852695889771">
        <ele>464.3999938964844</ele>
        <time>2015-10-21T08:40:43.000Z</time>
      </trkpt>
      <trkpt lon="7.158125946298242" lat="46.1584479175508">
        <ele>464.20001220703125</ele>
        <time>2015-10-21T08:40:46.000Z</time>
      </trkpt>
      <trkpt lon="7.158038942143321" lat="46.15849091671407">
        <ele>464.0</ele>
        <time>2015-10-21T08:40:48.000Z</time>
      </trkpt>
      <trkpt lon="7.1579709649086" lat="46.15857196971774">
        <ele>463.79998779296875</ele>
        <time>2015-10-21T08:40:50.000Z</time>
      </trkpt>
      <trkpt lon="7.157796956598759" lat="46.15868294611573">
        <ele>463.6000061035156</ele>
        <time>2015-10-21T08:40:54.000Z</time>
      </trkpt>
      <trkpt lon="7.157686986029148" lat="46.15864799357951">
        <ele>463.6000061035156</ele>
        <time>2015-10-21T08:40:56.000Z</time>
      </trkpt>
      <trkpt lon="7.157039986923337" lat="46.15835999138653">
        <ele>464.20001220703125</ele>
        <time>2015-10-21T08:41:07.000Z</time>
      </trkpt>
      <trkpt lon="7.1565689239650965" lat="46.15813996642828">
        <ele>465.0</ele>
        <time>2015-10-21T08:41:15.000Z</time>
      </trkpt>
      <trkpt lon="7.156204981729388" lat="46.1579729989171">
        <ele>462.79998779296875</ele>
        <time>2015-10-21T08:41:21.000Z</time>
      </trkpt>
      <trkpt lon="7.155935922637582" lat="46.15791097283363">
        <ele>461.20001220703125</ele>
        <time>2015-10-21T08:41:25.000Z</time>
      </trkpt>
      <trkpt lon="7.155256988480687" lat="46.1578989867121">
        <ele>462.20001220703125</ele>
        <time>2015-10-21T08:41:34.000Z</time>
      </trkpt>
      <trkpt lon="7.155035957694054" lat="46.1578989867121">
        <ele>463.3999938964844</ele>
        <time>2015-10-21T08:41:37.000Z</time>
      </trkpt>
      <trkpt lon="7.154600936919451" lat="46.15776797756553">
        <ele>464.6000061035156</ele>
        <time>2015-10-21T08:41:44.000Z</time>
      </trkpt>
      <trkpt lon="7.154401950538158" lat="46.157680973410606">
        <ele>466.3999938964844</ele>
        <time>2015-10-21T08:41:48.000Z</time>
      </trkpt>
      <trkpt lon="7.153890989720821" lat="46.157504953444004">
        <ele>469.3999938964844</ele>
        <time>2015-10-21T08:41:57.000Z</time>
      </trkpt>
      <trkpt lon="7.153325965628028" lat="46.1573669873178">
        <ele>470.3999938964844</ele>
        <time>2015-10-21T08:42:05.000Z</time>
      </trkpt>
      <trkpt lon="7.152926987037063" lat="46.15724293515086">
        <ele>471.3999938964844</ele>
        <time>2015-10-21T08:42:10.000Z</time>
      </trkpt>
      <trkpt lon="7.152272947132587" lat="46.15700195543468">
        <ele>474.0</ele>
        <time>2015-10-21T08:42:19.000Z</time>
      </trkpt>
      <trkpt lon="7.151925936341286" lat="46.15684596821666">
        <ele>474.79998779296875</ele>
        <time>2015-10-21T08:42:24.000Z</time>
      </trkpt>
      <trkpt lon="7.151716975495219" lat="46.15655394271016">
        <ele>470.20001220703125</ele>
        <time>2015-10-21T08:42:30.000Z</time>
      </trkpt>
      <trkpt lon="7.151448922231793" lat="46.15609897300601">
        <ele>466.20001220703125</ele>
        <time>2015-10-21T08:42:39.000Z</time>
      </trkpt>
      <trkpt lon="7.1512409672141075" lat="46.155635956674814">
        <ele>462.3999938964844</ele>
        <time>2015-10-21T08:42:48.000Z</time>
      </trkpt>
      <trkpt lon="7.151074921712279" lat="46.15516799502075">
        <ele>462.20001220703125</ele>
        <time>2015-10-21T08:42:57.000Z</time>
      </trkpt>
      <trkpt lon="7.150928992778063" lat="46.15502097643912">
        <ele>462.0</ele>
        <time>2015-10-21T08:43:01.000Z</time>
      </trkpt>
      <trkpt lon="7.150897979736328" lat="46.1550029553473">
        <ele>462.0</ele>
        <time>2015-10-21T08:43:04.000Z</time>
      </trkpt>
      <trkpt lon="7.150719948112965" lat="46.15506892092526">
        <ele>461.79998779296875</ele>
        <time>2015-10-21T08:43:06.000Z</time>
      </trkpt>
      <trkpt lon="7.1501499786973" lat="46.15531895309687">
        <ele>464.3999938964844</ele>
        <time>2015-10-21T08:43:17.000Z</time>
      </trkpt>
      <trkpt lon="7.149813948199153" lat="46.15543596446514">
        <ele>465.79998779296875</ele>
        <time>2015-10-21T08:43:24.000Z</time>
      </trkpt>
      <trkpt lon="7.149517983198166" lat="46.15546798333526">
        <ele>468.79998779296875</ele>
        <time>2015-10-21T08:43:30.000Z</time>
      </trkpt>
      <trkpt lon="7.149270968511701" lat="46.15532792173326">
        <ele>469.79998779296875</ele>
        <time>2015-10-21T08:43:36.000Z</time>
      </trkpt>
      <trkpt lon="7.149188993498683" lat="46.15526597946882">
        <ele>470.0</ele>
        <time>2015-10-21T08:43:38.000Z</time>
      </trkpt>
      <trkpt lon="7.148841982707381" lat="46.15509792231023">
        <ele>469.6000061035156</ele>
        <time>2015-10-21T08:43:44.000Z</time>
      </trkpt>
      <trkpt lon="7.148219961673021" lat="46.1550029553473">
        <ele>470.0</ele>
        <time>2015-10-21T08:43:53.000Z</time>
      </trkpt>
      <trkpt lon="7.1477339789271355" lat="46.15494193509221">
        <ele>467.3999938964844</ele>
        <time>2015-10-21T08:44:00.000Z</time>
      </trkpt>
      <trkpt lon="7.147109946236014" lat="46.1548319645226">
        <ele>465.20001220703125</ele>
        <time>2015-10-21T08:44:09.000Z</time>
      </trkpt>
      <trkpt lon="7.146645924076438" lat="46.15481696091592">
        <ele>464.79998779296875</ele>
        <time>2015-10-21T08:44:15.000Z</time>
      </trkpt>
      <trkpt lon="7.14613395743072" lat="46.1547629814595">
        <ele>466.20001220703125</ele>
        <time>2015-10-21T08:44:21.000Z</time>
      </trkpt>
      <trkpt lon="7.145578991621733" lat="46.15470196120441">
        <ele>467.20001220703125</ele>
        <time>2015-10-21T08:44:28.000Z</time>
      </trkpt>
      <trkpt lon="7.145215971395373" lat="46.15470196120441">
        <ele>466.0</ele>
        <time>2015-10-21T08:44:33.000Z</time>
      </trkpt>
      <trkpt lon="7.144766952842474" lat="46.154649993404746">
        <ele>465.79998779296875</ele>
        <time>2015-10-21T08:44:40.000Z</time>
      </trkpt>
      <trkpt lon="7.144481968134642" lat="46.1545589659363">
        <ele>467.3999938964844</ele>
        <time>2015-10-21T08:44:45.000Z</time>
      </trkpt>
      <trkpt lon="7.144099920988083" lat="46.154410941526294">
        <ele>469.6000061035156</ele>
        <time>2015-10-21T08:44:52.000Z</time>
      </trkpt>
      <trkpt lon="7.143807979300618" lat="46.1542809382081">
        <ele>470.79998779296875</ele>
        <time>2015-10-21T08:44:58.000Z</time>
      </trkpt>
      <trkpt lon="7.143535986542702" lat="46.15409896709025">
        <ele>472.0</ele>
        <time>2015-10-21T08:45:05.000Z</time>
      </trkpt>
      <trkpt lon="7.1433269418776035" lat="46.15388698875904">
        <ele>472.20001220703125</ele>
        <time>2015-10-21T08:45:11.000Z</time>
      </trkpt>
      <trkpt lon="7.142985966056585" lat="46.153554981574416">
        <ele>470.6000061035156</ele>
        <time>2015-10-21T08:45:18.000Z</time>
      </trkpt>
      <trkpt lon="7.142491936683655" lat="46.1531949788332">
        <ele>469.6000061035156</ele>
        <time>2015-10-21T08:45:26.000Z</time>
      </trkpt>
      <trkpt lon="7.142300996929407" lat="46.15307092666626">
        <ele>469.3999938964844</ele>
        <time>2015-10-21T08:45:29.000Z</time>
      </trkpt>
      <trkpt lon="7.142022969201207" lat="46.15293698385358">
        <ele>469.79998779296875</ele>
        <time>2015-10-21T08:45:33.000Z</time>
      </trkpt>
      <trkpt lon="7.141305981203914" lat="46.15272793918848">
        <ele>471.3999938964844</ele>
        <time>2015-10-21T08:45:42.000Z</time>
      </trkpt>
      <trkpt lon="7.140593938529491" lat="46.1525559425354">
        <ele>471.3999938964844</ele>
        <time>2015-10-21T08:45:51.000Z</time>
      </trkpt>
      <trkpt lon="7.140527972951531" lat="46.152542950585485">
        <ele>471.3999938964844</ele>
        <time>2015-10-21T08:45:52.000Z</time>
      </trkpt>
      <trkpt lon="7.1402999851852655" lat="46.15245192311704">
        <ele>471.79998779296875</ele>
        <time>2015-10-21T08:45:56.000Z</time>
      </trkpt>
      <trkpt lon="7.139736972749233" lat="46.152179930359125">
        <ele>472.6000061035156</ele>
        <time>2015-10-21T08:46:06.000Z</time>
      </trkpt>
      <trkpt lon="7.139454921707511" lat="46.15203894674778">
        <ele>473.3999938964844</ele>
        <time>2015-10-21T08:46:11.000Z</time>
      </trkpt>
      <trkpt lon="7.139193993061781" lat="46.15195596590638">
        <ele>474.6000061035156</ele>
        <time>2015-10-21T08:46:15.000Z</time>
      </trkpt>
      <trkpt lon="7.139060972258449" lat="46.15191497839987">
        <ele>475.0</ele>
        <time>2015-10-21T08:46:17.000Z</time>
      </trkpt>
      <trkpt lon="7.138799959793687" lat="46.15182294510305">
        <ele>475.79998779296875</ele>
        <time>2015-10-21T08:46:21.000Z</time>
      </trkpt>
      <trkpt lon="7.138389917090535" lat="46.151707945391536">
        <ele>477.0</ele>
        <time>2015-10-21T08:46:27.000Z</time>
      </trkpt>
      <trkpt lon="7.1382259670645" lat="46.15164399147034">
        <ele>477.20001220703125</ele>
        <time>2015-10-21T08:46:30.000Z</time>
      </trkpt>
      <trkpt lon="7.137866970151663" lat="46.15148196928203">
        <ele>476.20001220703125</ele>
        <time>2015-10-21T08:46:36.000Z</time>
      </trkpt>
      <trkpt lon="7.137373946607113" lat="46.151191955432296">
        <ele>473.79998779296875</ele>
        <time>2015-10-21T08:46:44.000Z</time>
      </trkpt>
      <trkpt lon="7.136894920840859" lat="46.150997998192906">
        <ele>472.0</ele>
        <time>2015-10-21T08:46:50.000Z</time>
      </trkpt>
      <trkpt lon="7.136417990550399" lat="46.150845950469375">
        <ele>471.6000061035156</ele>
        <time>2015-10-21T08:46:55.000Z</time>
      </trkpt>
      <trkpt lon="7.13558298535645" lat="46.15058192051947">
        <ele>472.79998779296875</ele>
        <time>2015-10-21T08:47:03.000Z</time>
      </trkpt>
      <trkpt lon="7.13472593575716" lat="46.15032593719661">
        <ele>479.20001220703125</ele>
        <time>2015-10-21T08:47:11.000Z</time>
      </trkpt>
      <trkpt lon="7.133935941383243" lat="46.15011295303702">
        <ele>484.0</ele>
        <time>2015-10-21T08:47:18.000Z</time>
      </trkpt>
      <trkpt lon="7.1331949811428785" lat="46.15006794221699">
        <ele>484.3999938964844</ele>
        <time>2015-10-21T08:47:24.000Z</time>
      </trkpt>
      <trkpt lon="7.1325199864804745" lat="46.15004598163068">
        <ele>482.6000061035156</ele>
        <time>2015-10-21T08:47:30.000Z</time>
      </trkpt>
      <trkpt lon="7.1320549584925175" lat="46.15003692917526">
        <ele>480.6000061035156</ele>
        <time>2015-10-21T08:47:35.000Z</time>
      </trkpt>
      <trkpt lon="7.131977928802371" lat="46.150027960538864">
        <ele>480.0</ele>
        <time>2015-10-21T08:47:36.000Z</time>
      </trkpt>
      <trkpt lon="7.131762932986021" lat="46.150005999952555">
        <ele>477.79998779296875</ele>
        <time>2015-10-21T08:47:39.000Z</time>
      </trkpt>
      <trkpt lon="7.1315619349479675" lat="46.14991991780698">
        <ele>473.3999938964844</ele>
        <time>2015-10-21T08:47:43.000Z</time>
      </trkpt>
      <trkpt lon="7.131298994645476" lat="46.1497479211539">
        <ele>470.0</ele>
        <time>2015-10-21T08:47:49.000Z</time>
      </trkpt>
      <trkpt lon="7.130931951105595" lat="46.14943494088948">
        <ele>469.6000061035156</ele>
        <time>2015-10-21T08:47:57.000Z</time>
      </trkpt>
      <trkpt lon="7.130767917260528" lat="46.14925799891353">
        <ele>469.0</ele>
        <time>2015-10-21T08:48:02.000Z</time>
      </trkpt>
      <trkpt lon="7.130661970004439" lat="46.14912095479667">
        <ele>469.0</ele>
        <time>2015-10-21T08:48:06.000Z</time>
      </trkpt>
      <trkpt lon="7.130458960309625" lat="46.1488329526037">
        <ele>468.3999938964844</ele>
        <time>2015-10-21T08:48:12.000Z</time>
      </trkpt>
      <trkpt lon="7.130145980045199" lat="46.14846398122609">
        <ele>467.79998779296875</ele>
        <time>2015-10-21T08:48:19.000Z</time>
      </trkpt>
      <trkpt lon="7.12993199005723" lat="46.14820699207485">
        <ele>467.20001220703125</ele>
        <time>2015-10-21T08:48:23.000Z</time>
      </trkpt>
      <trkpt lon="7.1297739911824465" lat="46.14765395410359">
        <ele>463.79998779296875</ele>
        <time>2015-10-21T08:48:30.000Z</time>
      </trkpt>
      <trkpt lon="7.129376940429211" lat="46.14725296385586">
        <ele>463.0</ele>
        <time>2015-10-21T08:48:36.000Z</time>
      </trkpt>
      <trkpt lon="7.129080975428224" lat="46.14698197692633">
        <ele>463.3999938964844</ele>
        <time>2015-10-21T08:48:41.000Z</time>
      </trkpt>
      <trkpt lon="7.12877394631505" lat="46.14684292115271">
        <ele>465.3999938964844</ele>
        <time>2015-10-21T08:48:46.000Z</time>
      </trkpt>
      <trkpt lon="7.128465995192528" lat="46.146741919219494">
        <ele>467.79998779296875</ele>
        <time>2015-10-21T08:48:52.000Z</time>
      </trkpt>
      <trkpt lon="7.128332974389195" lat="46.146698920056224">
        <ele>469.20001220703125</ele>
        <time>2015-10-21T08:48:56.000Z</time>
      </trkpt>
      <trkpt lon="7.128210933879018" lat="46.146658938378096">
        <ele>470.0</ele>
        <time>2015-10-21T08:49:02.000Z</time>
      </trkpt>
      <trkpt lon="7.128086965531111" lat="46.14661795087159">
        <ele>470.3999938964844</ele>
        <time>2015-10-21T08:49:09.000Z</time>
      </trkpt>
      <trkpt lon="7.12793399579823" lat="46.14656891673803">
        <ele>471.0</ele>
        <time>2015-10-21T08:49:18.000Z</time>
      </trkpt>
      <trkpt lon="7.127810949459672" lat="46.14653497003019">
        <ele>471.3999938964844</ele>
        <time>2015-10-21T08:49:24.000Z</time>
      </trkpt>
      <trkpt lon="7.127713970839977" lat="46.14650898613036">
        <ele>471.79998779296875</ele>
        <time>2015-10-21T08:49:29.000Z</time>
      </trkpt>
      <trkpt lon="7.1279029827564955" lat="46.14659992977977">
        <ele>471.3999938964844</ele>
        <time>2015-10-21T08:49:33.000Z</time>
      </trkpt>
      <trkpt lon="7.127767950296402" lat="46.14652298390865">
        <ele>471.6000061035156</ele>
        <time>2015-10-21T08:49:37.000Z</time>
      </trkpt>
      <trkpt lon="7.127878926694393" lat="46.14655399695039">
        <ele>471.20001220703125</ele>
        <time>2015-10-21T08:49:41.000Z</time>
      </trkpt>
      <trkpt lon="7.127896947786212" lat="46.14660495892167">
        <ele>471.3999938964844</ele>
        <time>2015-10-21T08:49:47.000Z</time>
      </trkpt>
      <trkpt lon="7.127869958058" lat="46.146550979465246">
        <ele>471.20001220703125</ele>
        <time>2015-10-21T08:49:53.000Z</time>
      </trkpt>
      <trkpt lon="7.127856966108084" lat="46.146547961980104">
        <ele>471.20001220703125</ele>
        <time>2015-10-21T08:53:17.000Z</time>
      </trkpt>
      <trkpt lon="7.127891918644309" lat="46.14660898223519">
        <ele>471.3999938964844</ele>
        <time>2015-10-21T08:53:22.000Z</time>
      </trkpt>
      <trkpt lon="7.127873981371522" lat="46.14662499167025">
        <ele>471.79998779296875</ele>
        <time>2015-10-21T08:53:23.000Z</time>
      </trkpt>
      <trkpt lon="7.127704918384552" lat="46.14676798693836">
        <ele>473.79998779296875</ele>
        <time>2015-10-21T08:53:32.000Z</time>
      </trkpt>
      <trkpt lon="7.127551948651671" lat="46.14689799025655">
        <ele>476.0</ele>
        <time>2015-10-21T08:53:41.000Z</time>
      </trkpt>
      <trkpt lon="7.127424962818623" lat="46.14701894111931">
        <ele>478.0</ele>
        <time>2015-10-21T08:53:50.000Z</time>
      </trkpt>
      <trkpt lon="7.127324966713786" lat="46.14711793139577">
        <ele>479.3999938964844</ele>
        <time>2015-10-21T08:53:58.000Z</time>
      </trkpt>
      <trkpt lon="7.1271799597889185" lat="46.14722798578441">
        <ele>482.79998779296875</ele>
        <time>2015-10-21T08:54:09.000Z</time>
      </trkpt>
      <trkpt lon="7.1270279958844185" lat="46.14728498272598">
        <ele>485.6000061035156</ele>
        <time>2015-10-21T08:54:18.000Z</time>
      </trkpt>
      <trkpt lon="7.126892963424325" lat="46.147320941090584">
        <ele>487.79998779296875</ele>
        <time>2015-10-21T08:54:27.000Z</time>
      </trkpt>
      <trkpt lon="7.1268009301275015" lat="46.147320941090584">
        <ele>489.0</ele>
        <time>2015-10-21T08:54:33.000Z</time>
      </trkpt>
      <trkpt lon="7.1266719326376915" lat="46.14730694331229">
        <ele>490.6000061035156</ele>
        <time>2015-10-21T08:54:40.000Z</time>
      </trkpt>
      <trkpt lon="7.126575959846377" lat="46.147298980504274">
        <ele>492.0</ele>
        <time>2015-10-21T08:54:46.000Z</time>
      </trkpt>
      <trkpt lon="7.126513933762908" lat="46.1473529599607">
        <ele>494.0</ele>
        <time>2015-10-21T08:54:51.000Z</time>
      </trkpt>
      <trkpt lon="7.126500941812992" lat="46.147406939417124">
        <ele>495.20001220703125</ele>
        <time>2015-10-21T08:54:56.000Z</time>
      </trkpt>
      <trkpt lon="7.126478981226683" lat="46.147449938580394">
        <ele>496.20001220703125</ele>
        <time>2015-10-21T08:55:03.000Z</time>
      </trkpt>
      <trkpt lon="7.125770961865783" lat="46.147234942764044">
        <ele>504.0</ele>
        <time>2015-10-21T08:55:08.000Z</time>
      </trkpt>
      <trkpt lon="7.126263985410333" lat="46.147407945245504">
        <ele>499.20001220703125</ele>
        <time>2015-10-21T08:55:18.000Z</time>
      </trkpt>
      <trkpt lon="7.126078996807337" lat="46.147320941090584">
        <ele>500.6000061035156</ele>
        <time>2015-10-21T08:55:29.000Z</time>
      </trkpt>
      <trkpt lon="7.125933989882469" lat="46.1472509521991">
        <ele>501.6000061035156</ele>
        <time>2015-10-21T08:55:38.000Z</time>
      </trkpt>
      <trkpt lon="7.125813961029053" lat="46.147213988006115">
        <ele>502.79998779296875</ele>
        <time>2015-10-21T08:55:46.000Z</time>
      </trkpt>
      <trkpt lon="7.125741960480809" lat="46.14724994637072">
        <ele>504.79998779296875</ele>
        <time>2015-10-21T08:55:52.000Z</time>
      </trkpt>
      <trkpt lon="7.125706924125552" lat="46.14731892943382">
        <ele>506.79998779296875</ele>
        <time>2015-10-21T08:55:59.000Z</time>
      </trkpt>
      <trkpt lon="7.125772973522544" lat="46.147407945245504">
        <ele>508.20001220703125</ele>
        <time>2015-10-21T08:56:07.000Z</time>
      </trkpt>
      <trkpt lon="7.125847991555929" lat="46.14752294495702">
        <ele>509.20001220703125</ele>
        <time>2015-10-21T08:56:18.000Z</time>
      </trkpt>
      <trkpt lon="7.125847991555929" lat="46.147605925798416">
        <ele>511.20001220703125</ele>
        <time>2015-10-21T08:56:26.000Z</time>
      </trkpt>
      <trkpt lon="7.125819995999336" lat="46.147623946890235">
        <ele>512.2000122070312</ele>
        <time>2015-10-21T08:56:28.000Z</time>
      </trkpt>
      <trkpt lon="7.125694938004017" lat="46.147691924124956">
        <ele>516.0</ele>
        <time>2015-10-21T08:56:37.000Z</time>
      </trkpt>
      <trkpt lon="7.125560995191336" lat="46.14774095825851">
        <ele>518.7999877929688</ele>
        <time>2015-10-21T08:56:47.000Z</time>
      </trkpt>
      <trkpt lon="7.1254379488527775" lat="46.1477499268949">
        <ele>520.4000244140625</ele>
        <time>2015-10-21T08:56:56.000Z</time>
      </trkpt>
      <trkpt lon="7.125304928049445" lat="46.1477189976722">
        <ele>521.2000122070312</ele>
        <time>2015-10-21T08:57:04.000Z</time>
      </trkpt>
      <trkpt lon="7.1251169219613075" lat="46.147641967982054">
        <ele>521.4000244140625</ele>
        <time>2015-10-21T08:57:11.000Z</time>
      </trkpt>
      <trkpt lon="7.124924976378679" lat="46.14752797409892">
        <ele>520.7999877929688</ele>
        <time>2015-10-21T08:57:17.000Z</time>
      </trkpt>
      <trkpt lon="7.124890945851803" lat="46.14750199019909">
        <ele>520.4000244140625</ele>
        <time>2015-10-21T08:57:18.000Z</time>
      </trkpt>
      <trkpt lon="7.124768989160657" lat="46.147406939417124">
        <ele>519.0</ele>
        <time>2015-10-21T08:57:21.000Z</time>
      </trkpt>
      <trkpt lon="7.124572936445475" lat="46.14717895165086">
        <ele>514.5999755859375</ele>
        <time>2015-10-21T08:57:25.000Z</time>
      </trkpt>
      <trkpt lon="7.124466989189386" lat="46.14714693278074">
        <ele>514.4000244140625</ele>
        <time>2015-10-21T08:57:26.000Z</time>
      </trkpt>
      <trkpt lon="7.124278983101249" lat="46.14712094888091">
        <ele>514.7999877929688</ele>
        <time>2015-10-21T08:57:28.000Z</time>
      </trkpt>
      <trkpt lon="7.124001961201429" lat="46.147083984687924">
        <ele>515.5999755859375</ele>
        <time>2015-10-21T08:57:32.000Z</time>
      </trkpt>
      <trkpt lon="7.123766932636499" lat="46.147062946110964">
        <ele>515.7999877929688</ele>
        <time>2015-10-21T08:57:37.000Z</time>
      </trkpt>
      <trkpt lon="7.123669954016805" lat="46.14723293110728">
        <ele>519.5999755859375</ele>
        <time>2015-10-21T08:57:44.000Z</time>
      </trkpt>
      <trkpt lon="7.12357297539711" lat="46.147303925827146">
        <ele>521.4000244140625</ele>
        <time>2015-10-21T08:57:52.000Z</time>
      </trkpt>
      <trkpt lon="7.123413970693946" lat="46.147366957738996">
        <ele>523.4000244140625</ele>
        <time>2015-10-21T08:58:02.000Z</time>
      </trkpt>
      <trkpt lon="7.123225964605808" lat="46.14741993136704">
        <ele>527.0</ele>
        <time>2015-10-21T08:58:13.000Z</time>
      </trkpt>
      <trkpt lon="7.12305698543787" lat="46.1474599968642">
        <ele>530.2000122070312</ele>
        <time>2015-10-21T08:58:22.000Z</time>
      </trkpt>
      <trkpt lon="7.122874930500984" lat="46.14750299602747">
        <ele>533.5999755859375</ele>
        <time>2015-10-21T08:58:32.000Z</time>
      </trkpt>
      <trkpt lon="7.122676949948072" lat="46.14755194634199">
        <ele>537.4000244140625</ele>
        <time>2015-10-21T08:58:43.000Z</time>
      </trkpt>
      <trkpt lon="7.122503947466612" lat="46.147598968818784">
        <ele>541.2000122070312</ele>
        <time>2015-10-21T08:58:53.000Z</time>
      </trkpt>
      <trkpt lon="7.12245499715209" lat="46.14761397242546">
        <ele>542.2000122070312</ele>
        <time>2015-10-21T08:58:56.000Z</time>
      </trkpt>
      <trkpt lon="7.122358940541744" lat="46.147642973810434">
        <ele>546.0</ele>
        <time>2015-10-21T08:59:04.000Z</time>
      </trkpt>
      <trkpt lon="7.122250981628895" lat="46.14753493107855">
        <ele>544.7999877929688</ele>
        <time>2015-10-21T08:59:10.000Z</time>
      </trkpt>
      <trkpt lon="7.122206976637244" lat="46.14747994579375">
        <ele>544.0</ele>
        <time>2015-10-21T08:59:15.000Z</time>
      </trkpt>
      <trkpt lon="7.122196918353438" lat="46.14742294885218">
        <ele>542.0</ele>
        <time>2015-10-21T08:59:19.000Z</time>
      </trkpt>
      <trkpt lon="7.122187949717045" lat="46.147281965240836">
        <ele>536.7999877929688</ele>
        <time>2015-10-21T08:59:29.000Z</time>
      </trkpt>
      <trkpt lon="7.122184932231903" lat="46.14716093055904">
        <ele>534.2000122070312</ele>
        <time>2015-10-21T08:59:39.000Z</time>
      </trkpt>
      <trkpt lon="7.122158948332071" lat="46.14707292057574">
        <ele>533.0</ele>
        <time>2015-10-21T08:59:47.000Z</time>
      </trkpt>
      <trkpt lon="7.1221129316836596" lat="46.14701298996806">
        <ele>533.0</ele>
        <time>2015-10-21T08:59:54.000Z</time>
      </trkpt>
      <trkpt lon="7.122017964720726" lat="46.146956998854876">
        <ele>534.7999877929688</ele>
        <time>2015-10-21T09:00:02.000Z</time>
      </trkpt>
      <trkpt lon="7.121863989159465" lat="46.14687996916473">
        <ele>537.5999755859375</ele>
        <time>2015-10-21T09:00:14.000Z</time>
      </trkpt>
      <trkpt lon="7.121731974184513" lat="46.14683294668794">
        <ele>540.5999755859375</ele>
        <time>2015-10-21T09:00:24.000Z</time>
      </trkpt>
      <trkpt lon="7.121610939502716" lat="46.14679195918143">
        <ele>543.4000244140625</ele>
        <time>2015-10-21T09:00:33.000Z</time>
      </trkpt>
      <trkpt lon="7.12155494838953" lat="46.14677393808961">
        <ele>544.4000244140625</ele>
        <time>2015-10-21T09:00:37.000Z</time>
      </trkpt>
      <trkpt lon="7.121397955343127" lat="46.14672993309796">
        <ele>547.2000122070312</ele>
        <time>2015-10-21T09:00:48.000Z</time>
      </trkpt>
      <trkpt lon="7.121330983936787" lat="46.14671199582517">
        <ele>548.4000244140625</ele>
        <time>2015-10-21T09:00:53.000Z</time>
      </trkpt>
      <trkpt lon="7.12127692066133" lat="46.146696992218494">
        <ele>549.4000244140625</ele>
        <time>2015-10-21T09:00:57.000Z</time>
      </trkpt>
      <trkpt lon="7.121135937049985" lat="46.146659944206476">
        <ele>552.0</ele>
        <time>2015-10-21T09:01:07.000Z</time>
      </trkpt>
      <trkpt lon="7.12101892568171" lat="46.14662893116474">
        <ele>554.0</ele>
        <time>2015-10-21T09:01:16.000Z</time>
      </trkpt>
      <trkpt lon="7.120903925970197" lat="46.14659791812301">
        <ele>556.2000122070312</ele>
        <time>2015-10-21T09:01:24.000Z</time>
      </trkpt>
      <trkpt lon="7.120826980099082" lat="46.14657796919346">
        <ele>558.0</ele>
        <time>2015-10-21T09:01:30.000Z</time>
      </trkpt>
      <trkpt lon="7.120782975107431" lat="46.14656598307192">
        <ele>559.0</ele>
        <time>2015-10-21T09:01:34.000Z</time>
      </trkpt>
      <trkpt lon="7.120632939040661" lat="46.14652591757476">
        <ele>558.7999877929688</ele>
        <time>2015-10-21T09:01:44.000Z</time>
      </trkpt>
      <trkpt lon="7.120471922680736" lat="46.14649197086692">
        <ele>558.4000244140625</ele>
        <time>2015-10-21T09:01:53.000Z</time>
      </trkpt>
      <trkpt lon="7.1202669851481915" lat="46.146462969481945">
        <ele>558.4000244140625</ele>
        <time>2015-10-21T09:02:05.000Z</time>
      </trkpt>
      <trkpt lon="7.120093982666731" lat="46.14647596143186">
        <ele>559.4000244140625</ele>
        <time>2015-10-21T09:02:13.000Z</time>
      </trkpt>
      <trkpt lon="7.119873957708478" lat="46.14664292894304">
        <ele>566.5999755859375</ele>
        <time>2015-10-21T09:02:24.000Z</time>
      </trkpt>
      <trkpt lon="7.1196649968624115" lat="46.146740997210145">
        <ele>570.2000122070312</ele>
        <time>2015-10-21T09:02:32.000Z</time>
      </trkpt>
      <trkpt lon="7.11936492472887" lat="46.146787935867906">
        <ele>573.0</ele>
        <time>2015-10-21T09:02:41.000Z</time>
      </trkpt>
      <trkpt lon="7.119154958054423" lat="46.14679195918143">
        <ele>576.5999755859375</ele>
        <time>2015-10-21T09:02:49.000Z</time>
      </trkpt>
      <trkpt lon="7.118944991379976" lat="46.14679698832333">
        <ele>579.4000244140625</ele>
        <time>2015-10-21T09:02:58.000Z</time>
      </trkpt>
      <trkpt lon="7.118731923401356" lat="46.14680092781782">
        <ele>581.7999877929688</ele>
        <time>2015-10-21T09:03:07.000Z</time>
      </trkpt>
      <trkpt lon="7.118508964776993" lat="46.146805956959724">
        <ele>585.0</ele>
        <time>2015-10-21T09:03:17.000Z</time>
      </trkpt>
      <trkpt lon="7.118300925940275" lat="46.146805956959724">
        <ele>588.0</ele>
        <time>2015-10-21T09:03:26.000Z</time>
      </trkpt>
      <trkpt lon="7.118242923170328" lat="46.146805956959724">
        <ele>588.7999877929688</ele>
        <time>2015-10-21T09:03:29.000Z</time>
      </trkpt>
      <trkpt lon="7.118204953148961" lat="46.146805956959724">
        <ele>589.2000122070312</ele>
        <time>2015-10-21T09:03:33.000Z</time>
      </trkpt>
      <trkpt lon="7.118204953148961" lat="46.146805956959724">
        <ele>589.2000122070312</ele>
        <time>2015-10-21T09:04:26.000Z</time>
      </trkpt>
      <trkpt lon="7.118190955370665" lat="46.1468899436295">
        <ele>594.2000122070312</ele>
        <time>2015-10-21T09:04:31.000Z</time>
      </trkpt>
      <trkpt lon="7.118263961747289" lat="46.146913999691606">
        <ele>594.7999877929688</ele>
        <time>2015-10-21T09:04:35.000Z</time>
      </trkpt>
      <trkpt lon="7.118429923430085" lat="46.14696999080479">
        <ele>595.7999877929688</ele>
        <time>2015-10-21T09:04:44.000Z</time>
      </trkpt>
      <trkpt lon="7.118626981973648" lat="46.14703897386789">
        <ele>597.0</ele>
        <time>2015-10-21T09:04:54.000Z</time>
      </trkpt>
      <trkpt lon="7.118846923112869" lat="46.14711893722415">
        <ele>598.5999755859375</ele>
        <time>2015-10-21T09:05:05.000Z</time>
      </trkpt>
      <trkpt lon="7.119066948071122" lat="46.14720191806555">
        <ele>600.4000244140625</ele>
        <time>2015-10-21T09:05:16.000Z</time>
      </trkpt>
      <trkpt lon="7.1192579716444016" lat="46.147279953584075">
        <ele>601.7999877929688</ele>
        <time>2015-10-21T09:05:26.000Z</time>
      </trkpt>
      <trkpt lon="7.11945092305541" lat="46.14735899493098">
        <ele>601.7999877929688</ele>
        <time>2015-10-21T09:05:36.000Z</time>
      </trkpt>
      <trkpt lon="7.11972895078361" lat="46.14745697937906">
        <ele>601.2000122070312</ele>
        <time>2015-10-21T09:05:50.000Z</time>
      </trkpt>
      <trkpt lon="7.119926931336522" lat="46.14753099158406">
        <ele>601.0</ele>
        <time>2015-10-21T09:06:01.000Z</time>
      </trkpt>
      <trkpt lon="7.120139999315143" lat="46.1476309876889">
        <ele>599.4000244140625</ele>
        <time>2015-10-21T09:06:13.000Z</time>
      </trkpt>
      <trkpt lon="7.120318952947855" lat="46.14773592911661">
        <ele>598.5999755859375</ele>
        <time>2015-10-21T09:06:25.000Z</time>
      </trkpt>
      <trkpt lon="7.120486926287413" lat="46.14785394631326">
        <ele>598.7999877929688</ele>
        <time>2015-10-21T09:06:36.000Z</time>
      </trkpt>
      <trkpt lon="7.120595974847674" lat="46.14794799126685">
        <ele>599.4000244140625</ele>
        <time>2015-10-21T09:06:45.000Z</time>
      </trkpt>
      <trkpt lon="7.120722960680723" lat="46.14810599014163">
        <ele>602.2000122070312</ele>
        <time>2015-10-21T09:06:58.000Z</time>
      </trkpt>
      <trkpt lon="7.120825974270701" lat="46.14829491823912">
        <ele>603.4000244140625</ele>
        <time>2015-10-21T09:07:12.000Z</time>
      </trkpt>
      <trkpt lon="7.120894957333803" lat="46.14844696596265">
        <ele>605.2000122070312</ele>
        <time>2015-10-21T09:07:23.000Z</time>
      </trkpt>
      <trkpt lon="7.1209269762039185" lat="46.14860395900905">
        <ele>607.4000244140625</ele>
        <time>2015-10-21T09:07:34.000Z</time>
      </trkpt>
      <trkpt lon="7.120940973982215" lat="46.14868291653693">
        <ele>608.5999755859375</ele>
        <time>2015-10-21T09:07:40.000Z</time>
      </trkpt>
      <trkpt lon="7.120957989245653" lat="46.14884393289685">
        <ele>611.2000122070312</ele>
        <time>2015-10-21T09:07:50.000Z</time>
      </trkpt>
      <trkpt lon="7.1209649462252855" lat="46.148999920114875">
        <ele>615.7999877929688</ele>
        <time>2015-10-21T09:08:00.000Z</time>
      </trkpt>
      <trkpt lon="7.120999982580543" lat="46.14913797006011">
        <ele>622.7999877929688</ele>
        <time>2015-10-21T09:08:09.000Z</time>
      </trkpt>
      <trkpt lon="7.1210939437150955" lat="46.14927099086344">
        <ele>628.7999877929688</ele>
        <time>2015-10-21T09:08:19.000Z</time>
      </trkpt>
      <trkpt lon="7.1211999747902155" lat="46.14935891702771">
        <ele>632.4000244140625</ele>
        <time>2015-10-21T09:08:27.000Z</time>
      </trkpt>
      <trkpt lon="7.121211960911751" lat="46.149362940341234">
        <ele>632.4000244140625</ele>
        <time>2015-10-21T09:08:28.000Z</time>
      </trkpt>
      <trkpt lon="7.1213869750499725" lat="46.14942094311118">
        <ele>633.4000244140625</ele>
        <time>2015-10-21T09:08:37.000Z</time>
      </trkpt>
      <trkpt lon="7.121580932289362" lat="46.14942396059632">
        <ele>631.4000244140625</ele>
        <time>2015-10-21T09:08:46.000Z</time>
      </trkpt>
      <trkpt lon="7.12176994420588" lat="46.14940191619098">
        <ele>626.5999755859375</ele>
        <time>2015-10-21T09:08:55.000Z</time>
      </trkpt>
      <trkpt lon="7.122002961114049" lat="46.14935891702771">
        <ele>619.7999877929688</ele>
        <time>2015-10-21T09:09:06.000Z</time>
      </trkpt>
      <trkpt lon="7.122227931395173" lat="46.14931692369282">
        <ele>616.5999755859375</ele>
        <time>2015-10-21T09:09:17.000Z</time>
      </trkpt>
      <trkpt lon="7.12239196524024" lat="46.14933293312788">
        <ele>616.2000122070312</ele>
        <time>2015-10-21T09:09:26.000Z</time>
      </trkpt>
      <trkpt lon="7.122515933588147" lat="46.149381967261434">
        <ele>615.5999755859375</ele>
        <time>2015-10-21T09:09:35.000Z</time>
      </trkpt>
      <trkpt lon="7.122616935521364" lat="46.149444999173284">
        <ele>615.2000122070312</ele>
        <time>2015-10-21T09:09:43.000Z</time>
      </trkpt>
      <trkpt lon="7.122678961604834" lat="46.14958891645074">
        <ele>619.2000122070312</ele>
        <time>2015-10-21T09:09:54.000Z</time>
      </trkpt>
      <trkpt lon="7.122701928019524" lat="46.149729983881116">
        <ele>624.2000122070312</ele>
        <time>2015-10-21T09:10:05.000Z</time>
      </trkpt>
      <trkpt lon="7.122724978253245" lat="46.149877924472094">
        <ele>629.0</ele>
        <time>2015-10-21T09:10:16.000Z</time>
      </trkpt>
      <trkpt lon="7.122748950496316" lat="46.15002393722534">
        <ele>633.5999755859375</ele>
        <time>2015-10-21T09:10:27.000Z</time>
      </trkpt>
      <trkpt lon="7.122763954102993" lat="46.15012896247208">
        <ele>636.5999755859375</ele>
        <time>2015-10-21T09:10:35.000Z</time>
      </trkpt>
      <trkpt lon="7.122773928567767" lat="46.15027698688209">
        <ele>639.4000244140625</ele>
        <time>2015-10-21T09:10:46.000Z</time>
      </trkpt>
      <trkpt lon="7.122782981023192" lat="46.15043397992849">
        <ele>642.4000244140625</ele>
        <time>2015-10-21T09:10:57.000Z</time>
      </trkpt>
      <trkpt lon="7.1227929554879665" lat="46.15058594383299">
        <ele>645.4000244140625</ele>
        <time>2015-10-21T09:11:08.000Z</time>
      </trkpt>
      <trkpt lon="7.122828997671604" lat="46.1507979221642">
        <ele>654.2000122070312</ele>
        <time>2015-10-21T09:11:21.000Z</time>
      </trkpt>
      <trkpt lon="7.1229849848896265" lat="46.15094695240259">
        <ele>659.0</ele>
        <time>2015-10-21T09:11:32.000Z</time>
      </trkpt>
      <trkpt lon="7.123181959614158" lat="46.151036974042654">
        <ele>660.4000244140625</ele>
        <time>2015-10-21T09:11:42.000Z</time>
      </trkpt>
      <trkpt lon="7.123416988179088" lat="46.15109296515584">
        <ele>660.0</ele>
        <time>2015-10-21T09:11:53.000Z</time>
      </trkpt>
      <trkpt lon="7.123623937368393" lat="46.151128923520446">
        <ele>659.5999755859375</ele>
        <time>2015-10-21T09:12:03.000Z</time>
      </trkpt>
      <trkpt lon="7.123850919306278" lat="46.15117695182562">
        <ele>659.2000122070312</ele>
        <time>2015-10-21T09:12:15.000Z</time>
      </trkpt>
      <trkpt lon="7.124028950929642" lat="46.151258926838636">
        <ele>660.5999755859375</ele>
        <time>2015-10-21T09:12:25.000Z</time>
      </trkpt>
      <trkpt lon="7.1242619678378105" lat="46.15136596374214">
        <ele>661.5999755859375</ele>
        <time>2015-10-21T09:12:38.000Z</time>
      </trkpt>
      <trkpt lon="7.1244539972394705" lat="46.15145397372544">
        <ele>662.0</ele>
        <time>2015-10-21T09:12:49.000Z</time>
      </trkpt>
      <trkpt lon="7.124574948102236" lat="46.15150895901024">
        <ele>661.4000244140625</ele>
        <time>2015-10-21T09:12:56.000Z</time>
      </trkpt>
      <trkpt lon="7.124748956412077" lat="46.15160099230707">
        <ele>661.4000244140625</ele>
        <time>2015-10-21T09:13:07.000Z</time>
      </trkpt>
      <trkpt lon="7.124945931136608" lat="46.1517099570483">
        <ele>661.4000244140625</ele>
        <time>2015-10-21T09:13:19.000Z</time>
      </trkpt>
      <trkpt lon="7.125102924183011" lat="46.15180492401123">
        <ele>663.4000244140625</ele>
        <time>2015-10-21T09:13:29.000Z</time>
      </trkpt>
      <trkpt lon="7.1252859849482775" lat="46.15193098783493">
        <ele>666.2000122070312</ele>
        <time>2015-10-21T09:13:41.000Z</time>
      </trkpt>
      <trkpt lon="7.125453958287835" lat="46.152049927040935">
        <ele>668.7999877929688</ele>
        <time>2015-10-21T09:13:52.000Z</time>
      </trkpt>
      <trkpt lon="7.125470973551273" lat="46.15208395756781">
        <ele>670.0</ele>
        <time>2015-10-21T09:13:58.000Z</time>
      </trkpt>
      <trkpt lon="7.125470973551273" lat="46.15210591815412">
        <ele>670.7999877929688</ele>
        <time>2015-10-21T09:14:04.000Z</time>
      </trkpt>
      <trkpt lon="7.125360919162631" lat="46.15214296616614">
        <ele>673.5999755859375</ele>
        <time>2015-10-21T09:14:10.000Z</time>
      </trkpt>
      <trkpt lon="7.125191939994693" lat="46.15209896117449">
        <ele>674.0</ele>
        <time>2015-10-21T09:14:18.000Z</time>
      </trkpt>
      <trkpt lon="7.1249879244714975" lat="46.152003994211555">
        <ele>672.5999755859375</ele>
        <time>2015-10-21T09:14:29.000Z</time>
      </trkpt>
      <trkpt lon="7.124830931425095" lat="46.15193392150104">
        <ele>672.7999877929688</ele>
        <time>2015-10-21T09:14:38.000Z</time>
      </trkpt>
      <trkpt lon="7.124651977792382" lat="46.15186996757984">
        <ele>674.2000122070312</ele>
        <time>2015-10-21T09:14:48.000Z</time>
      </trkpt>
      <trkpt lon="7.124435976147652" lat="46.151836942881346">
        <ele>678.0</ele>
        <time>2015-10-21T09:14:58.000Z</time>
      </trkpt>
      <trkpt lon="7.124215951189399" lat="46.151814982295036">
        <ele>683.2000122070312</ele>
        <time>2015-10-21T09:15:09.000Z</time>
      </trkpt>
      <trkpt lon="7.124000955373049" lat="46.15178095176816">
        <ele>686.0</ele>
        <time>2015-10-21T09:15:20.000Z</time>
      </trkpt>
      <trkpt lon="7.123834993690252" lat="46.15173099562526">
        <ele>685.4000244140625</ele>
        <time>2015-10-21T09:15:28.000Z</time>
      </trkpt>
      <trkpt lon="7.123613962903619" lat="46.15167399868369">
        <ele>685.2000122070312</ele>
        <time>2015-10-21T09:15:39.000Z</time>
      </trkpt>
      <trkpt lon="7.1234809421002865" lat="46.15166092291474">
        <ele>686.2000122070312</ele>
        <time>2015-10-21T09:15:46.000Z</time>
      </trkpt>
      <trkpt lon="7.123270975425839" lat="46.15167994983494">
        <ele>693.4000244140625</ele>
        <time>2015-10-21T09:15:57.000Z</time>
      </trkpt>
      <trkpt lon="7.12305991910398" lat="46.151704927906394">
        <ele>696.2000122070312</ele>
        <time>2015-10-21T09:16:08.000Z</time>
      </trkpt>
      <trkpt lon="7.122891945764422" lat="46.151725966483355">
        <ele>698.5999755859375</ele>
        <time>2015-10-21T09:16:17.000Z</time>
      </trkpt>
      <trkpt lon="7.122738976031542" lat="46.151745999231935">
        <ele>700.7999877929688</ele>
        <time>2015-10-21T09:16:25.000Z</time>
      </trkpt>
      <trkpt lon="7.122524986043572" lat="46.15176293067634">
        <ele>705.0</ele>
        <time>2015-10-21T09:16:35.000Z</time>
      </trkpt>
      <trkpt lon="7.1222669910639524" lat="46.15176393650472">
        <ele>708.4000244140625</ele>
        <time>2015-10-21T09:16:47.000Z</time>
      </trkpt>
      <trkpt lon="7.122087953612208" lat="46.15179595537484">
        <ele>713.0</ele>
        <time>2015-10-21T09:16:56.000Z</time>
      </trkpt>
      <trkpt lon="7.121903970837593" lat="46.15184197202325">
        <ele>717.0</ele>
        <time>2015-10-21T09:17:05.000Z</time>
      </trkpt>
      <trkpt lon="7.1217159647494555" lat="46.15186996757984">
        <ele>717.5999755859375</ele>
        <time>2015-10-21T09:17:14.000Z</time>
      </trkpt>
      <trkpt lon="7.1215239353477955" lat="46.151855969801545">
        <ele>719.4000244140625</ele>
        <time>2015-10-21T09:17:23.000Z</time>
      </trkpt>
      <trkpt lon="7.121345987543464" lat="46.15178992040455">
        <ele>723.0</ele>
        <time>2015-10-21T09:17:33.000Z</time>
      </trkpt>
      <trkpt lon="7.1211999747902155" lat="46.151724960654974">
        <ele>725.2000122070312</ele>
        <time>2015-10-21T09:17:42.000Z</time>
      </trkpt>
      <trkpt lon="7.121118921786547" lat="46.15161197260022">
        <ele>722.4000244140625</ele>
        <time>2015-10-21T09:17:50.000Z</time>
      </trkpt>
      <trkpt lon="7.121067959815264" lat="46.15149898454547">
        <ele>718.2000122070312</ele>
        <time>2015-10-21T09:17:58.000Z</time>
      </trkpt>
      <trkpt lon="7.121051950380206" lat="46.15138993598521">
        <ele>713.7999877929688</ele>
        <time>2015-10-21T09:18:06.000Z</time>
      </trkpt>
      <trkpt lon="7.121036946773529" lat="46.15128398872912">
        <ele>710.0</ele>
        <time>2015-10-21T09:18:14.000Z</time>
      </trkpt>
      <trkpt lon="7.121010962873697" lat="46.151208970695734">
        <ele>708.0</ele>
        <time>2015-10-21T09:18:21.000Z</time>
      </trkpt>
      <trkpt lon="7.12095195427537" lat="46.151148956269026">
        <ele>707.7999877929688</ele>
        <time>2015-10-21T09:18:27.000Z</time>
      </trkpt>
      <trkpt lon="7.120880959555507" lat="46.15109296515584">
        <ele>708.4000244140625</ele>
        <time>2015-10-21T09:18:36.000Z</time>
      </trkpt>
      <trkpt lon="7.1207069512456656" lat="46.15105298347771">
        <ele>711.7999877929688</ele>
        <time>2015-10-21T09:18:45.000Z</time>
      </trkpt>
      <trkpt lon="7.120490949600935" lat="46.15104996599257">
        <ele>713.5999755859375</ele>
        <time>2015-10-21T09:18:56.000Z</time>
      </trkpt>
      <trkpt lon="7.120300931856036" lat="46.1510759498924">
        <ele>718.0</ele>
        <time>2015-10-21T09:19:05.000Z</time>
      </trkpt>
      <trkpt lon="7.1200749557465315" lat="46.1511449329555">
        <ele>727.2000122070312</ele>
        <time>2015-10-21T09:19:17.000Z</time>
      </trkpt>
      <trkpt lon="7.119853924959898" lat="46.151149962097406">
        <ele>734.2000122070312</ele>
        <time>2015-10-21T09:19:28.000Z</time>
      </trkpt>
      <trkpt lon="7.119678994640708" lat="46.151127917692065">
        <ele>740.2000122070312</ele>
        <time>2015-10-21T09:19:37.000Z</time>
      </trkpt>
      <trkpt lon="7.11953398771584" lat="46.151082990691066">
        <ele>743.0</ele>
        <time>2015-10-21T09:19:46.000Z</time>
      </trkpt>
      <trkpt lon="7.119390992447734" lat="46.150997998192906">
        <ele>743.4000244140625</ele>
        <time>2015-10-21T09:19:54.000Z</time>
      </trkpt>
      <trkpt lon="7.119291918352246" lat="46.15088693797588">
        <ele>741.4000244140625</ele>
        <time>2015-10-21T09:20:03.000Z</time>
      </trkpt>
      <trkpt lon="7.1192229352891445" lat="46.150736985728145">
        <ele>737.0</ele>
        <time>2015-10-21T09:20:13.000Z</time>
      </trkpt>
      <trkpt lon="7.119154958054423" lat="46.15062491968274">
        <ele>733.7999877929688</ele>
        <time>2015-10-21T09:20:22.000Z</time>
      </trkpt>
      <trkpt lon="7.119077928364277" lat="46.150525929406285">
        <ele>732.5999755859375</ele>
        <time>2015-10-21T09:20:31.000Z</time>
      </trkpt>
      <trkpt lon="7.11899695917964" lat="46.15045493468642">
        <ele>732.5999755859375</ele>
        <time>2015-10-21T09:20:38.000Z</time>
      </trkpt>
      <trkpt lon="7.118839966133237" lat="46.15033993497491">
        <ele>733.5999755859375</ele>
        <time>2015-10-21T09:20:50.000Z</time>
      </trkpt>
      <trkpt lon="7.118710968643427" lat="46.15027095191181">
        <ele>735.4000244140625</ele>
        <time>2015-10-21T09:20:59.000Z</time>
      </trkpt>
      <trkpt lon="7.118581971153617" lat="46.15020599216223">
        <ele>737.5999755859375</ele>
        <time>2015-10-21T09:21:07.000Z</time>
      </trkpt>
      <trkpt lon="7.118465965613723" lat="46.15014899522066">
        <ele>739.5999755859375</ele>
        <time>2015-10-21T09:21:18.000Z</time>
      </trkpt>
      <trkpt lon="7.11824594065547" lat="46.15003793500364">
        <ele>742.7999877929688</ele>
        <time>2015-10-21T09:21:28.000Z</time>
      </trkpt>
      <trkpt lon="7.118148962035775" lat="46.1499899905175">
        <ele>743.0</ele>
        <time>2015-10-21T09:21:35.000Z</time>
      </trkpt>
      <trkpt lon="7.118035973981023" lat="46.14995394833386">
        <ele>744.0</ele>
        <time>2015-10-21T09:21:41.000Z</time>
      </trkpt>
      <trkpt lon="7.117875963449478" lat="46.14990692585707">
        <ele>745.5999755859375</ele>
        <time>2015-10-21T09:21:50.000Z</time>
      </trkpt>
      <trkpt lon="7.117761969566345" lat="46.14987297914922">
        <ele>746.7999877929688</ele>
        <time>2015-10-21T09:21:57.000Z</time>
      </trkpt>
      <trkpt lon="7.117618974298239" lat="46.14983199164271">
        <ele>748.2000122070312</ele>
        <time>2015-10-21T09:22:06.000Z</time>
      </trkpt>
      <trkpt lon="7.117453934624791" lat="46.149772983044386">
        <ele>749.5999755859375</ele>
        <time>2015-10-21T09:22:17.000Z</time>
      </trkpt>
      <trkpt lon="7.117258971557021" lat="46.149682961404324">
        <ele>752.2000122070312</ele>
        <time>2015-10-21T09:22:29.000Z</time>
      </trkpt>
      <trkpt lon="7.117144977673888" lat="46.149603920057416">
        <ele>752.7999877929688</ele>
        <time>2015-10-21T09:22:37.000Z</time>
      </trkpt>
      <trkpt lon="7.116987984627485" lat="46.14944692701101">
        <ele>751.4000244140625</ele>
        <time>2015-10-21T09:22:50.000Z</time>
      </trkpt>
      <trkpt lon="7.116851946339011" lat="46.14930694922805">
        <ele>750.2000122070312</ele>
        <time>2015-10-21T09:23:02.000Z</time>
      </trkpt>
      <trkpt lon="7.116717919707298" lat="46.14918298088014">
        <ele>749.4000244140625</ele>
        <time>2015-10-21T09:23:13.000Z</time>
      </trkpt>
      <trkpt lon="7.11661197245121" lat="46.14909094758332">
        <ele>749.2000122070312</ele>
        <time>2015-10-21T09:23:22.000Z</time>
      </trkpt>
      <trkpt lon="7.116465959697962" lat="46.148996986448765">
        <ele>749.4000244140625</ele>
        <time>2015-10-21T09:23:32.000Z</time>
      </trkpt>
      <trkpt lon="7.116292957216501" lat="46.14892791956663">
        <ele>751.4000244140625</ele>
        <time>2015-10-21T09:23:43.000Z</time>
      </trkpt>
      <trkpt lon="7.116139987483621" lat="46.148891961202025">
        <ele>753.5999755859375</ele>
        <time>2015-10-21T09:23:51.000Z</time>
      </trkpt>
      <trkpt lon="7.115906970575452" lat="46.1488519795239">
        <ele>758.0</ele>
        <time>2015-10-21T09:24:03.000Z</time>
      </trkpt>
      <trkpt lon="7.115701949223876" lat="46.148828929290175">
        <ele>762.0</ele>
        <time>2015-10-21T09:24:13.000Z</time>
      </trkpt>
      <trkpt lon="7.115444960072637" lat="46.148822978138924">
        <ele>764.7999877929688</ele>
        <time>2015-10-21T09:24:26.000Z</time>
      </trkpt>
      <trkpt lon="7.115272963419557" lat="46.148822978138924">
        <ele>766.4000244140625</ele>
        <time>2015-10-21T09:24:35.000Z</time>
      </trkpt>
      <trkpt lon="7.115123933181167" lat="46.14885298535228">
        <ele>769.5999755859375</ele>
        <time>2015-10-21T09:24:43.000Z</time>
      </trkpt>
      <trkpt lon="7.1149219293147326" lat="46.14886094816029">
        <ele>771.7999877929688</ele>
        <time>2015-10-21T09:24:53.000Z</time>
      </trkpt>
      <trkpt lon="7.114733923226595" lat="46.148849967867136">
        <ele>774.4000244140625</ele>
        <time>2015-10-21T09:25:03.000Z</time>
      </trkpt>
      <trkpt lon="7.114544995129108" lat="46.148827923461795">
        <ele>777.0</ele>
        <time>2015-10-21T09:25:13.000Z</time>
      </trkpt>
      <trkpt lon="7.11435497738421" lat="46.14879196509719">
        <ele>778.5999755859375</ele>
        <time>2015-10-21T09:25:23.000Z</time>
      </trkpt>
      <trkpt lon="7.114116931334138" lat="46.14873396232724">
        <ele>780.0</ele>
        <time>2015-10-21T09:25:35.000Z</time>
      </trkpt>
      <trkpt lon="7.1139229740947485" lat="46.14868291653693">
        <ele>779.7999877929688</ele>
        <time>2015-10-21T09:25:45.000Z</time>
      </trkpt>
      <trkpt lon="7.113725999370217" lat="46.14862591959536">
        <ele>779.0</ele>
        <time>2015-10-21T09:25:55.000Z</time>
      </trkpt>
      <trkpt lon="7.113530952483416" lat="46.148568922653794">
        <ele>778.2000122070312</ele>
        <time>2015-10-21T09:26:05.000Z</time>
      </trkpt>
      <trkpt lon="7.113340934738517" lat="46.14852994680405">
        <ele>778.4000244140625</ele>
        <time>2015-10-21T09:26:14.000Z</time>
      </trkpt>
      <trkpt lon="7.113267928361893" lat="46.14864494651556">
        <ele>786.2000122070312</ele>
        <time>2015-10-21T09:26:20.000Z</time>
      </trkpt>
      <trkpt lon="7.113358955830336" lat="46.14868794567883">
        <ele>787.5999755859375</ele>
        <time>2015-10-21T09:26:23.000Z</time>
      </trkpt>
      <trkpt lon="7.113588955253363" lat="46.148742930963635">
        <ele>787.7999877929688</ele>
        <time>2015-10-21T09:26:33.000Z</time>
      </trkpt>
      <trkpt lon="7.113777967169881" lat="46.14880193956196">
        <ele>788.7999877929688</ele>
        <time>2015-10-21T09:26:43.000Z</time>
      </trkpt>
      <trkpt lon="7.113969996571541" lat="46.14887494593859">
        <ele>790.7999877929688</ele>
        <time>2015-10-21T09:26:53.000Z</time>
      </trkpt>
      <trkpt lon="7.11414098739624" lat="46.148935966193676">
        <ele>791.7999877929688</ele>
        <time>2015-10-21T09:27:02.000Z</time>
      </trkpt>
      <trkpt lon="7.114308960735798" lat="46.14902397617698">
        <ele>793.0</ele>
        <time>2015-10-21T09:27:13.000Z</time>
      </trkpt>
      <trkpt lon="7.114456985145807" lat="46.14911299198866">
        <ele>794.4000244140625</ele>
        <time>2015-10-21T09:27:23.000Z</time>
      </trkpt>
      <trkpt lon="7.114617917686701" lat="46.14922497421503">
        <ele>796.7999877929688</ele>
        <time>2015-10-21T09:27:34.000Z</time>
      </trkpt>
      <trkpt lon="7.114811958745122" lat="46.14936092868447">
        <ele>799.5999755859375</ele>
        <time>2015-10-21T09:27:47.000Z</time>
      </trkpt>
      <trkpt lon="7.114968951791525" lat="46.14946494810283">
        <ele>801.5999755859375</ele>
        <time>2015-10-21T09:27:57.000Z</time>
      </trkpt>
      <trkpt lon="7.115106917917728" lat="46.14955195225775">
        <ele>803.2000122070312</ele>
        <time>2015-10-21T09:28:06.000Z</time>
      </trkpt>
      <trkpt lon="7.115253936499357" lat="46.14964993670583">
        <ele>805.2000122070312</ele>
        <time>2015-10-21T09:28:15.000Z</time>
      </trkpt>
      <trkpt lon="7.115376982837915" lat="46.14973593503237">
        <ele>807.0</ele>
        <time>2015-10-21T09:28:24.000Z</time>
      </trkpt>
      <trkpt lon="7.115513943135738" lat="46.14990298636258">
        <ele>812.7999877929688</ele>
        <time>2015-10-21T09:28:37.000Z</time>
      </trkpt>
      <trkpt lon="7.115585943683982" lat="46.14999393001199">
        <ele>816.0</ele>
        <time>2015-10-21T09:28:45.000Z</time>
      </trkpt>
      <trkpt lon="7.115643946453929" lat="46.150095937773585">
        <ele>820.2000122070312</ele>
        <time>2015-10-21T09:28:54.000Z</time>
      </trkpt>
      <trkpt lon="7.115648975595832" lat="46.15010398440063">
        <ele>820.4000244140625</ele>
        <time>2015-10-21T09:28:57.000Z</time>
      </trkpt>
      <trkpt lon="7.115648975595832" lat="46.15010398440063">
        <ele>820.4000244140625</ele>
        <time>2015-10-21T09:34:17.000Z</time>
      </trkpt>
      <trkpt lon="7.115718964487314" lat="46.150177996605635">
        <ele>822.7999877929688</ele>
        <time>2015-10-21T09:34:36.000Z</time>
      </trkpt>
      <trkpt lon="7.115870928391814" lat="46.1502849496901">
        <ele>823.7999877929688</ele>
        <time>2015-10-21T09:34:45.000Z</time>
      </trkpt>
      <trkpt lon="7.116043930873275" lat="46.15036893635988">
        <ele>822.0</ele>
        <time>2015-10-21T09:34:52.000Z</time>
      </trkpt>
      <trkpt lon="7.116226991638541" lat="46.15046893246472">
        <ele>820.7999877929688</ele>
        <time>2015-10-21T09:35:00.000Z</time>
      </trkpt>
      <trkpt lon="7.116339979693294" lat="46.15053598769009">
        <ele>820.4000244140625</ele>
        <time>2015-10-21T09:35:06.000Z</time>
      </trkpt>
      <trkpt lon="7.116510970517993" lat="46.15064696408808">
        <ele>820.4000244140625</ele>
        <time>2015-10-21T09:35:14.000Z</time>
      </trkpt>
      <trkpt lon="7.116660922765732" lat="46.15075198933482">
        <ele>821.2000122070312</ele>
        <time>2015-10-21T09:35:23.000Z</time>
      </trkpt>
      <trkpt lon="7.116827974095941" lat="46.150867994874716">
        <ele>822.0</ele>
        <time>2015-10-21T09:35:34.000Z</time>
      </trkpt>
      <trkpt lon="7.117033917456865" lat="46.151016941294074">
        <ele>823.5999755859375</ele>
        <time>2015-10-21T09:35:48.000Z</time>
      </trkpt>
      <trkpt lon="7.117201974615455" lat="46.15115398541093">
        <ele>825.5999755859375</ele>
        <time>2015-10-21T09:36:01.000Z</time>
      </trkpt>
      <trkpt lon="7.117345975711942" lat="46.15126898512244">
        <ele>827.4000244140625</ele>
        <time>2015-10-21T09:36:11.000Z</time>
      </trkpt>
      <trkpt lon="7.117533981800079" lat="46.15140996873379">
        <ele>828.4000244140625</ele>
        <time>2015-10-21T09:36:24.000Z</time>
      </trkpt>
      <trkpt lon="7.117678988724947" lat="46.15152698010206">
        <ele>827.7999877929688</ele>
        <time>2015-10-21T09:36:36.000Z</time>
      </trkpt>
      <trkpt lon="7.117804968729615" lat="46.15166997537017">
        <ele>828.4000244140625</ele>
        <time>2015-10-21T09:36:48.000Z</time>
      </trkpt>
      <trkpt lon="7.117834975942969" lat="46.15177592262626">
        <ele>831.4000244140625</ele>
        <time>2015-10-21T09:36:58.000Z</time>
      </trkpt>
      <trkpt lon="7.117847967892885" lat="46.15190198644996">
        <ele>836.0</ele>
        <time>2015-10-21T09:37:08.000Z</time>
      </trkpt>
      <trkpt lon="7.117833970114589" lat="46.15203894674778">
        <ele>842.4000244140625</ele>
        <time>2015-10-21T09:37:17.000Z</time>
      </trkpt>
      <trkpt lon="7.117847967892885" lat="46.15214891731739">
        <ele>846.4000244140625</ele>
        <time>2015-10-21T09:37:24.000Z</time>
      </trkpt>
      <trkpt lon="7.117865988984704" lat="46.15225394256413">
        <ele>850.0</ele>
        <time>2015-10-21T09:37:32.000Z</time>
      </trkpt>
      <trkpt lon="7.11796497926116" lat="46.15240498445928">
        <ele>853.4000244140625</ele>
        <time>2015-10-21T09:37:42.000Z</time>
      </trkpt>
      <trkpt lon="7.1181099861860275" lat="46.152519984170794">
        <ele>853.0</ele>
        <time>2015-10-21T09:37:52.000Z</time>
      </trkpt>
      <trkpt lon="7.1183049492537975" lat="46.15261897444725">
        <ele>850.0</ele>
        <time>2015-10-21T09:38:03.000Z</time>
      </trkpt>
      <trkpt lon="7.118477951735258" lat="46.15268594585359">
        <ele>846.4000244140625</ele>
        <time>2015-10-21T09:38:13.000Z</time>
      </trkpt>
      <trkpt lon="7.1186059433966875" lat="46.15274696610868">
        <ele>844.4000244140625</ele>
        <time>2015-10-21T09:38:23.000Z</time>
      </trkpt>
      <trkpt lon="7.118692947551608" lat="46.152819972485304">
        <ele>844.5999755859375</ele>
        <time>2015-10-21T09:38:32.000Z</time>
      </trkpt>
      <trkpt lon="7.118765953928232" lat="46.15295995026827">
        <ele>848.7999877929688</ele>
        <time>2015-10-21T09:38:42.000Z</time>
      </trkpt>
      <trkpt lon="7.118864944204688" lat="46.15314996801317">
        <ele>854.7999877929688</ele>
        <time>2015-10-21T09:38:56.000Z</time>
      </trkpt>
      <trkpt lon="7.1189649403095245" lat="46.15332799963653">
        <ele>861.4000244140625</ele>
        <time>2015-10-21T09:39:09.000Z</time>
      </trkpt>
      <trkpt lon="7.11910299025476" lat="46.153465965762734">
        <ele>864.0</ele>
        <time>2015-10-21T09:39:20.000Z</time>
      </trkpt>
      <trkpt lon="7.119245985522866" lat="46.153552969917655">
        <ele>865.4000244140625</ele>
        <time>2015-10-21T09:39:29.000Z</time>
      </trkpt>
      <trkpt lon="7.11927792057395" lat="46.15356897935271">
        <ele>865.4000244140625</ele>
        <time>2015-10-21T09:39:32.000Z</time>
      </trkpt>
      <trkpt lon="7.119332989677787" lat="46.153596974909306">
        <ele>865.5999755859375</ele>
        <time>2015-10-21T09:39:37.000Z</time>
      </trkpt>
      <trkpt lon="7.1194479893893" lat="46.15364894270897">
        <ele>865.5999755859375</ele>
        <time>2015-10-21T09:39:44.000Z</time>
      </trkpt>
      <trkpt lon="7.119461987167597" lat="46.15365497767925">
        <ele>865.5999755859375</ele>
        <time>2015-10-21T09:39:45.000Z</time>
      </trkpt>
      <trkpt lon="7.119483947753906" lat="46.153663946315646">
        <ele>865.5999755859375</ele>
        <time>2015-10-21T09:39:47.000Z</time>
      </trkpt>
      <trkpt lon="7.119522923603654" lat="46.15367894992232">
        <ele>865.4000244140625</ele>
        <time>2015-10-21T09:39:49.000Z</time>
      </trkpt>
      <trkpt lon="7.119591990485787" lat="46.153706945478916">
        <ele>865.2000122070312</ele>
        <time>2015-10-21T09:39:56.000Z</time>
      </trkpt>
      <trkpt lon="7.119628954678774" lat="46.153724966570735">
        <ele>865.4000244140625</ele>
        <time>2015-10-21T09:39:59.000Z</time>
      </trkpt>
      <trkpt lon="7.119763987138867" lat="46.15381599403918">
        <ele>867.2000122070312</ele>
        <time>2015-10-21T09:40:08.000Z</time>
      </trkpt>
      <trkpt lon="7.119827941060066" lat="46.15386896766722">
        <ele>868.5999755859375</ele>
        <time>2015-10-21T09:40:12.000Z</time>
      </trkpt>
      <trkpt lon="7.119842944666743" lat="46.15388195961714">
        <ele>869.0</ele>
        <time>2015-10-21T09:40:13.000Z</time>
      </trkpt>
      <trkpt lon="7.119933972135186" lat="46.153961922973394">
        <ele>871.4000244140625</ele>
        <time>2015-10-21T09:40:18.000Z</time>
      </trkpt>
      <trkpt lon="7.1202239859849215" lat="46.15410894155502">
        <ele>876.5999755859375</ele>
        <time>2015-10-21T09:40:26.000Z</time>
      </trkpt>
      <trkpt lon="7.1203759498894215" lat="46.15415998734534">
        <ele>877.4000244140625</ele>
        <time>2015-10-21T09:40:31.000Z</time>
      </trkpt>
      <trkpt lon="7.120515927672386" lat="46.15420499816537">
        <ele>878.2000122070312</ele>
        <time>2015-10-21T09:40:35.000Z</time>
      </trkpt>
      <trkpt lon="7.120360946282744" lat="46.154153952375054">
        <ele>877.4000244140625</ele>
        <time>2015-10-21T09:40:42.000Z</time>
      </trkpt>
      <trkpt lon="7.120591951534152" lat="46.1542259529233">
        <ele>878.2000122070312</ele>
        <time>2015-10-21T09:40:55.000Z</time>
      </trkpt>
      <trkpt lon="7.12078096345067" lat="46.154283955693245">
        <ele>879.0</ele>
        <time>2015-10-21T09:41:06.000Z</time>
      </trkpt>
      <trkpt lon="7.120936950668693" lat="46.15433491766453">
        <ele>880.0</ele>
        <time>2015-10-21T09:41:15.000Z</time>
      </trkpt>
      <trkpt lon="7.121150940656662" lat="46.154411947354674">
        <ele>881.7999877929688</ele>
        <time>2015-10-21T09:41:26.000Z</time>
      </trkpt>
      <trkpt lon="7.121301982551813" lat="46.15445293486118">
        <ele>882.4000244140625</ele>
        <time>2015-10-21T09:41:34.000Z</time>
      </trkpt>
      <trkpt lon="7.121541956439614" lat="46.15448193624616">
        <ele>881.7999877929688</ele>
        <time>2015-10-21T09:41:45.000Z</time>
      </trkpt>
      <trkpt lon="7.121749995276332" lat="46.154518984258175">
        <ele>880.2000122070312</ele>
        <time>2015-10-21T09:41:56.000Z</time>
      </trkpt>
      <trkpt lon="7.1219109278172255" lat="46.15457899868488">
        <ele>880.0</ele>
        <time>2015-10-21T09:42:06.000Z</time>
      </trkpt>
      <trkpt lon="7.122052917256951" lat="46.15466499701142">
        <ele>882.2000122070312</ele>
        <time>2015-10-21T09:42:15.000Z</time>
      </trkpt>
      <trkpt lon="7.122145956382155" lat="46.15475191734731">
        <ele>885.4000244140625</ele>
        <time>2015-10-21T09:42:22.000Z</time>
      </trkpt>
      <trkpt lon="7.1222819946706295" lat="46.15488996729255">
        <ele>890.2000122070312</ele>
        <time>2015-10-21T09:42:32.000Z</time>
      </trkpt>
      <trkpt lon="7.122388947755098" lat="46.15495794452727">
        <ele>891.4000244140625</ele>
        <time>2015-10-21T09:42:38.000Z</time>
      </trkpt>
      <trkpt lon="7.122528925538063" lat="46.15502592176199">
        <ele>893.7999877929688</ele>
        <time>2015-10-21T09:42:44.000Z</time>
      </trkpt>
      <trkpt lon="7.122654989361763" lat="46.15507294423878">
        <ele>896.0</ele>
        <time>2015-10-21T09:42:50.000Z</time>
      </trkpt>
      <trkpt lon="7.122740987688303" lat="46.15510395728052">
        <ele>897.4000244140625</ele>
        <time>2015-10-21T09:42:53.000Z</time>
      </trkpt>
      <trkpt lon="7.1228559873998165" lat="46.155145950615406">
        <ele>898.7999877929688</ele>
        <time>2015-10-21T09:43:02.000Z</time>
      </trkpt>
      <trkpt lon="7.123031923547387" lat="46.15520998835564">
        <ele>900.2000122070312</ele>
        <time>2015-10-21T09:43:11.000Z</time>
      </trkpt>
      <trkpt lon="7.123161926865578" lat="46.15525793284178">
        <ele>901.4000244140625</ele>
        <time>2015-10-21T09:43:18.000Z</time>
      </trkpt>
      <trkpt lon="7.123305927962065" lat="46.15530998446047">
        <ele>902.7999877929688</ele>
        <time>2015-10-21T09:43:26.000Z</time>
      </trkpt>
      <trkpt lon="7.123345993459225" lat="46.15532498806715">
        <ele>903.5999755859375</ele>
        <time>2015-10-21T09:43:33.000Z</time>
      </trkpt>
      <trkpt lon="7.123760981485248" lat="46.155316941440105">
        <ele>899.5999755859375</ele>
        <time>2015-10-21T09:43:42.000Z</time>
      </trkpt>
      <trkpt lon="7.123984945937991" lat="46.15532599389553">
        <ele>898.4000244140625</ele>
        <time>2015-10-21T09:43:51.000Z</time>
      </trkpt>
      <trkpt lon="7.124232966452837" lat="46.15533194504678">
        <ele>897.0</ele>
        <time>2015-10-21T09:44:01.000Z</time>
      </trkpt>
      <trkpt lon="7.124479981139302" lat="46.155337980017066">
        <ele>895.7999877929688</ele>
        <time>2015-10-21T09:44:11.000Z</time>
      </trkpt>
      <trkpt lon="7.124728923663497" lat="46.15534393116832">
        <ele>894.5999755859375</ele>
        <time>2015-10-21T09:44:21.000Z</time>
      </trkpt>
      <trkpt lon="7.124912990257144" lat="46.15537494421005">
        <ele>896.2000122070312</ele>
        <time>2015-10-21T09:44:30.000Z</time>
      </trkpt>
      <trkpt lon="7.125083981081843" lat="46.15545599721372">
        <ele>895.4000244140625</ele>
        <time>2015-10-21T09:44:40.000Z</time>
      </trkpt>
      <trkpt lon="7.125169979408383" lat="46.15551793947816">
        <ele>896.0</ele>
        <time>2015-10-21T09:44:48.000Z</time>
      </trkpt>
      <trkpt lon="7.125169979408383" lat="46.15551793947816">
        <ele>896.0</ele>
        <time>2015-10-21T09:44:56.000Z</time>
      </trkpt>
      <trkpt lon="7.125596953555942" lat="46.15578096359968">
        <ele>893.4000244140625</ele>
        <time>2015-10-21T09:45:04.000Z</time>
      </trkpt>
      <trkpt lon="7.125727962702513" lat="46.15586092695594">
        <ele>892.0</ele>
        <time>2015-10-21T09:45:12.000Z</time>
      </trkpt>
      <trkpt lon="7.125768950209022" lat="46.156303994357586">
        <ele>912.2000122070312</ele>
        <time>2015-10-21T09:45:21.000Z</time>
      </trkpt>
      <trkpt lon="7.12602199986577" lat="46.156394938007">
        <ele>909.4000244140625</ele>
        <time>2015-10-21T09:45:30.000Z</time>
      </trkpt>
      <trkpt lon="7.126234984025359" lat="46.15649099461734">
        <ele>908.2000122070312</ele>
        <time>2015-10-21T09:45:37.000Z</time>
      </trkpt>
      <trkpt lon="7.1264089923352" lat="46.15657699294388">
        <ele>908.0</ele>
        <time>2015-10-21T09:45:44.000Z</time>
      </trkpt>
      <trkpt lon="7.126548970118165" lat="46.156646981835365">
        <ele>907.7999877929688</ele>
        <time>2015-10-21T09:45:52.000Z</time>
      </trkpt>
      <trkpt lon="7.12666698731482" lat="46.15670599043369">
        <ele>908.0</ele>
        <time>2015-10-21T09:45:59.000Z</time>
      </trkpt>
      <trkpt lon="7.126831943169236" lat="46.15677899681032">
        <ele>907.7999877929688</ele>
        <time>2015-10-21T09:46:05.000Z</time>
      </trkpt>
      <trkpt lon="7.127051968127489" lat="46.15687496960163">
        <ele>907.5999755859375</ele>
        <time>2015-10-21T09:46:14.000Z</time>
      </trkpt>
      <trkpt lon="7.127236956730485" lat="46.15695392712951">
        <ele>908.2000122070312</ele>
        <time>2015-10-21T09:46:21.000Z</time>
      </trkpt>
      <trkpt lon="7.1274329256266356" lat="46.157035985961556">
        <ele>908.7999877929688</ele>
        <time>2015-10-21T09:46:29.000Z</time>
      </trkpt>
      <trkpt lon="7.127528982236981" lat="46.15710496902466">
        <ele>910.4000244140625</ele>
        <time>2015-10-21T09:46:36.000Z</time>
      </trkpt>
      <trkpt lon="7.127571981400251" lat="46.157187949866056">
        <ele>913.4000244140625</ele>
        <time>2015-10-21T09:46:45.000Z</time>
      </trkpt>
      <trkpt lon="7.127563934773207" lat="46.15720094181597">
        <ele>914.2000122070312</ele>
        <time>2015-10-21T09:46:51.000Z</time>
      </trkpt>
      <trkpt lon="7.127551948651671" lat="46.15721292793751">
        <ele>915.0</ele>
        <time>2015-10-21T09:46:54.000Z</time>
      </trkpt>
      <trkpt lon="7.1275009866803885" lat="46.15721292793751">
        <ele>915.7999877929688</ele>
        <time>2015-10-21T09:47:02.000Z</time>
      </trkpt>
      <trkpt lon="7.1273749228566885" lat="46.15719691850245">
        <ele>917.4000244140625</ele>
        <time>2015-10-21T09:47:11.000Z</time>
      </trkpt>
      <trkpt lon="7.127253971993923" lat="46.15717998705804">
        <ele>919.4000244140625</ele>
        <time>2015-10-21T09:47:20.000Z</time>
      </trkpt>
      <trkpt lon="7.127146935090423" lat="46.15717797540128">
        <ele>921.7999877929688</ele>
        <time>2015-10-21T09:47:28.000Z</time>
      </trkpt>
      <trkpt lon="7.127122962847352" lat="46.15718292072415">
        <ele>922.7999877929688</ele>
        <time>2015-10-21T09:47:30.000Z</time>
      </trkpt>
      <trkpt lon="7.127031935378909" lat="46.157206976786256">
        <ele>926.4000244140625</ele>
        <time>2015-10-21T09:47:38.000Z</time>
      </trkpt>
      <trkpt lon="7.126998994499445" lat="46.157248970121145">
        <ele>929.5999755859375</ele>
        <time>2015-10-21T09:47:44.000Z</time>
      </trkpt>
      <trkpt lon="7.127049956470728" lat="46.157312924042344">
        <ele>931.7999877929688</ele>
        <time>2015-10-21T09:47:51.000Z</time>
      </trkpt>
      <trkpt lon="7.12707594037056" lat="46.15732298232615">
        <ele>931.5999755859375</ele>
        <time>2015-10-21T09:47:53.000Z</time>
      </trkpt>
      <trkpt lon="7.127167973667383" lat="46.15736899897456">
        <ele>932.0</ele>
        <time>2015-10-21T09:48:01.000Z</time>
      </trkpt>
      <trkpt lon="7.127188928425312" lat="46.1573809850961">
        <ele>932.0</ele>
        <time>2015-10-21T09:48:03.000Z</time>
      </trkpt>
      <trkpt lon="7.127301916480064" lat="46.15744896233082">
        <ele>933.0</ele>
        <time>2015-10-21T09:48:13.000Z</time>
      </trkpt>
      <trkpt lon="7.127400990575552" lat="46.15752096287906">
        <ele>934.4000244140625</ele>
        <time>2015-10-21T09:48:23.000Z</time>
      </trkpt>
      <trkpt lon="7.1274579875171185" lat="46.15758298896253">
        <ele>936.4000244140625</ele>
        <time>2015-10-21T09:48:31.000Z</time>
      </trkpt>
      <trkpt lon="7.1274399664253" lat="46.1576259881258">
        <ele>939.2000122070312</ele>
        <time>2015-10-21T09:48:39.000Z</time>
      </trkpt>
      <trkpt lon="7.1274329256266356" lat="46.15763193927705">
        <ele>939.7999877929688</ele>
        <time>2015-10-21T09:48:40.000Z</time>
      </trkpt>
      <trkpt lon="7.127465950325131" lat="46.15706297568977">
        <ele>909.5999755859375</ele>
        <time>2015-10-21T09:48:45.000Z</time>
      </trkpt>
      <trkpt lon="7.127269981428981" lat="46.157654989510775">
        <ele>945.2000122070312</ele>
        <time>2015-10-21T09:48:56.000Z</time>
      </trkpt>
      <trkpt lon="7.127129919826984" lat="46.15763093344867">
        <ele>947.4000244140625</ele>
        <time>2015-10-21T09:49:03.000Z</time>
      </trkpt>
      <trkpt lon="7.126895980909467" lat="46.15757795982063">
        <ele>950.4000244140625</ele>
        <time>2015-10-21T09:49:11.000Z</time>
      </trkpt>
      <trkpt lon="7.126710992306471" lat="46.15749497897923">
        <ele>951.0</ele>
        <time>2015-10-21T09:49:19.000Z</time>
      </trkpt>
      <trkpt lon="7.126558944582939" lat="46.15740495733917">
        <ele>950.5999755859375</ele>
        <time>2015-10-21T09:49:28.000Z</time>
      </trkpt>
      <trkpt lon="7.1264419332146645" lat="46.15733195096254">
        <ele>950.4000244140625</ele>
        <time>2015-10-21T09:49:35.000Z</time>
      </trkpt>
      <trkpt lon="7.126285945996642" lat="46.15723396651447">
        <ele>950.2000122070312</ele>
        <time>2015-10-21T09:49:42.000Z</time>
      </trkpt>
      <trkpt lon="7.126053934916854" lat="46.15712894126773">
        <ele>952.0</ele>
        <time>2015-10-21T09:49:48.000Z</time>
      </trkpt>
      <trkpt lon="7.12591496296227" lat="46.15706599317491">
        <ele>953.2000122070312</ele>
        <time>2015-10-21T09:49:53.000Z</time>
      </trkpt>
      <trkpt lon="7.125772973522544" lat="46.15700497291982">
        <ele>954.5999755859375</ele>
        <time>2015-10-21T09:50:02.000Z</time>
      </trkpt>
      <trkpt lon="7.125649927183986" lat="46.15695996209979">
        <ele>956.0</ele>
        <time>2015-10-21T09:50:10.000Z</time>
      </trkpt>
      <trkpt lon="7.125476924702525" lat="46.15689693018794">
        <ele>958.0</ele>
        <time>2015-10-21T09:50:21.000Z</time>
      </trkpt>
      <trkpt lon="7.125462926924229" lat="46.15689198486507">
        <ele>958.2000122070312</ele>
        <time>2015-10-21T09:50:22.000Z</time>
      </trkpt>
      <trkpt lon="7.125397967174649" lat="46.15686792880297">
        <ele>959.0</ele>
        <time>2015-10-21T09:50:27.000Z</time>
      </trkpt>
      <trkpt lon="7.125369971618056" lat="46.15685795433819">
        <ele>959.4000244140625</ele>
        <time>2015-10-21T09:50:29.000Z</time>
      </trkpt>
      <trkpt lon="7.125341976061463" lat="46.15684797987342">
        <ele>959.5999755859375</ele>
        <time>2015-10-21T09:50:37.000Z</time>
      </trkpt>
      <trkpt lon="7.125493939965963" lat="46.156902965158224">
        <ele>957.7999877929688</ele>
        <time>2015-10-21T09:50:45.000Z</time>
      </trkpt>
      <trkpt lon="7.125596953555942" lat="46.15694093517959">
        <ele>956.7999877929688</ele>
        <time>2015-10-21T09:50:53.000Z</time>
      </trkpt>
      <trkpt lon="7.1257459837943316" lat="46.15699499845505">
        <ele>955.0</ele>
        <time>2015-10-21T09:51:04.000Z</time>
      </trkpt>
      <trkpt lon="7.125875987112522" lat="46.15704797208309">
        <ele>953.5999755859375</ele>
        <time>2015-10-21T09:51:13.000Z</time>
      </trkpt>
      <trkpt lon="7.125999955460429" lat="46.15710396319628">
        <ele>952.5999755859375</ele>
        <time>2015-10-21T09:51:22.000Z</time>
      </trkpt>
      <trkpt lon="7.126012947410345" lat="46.15710999816656">
        <ele>952.4000244140625</ele>
        <time>2015-10-21T09:51:23.000Z</time>
      </trkpt>
      <trkpt lon="7.126096934080124" lat="46.15714796818793">
        <ele>951.7999877929688</ele>
        <time>2015-10-21T09:51:30.000Z</time>
      </trkpt>
      <trkpt lon="7.126189973205328" lat="46.15718996152282">
        <ele>951.0</ele>
        <time>2015-10-21T09:51:39.000Z</time>
      </trkpt>
      <trkpt lon="7.126313941553235" lat="46.15725198760629">
        <ele>950.2000122070312</ele>
        <time>2015-10-21T09:51:48.000Z</time>
      </trkpt>
      <trkpt lon="7.126343948766589" lat="46.157269924879074">
        <ele>950.2000122070312</ele>
        <time>2015-10-21T09:51:51.000Z</time>
      </trkpt>
      <trkpt lon="7.126091988757253" lat="46.15750093013048">
        <ele>973.7999877929688</ele>
        <time>2015-10-21T09:51:57.000Z</time>
      </trkpt>
      <trkpt lon="7.126135993748903" lat="46.15755398757756">
        <ele>975.4000244140625</ele>
        <time>2015-10-21T09:52:05.000Z</time>
      </trkpt>
      <trkpt lon="7.126178992912173" lat="46.1576069612056">
        <ele>977.0</ele>
        <time>2015-10-21T09:52:13.000Z</time>
      </trkpt>
      <trkpt lon="7.126227943226695" lat="46.15766697563231">
        <ele>978.7999877929688</ele>
        <time>2015-10-21T09:52:21.000Z</time>
      </trkpt>
      <trkpt lon="7.126227943226695" lat="46.15766697563231">
        <ele>978.7999877929688</ele>
        <time>2015-10-21T09:52:22.000Z</time>
      </trkpt>
      <trkpt lon="7.126245964318514" lat="46.157689942047">
        <ele>979.5999755859375</ele>
        <time>2015-10-21T09:52:30.000Z</time>
      </trkpt>
      <trkpt lon="7.126245964318514" lat="46.157689942047">
        <ele>979.5999755859375</ele>
        <time>2015-10-21T09:52:32.000Z</time>
      </trkpt>
      <trkpt lon="7.126273959875107" lat="46.15773696452379">
        <ele>981.4000244140625</ele>
        <time>2015-10-21T09:52:35.000Z</time>
      </trkpt>
      <trkpt lon="7.126298937946558" lat="46.15777694620192">
        <ele>983.0</ele>
        <time>2015-10-21T09:52:43.000Z</time>
      </trkpt>
      <trkpt lon="7.126298937946558" lat="46.15777694620192">
        <ele>983.0</ele>
        <time>2015-10-21T09:52:44.000Z</time>
      </trkpt>
      <trkpt lon="7.126298937946558" lat="46.15777694620192">
        <ele>983.0</ele>
        <time>2015-10-21T09:53:00.000Z</time>
      </trkpt>
      <trkpt lon="7.126298937946558" lat="46.15777694620192">
        <ele>983.0</ele>
        <time>2015-10-21T09:53:07.000Z</time>
      </trkpt>
      <trkpt lon="7.126298937946558" lat="46.15777694620192">
        <ele>983.0</ele>
        <time>2015-10-21T09:53:13.000Z</time>
      </trkpt>
      <trkpt lon="7.126298937946558" lat="46.15777694620192">
        <ele>983.0</ele>
        <time>2015-10-21T09:53:15.000Z</time>
      </trkpt>
      <trkpt lon="7.126379990950227" lat="46.15790795534849">
        <ele>988.0</ele>
        <time>2015-10-21T09:53:24.000Z</time>
      </trkpt>
      <trkpt lon="7.126379990950227" lat="46.15790795534849">
        <ele>988.0</ele>
        <time>2015-10-21T09:53:34.000Z</time>
      </trkpt>
      <trkpt lon="7.126379990950227" lat="46.15790795534849">
        <ele>988.0</ele>
        <time>2015-10-21T09:53:39.000Z</time>
      </trkpt>
      <trkpt lon="7.126379990950227" lat="46.15790795534849">
        <ele>988.0</ele>
        <time>2015-10-21T09:53:49.000Z</time>
      </trkpt>
      <trkpt lon="7.126379990950227" lat="46.15790795534849">
        <ele>988.0</ele>
        <time>2015-10-21T09:53:54.000Z</time>
      </trkpt>
      <trkpt lon="7.126379990950227" lat="46.15790795534849">
        <ele>988.0</ele>
        <time>2015-10-21T09:54:00.000Z</time>
      </trkpt>
      <trkpt lon="7.126552993431687" lat="46.158196963369846">
        <ele>1000.4000244140625</ele>
        <time>2015-10-21T09:54:08.000Z</time>
      </trkpt>
      <trkpt lon="7.126552993431687" lat="46.158196963369846">
        <ele>1000.4000244140625</ele>
        <time>2015-10-21T09:54:14.000Z</time>
      </trkpt>
      <trkpt lon="7.126552993431687" lat="46.158196963369846">
        <ele>1000.4000244140625</ele>
        <time>2015-10-21T09:54:25.000Z</time>
      </trkpt>
      <trkpt lon="7.126552993431687" lat="46.158196963369846">
        <ele>1000.4000244140625</ele>
        <time>2015-10-21T09:54:31.000Z</time>
      </trkpt>
      <trkpt lon="7.126552993431687" lat="46.158196963369846">
        <ele>1000.4000244140625</ele>
        <time>2015-10-21T09:54:33.000Z</time>
      </trkpt>
      <trkpt lon="7.126660952344537" lat="46.15835496224463">
        <ele>1007.7999877929688</ele>
        <time>2015-10-21T09:54:40.000Z</time>
      </trkpt>
      <trkpt lon="7.126660952344537" lat="46.15835496224463">
        <ele>1007.7999877929688</ele>
        <time>2015-10-21T09:54:45.000Z</time>
      </trkpt>
      <trkpt lon="7.126660952344537" lat="46.15835496224463">
        <ele>1007.7999877929688</ele>
        <time>2015-10-21T09:54:53.000Z</time>
      </trkpt>
      <trkpt lon="7.126660952344537" lat="46.15835496224463">
        <ele>1007.7999877929688</ele>
        <time>2015-10-21T09:54:59.000Z</time>
      </trkpt>
      <trkpt lon="7.126660952344537" lat="46.15835496224463">
        <ele>1007.7999877929688</ele>
        <time>2015-10-21T09:55:10.000Z</time>
      </trkpt>
      <trkpt lon="7.126660952344537" lat="46.15835496224463">
        <ele>1007.7999877929688</ele>
        <time>2015-10-21T09:55:20.000Z</time>
      </trkpt>
      <trkpt lon="7.126660952344537" lat="46.15835496224463">
        <ele>1007.7999877929688</ele>
        <time>2015-10-21T09:55:22.000Z</time>
      </trkpt>
      <trkpt lon="7.126908972859383" lat="46.15864899940789">
        <ele>1018.5999755859375</ele>
        <time>2015-10-21T09:55:34.000Z</time>
      </trkpt>
      <trkpt lon="7.126976950094104" lat="46.15871999412775">
        <ele>1020.7999877929688</ele>
        <time>2015-10-21T09:55:43.000Z</time>
      </trkpt>
      <trkpt lon="7.127051968127489" lat="46.15879392251372">
        <ele>1023.0</ele>
        <time>2015-10-21T09:55:54.000Z</time>
      </trkpt>
      <trkpt lon="7.127051968127489" lat="46.15879392251372">
        <ele>1023.0</ele>
        <time>2015-10-21T09:55:57.000Z</time>
      </trkpt>
      <trkpt lon="7.12713997811079" lat="46.15885494276881">
        <ele>1023.5999755859375</ele>
        <time>2015-10-21T09:56:06.000Z</time>
      </trkpt>
      <trkpt lon="7.12713997811079" lat="46.15885494276881">
        <ele>1023.5999755859375</ele>
        <time>2015-10-21T09:56:39.000Z</time>
      </trkpt>
      <trkpt lon="7.1272029262036085" lat="46.1588969361037">
        <ele>1024.0</ele>
        <time>2015-10-21T09:56:53.000Z</time>
      </trkpt>
      <trkpt lon="7.127307951450348" lat="46.158966924995184">
        <ele>1024.5999755859375</ele>
        <time>2015-10-21T09:57:02.000Z</time>
      </trkpt>
      <trkpt lon="7.127436948940158" lat="46.15903993137181">
        <ele>1024.5999755859375</ele>
        <time>2015-10-21T09:57:12.000Z</time>
      </trkpt>
      <trkpt lon="7.12756896391511" lat="46.15910992026329">
        <ele>1024.5999755859375</ele>
        <time>2015-10-21T09:57:23.000Z</time>
      </trkpt>
      <trkpt lon="7.127641970291734" lat="46.15914596244693">
        <ele>1024.199951171875</ele>
        <time>2015-10-21T09:57:31.000Z</time>
      </trkpt>
      <trkpt lon="7.127709947526455" lat="46.159179992973804">
        <ele>1024.5999755859375</ele>
        <time>2015-10-21T09:57:37.000Z</time>
      </trkpt>
      <trkpt lon="7.127743978053331" lat="46.159201953560114">
        <ele>1025.0</ele>
        <time>2015-10-21T09:57:42.000Z</time>
      </trkpt>
      <trkpt lon="7.127779936417937" lat="46.15923095494509">
        <ele>1026.0</ele>
        <time>2015-10-21T09:57:51.000Z</time>
      </trkpt>
      <trkpt lon="7.127779936417937" lat="46.15923095494509">
        <ele>1026.0</ele>
        <time>2015-10-21T09:57:56.000Z</time>
      </trkpt>
      <trkpt lon="7.127867946401238" lat="46.15929893217981">
        <ele>1027.800048828125</ele>
        <time>2015-10-21T09:57:58.000Z</time>
      </trkpt>
      <trkpt lon="7.1278979536145926" lat="46.15932198241353">
        <ele>1028.4000244140625</ele>
        <time>2015-10-21T09:58:02.000Z</time>
      </trkpt>
      <trkpt lon="7.127916980534792" lat="46.15933698602021">
        <ele>1029.0</ele>
        <time>2015-10-21T09:58:06.000Z</time>
      </trkpt>
      <trkpt lon="7.127958973869681" lat="46.15938694216311">
        <ele>1031.0</ele>
        <time>2015-10-21T09:58:13.000Z</time>
      </trkpt>
      <trkpt lon="7.127958973869681" lat="46.15938694216311">
        <ele>1031.0</ele>
        <time>2015-10-21T09:58:18.000Z</time>
      </trkpt>
      <trkpt lon="7.127990992739797" lat="46.15942591801286">
        <ele>1032.5999755859375</ele>
        <time>2015-10-21T09:58:26.000Z</time>
      </trkpt>
      <trkpt lon="7.128030974417925" lat="46.15947294048965">
        <ele>1034.4000244140625</ele>
        <time>2015-10-21T09:58:31.000Z</time>
      </trkpt>
      <trkpt lon="7.128030974417925" lat="46.15947294048965">
        <ele>1034.4000244140625</ele>
        <time>2015-10-21T09:58:40.000Z</time>
      </trkpt>
      <trkpt lon="7.128030974417925" lat="46.15947294048965">
        <ele>1034.4000244140625</ele>
        <time>2015-10-21T09:58:47.000Z</time>
      </trkpt>
      <trkpt lon="7.128141950815916" lat="46.159566985443234">
        <ele>1037.4000244140625</ele>
        <time>2015-10-21T09:58:58.000Z</time>
      </trkpt>
      <trkpt lon="7.128141950815916" lat="46.159566985443234">
        <ele>1037.4000244140625</ele>
        <time>2015-10-21T09:59:07.000Z</time>
      </trkpt>
      <trkpt lon="7.128141950815916" lat="46.159566985443234">
        <ele>1037.4000244140625</ele>
        <time>2015-10-21T09:59:15.000Z</time>
      </trkpt>
      <trkpt lon="7.128141950815916" lat="46.159566985443234">
        <ele>1037.4000244140625</ele>
        <time>2015-10-21T09:59:20.000Z</time>
      </trkpt>
      <trkpt lon="7.128141950815916" lat="46.159566985443234">
        <ele>1037.4000244140625</ele>
        <time>2015-10-21T09:59:28.000Z</time>
      </trkpt>
      <trkpt lon="7.1284489799290895" lat="46.15970796905458">
        <ele>1036.4000244140625</ele>
        <time>2015-10-21T09:59:33.000Z</time>
      </trkpt>
      <trkpt lon="7.1284489799290895" lat="46.15970796905458">
        <ele>1036.4000244140625</ele>
        <time>2015-10-21T09:59:34.000Z</time>
      </trkpt>
      <trkpt lon="7.128536989912391" lat="46.15974895656109">
        <ele>1035.5999755859375</ele>
        <time>2015-10-21T09:59:45.000Z</time>
      </trkpt>
      <trkpt lon="7.128536989912391" lat="46.15974895656109">
        <ele>1035.5999755859375</ele>
        <time>2015-10-21T09:59:55.000Z</time>
      </trkpt>
      <trkpt lon="7.128683924674988" lat="46.159824980422854">
        <ele>1034.800048828125</ele>
        <time>2015-10-21T10:00:03.000Z</time>
      </trkpt>
      <trkpt lon="7.128703957423568" lat="46.15984593518078">
        <ele>1035.199951171875</ele>
        <time>2015-10-21T10:00:10.000Z</time>
      </trkpt>
      <trkpt lon="7.1287779696285725" lat="46.15991894155741">
        <ele>1036.4000244140625</ele>
        <time>2015-10-21T10:00:19.000Z</time>
      </trkpt>
      <trkpt lon="7.1287779696285725" lat="46.15991894155741">
        <ele>1036.4000244140625</ele>
        <time>2015-10-21T10:00:28.000Z</time>
      </trkpt>
      <trkpt lon="7.12885994464159" lat="46.160022960975766">
        <ele>1039.0</ele>
        <time>2015-10-21T10:00:38.000Z</time>
      </trkpt>
      <trkpt lon="7.12885994464159" lat="46.160022960975766">
        <ele>1039.0</ele>
        <time>2015-10-21T10:00:50.000Z</time>
      </trkpt>
      <trkpt lon="7.12885994464159" lat="46.160022960975766">
        <ele>1039.0</ele>
        <time>2015-10-21T10:01:01.000Z</time>
      </trkpt>
      <trkpt lon="7.12885994464159" lat="46.160022960975766">
        <ele>1039.0</ele>
        <time>2015-10-21T10:01:12.000Z</time>
      </trkpt>
      <trkpt lon="7.12885994464159" lat="46.160022960975766">
        <ele>1039.0</ele>
        <time>2015-10-21T10:01:20.000Z</time>
      </trkpt>
      <trkpt lon="7.12885994464159" lat="46.160022960975766">
        <ele>1039.0</ele>
        <time>2015-10-21T10:01:22.000Z</time>
      </trkpt>
      <trkpt lon="7.12885994464159" lat="46.160022960975766">
        <ele>1039.0</ele>
        <time>2015-10-21T10:01:32.000Z</time>
      </trkpt>
      <trkpt lon="7.12885994464159" lat="46.160022960975766">
        <ele>1039.0</ele>
        <time>2015-10-21T10:01:41.000Z</time>
      </trkpt>
      <trkpt lon="7.12885994464159" lat="46.160022960975766">
        <ele>1039.0</ele>
        <time>2015-10-21T10:01:46.000Z</time>
      </trkpt>
      <trkpt lon="7.12885994464159" lat="46.160022960975766">
        <ele>1039.0</ele>
        <time>2015-10-21T10:01:55.000Z</time>
      </trkpt>
      <trkpt lon="7.12885994464159" lat="46.160022960975766">
        <ele>1039.0</ele>
        <time>2015-10-21T10:02:02.000Z</time>
      </trkpt>
      <trkpt lon="7.12885994464159" lat="46.160022960975766">
        <ele>1039.0</ele>
        <time>2015-10-21T10:02:11.000Z</time>
      </trkpt>
      <trkpt lon="7.12885994464159" lat="46.160022960975766">
        <ele>1039.0</ele>
        <time>2015-10-21T10:02:19.000Z</time>
      </trkpt>
      <trkpt lon="7.12885994464159" lat="46.160022960975766">
        <ele>1039.0</ele>
        <time>2015-10-21T10:02:25.000Z</time>
      </trkpt>
      <trkpt lon="7.12885994464159" lat="46.160022960975766">
        <ele>1039.0</ele>
        <time>2015-10-21T10:02:27.000Z</time>
      </trkpt>
      <trkpt lon="7.129204943776131" lat="46.16065395064652">
        <ele>1058.199951171875</ele>
        <time>2015-10-21T10:02:37.000Z</time>
      </trkpt>
      <trkpt lon="7.129204943776131" lat="46.16065395064652">
        <ele>1058.199951171875</ele>
        <time>2015-10-21T10:02:46.000Z</time>
      </trkpt>
      <trkpt lon="7.129204943776131" lat="46.16065395064652">
        <ele>1058.199951171875</ele>
        <time>2015-10-21T10:02:56.000Z</time>
      </trkpt>
      <trkpt lon="7.129204943776131" lat="46.16065395064652">
        <ele>1058.199951171875</ele>
        <time>2015-10-21T10:03:05.000Z</time>
      </trkpt>
      <trkpt lon="7.129204943776131" lat="46.16065395064652">
        <ele>1058.199951171875</ele>
        <time>2015-10-21T10:03:15.000Z</time>
      </trkpt>
      <trkpt lon="7.129204943776131" lat="46.16065395064652">
        <ele>1058.199951171875</ele>
        <time>2015-10-21T10:03:18.000Z</time>
      </trkpt>
      <trkpt lon="7.129204943776131" lat="46.16065395064652">
        <ele>1058.199951171875</ele>
        <time>2015-10-21T10:03:23.000Z</time>
      </trkpt>
      <trkpt lon="7.129204943776131" lat="46.16065395064652">
        <ele>1058.199951171875</ele>
        <time>2015-10-21T10:03:32.000Z</time>
      </trkpt>
      <trkpt lon="7.129204943776131" lat="46.16065395064652">
        <ele>1058.199951171875</ele>
        <time>2015-10-21T10:03:39.000Z</time>
      </trkpt>
      <trkpt lon="7.129204943776131" lat="46.16065395064652">
        <ele>1058.199951171875</ele>
        <time>2015-10-21T10:03:41.000Z</time>
      </trkpt>
      <trkpt lon="7.129204943776131" lat="46.16065395064652">
        <ele>1058.199951171875</ele>
        <time>2015-10-21T10:03:52.000Z</time>
      </trkpt>
      <trkpt lon="7.129204943776131" lat="46.16065395064652">
        <ele>1058.199951171875</ele>
        <time>2015-10-21T10:03:54.000Z</time>
      </trkpt>
      <trkpt lon="7.129204943776131" lat="46.16065395064652">
        <ele>1058.199951171875</ele>
        <time>2015-10-21T10:04:17.000Z</time>
      </trkpt>
      <trkpt lon="7.129204943776131" lat="46.16065395064652">
        <ele>1058.199951171875</ele>
        <time>2015-10-21T10:04:22.000Z</time>
      </trkpt>
      <trkpt lon="7.129204943776131" lat="46.16065395064652">
        <ele>1058.199951171875</ele>
        <time>2015-10-21T10:04:30.000Z</time>
      </trkpt>
      <trkpt lon="7.129204943776131" lat="46.16065395064652">
        <ele>1058.199951171875</ele>
        <time>2015-10-21T10:04:31.000Z</time>
      </trkpt>
      <trkpt lon="7.12933293543756" lat="46.16108092479408">
        <ele>1066.4000244140625</ele>
        <time>2015-10-21T10:04:37.000Z</time>
      </trkpt>
      <trkpt lon="7.12933293543756" lat="46.16108092479408">
        <ele>1066.4000244140625</ele>
        <time>2015-10-21T10:05:42.000Z</time>
      </trkpt>
      <trkpt lon="7.12933293543756" lat="46.16112392395735">
        <ele>1067.800048828125</ele>
        <time>2015-10-21T10:06:52.000Z</time>
      </trkpt>
      <trkpt lon="7.129301922395825" lat="46.16127597168088">
        <ele>1074.4000244140625</ele>
        <time>2015-10-21T10:07:00.000Z</time>
      </trkpt>
      <trkpt lon="7.129268981516361" lat="46.161394994705915">
        <ele>1080.0</ele>
        <time>2015-10-21T10:07:06.000Z</time>
      </trkpt>
      <trkpt lon="7.129213996231556" lat="46.16146598942578">
        <ele>1086.5999755859375</ele>
        <time>2015-10-21T10:07:11.000Z</time>
      </trkpt>
      <trkpt lon="7.1290939673781395" lat="46.161563973873854">
        <ele>1097.0</ele>
        <time>2015-10-21T10:07:15.000Z</time>
      </trkpt>
      <trkpt lon="7.128855921328068" lat="46.16173395887017">
        <ele>1120.800048828125</ele>
        <time>2015-10-21T10:07:19.000Z</time>
      </trkpt>
      <trkpt lon="7.128718961030245" lat="46.16199094802141">
        <ele>1143.4000244140625</ele>
        <time>2015-10-21T10:07:23.000Z</time>
      </trkpt>
      <trkpt lon="7.128710998222232" lat="46.162381963804364">
        <ele>1161.4000244140625</ele>
        <time>2015-10-21T10:07:29.000Z</time>
      </trkpt>
      <trkpt lon="7.128710998222232" lat="46.162490928545594">
        <ele>1162.199951171875</ele>
        <time>2015-10-21T10:07:31.000Z</time>
      </trkpt>
      <trkpt lon="7.128710998222232" lat="46.16273995488882">
        <ele>1164.199951171875</ele>
        <time>2015-10-21T10:07:37.000Z</time>
      </trkpt>
      <trkpt lon="7.129067983478308" lat="46.16271799430251">
        <ele>1140.199951171875</ele>
        <time>2015-10-21T10:07:42.000Z</time>
      </trkpt>
      <trkpt lon="7.129131937399507" lat="46.16267499513924">
        <ele>1138.199951171875</ele>
        <time>2015-10-21T10:07:46.000Z</time>
      </trkpt>
      <trkpt lon="7.12922397069633" lat="46.16260098293424">
        <ele>1140.800048828125</ele>
        <time>2015-10-21T10:07:55.000Z</time>
      </trkpt>
      <trkpt lon="7.129354979842901" lat="46.16249495185912">
        <ele>1143.199951171875</ele>
        <time>2015-10-21T10:08:05.000Z</time>
      </trkpt>
      <trkpt lon="7.129491940140724" lat="46.16243896074593">
        <ele>1139.4000244140625</ele>
        <time>2015-10-21T10:08:13.000Z</time>
      </trkpt>
      <trkpt lon="7.129600988700986" lat="46.16235195659101">
        <ele>1134.199951171875</ele>
        <time>2015-10-21T10:08:21.000Z</time>
      </trkpt>
      <trkpt lon="7.129708947613835" lat="46.16224994882941">
        <ele>1128.199951171875</ele>
        <time>2015-10-21T10:08:30.000Z</time>
      </trkpt>
      <trkpt lon="7.129843980073929" lat="46.16219697520137">
        <ele>1124.4000244140625</ele>
        <time>2015-10-21T10:08:38.000Z</time>
      </trkpt>
      <trkpt lon="7.129916986450553" lat="46.16219596937299">
        <ele>1121.199951171875</ele>
        <time>2015-10-21T10:08:46.000Z</time>
      </trkpt>
      <trkpt lon="7.130143968388438" lat="46.162211978808045">
        <ele>1120.4000244140625</ele>
        <time>2015-10-21T10:08:56.000Z</time>
      </trkpt>
      <trkpt lon="7.13032191619277" lat="46.162145929411054">
        <ele>1113.0</ele>
        <time>2015-10-21T10:09:03.000Z</time>
      </trkpt>
      <trkpt lon="7.1304059866815805" lat="46.162083987146616">
        <ele>1106.5999755859375</ele>
        <time>2015-10-21T10:09:12.000Z</time>
      </trkpt>
      <trkpt lon="7.130512939766049" lat="46.162083987146616">
        <ele>1106.0</ele>
        <time>2015-10-21T10:09:18.000Z</time>
      </trkpt>
      <trkpt lon="7.130667921155691" lat="46.162126986309886">
        <ele>1110.0</ele>
        <time>2015-10-21T10:09:26.000Z</time>
      </trkpt>
      <trkpt lon="7.130813933908939" lat="46.162125980481505">
        <ele>1112.0</ele>
        <time>2015-10-21T10:09:32.000Z</time>
      </trkpt>
      <trkpt lon="7.130953995510936" lat="46.16204299964011">
        <ele>1108.4000244140625</ele>
        <time>2015-10-21T10:09:40.000Z</time>
      </trkpt>
      <trkpt lon="7.131110988557339" lat="46.161997988820076">
        <ele>1108.199951171875</ele>
        <time>2015-10-21T10:09:48.000Z</time>
      </trkpt>
      <trkpt lon="7.13115599937737" lat="46.161997988820076">
        <ele>1109.0</ele>
        <time>2015-10-21T10:09:50.000Z</time>
      </trkpt>
      <trkpt lon="7.131338976323605" lat="46.16193596273661">
        <ele>1109.0</ele>
        <time>2015-10-21T10:09:57.000Z</time>
      </trkpt>
      <trkpt lon="7.131442995741963" lat="46.16187896579504">
        <ele>1109.0</ele>
        <time>2015-10-21T10:10:02.000Z</time>
      </trkpt>
      <trkpt lon="7.131640976294875" lat="46.161825992166996">
        <ele>1110.5999755859375</ele>
        <time>2015-10-21T10:10:08.000Z</time>
      </trkpt>
      <trkpt lon="7.131833927705884" lat="46.161825992166996">
        <ele>1107.4000244140625</ele>
        <time>2015-10-21T10:10:13.000Z</time>
      </trkpt>
      <trkpt lon="7.132033919915557" lat="46.16183496080339">
        <ele>1104.4000244140625</ele>
        <time>2015-10-21T10:10:22.000Z</time>
      </trkpt>
      <trkpt lon="7.132174987345934" lat="46.16184996441007">
        <ele>1101.5999755859375</ele>
        <time>2015-10-21T10:10:30.000Z</time>
      </trkpt>
      <trkpt lon="7.1323199942708015" lat="46.16185993887484">
        <ele>1098.5999755859375</ele>
        <time>2015-10-21T10:10:39.000Z</time>
      </trkpt>
      <trkpt lon="7.132365927100182" lat="46.16186295635998">
        <ele>1097.5999755859375</ele>
        <time>2015-10-21T10:10:42.000Z</time>
      </trkpt>
      <trkpt lon="7.132422924041748" lat="46.161866979673505">
        <ele>1096.4000244140625</ele>
        <time>2015-10-21T10:10:46.000Z</time>
      </trkpt>
      <trkpt lon="7.132533984258771" lat="46.16187393665314">
        <ele>1097.4000244140625</ele>
        <time>2015-10-21T10:10:53.000Z</time>
      </trkpt>
      <trkpt lon="7.132592992857099" lat="46.16187896579504">
        <ele>1098.5999755859375</ele>
        <time>2015-10-21T10:10:57.000Z</time>
      </trkpt>
      <trkpt lon="7.132740933448076" lat="46.161888940259814">
        <ele>1100.800048828125</ele>
        <time>2015-10-21T10:11:06.000Z</time>
      </trkpt>
      <trkpt lon="7.132827937602997" lat="46.161909978836775">
        <ele>1103.4000244140625</ele>
        <time>2015-10-21T10:11:12.000Z</time>
      </trkpt>
      <trkpt lon="7.1329219825565815" lat="46.16193797439337">
        <ele>1106.4000244140625</ele>
        <time>2015-10-21T10:11:19.000Z</time>
      </trkpt>
      <trkpt lon="7.13304796256125" lat="46.161976950243115">
        <ele>1111.4000244140625</ele>
        <time>2015-10-21T10:11:28.000Z</time>
      </trkpt>
      <trkpt lon="7.133178971707821" lat="46.162016931921244">
        <ele>1116.800048828125</ele>
        <time>2015-10-21T10:11:38.000Z</time>
      </trkpt>
      <trkpt lon="7.133272932842374" lat="46.1620469391346">
        <ele>1120.5999755859375</ele>
        <time>2015-10-21T10:11:46.000Z</time>
      </trkpt>
      <trkpt lon="7.133345939218998" lat="46.162083987146616">
        <ele>1121.800048828125</ele>
        <time>2015-10-21T10:11:54.000Z</time>
      </trkpt>
      <trkpt lon="7.133403941988945" lat="46.16214198991656">
        <ele>1124.5999755859375</ele>
        <time>2015-10-21T10:12:02.000Z</time>
      </trkpt>
      <trkpt lon="7.133469991385937" lat="46.162209967151284">
        <ele>1128.0</ele>
        <time>2015-10-21T10:12:11.000Z</time>
      </trkpt>
      <trkpt lon="7.133532939478755" lat="46.16228297352791">
        <ele>1131.800048828125</ele>
        <time>2015-10-21T10:12:19.000Z</time>
      </trkpt>
      <trkpt lon="7.133637964725494" lat="46.162383975461125">
        <ele>1138.800048828125</ele>
        <time>2015-10-21T10:12:29.000Z</time>
      </trkpt>
      <trkpt lon="7.133714994415641" lat="46.16242898628116">
        <ele>1141.5999755859375</ele>
        <time>2015-10-21T10:12:35.000Z</time>
      </trkpt>
      <trkpt lon="7.1338479313999414" lat="46.1624959576875">
        <ele>1145.4000244140625</ele>
        <time>2015-10-21T10:12:44.000Z</time>
      </trkpt>
      <trkpt lon="7.134030992165208" lat="46.162512972950935">
        <ele>1144.199951171875</ele>
        <time>2015-10-21T10:12:52.000Z</time>
      </trkpt>
      <trkpt lon="7.134195948019624" lat="46.162492940202355">
        <ele>1141.4000244140625</ele>
        <time>2015-10-21T10:13:01.000Z</time>
      </trkpt>
      <trkpt lon="7.1342929266393185" lat="46.16245597600937">
        <ele>1138.4000244140625</ele>
        <time>2015-10-21T10:13:09.000Z</time>
      </trkpt>
      <trkpt lon="7.134381942451" lat="46.16241993382573">
        <ele>1137.199951171875</ele>
        <time>2015-10-21T10:13:24.000Z</time>
      </trkpt>
      <trkpt lon="7.13455393910408" lat="46.16235991939902">
        <ele>1135.800048828125</ele>
        <time>2015-10-21T10:13:32.000Z</time>
      </trkpt>
      <trkpt lon="7.134693916887045" lat="46.1623249668628">
        <ele>1135.4000244140625</ele>
        <time>2015-10-21T10:13:41.000Z</time>
      </trkpt>
      <trkpt lon="7.134803971275687" lat="46.162319937720895">
        <ele>1136.800048828125</ele>
        <time>2015-10-21T10:13:47.000Z</time>
      </trkpt>
      <trkpt lon="7.13493992574513" lat="46.162319937720895">
        <ele>1139.0</ele>
        <time>2015-10-21T10:13:54.000Z</time>
      </trkpt>
      <trkpt lon="7.13511292822659" lat="46.16232697851956">
        <ele>1141.5999755859375</ele>
        <time>2015-10-21T10:14:02.000Z</time>
      </trkpt>
      <trkpt lon="7.135257935151458" lat="46.16233393549919">
        <ele>1144.0</ele>
        <time>2015-10-21T10:14:08.000Z</time>
      </trkpt>
      <trkpt lon="7.135461950674653" lat="46.162338964641094">
        <ele>1147.199951171875</ele>
        <time>2015-10-21T10:14:16.000Z</time>
      </trkpt>
      <trkpt lon="7.135622967034578" lat="46.16233292967081">
        <ele>1149.199951171875</ele>
        <time>2015-10-21T10:14:22.000Z</time>
      </trkpt>
      <trkpt lon="7.135788928717375" lat="46.16232697851956">
        <ele>1151.199951171875</ele>
        <time>2015-10-21T10:14:28.000Z</time>
      </trkpt>
      <trkpt lon="7.135977940633893" lat="46.162319937720895">
        <ele>1152.5999755859375</ele>
        <time>2015-10-21T10:14:36.000Z</time>
      </trkpt>
      <trkpt lon="7.136119930073619" lat="46.162319937720895">
        <ele>1153.800048828125</ele>
        <time>2015-10-21T10:14:42.000Z</time>
      </trkpt>
      <trkpt lon="7.136272983625531" lat="46.162319937720895">
        <ele>1155.4000244140625</ele>
        <time>2015-10-21T10:14:48.000Z</time>
      </trkpt>
      <trkpt lon="7.136504994705319" lat="46.16233494132757">
        <ele>1158.4000244140625</ele>
        <time>2015-10-21T10:14:56.000Z</time>
      </trkpt>
      <trkpt lon="7.136676991358399" lat="46.16232798434794">
        <ele>1159.4000244140625</ele>
        <time>2015-10-21T10:15:03.000Z</time>
      </trkpt>
      <trkpt lon="7.1368819288909435" lat="46.16230099461973">
        <ele>1159.4000244140625</ele>
        <time>2015-10-21T10:15:11.000Z</time>
      </trkpt>
      <trkpt lon="7.137047974392772" lat="46.162276938557625">
        <ele>1159.199951171875</ele>
        <time>2015-10-21T10:15:19.000Z</time>
      </trkpt>
      <trkpt lon="7.137241931632161" lat="46.162254977971315">
        <ele>1158.5999755859375</ele>
        <time>2015-10-21T10:15:28.000Z</time>
      </trkpt>
      <trkpt lon="7.137442929670215" lat="46.16227098740637">
        <ele>1161.4000244140625</ele>
        <time>2015-10-21T10:15:37.000Z</time>
      </trkpt>
      <trkpt lon="7.137588942423463" lat="46.16228993050754">
        <ele>1163.5999755859375</ele>
        <time>2015-10-21T10:15:45.000Z</time>
      </trkpt>
      <trkpt lon="7.1377139165997505" lat="46.162314992398024">
        <ele>1165.4000244140625</ele>
        <time>2015-10-21T10:15:52.000Z</time>
      </trkpt>
      <trkpt lon="7.137837968766689" lat="46.16235195659101">
        <ele>1168.0</ele>
        <time>2015-10-21T10:16:00.000Z</time>
      </trkpt>
      <trkpt lon="7.1379639487713575" lat="46.162384981289506">
        <ele>1170.4000244140625</ele>
        <time>2015-10-21T10:16:08.000Z</time>
      </trkpt>
      <trkpt lon="7.138086995109916" lat="46.16241398267448">
        <ele>1172.5999755859375</ele>
        <time>2015-10-21T10:16:15.000Z</time>
      </trkpt>
      <trkpt lon="7.138166958466172" lat="46.162426974624395">
        <ele>1173.800048828125</ele>
        <time>2015-10-21T10:16:21.000Z</time>
      </trkpt>
      <trkpt lon="7.138338955119252" lat="46.16241498850286">
        <ele>1173.4000244140625</ele>
        <time>2015-10-21T10:16:30.000Z</time>
      </trkpt>
      <trkpt lon="7.138422941789031" lat="46.16238699294627">
        <ele>1172.199951171875</ele>
        <time>2015-10-21T10:16:36.000Z</time>
      </trkpt>
      <trkpt lon="7.1385809406638145" lat="46.162319937720895">
        <ele>1171.4000244140625</ele>
        <time>2015-10-21T10:16:45.000Z</time>
      </trkpt>
      <trkpt lon="7.138684960082173" lat="46.16224693134427">
        <ele>1167.800048828125</ele>
        <time>2015-10-21T10:16:53.000Z</time>
      </trkpt>
      <trkpt lon="7.138806916773319" lat="46.16216093301773">
        <ele>1160.0</ele>
        <time>2015-10-21T10:17:01.000Z</time>
      </trkpt>
      <trkpt lon="7.138947984203696" lat="46.16205791942775">
        <ele>1149.800048828125</ele>
        <time>2015-10-21T10:17:11.000Z</time>
      </trkpt>
      <trkpt lon="7.1390859503299" lat="46.161956917494535">
        <ele>1137.800048828125</ele>
        <time>2015-10-21T10:17:22.000Z</time>
      </trkpt>
      <trkpt lon="7.139229951426387" lat="46.16188491694629">
        <ele>1133.5999755859375</ele>
        <time>2015-10-21T10:17:31.000Z</time>
      </trkpt>
      <trkpt lon="7.139392979443073" lat="46.16181593388319">
        <ele>1131.199951171875</ele>
        <time>2015-10-21T10:17:40.000Z</time>
      </trkpt>
      <trkpt lon="7.139524994418025" lat="46.161804953590035">
        <ele>1132.4000244140625</ele>
        <time>2015-10-21T10:17:48.000Z</time>
      </trkpt>
      <trkpt lon="7.139551984146237" lat="46.16181794553995">
        <ele>1134.199951171875</ele>
        <time>2015-10-21T10:17:50.000Z</time>
      </trkpt>
      <trkpt lon="7.139557935297489" lat="46.16186396218836">
        <ele>1141.4000244140625</ele>
        <time>2015-10-21T10:17:57.000Z</time>
      </trkpt>
      <trkpt lon="7.139504961669445" lat="46.16192598827183">
        <ele>1148.0</ele>
        <time>2015-10-21T10:18:04.000Z</time>
      </trkpt>
      <trkpt lon="7.1393899619579315" lat="46.16200796328485">
        <ele>1153.4000244140625</ele>
        <time>2015-10-21T10:18:15.000Z</time>
      </trkpt>
      <trkpt lon="7.139284936711192" lat="46.162081975489855">
        <ele>1158.4000244140625</ele>
        <time>2015-10-21T10:18:24.000Z</time>
      </trkpt>
      <trkpt lon="7.139239925891161" lat="46.16211298853159">
        <ele>1160.4000244140625</ele>
        <time>2015-10-21T10:18:28.000Z</time>
      </trkpt>
      <trkpt lon="7.139155939221382" lat="46.16217794828117">
        <ele>1165.199951171875</ele>
        <time>2015-10-21T10:18:36.000Z</time>
      </trkpt>
      <trkpt lon="7.139118975028396" lat="46.162253972142935">
        <ele>1172.5999755859375</ele>
        <time>2015-10-21T10:18:43.000Z</time>
      </trkpt>
      <trkpt lon="7.13910992257297" lat="46.16231197491288">
        <ele>1176.199951171875</ele>
        <time>2015-10-21T10:18:48.000Z</time>
      </trkpt>
      <trkpt lon="7.139078993350267" lat="46.16243996657431">
        <ele>1180.199951171875</ele>
        <time>2015-10-21T10:18:58.000Z</time>
      </trkpt>
      <trkpt lon="7.138994922861457" lat="46.16254993714392">
        <ele>1183.0</ele>
        <time>2015-10-21T10:19:07.000Z</time>
      </trkpt>
      <trkpt lon="7.138889981433749" lat="46.16263099014759">
        <ele>1184.800048828125</ele>
        <time>2015-10-21T10:19:15.000Z</time>
      </trkpt>
      <trkpt lon="7.1387809328734875" lat="46.162707936018705">
        <ele>1186.4000244140625</ele>
        <time>2015-10-21T10:19:23.000Z</time>
      </trkpt>
      <trkpt lon="7.138649923726916" lat="46.162770967930555">
        <ele>1189.0</ele>
        <time>2015-10-21T10:19:31.000Z</time>
      </trkpt>
      <trkpt lon="7.138516986742616" lat="46.162812961265445">
        <ele>1191.800048828125</ele>
        <time>2015-10-21T10:19:39.000Z</time>
      </trkpt>
      <trkpt lon="7.13844196870923" lat="46.162831988185644">
        <ele>1193.199951171875</ele>
        <time>2015-10-21T10:19:44.000Z</time>
      </trkpt>
      <trkpt lon="7.138424953445792" lat="46.162836933508515">
        <ele>1193.5999755859375</ele>
        <time>2015-10-21T10:19:46.000Z</time>
      </trkpt>
      <trkpt lon="7.13839896954596" lat="46.16289393045008">
        <ele>1196.5999755859375</ele>
        <time>2015-10-21T10:19:54.000Z</time>
      </trkpt>
      <trkpt lon="7.1385429706424475" lat="46.16286995820701">
        <ele>1194.5999755859375</ele>
        <time>2015-10-21T10:20:01.000Z</time>
      </trkpt>
      <trkpt lon="7.138577923178673" lat="46.16286291740835">
        <ele>1194.0</ele>
        <time>2015-10-21T10:20:03.000Z</time>
      </trkpt>
      <trkpt lon="7.138681942597032" lat="46.16283995099366">
        <ele>1192.199951171875</ele>
        <time>2015-10-21T10:20:11.000Z</time>
      </trkpt>
      <trkpt lon="7.138862991705537" lat="46.16280097514391">
        <ele>1190.199951171875</ele>
        <time>2015-10-21T10:20:21.000Z</time>
      </trkpt>
      <trkpt lon="7.13900095783174" lat="46.162770967930555">
        <ele>1190.5999755859375</ele>
        <time>2015-10-21T10:20:29.000Z</time>
      </trkpt>
      <trkpt lon="7.139184940606356" lat="46.16273098625243">
        <ele>1190.800048828125</ele>
        <time>2015-10-21T10:20:38.000Z</time>
      </trkpt>
      <trkpt lon="7.139252917841077" lat="46.16269092075527">
        <ele>1190.0</ele>
        <time>2015-10-21T10:20:42.000Z</time>
      </trkpt>
      <trkpt lon="7.139347968623042" lat="46.16259293630719">
        <ele>1187.4000244140625</ele>
        <time>2015-10-21T10:20:50.000Z</time>
      </trkpt>
      <trkpt lon="7.139447964727879" lat="46.1624959576875">
        <ele>1188.199951171875</ele>
        <time>2015-10-21T10:20:59.000Z</time>
      </trkpt>
      <trkpt lon="7.139542931690812" lat="46.16245698183775">
        <ele>1191.199951171875</ele>
        <time>2015-10-21T10:21:05.000Z</time>
      </trkpt>
      <trkpt lon="7.139567993581295" lat="46.162490928545594">
        <ele>1192.4000244140625</ele>
        <time>2015-10-21T10:21:11.000Z</time>
      </trkpt>
      <trkpt lon="7.139564976096153" lat="46.1625009868294">
        <ele>1192.199951171875</ele>
        <time>2015-10-21T10:21:12.000Z</time>
      </trkpt>
      <trkpt lon="7.139519965276122" lat="46.162621937692165">
        <ele>1191.4000244140625</ele>
        <time>2015-10-21T10:21:22.000Z</time>
      </trkpt>
      <trkpt lon="7.1394529938697815" lat="46.162726962938905">
        <ele>1192.5999755859375</ele>
        <time>2015-10-21T10:21:31.000Z</time>
      </trkpt>
      <trkpt lon="7.139325924217701" lat="46.162831988185644">
        <ele>1195.199951171875</ele>
        <time>2015-10-21T10:21:42.000Z</time>
      </trkpt>
      <trkpt lon="7.139276973903179" lat="46.16286392323673">
        <ele>1196.0</ele>
        <time>2015-10-21T10:21:46.000Z</time>
      </trkpt>
      <trkpt lon="7.1392409317195415" lat="46.16288797929883">
        <ele>1196.4000244140625</ele>
        <time>2015-10-21T10:21:49.000Z</time>
      </trkpt>
      <trkpt lon="7.139114951714873" lat="46.162962997332215">
        <ele>1198.0</ele>
        <time>2015-10-21T10:21:58.000Z</time>
      </trkpt>
      <trkpt lon="7.138985954225063" lat="46.16302192211151">
        <ele>1199.4000244140625</ele>
        <time>2015-10-21T10:22:07.000Z</time>
      </trkpt>
      <trkpt lon="7.138867937028408" lat="46.16305897012353">
        <ele>1201.800048828125</ele>
        <time>2015-10-21T10:22:16.000Z</time>
      </trkpt>
      <trkpt lon="7.138726953417063" lat="46.16307497955859">
        <ele>1203.5999755859375</ele>
        <time>2015-10-21T10:22:25.000Z</time>
      </trkpt>
      <trkpt lon="7.138665933161974" lat="46.16307891905308">
        <ele>1204.0</ele>
        <time>2015-10-21T10:22:29.000Z</time>
      </trkpt>
      <trkpt lon="7.138568954542279" lat="46.16308595985174">
        <ele>1205.0</ele>
        <time>2015-10-21T10:22:37.000Z</time>
      </trkpt>
      <trkpt lon="7.13844196870923" lat="46.1630879715085">
        <ele>1205.800048828125</ele>
        <time>2015-10-21T10:22:45.000Z</time>
      </trkpt>
      <trkpt lon="7.138409949839115" lat="46.1630829423666">
        <ele>1205.800048828125</ele>
        <time>2015-10-21T10:22:47.000Z</time>
      </trkpt>
      <trkpt lon="7.138262931257486" lat="46.16306098178029">
        <ele>1205.4000244140625</ele>
        <time>2015-10-21T10:22:56.000Z</time>
      </trkpt>
      <trkpt lon="7.138137957081199" lat="46.16304195486009">
        <ele>1204.4000244140625</ele>
        <time>2015-10-21T10:23:05.000Z</time>
      </trkpt>
      <trkpt lon="7.137979958206415" lat="46.163027957081795">
        <ele>1204.0</ele>
        <time>2015-10-21T10:23:15.000Z</time>
      </trkpt>
      <trkpt lon="7.1378629468381405" lat="46.163027957081795">
        <ele>1204.199951171875</ele>
        <time>2015-10-21T10:23:23.000Z</time>
      </trkpt>
      <trkpt lon="7.137740990146995" lat="46.16303399205208">
        <ele>1204.800048828125</ele>
        <time>2015-10-21T10:23:31.000Z</time>
      </trkpt>
      <trkpt lon="7.137597994878888" lat="46.163052935153246">
        <ele>1206.199951171875</ele>
        <time>2015-10-21T10:23:40.000Z</time>
      </trkpt>
      <trkpt lon="7.137534962967038" lat="46.16306098178029">
        <ele>1206.800048828125</ele>
        <time>2015-10-21T10:23:44.000Z</time>
      </trkpt>
      <trkpt lon="7.137382999062538" lat="46.16308495402336">
        <ele>1208.199951171875</ele>
        <time>2015-10-21T10:23:53.000Z</time>
      </trkpt>
      <trkpt lon="7.137200944125652" lat="46.163091994822025">
        <ele>1207.800048828125</ele>
        <time>2015-10-21T10:24:03.000Z</time>
      </trkpt>
      <trkpt lon="7.137127937749028" lat="46.163091994822025">
        <ele>1207.4000244140625</ele>
        <time>2015-10-21T10:24:07.000Z</time>
      </trkpt>
      <trkpt lon="7.1370459627360106" lat="46.163091994822025">
        <ele>1207.0</ele>
        <time>2015-10-21T10:24:12.000Z</time>
      </trkpt>
      <trkpt lon="7.136930963024497" lat="46.163091994822025">
        <ele>1206.4000244140625</ele>
        <time>2015-10-21T10:24:19.000Z</time>
      </trkpt>
      <trkpt lon="7.1368589624762535" lat="46.163115967065096">
        <ele>1207.4000244140625</ele>
        <time>2015-10-21T10:24:24.000Z</time>
      </trkpt>
      <trkpt lon="7.136728959158063" lat="46.163175981491804">
        <ele>1209.800048828125</ele>
        <time>2015-10-21T10:24:32.000Z</time>
      </trkpt>
      <trkpt lon="7.13659199886024" lat="46.16323297843337">
        <ele>1212.4000244140625</ele>
        <time>2015-10-21T10:24:42.000Z</time>
      </trkpt>
      <trkpt lon="7.136530978605151" lat="46.1632539331913">
        <ele>1213.0</ele>
        <time>2015-10-21T10:24:47.000Z</time>
      </trkpt>
      <trkpt lon="7.136402986943722" lat="46.16329592652619">
        <ele>1214.0</ele>
        <time>2015-10-21T10:24:56.000Z</time>
      </trkpt>
      <trkpt lon="7.136291926726699" lat="46.163353929296136">
        <ele>1216.199951171875</ele>
        <time>2015-10-21T10:25:05.000Z</time>
      </trkpt>
      <trkpt lon="7.136271977797151" lat="46.1633659992367">
        <ele>1216.5999755859375</ele>
        <time>2015-10-21T10:25:07.000Z</time>
      </trkpt>
      <trkpt lon="7.136186985298991" lat="46.16342299617827">
        <ele>1219.0</ele>
        <time>2015-10-21T10:25:15.000Z</time>
      </trkpt>
      <trkpt lon="7.136070979759097" lat="46.163498936221">
        <ele>1222.5999755859375</ele>
        <time>2015-10-21T10:25:24.000Z</time>
      </trkpt>
      <trkpt lon="7.135958997532725" lat="46.16355794481933">
        <ele>1225.800048828125</ele>
        <time>2015-10-21T10:25:32.000Z</time>
      </trkpt>
      <trkpt lon="7.135826982557774" lat="46.16359692066908">
        <ele>1227.800048828125</ele>
        <time>2015-10-21T10:25:40.000Z</time>
      </trkpt>
      <trkpt lon="7.13571491651237" lat="46.16363799199462">
        <ele>1229.5999755859375</ele>
        <time>2015-10-21T10:25:48.000Z</time>
      </trkpt>
      <trkpt lon="7.135670995339751" lat="46.16366397589445">
        <ele>1231.0</ele>
        <time>2015-10-21T10:25:52.000Z</time>
      </trkpt>
      <trkpt lon="7.1356719173491" lat="46.16370194591582">
        <ele>1233.199951171875</ele>
        <time>2015-10-21T10:25:55.000Z</time>
      </trkpt>
      <trkpt lon="7.135779960080981" lat="46.16371393203735">
        <ele>1234.4000244140625</ele>
        <time>2015-10-21T10:26:02.000Z</time>
      </trkpt>
      <trkpt lon="7.135817930102348" lat="46.16370999254286">
        <ele>1234.4000244140625</ele>
        <time>2015-10-21T10:26:04.000Z</time>
      </trkpt>
      <trkpt lon="7.135993950068951" lat="46.163675962015986">
        <ele>1232.800048828125</ele>
        <time>2015-10-21T10:26:14.000Z</time>
      </trkpt>
      <trkpt lon="7.13612194173038" lat="46.163651989772916">
        <ele>1231.5999755859375</ele>
        <time>2015-10-21T10:26:22.000Z</time>
      </trkpt>
      <trkpt lon="7.136254962533712" lat="46.16362692788243">
        <ele>1230.4000244140625</ele>
        <time>2015-10-21T10:26:30.000Z</time>
      </trkpt>
      <trkpt lon="7.136424947530031" lat="46.16359499283135">
        <ele>1230.0</ele>
        <time>2015-10-21T10:26:40.000Z</time>
      </trkpt>
      <trkpt lon="7.136583952233195" lat="46.163564985617995">
        <ele>1229.800048828125</ele>
        <time>2015-10-21T10:26:49.000Z</time>
      </trkpt>
      <trkpt lon="7.136726947501302" lat="46.163563979789615">
        <ele>1230.0</ele>
        <time>2015-10-21T10:26:57.000Z</time>
      </trkpt>
      <trkpt lon="7.136891987174749" lat="46.163563979789615">
        <ele>1230.199951171875</ele>
        <time>2015-10-21T10:27:05.000Z</time>
      </trkpt>
      <trkpt lon="7.137066917493939" lat="46.163563979789615">
        <ele>1230.4000244140625</ele>
        <time>2015-10-21T10:27:14.000Z</time>
      </trkpt>
      <trkpt lon="7.137186946347356" lat="46.163563979789615">
        <ele>1231.0</ele>
        <time>2015-10-21T10:27:22.000Z</time>
      </trkpt>
      <trkpt lon="7.137220976874232" lat="46.163563979789615">
        <ele>1231.199951171875</ele>
        <time>2015-10-21T10:27:24.000Z</time>
      </trkpt>
      <trkpt lon="7.1373239904642105" lat="46.16357395425439">
        <ele>1232.199951171875</ele>
        <time>2015-10-21T10:27:30.000Z</time>
      </trkpt>
      <trkpt lon="7.1374129224568605" lat="46.16358392871916">
        <ele>1233.199951171875</ele>
        <time>2015-10-21T10:27:36.000Z</time>
      </trkpt>
      <trkpt lon="7.137585924938321" lat="46.16360194981098">
        <ele>1234.199951171875</ele>
        <time>2015-10-21T10:27:46.000Z</time>
      </trkpt>
      <trkpt lon="7.137770997360349" lat="46.16362592205405">
        <ele>1235.4000244140625</ele>
        <time>2015-10-21T10:27:56.000Z</time>
      </trkpt>
      <trkpt lon="7.137894965708256" lat="46.1637079808861">
        <ele>1239.4000244140625</ele>
        <time>2015-10-21T10:28:05.000Z</time>
      </trkpt>
      <trkpt lon="7.138003930449486" lat="46.163779981434345">
        <ele>1243.0</ele>
        <time>2015-10-21T10:28:13.000Z</time>
      </trkpt>
      <trkpt lon="7.138185985386372" lat="46.16387595422566">
        <ele>1247.5999755859375</ele>
        <time>2015-10-21T10:28:23.000Z</time>
      </trkpt>
      <trkpt lon="7.138328980654478" lat="46.16388592869043">
        <ele>1247.4000244140625</ele>
        <time>2015-10-21T10:28:30.000Z</time>
      </trkpt>
      <trkpt lon="7.138359993696213" lat="46.16388592869043">
        <ele>1247.199951171875</ele>
        <time>2015-10-21T10:28:32.000Z</time>
      </trkpt>
      <trkpt lon="7.138453954830766" lat="46.163887940347195">
        <ele>1246.4000244140625</ele>
        <time>2015-10-21T10:28:38.000Z</time>
      </trkpt>
      <trkpt lon="7.138607930392027" lat="46.16390193812549">
        <ele>1245.5999755859375</ele>
        <time>2015-10-21T10:28:47.000Z</time>
      </trkpt>
      <trkpt lon="7.138748997822404" lat="46.16393798030913">
        <ele>1246.199951171875</ele>
        <time>2015-10-21T10:28:57.000Z</time>
      </trkpt>
      <trkpt lon="7.138852933421731" lat="46.163976956158876">
        <ele>1247.199951171875</ele>
        <time>2015-10-21T10:29:04.000Z</time>
      </trkpt>
      <trkpt lon="7.13895795866847" lat="46.16401199251413">
        <ele>1248.0</ele>
        <time>2015-10-21T10:29:10.000Z</time>
      </trkpt>
      <trkpt lon="7.139120986685157" lat="46.164082987233996">
        <ele>1250.199951171875</ele>
        <time>2015-10-21T10:29:19.000Z</time>
      </trkpt>
      <trkpt lon="7.139146970584989" lat="46.16409497335553">
        <ele>1250.199951171875</ele>
        <time>2015-10-21T10:29:21.000Z</time>
      </trkpt>
      <trkpt lon="7.139269933104515" lat="46.164166973903775">
        <ele>1251.199951171875</ele>
        <time>2015-10-21T10:29:30.000Z</time>
      </trkpt>
      <trkpt lon="7.1392889600247145" lat="46.16418692283332">
        <ele>1251.800048828125</ele>
        <time>2015-10-21T10:29:34.000Z</time>
      </trkpt>
      <trkpt lon="7.139262976124883" lat="46.164228999987245">
        <ele>1254.5999755859375</ele>
        <time>2015-10-21T10:29:40.000Z</time>
      </trkpt>
      <trkpt lon="7.139084944501519" lat="46.16420594975352">
        <ele>1257.4000244140625</ele>
        <time>2015-10-21T10:29:49.000Z</time>
      </trkpt>
      <trkpt lon="7.13889392092824" lat="46.16417393088341">
        <ele>1257.4000244140625</ele>
        <time>2015-10-21T10:29:59.000Z</time>
      </trkpt>
      <trkpt lon="7.1387529373168945" lat="46.16414392367005">
        <ele>1257.199951171875</ele>
        <time>2015-10-21T10:30:08.000Z</time>
      </trkpt>
      <trkpt lon="7.138539953157306" lat="46.1641519702971">
        <ele>1259.5999755859375</ele>
        <time>2015-10-21T10:30:20.000Z</time>
      </trkpt>
      <trkpt lon="7.138356976211071" lat="46.164164962247014">
        <ele>1261.4000244140625</ele>
        <time>2015-10-21T10:30:29.000Z</time>
      </trkpt>
      <trkpt lon="7.138189924880862" lat="46.16413696669042">
        <ele>1260.4000244140625</ele>
        <time>2015-10-21T10:30:38.000Z</time>
      </trkpt>
      <trkpt lon="7.138093952089548" lat="46.164121963083744">
        <ele>1259.800048828125</ele>
        <time>2015-10-21T10:30:46.000Z</time>
      </trkpt>
      <trkpt lon="7.1379489451646805" lat="46.16416194476187">
        <ele>1261.800048828125</ele>
        <time>2015-10-21T10:30:53.000Z</time>
      </trkpt>
      <trkpt lon="7.1378399804234505" lat="46.164232939481735">
        <ele>1265.199951171875</ele>
        <time>2015-10-21T10:31:01.000Z</time>
      </trkpt>
      <trkpt lon="7.137802932411432" lat="46.16426093503833">
        <ele>1266.5999755859375</ele>
        <time>2015-10-21T10:31:04.000Z</time>
      </trkpt>
      <trkpt lon="7.137650968506932" lat="46.164317931979895">
        <ele>1269.0</ele>
        <time>2015-10-21T10:31:14.000Z</time>
      </trkpt>
      <trkpt lon="7.137481989338994" lat="46.16437392309308">
        <ele>1271.199951171875</ele>
        <time>2015-10-21T10:31:24.000Z</time>
      </trkpt>
      <trkpt lon="7.137370929121971" lat="46.16440895944834">
        <ele>1272.5999755859375</ele>
        <time>2015-10-21T10:31:31.000Z</time>
      </trkpt>
      <trkpt lon="7.137247966602445" lat="46.164446929469705">
        <ele>1274.199951171875</ele>
        <time>2015-10-21T10:31:39.000Z</time>
      </trkpt>
      <trkpt lon="7.137137996032834" lat="46.1644799541682">
        <ele>1275.800048828125</ele>
        <time>2015-10-21T10:31:47.000Z</time>
      </trkpt>
      <trkpt lon="7.137013943865895" lat="46.16451893001795">
        <ele>1278.5999755859375</ele>
        <time>2015-10-21T10:31:55.000Z</time>
      </trkpt>
      <trkpt lon="7.136912941932678" lat="46.16454994305968">
        <ele>1280.800048828125</ele>
        <time>2015-10-21T10:32:03.000Z</time>
      </trkpt>
      <trkpt lon="7.136782938614488" lat="46.16456192918122">
        <ele>1282.199951171875</ele>
        <time>2015-10-21T10:32:11.000Z</time>
      </trkpt>
      <trkpt lon="7.136599961668253" lat="46.164577938616276">
        <ele>1284.199951171875</ele>
        <time>2015-10-21T10:32:21.000Z</time>
      </trkpt>
      <trkpt lon="7.1364649292081594" lat="46.16458992473781">
        <ele>1284.5999755859375</ele>
        <time>2015-10-21T10:32:29.000Z</time>
      </trkpt>
      <trkpt lon="7.136332998052239" lat="46.16458497941494">
        <ele>1284.800048828125</ele>
        <time>2015-10-21T10:32:37.000Z</time>
      </trkpt>
      <trkpt lon="7.136215986683965" lat="46.164571987465024">
        <ele>1284.800048828125</ele>
        <time>2015-10-21T10:32:44.000Z</time>
      </trkpt>
      <trkpt lon="7.136059999465942" lat="46.16454591974616">
        <ele>1284.199951171875</ele>
        <time>2015-10-21T10:32:53.000Z</time>
      </trkpt>
      <trkpt lon="7.136029992252588" lat="46.16454097442329">
        <ele>1284.0</ele>
        <time>2015-10-21T10:32:55.000Z</time>
      </trkpt>
      <trkpt lon="7.135888924822211" lat="46.164529994130135">
        <ele>1284.4000244140625</ele>
        <time>2015-10-21T10:33:03.000Z</time>
      </trkpt>
      <trkpt lon="7.135780965909362" lat="46.16454097442329">
        <ele>1285.800048828125</ele>
        <time>2015-10-21T10:33:10.000Z</time>
      </trkpt>
      <trkpt lon="7.135765962302685" lat="46.16454399190843">
        <ele>1286.199951171875</ele>
        <time>2015-10-21T10:33:11.000Z</time>
      </trkpt>
      <trkpt lon="7.135631935670972" lat="46.16456997580826">
        <ele>1288.199951171875</ele>
        <time>2015-10-21T10:33:20.000Z</time>
      </trkpt>
      <trkpt lon="7.135527916252613" lat="46.16459093056619">
        <ele>1290.0</ele>
        <time>2015-10-21T10:33:28.000Z</time>
      </trkpt>
      <trkpt lon="7.135396990925074" lat="46.164617920294404">
        <ele>1293.0</ele>
        <time>2015-10-21T10:33:37.000Z</time>
      </trkpt>
      <trkpt lon="7.135354997590184" lat="46.16462697274983">
        <ele>1294.0</ele>
        <time>2015-10-21T10:33:40.000Z</time>
      </trkpt>
      <trkpt lon="7.135256929323077" lat="46.16464893333614">
        <ele>1296.4000244140625</ele>
        <time>2015-10-21T10:33:47.000Z</time>
      </trkpt>
      <trkpt lon="7.135160956531763" lat="46.16469293832779">
        <ele>1300.199951171875</ele>
        <time>2015-10-21T10:33:55.000Z</time>
      </trkpt>
      <trkpt lon="7.135193981230259" lat="46.16475194692612">
        <ele>1304.0</ele>
        <time>2015-10-21T10:34:02.000Z</time>
      </trkpt>
      <trkpt lon="7.135249972343445" lat="46.16476594470441">
        <ele>1304.5999755859375</ele>
        <time>2015-10-21T10:34:06.000Z</time>
      </trkpt>
      <trkpt lon="7.135396990925074" lat="46.16476594470441">
        <ele>1303.4000244140625</ele>
        <time>2015-10-21T10:34:15.000Z</time>
      </trkpt>
      <trkpt lon="7.135543925687671" lat="46.16476594470441">
        <ele>1302.0</ele>
        <time>2015-10-21T10:34:25.000Z</time>
      </trkpt>
      <trkpt lon="7.135614920407534" lat="46.16476594470441">
        <ele>1301.4000244140625</ele>
        <time>2015-10-21T10:34:30.000Z</time>
      </trkpt>
      <trkpt lon="7.135731931775808" lat="46.164769968017936">
        <ele>1300.800048828125</ele>
        <time>2015-10-21T10:34:39.000Z</time>
      </trkpt>
      <trkpt lon="7.135781971737742" lat="46.16477893665433">
        <ele>1301.0</ele>
        <time>2015-10-21T10:34:42.000Z</time>
      </trkpt>
      <trkpt lon="7.135808961465955" lat="46.16478295996785">
        <ele>1301.0</ele>
        <time>2015-10-21T10:34:44.000Z</time>
      </trkpt>
      <trkpt lon="7.135890936478972" lat="46.164809949696064">
        <ele>1302.0</ele>
        <time>2015-10-21T10:34:51.000Z</time>
      </trkpt>
      <trkpt lon="7.135988920927048" lat="46.16484892554581">
        <ele>1303.4000244140625</ele>
        <time>2015-10-21T10:34:59.000Z</time>
      </trkpt>
      <trkpt lon="7.136045917868614" lat="46.16487197577953">
        <ele>1304.199951171875</ele>
        <time>2015-10-21T10:35:04.000Z</time>
      </trkpt>
      <trkpt lon="7.1361359395086765" lat="46.16490893997252">
        <ele>1305.5999755859375</ele>
        <time>2015-10-21T10:35:12.000Z</time>
      </trkpt>
      <trkpt lon="7.136158989742398" lat="46.164918998256326">
        <ele>1306.0</ele>
        <time>2015-10-21T10:35:14.000Z</time>
      </trkpt>
      <trkpt lon="7.136275917291641" lat="46.164965936914086">
        <ele>1307.800048828125</ele>
        <time>2015-10-21T10:35:23.000Z</time>
      </trkpt>
      <trkpt lon="7.136386977508664" lat="46.1650119535625">
        <ele>1309.5999755859375</ele>
        <time>2015-10-21T10:35:31.000Z</time>
      </trkpt>
      <trkpt lon="7.136488985270262" lat="46.165047995746136">
        <ele>1310.800048828125</ele>
        <time>2015-10-21T10:35:38.000Z</time>
      </trkpt>
      <trkpt lon="7.136670956388116" lat="46.16508194245398">
        <ele>1311.199951171875</ele>
        <time>2015-10-21T10:35:48.000Z</time>
      </trkpt>
      <trkpt lon="7.13689299300313" lat="46.165087977424264">
        <ele>1309.800048828125</ele>
        <time>2015-10-21T10:35:59.000Z</time>
      </trkpt>
      <trkpt lon="7.136950995773077" lat="46.165112955495715">
        <ele>1310.5999755859375</ele>
        <time>2015-10-21T10:36:07.000Z</time>
      </trkpt>
      <trkpt lon="7.136950995773077" lat="46.16515193134546">
        <ele>1312.800048828125</ele>
        <time>2015-10-21T10:36:14.000Z</time>
      </trkpt>
      <trkpt lon="7.136941943317652" lat="46.165155954658985">
        <ele>1313.0</ele>
        <time>2015-10-21T10:36:15.000Z</time>
      </trkpt>
      <trkpt lon="7.13682996109128" lat="46.1651689466089">
        <ele>1314.800048828125</ele>
        <time>2015-10-21T10:36:23.000Z</time>
      </trkpt>
      <trkpt lon="7.1366949286311865" lat="46.16515997797251">
        <ele>1315.4000244140625</ele>
        <time>2015-10-21T10:36:31.000Z</time>
      </trkpt>
      <trkpt lon="7.136627957224846" lat="46.165155954658985">
        <ele>1315.5999755859375</ele>
        <time>2015-10-21T10:36:35.000Z</time>
      </trkpt>
      <trkpt lon="7.136474987491965" lat="46.16513893939555">
        <ele>1315.800048828125</ele>
        <time>2015-10-21T10:36:44.000Z</time>
      </trkpt>
      <trkpt lon="7.136281952261925" lat="46.165111949667335">
        <ele>1315.800048828125</ele>
        <time>2015-10-21T10:36:54.000Z</time>
      </trkpt>
      <trkpt lon="7.136076930910349" lat="46.165094934403896">
        <ele>1316.4000244140625</ele>
        <time>2015-10-21T10:37:05.000Z</time>
      </trkpt>
      <trkpt lon="7.135901916772127" lat="46.165087977424264">
        <ele>1319.4000244140625</ele>
        <time>2015-10-21T10:37:15.000Z</time>
      </trkpt>
      <trkpt lon="7.1357619389891624" lat="46.165087977424264">
        <ele>1322.0</ele>
        <time>2015-10-21T10:37:23.000Z</time>
      </trkpt>
      <trkpt lon="7.135608969256282" lat="46.16510893218219">
        <ele>1324.5999755859375</ele>
        <time>2015-10-21T10:37:33.000Z</time>
      </trkpt>
      <trkpt lon="7.135579967871308" lat="46.16511597298086">
        <ele>1325.4000244140625</ele>
        <time>2015-10-21T10:37:35.000Z</time>
      </trkpt>
      <trkpt lon="7.135494975373149" lat="46.16513994522393">
        <ele>1327.5999755859375</ele>
        <time>2015-10-21T10:37:41.000Z</time>
      </trkpt>
      <trkpt lon="7.135469997301698" lat="46.16516198962927">
        <ele>1329.4000244140625</ele>
        <time>2015-10-21T10:37:45.000Z</time>
      </trkpt>
      <trkpt lon="7.135534957051277" lat="46.16520792245865">
        <ele>1331.800048828125</ele>
        <time>2015-10-21T10:37:51.000Z</time>
      </trkpt>
      <trkpt lon="7.135549960657954" lat="46.16521093994379">
        <ele>1332.0</ele>
        <time>2015-10-21T10:37:52.000Z</time>
      </trkpt>
      <trkpt lon="7.135687926784158" lat="46.16520398296416">
        <ele>1330.4000244140625</ele>
        <time>2015-10-21T10:38:00.000Z</time>
      </trkpt>
      <trkpt lon="7.135793957859278" lat="46.16520691663027">
        <ele>1329.4000244140625</ele>
        <time>2015-10-21T10:38:08.000Z</time>
      </trkpt>
      <trkpt lon="7.13590694591403" lat="46.16524798795581">
        <ele>1330.0</ele>
        <time>2015-10-21T10:38:17.000Z</time>
      </trkpt>
      <trkpt lon="7.136030998080969" lat="46.16529995575547">
        <ele>1331.199951171875</ele>
        <time>2015-10-21T10:38:27.000Z</time>
      </trkpt>
      <trkpt lon="7.136177932843566" lat="46.16536692716181">
        <ele>1332.800048828125</ele>
        <time>2015-10-21T10:38:38.000Z</time>
      </trkpt>
      <trkpt lon="7.1362849697470665" lat="46.16541998460889">
        <ele>1334.4000244140625</ele>
        <time>2015-10-21T10:38:46.000Z</time>
      </trkpt>
      <trkpt lon="7.136375997215509" lat="46.16546591743827">
        <ele>1335.5999755859375</ele>
        <time>2015-10-21T10:38:53.000Z</time>
      </trkpt>
      <trkpt lon="7.13650893419981" lat="46.165524926036596">
        <ele>1337.0</ele>
        <time>2015-10-21T10:39:03.000Z</time>
      </trkpt>
      <trkpt lon="7.136582946404815" lat="46.165544958785176">
        <ele>1337.5999755859375</ele>
        <time>2015-10-21T10:39:08.000Z</time>
      </trkpt>
      <trkpt lon="7.136679925024509" lat="46.16557194851339">
        <ele>1338.199951171875</ele>
        <time>2015-10-21T10:39:15.000Z</time>
      </trkpt>
      <trkpt lon="7.136764917522669" lat="46.165585946291685">
        <ele>1338.199951171875</ele>
        <time>2015-10-21T10:39:22.000Z</time>
      </trkpt>
      <trkpt lon="7.136916965246201" lat="46.16559994406998">
        <ele>1337.800048828125</ele>
        <time>2015-10-21T10:39:33.000Z</time>
      </trkpt>
      <trkpt lon="7.13702492415905" lat="46.16559499874711">
        <ele>1336.5999755859375</ele>
        <time>2015-10-21T10:39:42.000Z</time>
      </trkpt>
      <trkpt lon="7.137103965505958" lat="46.165586952120066">
        <ele>1335.4000244140625</ele>
        <time>2015-10-21T10:39:48.000Z</time>
      </trkpt>
      <trkpt lon="7.137163979932666" lat="46.16558091714978">
        <ele>1334.5999755859375</ele>
        <time>2015-10-21T10:39:54.000Z</time>
      </trkpt>
      <trkpt lon="7.137275962159038" lat="46.16554998792708">
        <ele>1332.0</ele>
        <time>2015-10-21T10:40:03.000Z</time>
      </trkpt>
      <trkpt lon="7.137301946058869" lat="46.165541941300035">
        <ele>1331.4000244140625</ele>
        <time>2015-10-21T10:40:05.000Z</time>
      </trkpt>
      <trkpt lon="7.137357937172055" lat="46.16553791798651">
        <ele>1330.5999755859375</ele>
        <time>2015-10-21T10:40:09.000Z</time>
      </trkpt>
      <trkpt lon="7.1374609507620335" lat="46.16553791798651">
        <ele>1330.0</ele>
        <time>2015-10-21T10:40:15.000Z</time>
      </trkpt>
      <trkpt lon="7.137479977682233" lat="46.165544958785176">
        <ele>1330.199951171875</ele>
        <time>2015-10-21T10:40:16.000Z</time>
      </trkpt>
      <trkpt lon="7.137610986828804" lat="46.165604973211884">
        <ele>1332.4000244140625</ele>
        <time>2015-10-21T10:40:23.000Z</time>
      </trkpt>
      <trkpt lon="7.137889936566353" lat="46.165712932124734">
        <ele>1333.800048828125</ele>
        <time>2015-10-21T10:40:33.000Z</time>
      </trkpt>
      <trkpt lon="7.138064950704575" lat="46.16572793573141">
        <ele>1333.0</ele>
        <time>2015-10-21T10:40:40.000Z</time>
      </trkpt>
      <trkpt lon="7.13820593431592" lat="46.16573095321655">
        <ele>1332.0</ele>
        <time>2015-10-21T10:40:46.000Z</time>
      </trkpt>
      <trkpt lon="7.138368962332606" lat="46.16574092768133">
        <ele>1328.5999755859375</ele>
        <time>2015-10-21T10:40:54.000Z</time>
      </trkpt>
      <trkpt lon="7.138405926525593" lat="46.165755931288004">
        <ele>1327.800048828125</ele>
        <time>2015-10-21T10:40:56.000Z</time>
      </trkpt>
      <trkpt lon="7.138477927073836" lat="46.165775964036584">
        <ele>1326.4000244140625</ele>
        <time>2015-10-21T10:41:03.000Z</time>
      </trkpt>
      <trkpt lon="7.138614971190691" lat="46.165886940434575">
        <ele>1325.4000244140625</ele>
        <time>2015-10-21T10:43:37.000Z</time>
      </trkpt>
      <trkpt lon="7.138658976182342" lat="46.165950978174806">
        <ele>1325.5999755859375</ele>
        <time>2015-10-21T10:43:43.000Z</time>
      </trkpt>
      <trkpt lon="7.138688983395696" lat="46.16600998677313">
        <ele>1325.800048828125</ele>
        <time>2015-10-21T10:43:49.000Z</time>
      </trkpt>
      <trkpt lon="7.138674985617399" lat="46.166078969836235">
        <ele>1328.0</ele>
        <time>2015-10-21T10:44:44.000Z</time>
      </trkpt>
      <trkpt lon="7.138626957312226" lat="46.166186928749084">
        <ele>1333.0</ele>
        <time>2015-10-21T10:44:51.000Z</time>
      </trkpt>
      <trkpt lon="7.138553950935602" lat="46.16631098091602">
        <ele>1339.199951171875</ele>
        <time>2015-10-21T10:44:59.000Z</time>
      </trkpt>
      <trkpt lon="7.138516986742616" lat="46.166447941213846">
        <ele>1344.5999755859375</ele>
        <time>2015-10-21T10:45:07.000Z</time>
      </trkpt>
      <trkpt lon="7.138516986742616" lat="46.166550954803824">
        <ele>1347.199951171875</ele>
        <time>2015-10-21T10:45:14.000Z</time>
      </trkpt>
      <trkpt lon="7.138516986742616" lat="46.166672995314">
        <ele>1350.199951171875</ele>
        <time>2015-10-21T10:45:22.000Z</time>
      </trkpt>
      <trkpt lon="7.138516986742616" lat="46.16679495200515">
        <ele>1353.800048828125</ele>
        <time>2015-10-21T10:45:30.000Z</time>
      </trkpt>
      <trkpt lon="7.138524949550629" lat="46.166895953938365">
        <ele>1356.5999755859375</ele>
        <time>2015-10-21T10:45:38.000Z</time>
      </trkpt>
      <trkpt lon="7.138536935672164" lat="46.1669959500432">
        <ele>1359.0</ele>
        <time>2015-10-21T10:45:47.000Z</time>
      </trkpt>
      <trkpt lon="7.138544982299209" lat="46.16706392727792">
        <ele>1360.800048828125</ele>
        <time>2015-10-21T10:45:54.000Z</time>
      </trkpt>
      <trkpt lon="7.138554956763983" lat="46.16714598610997">
        <ele>1362.800048828125</ele>
        <time>2015-10-21T10:46:02.000Z</time>
      </trkpt>
      <trkpt lon="7.138563925400376" lat="46.16720893420279">
        <ele>1364.4000244140625</ele>
        <time>2015-10-21T10:46:10.000Z</time>
      </trkpt>
      <trkpt lon="7.138577923178673" lat="46.16727196611464">
        <ele>1365.800048828125</ele>
        <time>2015-10-21T10:46:17.000Z</time>
      </trkpt>
      <trkpt lon="7.138588987290859" lat="46.16732292808592">
        <ele>1368.199951171875</ele>
        <time>2015-10-21T10:46:23.000Z</time>
      </trkpt>
      <trkpt lon="7.138638943433762" lat="46.167455948889256">
        <ele>1374.0</ele>
        <time>2015-10-21T10:46:33.000Z</time>
      </trkpt>
      <trkpt lon="7.138707926496863" lat="46.16757698357105">
        <ele>1378.4000244140625</ele>
        <time>2015-10-21T10:46:42.000Z</time>
      </trkpt>
      <trkpt lon="7.1387729700654745" lat="46.167651917785406">
        <ele>1380.199951171875</ele>
        <time>2015-10-21T10:46:52.000Z</time>
      </trkpt>
      <trkpt lon="7.13882795535028" lat="46.167714949697256">
        <ele>1381.800048828125</ele>
        <time>2015-10-21T10:47:00.000Z</time>
      </trkpt>
      <trkpt lon="7.1389099303632975" lat="46.16780991666019">
        <ele>1384.0</ele>
        <time>2015-10-21T10:47:08.000Z</time>
      </trkpt>
      <trkpt lon="7.138972962275147" lat="46.167884934693575">
        <ele>1386.0</ele>
        <time>2015-10-21T10:47:17.000Z</time>
      </trkpt>
      <trkpt lon="7.139025935903192" lat="46.167949978262186">
        <ele>1387.5999755859375</ele>
        <time>2015-10-21T10:47:24.000Z</time>
      </trkpt>
      <trkpt lon="7.1391929872334" lat="46.16806698963046">
        <ele>1387.0</ele>
        <time>2015-10-21T10:47:34.000Z</time>
      </trkpt>
      <trkpt lon="7.139282925054431" lat="46.168118957430124">
        <ele>1385.4000244140625</ele>
        <time>2015-10-21T10:47:42.000Z</time>
      </trkpt>
      <trkpt lon="7.139403959736228" lat="46.16819095797837">
        <ele>1382.199951171875</ele>
        <time>2015-10-21T10:47:52.000Z</time>
      </trkpt>
      <trkpt lon="7.139491969719529" lat="46.16824292577803">
        <ele>1380.0</ele>
        <time>2015-10-21T10:47:59.000Z</time>
      </trkpt>
      <trkpt lon="7.139592971652746" lat="46.16830394603312">
        <ele>1377.4000244140625</ele>
        <time>2015-10-21T10:48:07.000Z</time>
      </trkpt>
      <trkpt lon="7.139712916687131" lat="46.168375946581364">
        <ele>1374.199951171875</ele>
        <time>2015-10-21T10:48:17.000Z</time>
      </trkpt>
      <trkpt lon="7.139807967469096" lat="46.16844694130123">
        <ele>1372.4000244140625</ele>
        <time>2015-10-21T10:48:27.000Z</time>
      </trkpt>
      <trkpt lon="7.139894971624017" lat="46.16851592436433">
        <ele>1370.800048828125</ele>
        <time>2015-10-21T10:48:35.000Z</time>
      </trkpt>
      <trkpt lon="7.14000997133553" lat="46.16860896348953">
        <ele>1368.4000244140625</ele>
        <time>2015-10-21T10:48:46.000Z</time>
      </trkpt>
      <trkpt lon="7.1400929521769285" lat="46.16869596764445">
        <ele>1367.199951171875</ele>
        <time>2015-10-21T10:48:56.000Z</time>
      </trkpt>
      <trkpt lon="7.140148943290114" lat="46.16878096014261">
        <ele>1367.5999755859375</ele>
        <time>2015-10-21T10:49:05.000Z</time>
      </trkpt>
      <trkpt lon="7.140194959938526" lat="46.16885991767049">
        <ele>1368.199951171875</ele>
        <time>2015-10-21T10:49:13.000Z</time>
      </trkpt>
      <trkpt lon="7.140219938009977" lat="46.168960919603705">
        <ele>1370.5999755859375</ele>
        <time>2015-10-21T10:49:23.000Z</time>
      </trkpt>
      <trkpt lon="7.140233935788274" lat="46.16902596317232">
        <ele>1371.5999755859375</ele>
        <time>2015-10-21T10:49:29.000Z</time>
      </trkpt>
      <trkpt lon="7.140233935788274" lat="46.16907793097198">
        <ele>1373.0</ele>
        <time>2015-10-21T10:49:34.000Z</time>
      </trkpt>
      <trkpt lon="7.140233935788274" lat="46.1691789329052">
        <ele>1375.5999755859375</ele>
        <time>2015-10-21T10:49:44.000Z</time>
      </trkpt>
      <trkpt lon="7.140212981030345" lat="46.16927297785878">
        <ele>1378.5999755859375</ele>
        <time>2015-10-21T10:49:54.000Z</time>
      </trkpt>
      <trkpt lon="7.140191942453384" lat="46.169342966750264">
        <ele>1380.800048828125</ele>
        <time>2015-10-21T10:50:01.000Z</time>
      </trkpt>
      <trkpt lon="7.1401639468967915" lat="46.169430976733565">
        <ele>1383.4000244140625</ele>
        <time>2015-10-21T10:50:10.000Z</time>
      </trkpt>
      <trkpt lon="7.140142992138863" lat="46.16949995979667">
        <ele>1385.4000244140625</ele>
        <time>2015-10-21T10:50:19.000Z</time>
      </trkpt>
      <trkpt lon="7.140107955783606" lat="46.16961294785142">
        <ele>1388.800048828125</ele>
        <time>2015-10-21T10:50:27.000Z</time>
      </trkpt>
      <trkpt lon="7.140080966055393" lat="46.16969995200634">
        <ele>1391.4000244140625</ele>
        <time>2015-10-21T10:50:35.000Z</time>
      </trkpt>
      <trkpt lon="7.140053976327181" lat="46.16978796198964">
        <ele>1394.199951171875</ele>
        <time>2015-10-21T10:50:44.000Z</time>
      </trkpt>
      <trkpt lon="7.14003193192184" lat="46.16991092450917">
        <ele>1399.0</ele>
        <time>2015-10-21T10:50:54.000Z</time>
      </trkpt>
      <trkpt lon="7.140022963285446" lat="46.17000195197761">
        <ele>1400.800048828125</ele>
        <time>2015-10-21T10:51:03.000Z</time>
      </trkpt>
      <trkpt lon="7.140042996034026" lat="46.170117957517505">
        <ele>1402.4000244140625</ele>
        <time>2015-10-21T10:51:14.000Z</time>
      </trkpt>
      <trkpt lon="7.1400499530136585" lat="46.170137990266085">
        <ele>1402.5999755859375</ele>
        <time>2015-10-21T10:51:16.000Z</time>
      </trkpt>
      <trkpt lon="7.140088928863406" lat="46.17022197693586">
        <ele>1403.0</ele>
        <time>2015-10-21T10:51:24.000Z</time>
      </trkpt>
      <trkpt lon="7.140102926641703" lat="46.170245949178934">
        <ele>1403.199951171875</ele>
        <time>2015-10-21T10:51:26.000Z</time>
      </trkpt>
      <trkpt lon="7.140151960775256" lat="46.170332953333855">
        <ele>1403.4000244140625</ele>
        <time>2015-10-21T10:51:35.000Z</time>
      </trkpt>
      <trkpt lon="7.140177944675088" lat="46.170378969982266">
        <ele>1403.5999755859375</ele>
        <time>2015-10-21T10:51:41.000Z</time>
      </trkpt>
      <trkpt lon="7.140191942453384" lat="46.17040394805372">
        <ele>1403.5999755859375</ele>
        <time>2015-10-21T10:51:46.000Z</time>
      </trkpt>
      <trkpt lon="7.140225972980261" lat="46.170464968308806">
        <ele>1403.800048828125</ele>
        <time>2015-10-21T10:51:54.000Z</time>
      </trkpt>
      <trkpt lon="7.14028799906373" lat="46.170572927221656">
        <ele>1404.199951171875</ele>
        <time>2015-10-21T10:52:03.000Z</time>
      </trkpt>
      <trkpt lon="7.140341978520155" lat="46.170668983832">
        <ele>1404.5999755859375</ele>
        <time>2015-10-21T10:52:11.000Z</time>
      </trkpt>
      <trkpt lon="7.1403859835118055" lat="46.17073494940996">
        <ele>1404.800048828125</ele>
        <time>2015-10-21T10:52:17.000Z</time>
      </trkpt>
      <trkpt lon="7.1404829621315" lat="46.17087995633483">
        <ele>1405.4000244140625</ele>
        <time>2015-10-21T10:52:29.000Z</time>
      </trkpt>
      <trkpt lon="7.140535935759544" lat="46.17097198963165">
        <ele>1406.0</ele>
        <time>2015-10-21T10:52:37.000Z</time>
      </trkpt>
      <trkpt lon="7.14056795462966" lat="46.17105899378657">
        <ele>1407.0</ele>
        <time>2015-10-21T10:52:45.000Z</time>
      </trkpt>
      <trkpt lon="7.140594944357872" lat="46.171168964356184">
        <ele>1408.800048828125</ele>
        <time>2015-10-21T10:52:54.000Z</time>
      </trkpt>
      <trkpt lon="7.140644984319806" lat="46.17123995907605">
        <ele>1409.0</ele>
        <time>2015-10-21T10:53:01.000Z</time>
      </trkpt>
      <trkpt lon="7.1407149732112885" lat="46.1713199224323">
        <ele>1408.800048828125</ele>
        <time>2015-10-21T10:53:08.000Z</time>
      </trkpt>
      <trkpt lon="7.140748919919133" lat="46.1713529471308">
        <ele>1408.5999755859375</ele>
        <time>2015-10-21T10:53:16.000Z</time>
      </trkpt>
      <trkpt lon="7.140812957659364" lat="46.1713529471308">
        <ele>1409.0</ele>
        <time>2015-10-21T10:53:21.000Z</time>
      </trkpt>
      <trkpt lon="7.140898955985904" lat="46.17133199237287">
        <ele>1410.800048828125</ele>
        <time>2015-10-21T10:53:30.000Z</time>
      </trkpt>
      <trkpt lon="7.140988977625966" lat="46.171277929097414">
        <ele>1412.0</ele>
        <time>2015-10-21T10:53:38.000Z</time>
      </trkpt>
      <trkpt lon="7.141094924882054" lat="46.171213975176215">
        <ele>1413.4000244140625</ele>
        <time>2015-10-21T10:53:47.000Z</time>
      </trkpt>
      <trkpt lon="7.1411549393087626" lat="46.171170976012945">
        <ele>1414.199951171875</ele>
        <time>2015-10-21T10:53:53.000Z</time>
      </trkpt>
      <trkpt lon="7.141251917928457" lat="46.17109595797956">
        <ele>1415.0</ele>
        <time>2015-10-21T10:54:02.000Z</time>
      </trkpt>
      <trkpt lon="7.141317967325449" lat="46.17103694938123">
        <ele>1416.0</ele>
        <time>2015-10-21T10:54:10.000Z</time>
      </trkpt>
      <trkpt lon="7.141368929296732" lat="46.17096997797489">
        <ele>1416.199951171875</ele>
        <time>2015-10-21T10:54:17.000Z</time>
      </trkpt>
      <trkpt lon="7.1414179634302855" lat="46.17089697159827">
        <ele>1416.4000244140625</ele>
        <time>2015-10-21T10:54:25.000Z</time>
      </trkpt>
      <trkpt lon="7.141435984522104" lat="46.170868976041675">
        <ele>1416.4000244140625</ele>
        <time>2015-10-21T10:54:28.000Z</time>
      </trkpt>
      <trkpt lon="7.14149096980691" lat="46.17075892165303">
        <ele>1416.199951171875</ele>
        <time>2015-10-21T10:54:39.000Z</time>
      </trkpt>
      <trkpt lon="7.1415269281715155" lat="46.17066797800362">
        <ele>1415.5999755859375</ele>
        <time>2015-10-21T10:54:48.000Z</time>
      </trkpt>
      <trkpt lon="7.1415619645267725" lat="46.17054493166506">
        <ele>1412.5999755859375</ele>
        <time>2015-10-21T10:54:59.000Z</time>
      </trkpt>
      <trkpt lon="7.141637988388538" lat="46.170409983024">
        <ele>1406.5999755859375</ele>
        <time>2015-10-21T10:55:09.000Z</time>
      </trkpt>
      <trkpt lon="7.141828928142786" lat="46.17032792419195">
        <ele>1410.0</ele>
        <time>2015-10-21T10:55:15.000Z</time>
      </trkpt>
      <trkpt lon="7.142002936452627" lat="46.17035097442567">
        <ele>1418.5999755859375</ele>
        <time>2015-10-21T10:55:24.000Z</time>
      </trkpt>
      <trkpt lon="7.142142998054624" lat="46.17036597803235">
        <ele>1425.4000244140625</ele>
        <time>2015-10-21T10:55:31.000Z</time>
      </trkpt>
      <trkpt lon="7.142280964180827" lat="46.17036597803235">
        <ele>1430.800048828125</ele>
        <time>2015-10-21T10:55:37.000Z</time>
      </trkpt>
      <trkpt lon="7.1423709858208895" lat="46.17034896276891">
        <ele>1433.0</ele>
        <time>2015-10-21T10:55:43.000Z</time>
      </trkpt>
      <trkpt lon="7.142466958612204" lat="46.17027897387743">
        <ele>1432.0</ele>
        <time>2015-10-21T10:55:49.000Z</time>
      </trkpt>
      <trkpt lon="7.142579946666956" lat="46.1701649799943">
        <ele>1428.199951171875</ele>
        <time>2015-10-21T10:55:56.000Z</time>
      </trkpt>
      <trkpt lon="7.142774993553758" lat="46.170073952525854">
        <ele>1428.199951171875</ele>
        <time>2015-10-21T10:56:01.000Z</time>
      </trkpt>
      <trkpt lon="7.1430539432913065" lat="46.17000597529113">
        <ele>1433.5999755859375</ele>
        <time>2015-10-21T10:56:09.000Z</time>
      </trkpt>
      <trkpt lon="7.143148994073272" lat="46.16995392367244">
        <ele>1433.800048828125</ele>
        <time>2015-10-21T10:56:12.000Z</time>
      </trkpt>
      <trkpt lon="7.143329959362745" lat="46.169839929789305">
        <ele>1433.0</ele>
        <time>2015-10-21T10:56:16.000Z</time>
      </trkpt>
      <trkpt lon="7.143645957112312" lat="46.169603979215026">
        <ele>1426.800048828125</ele>
        <time>2015-10-21T10:56:21.000Z</time>
      </trkpt>
      <trkpt lon="7.1441009268164635" lat="46.169427959248424">
        <ele>1428.0</ele>
        <time>2015-10-21T10:56:25.000Z</time>
      </trkpt>
      <trkpt lon="7.144743986427784" lat="46.16919192485511">
        <ele>1425.199951171875</ele>
        <time>2015-10-21T10:56:30.000Z</time>
      </trkpt>
      <trkpt lon="7.1454759780317545" lat="46.16891699843109">
        <ele>1423.5999755859375</ele>
        <time>2015-10-21T10:56:35.000Z</time>
      </trkpt>
      <trkpt lon="7.14643495157361" lat="46.16841391660273">
        <ele>1412.4000244140625</ele>
        <time>2015-10-21T10:56:42.000Z</time>
      </trkpt>
      <trkpt lon="7.146964939311147" lat="46.16818894632161">
        <ele>1405.199951171875</ele>
        <time>2015-10-21T10:56:46.000Z</time>
      </trkpt>
      <trkpt lon="7.147524934262037" lat="46.16800194606185">
        <ele>1401.4000244140625</ele>
        <time>2015-10-21T10:56:51.000Z</time>
      </trkpt>
      <trkpt lon="7.148208981379867" lat="46.16787294857204">
        <ele>1395.4000244140625</ele>
        <time>2015-10-21T10:56:57.000Z</time>
      </trkpt>
      <trkpt lon="7.148533947765827" lat="46.16788795217872">
        <ele>1393.5999755859375</ele>
        <time>2015-10-21T10:57:01.000Z</time>
      </trkpt>
      <trkpt lon="7.148600919172168" lat="46.16790094412863">
        <ele>1393.199951171875</ele>
        <time>2015-10-21T10:57:05.000Z</time>
      </trkpt>
      <trkpt lon="7.148642996326089" lat="46.16786498576403">
        <ele>1391.5999755859375</ele>
        <time>2015-10-21T10:57:15.000Z</time>
      </trkpt>
      <trkpt lon="7.148621957749128" lat="46.167885940521955">
        <ele>1392.5999755859375</ele>
        <time>2015-10-21T10:59:08.000Z</time>
      </trkpt>
      <trkpt lon="7.148621957749128" lat="46.1678889580071">
        <ele>1392.5999755859375</ele>
        <time>2015-10-21T10:59:10.000Z</time>
      </trkpt>
      <trkpt lon="7.148681972175837" lat="46.16791594773531">
        <ele>1392.800048828125</ele>
        <time>2015-10-21T10:59:17.000Z</time>
      </trkpt>
      <trkpt lon="7.148928986862302" lat="46.16797897964716">
        <ele>1391.800048828125</ele>
        <time>2015-10-21T10:59:24.000Z</time>
      </trkpt>
      <trkpt lon="7.149082962423563" lat="46.168075958266854">
        <ele>1393.199951171875</ele>
        <time>2015-10-21T10:59:30.000Z</time>
      </trkpt>
      <trkpt lon="7.149256970733404" lat="46.1682409979403">
        <ele>1394.0</ele>
        <time>2015-10-21T10:59:36.000Z</time>
      </trkpt>
      <trkpt lon="7.149554947391152" lat="46.168481977656484">
        <ele>1393.5999755859375</ele>
        <time>2015-10-21T10:59:44.000Z</time>
      </trkpt>
      <trkpt lon="7.149855941534042" lat="46.16858893074095">
        <ele>1390.5999755859375</ele>
        <time>2015-10-21T10:59:49.000Z</time>
      </trkpt>
      <trkpt lon="7.149931965395808" lat="46.168613992631435">
        <ele>1389.800048828125</ele>
        <time>2015-10-21T10:59:50.000Z</time>
      </trkpt>
      <trkpt lon="7.1502219792455435" lat="46.168809961527586">
        <ele>1384.0</ele>
        <time>2015-10-21T10:59:54.000Z</time>
      </trkpt>
      <trkpt lon="7.150313928723335" lat="46.16895195096731">
        <ele>1383.800048828125</ele>
        <time>2015-10-21T10:59:56.000Z</time>
      </trkpt>
      <trkpt lon="7.150619952008128" lat="46.169577995315194">
        <ele>1393.0</ele>
        <time>2015-10-21T11:00:05.000Z</time>
      </trkpt>
      <trkpt lon="7.150718942284584" lat="46.16995099000633">
        <ele>1402.0</ele>
        <time>2015-10-21T11:00:11.000Z</time>
      </trkpt>
      <trkpt lon="7.150796977803111" lat="46.1700299475342">
        <ele>1403.5999755859375</ele>
        <time>2015-10-21T11:00:13.000Z</time>
      </trkpt>
      <trkpt lon="7.150919940322638" lat="46.17006598971784">
        <ele>1402.4000244140625</ele>
        <time>2015-10-21T11:00:17.000Z</time>
      </trkpt>
      <trkpt lon="7.150914994999766" lat="46.17004998028278">
        <ele>1401.800048828125</ele>
        <time>2015-10-21T11:00:19.000Z</time>
      </trkpt>
      <trkpt lon="7.150886999443173" lat="46.16995392367244">
        <ele>1398.5999755859375</ele>
        <time>2015-10-21T11:00:21.000Z</time>
      </trkpt>
      <trkpt lon="7.1507959719747305" lat="46.16963398642838">
        <ele>1389.199951171875</ele>
        <time>2015-10-21T11:00:26.000Z</time>
      </trkpt>
      <trkpt lon="7.1507759392261505" lat="46.16946391761303">
        <ele>1384.199951171875</ele>
        <time>2015-10-21T11:00:28.000Z</time>
      </trkpt>
      <trkpt lon="7.150799995288253" lat="46.169275995343924">
        <ele>1377.800048828125</ele>
        <time>2015-10-21T11:00:30.000Z</time>
      </trkpt>
      <trkpt lon="7.150787925347686" lat="46.16888095624745">
        <ele>1367.199951171875</ele>
        <time>2015-10-21T11:00:34.000Z</time>
      </trkpt>
      <trkpt lon="7.150650965049863" lat="46.16856093518436">
        <ele>1367.199951171875</ele>
        <time>2015-10-21T11:00:37.000Z</time>
      </trkpt>
      <trkpt lon="7.150498917326331" lat="46.16819892078638">
        <ele>1367.4000244140625</ele>
        <time>2015-10-21T11:00:41.000Z</time>
      </trkpt>
      <trkpt lon="7.150329938158393" lat="46.1679769679904">
        <ele>1368.0</ele>
        <time>2015-10-21T11:00:44.000Z</time>
      </trkpt>
      <trkpt lon="7.150318957865238" lat="46.16789197549224">
        <ele>1366.800048828125</ele>
        <time>2015-10-21T11:00:45.000Z</time>
      </trkpt>
      <trkpt lon="7.150414930656552" lat="46.16765795275569">
        <ele>1360.0</ele>
        <time>2015-10-21T11:00:48.000Z</time>
      </trkpt>
      <trkpt lon="7.150606960058212" lat="46.16749098524451">
        <ele>1352.5999755859375</ele>
        <time>2015-10-21T11:00:52.000Z</time>
      </trkpt>
      <trkpt lon="7.150747943669558" lat="46.16759198717773">
        <ele>1351.199951171875</ele>
        <time>2015-10-21T11:00:54.000Z</time>
      </trkpt>
      <trkpt lon="7.150768982246518" lat="46.16789692081511">
        <ele>1356.199951171875</ele>
        <time>2015-10-21T11:00:59.000Z</time>
      </trkpt>
      <trkpt lon="7.150974925607443" lat="46.16808693856001">
        <ele>1354.800048828125</ele>
        <time>2015-10-21T11:01:02.000Z</time>
      </trkpt>
      <trkpt lon="7.151362923905253" lat="46.16834593936801">
        <ele>1349.199951171875</ele>
        <time>2015-10-21T11:01:06.000Z</time>
      </trkpt>
      <trkpt lon="7.151597952470183" lat="46.168610975146294">
        <ele>1347.4000244140625</ele>
        <time>2015-10-21T11:01:10.000Z</time>
      </trkpt>
      <trkpt lon="7.151626953855157" lat="46.168764950707555">
        <ele>1349.0</ele>
        <time>2015-10-21T11:01:12.000Z</time>
      </trkpt>
      <trkpt lon="7.15161195024848" lat="46.16894197650254">
        <ele>1351.800048828125</ele>
        <time>2015-10-21T11:01:14.000Z</time>
      </trkpt>
      <trkpt lon="7.15174094773829" lat="46.16929292678833">
        <ele>1359.4000244140625</ele>
        <time>2015-10-21T11:01:18.000Z</time>
      </trkpt>
      <trkpt lon="7.151818983256817" lat="46.16937791928649">
        <ele>1360.0</ele>
        <time>2015-10-21T11:01:24.000Z</time>
      </trkpt>
      <trkpt lon="7.152524990960956" lat="46.16981998085976">
        <ele>1355.4000244140625</ele>
        <time>2015-10-21T11:01:26.000Z</time>
      </trkpt>
      <trkpt lon="7.152605960145593" lat="46.16987597197294">
        <ele>1356.4000244140625</ele>
        <time>2015-10-21T11:01:27.000Z</time>
      </trkpt>
      <trkpt lon="7.15307098813355" lat="46.17013296112418">
        <ele>1359.5999755859375</ele>
        <time>2015-10-21T11:01:33.000Z</time>
      </trkpt>
      <trkpt lon="7.153391931205988" lat="46.17022993974388">
        <ele>1357.800048828125</ele>
        <time>2015-10-21T11:01:36.000Z</time>
      </trkpt>
      <trkpt lon="7.153718993067741" lat="46.17028098553419">
        <ele>1354.0</ele>
        <time>2015-10-21T11:01:39.000Z</time>
      </trkpt>
      <trkpt lon="7.15425593778491" lat="46.1704049538821">
        <ele>1344.0</ele>
        <time>2015-10-21T11:01:43.000Z</time>
      </trkpt>
      <trkpt lon="7.1548419166356325" lat="46.17067493498325">
        <ele>1337.199951171875</ele>
        <time>2015-10-21T11:01:48.000Z</time>
      </trkpt>
      <trkpt lon="7.155167972669005" lat="46.17092396132648">
        <ele>1334.5999755859375</ele>
        <time>2015-10-21T11:01:52.000Z</time>
      </trkpt>
      <trkpt lon="7.155480952933431" lat="46.17122495546937">
        <ele>1334.0</ele>
        <time>2015-10-21T11:01:57.000Z</time>
      </trkpt>
      <trkpt lon="7.155598970130086" lat="46.171254962682724">
        <ele>1329.199951171875</ele>
        <time>2015-10-21T11:01:58.000Z</time>
      </trkpt>
      <trkpt lon="7.155990991741419" lat="46.1715289670974">
        <ele>1324.4000244140625</ele>
        <time>2015-10-21T11:02:03.000Z</time>
      </trkpt>
      <trkpt lon="7.156292991712689" lat="46.17181294597685">
        <ele>1329.199951171875</ele>
        <time>2015-10-21T11:02:07.000Z</time>
      </trkpt>
      <trkpt lon="7.156734969466925" lat="46.172114945948124">
        <ele>1328.199951171875</ele>
        <time>2015-10-21T11:02:12.000Z</time>
      </trkpt>
      <trkpt lon="7.156926998868585" lat="46.17222994565964">
        <ele>1327.199951171875</ele>
        <time>2015-10-21T11:02:14.000Z</time>
      </trkpt>
      <trkpt lon="7.157140988856554" lat="46.17242499254644">
        <ele>1337.800048828125</ele>
        <time>2015-10-21T11:02:17.000Z</time>
      </trkpt>
      <trkpt lon="7.15734894387424" lat="46.17260193452239">
        <ele>1348.4000244140625</ele>
        <time>2015-10-21T11:02:21.000Z</time>
      </trkpt>
      <trkpt lon="7.157537955790758" lat="46.172785917297006">
        <ele>1359.800048828125</ele>
        <time>2015-10-21T11:02:28.000Z</time>
      </trkpt>
      <trkpt lon="7.1576929371804" lat="46.172872921451926">
        <ele>1360.4000244140625</ele>
        <time>2015-10-21T11:02:35.000Z</time>
      </trkpt>
      <trkpt lon="7.157806931063533" lat="46.17292991839349">
        <ele>1360.0</ele>
        <time>2015-10-21T11:02:41.000Z</time>
      </trkpt>
      <trkpt lon="7.157929977402091" lat="46.17297291755676">
        <ele>1357.199951171875</ele>
        <time>2015-10-21T11:02:47.000Z</time>
      </trkpt>
      <trkpt lon="7.158083952963352" lat="46.173019940033555">
        <ele>1353.199951171875</ele>
        <time>2015-10-21T11:02:54.000Z</time>
      </trkpt>
      <trkpt lon="7.158234994858503" lat="46.17304894141853">
        <ele>1347.4000244140625</ele>
        <time>2015-10-21T11:03:01.000Z</time>
      </trkpt>
      <trkpt lon="7.158394921571016" lat="46.17304894141853">
        <ele>1339.4000244140625</ele>
        <time>2015-10-21T11:03:08.000Z</time>
      </trkpt>
      <trkpt lon="7.158575970679522" lat="46.173124965280294">
        <ele>1337.5999755859375</ele>
        <time>2015-10-21T11:03:19.000Z</time>
      </trkpt>
      <trkpt lon="7.158743944019079" lat="46.17319596000016">
        <ele>1337.4000244140625</ele>
        <time>2015-10-21T11:03:27.000Z</time>
      </trkpt>
      <trkpt lon="7.1588999312371016" lat="46.17326594889164">
        <ele>1337.4000244140625</ele>
        <time>2015-10-21T11:03:34.000Z</time>
      </trkpt>
      <trkpt lon="7.1590489614754915" lat="46.17335295304656">
        <ele>1340.0</ele>
        <time>2015-10-21T11:03:41.000Z</time>
      </trkpt>
      <trkpt lon="7.159234955906868" lat="46.17341699078679">
        <ele>1337.5999755859375</ele>
        <time>2015-10-21T11:03:48.000Z</time>
      </trkpt>
      <trkpt lon="7.159506948664784" lat="46.17347398772836">
        <ele>1329.800048828125</ele>
        <time>2015-10-21T11:03:58.000Z</time>
      </trkpt>
      <trkpt lon="7.159706940874457" lat="46.173533918336034">
        <ele>1327.199951171875</ele>
        <time>2015-10-21T11:04:06.000Z</time>
      </trkpt>
      <trkpt lon="7.159953955560923" lat="46.17360893636942">
        <ele>1324.4000244140625</ele>
        <time>2015-10-21T11:04:15.000Z</time>
      </trkpt>
      <trkpt lon="7.160091921687126" lat="46.173683954402804">
        <ele>1326.199951171875</ele>
        <time>2015-10-21T11:04:22.000Z</time>
      </trkpt>
      <trkpt lon="7.16024799272418" lat="46.17382896132767">
        <ele>1334.800048828125</ele>
        <time>2015-10-21T11:04:31.000Z</time>
      </trkpt>
      <trkpt lon="7.160326950252056" lat="46.17392593994737">
        <ele>1341.800048828125</ele>
        <time>2015-10-21T11:04:37.000Z</time>
      </trkpt>
      <trkpt lon="7.160427952185273" lat="46.174050997942686">
        <ele>1348.4000244140625</ele>
        <time>2015-10-21T11:04:44.000Z</time>
      </trkpt>
      <trkpt lon="7.160596931353211" lat="46.174156945198774">
        <ele>1349.5999755859375</ele>
        <time>2015-10-21T11:04:51.000Z</time>
      </trkpt>
      <trkpt lon="7.160764988511801" lat="46.17419793270528">
        <ele>1345.4000244140625</ele>
        <time>2015-10-21T11:04:56.000Z</time>
      </trkpt>
      <trkpt lon="7.161008985713124" lat="46.174244955182076">
        <ele>1338.199951171875</ele>
        <time>2015-10-21T11:05:02.000Z</time>
      </trkpt>
      <trkpt lon="7.161222975701094" lat="46.17431594990194">
        <ele>1334.800048828125</ele>
        <time>2015-10-21T11:05:07.000Z</time>
      </trkpt>
      <trkpt lon="7.161375945433974" lat="46.17437596432865">
        <ele>1333.4000244140625</ele>
        <time>2015-10-21T11:05:11.000Z</time>
      </trkpt>
      <trkpt lon="7.161514917388558" lat="46.17451292462647">
        <ele>1339.0</ele>
        <time>2015-10-21T11:05:17.000Z</time>
      </trkpt>
      <trkpt lon="7.161637963727117" lat="46.17464292794466">
        <ele>1344.4000244140625</ele>
        <time>2015-10-21T11:05:22.000Z</time>
      </trkpt>
      <trkpt lon="7.161801997572184" lat="46.17473999038339">
        <ele>1345.0</ele>
        <time>2015-10-21T11:05:27.000Z</time>
      </trkpt>
      <trkpt lon="7.162063932046294" lat="46.174906957894564">
        <ele>1343.800048828125</ele>
        <time>2015-10-21T11:05:35.000Z</time>
      </trkpt>
      <trkpt lon="7.162265935912728" lat="46.175061939284205">
        <ele>1343.800048828125</ele>
        <time>2015-10-21T11:05:41.000Z</time>
      </trkpt>
      <trkpt lon="7.162520997226238" lat="46.17522697895765">
        <ele>1342.199951171875</ele>
        <time>2015-10-21T11:05:48.000Z</time>
      </trkpt>
      <trkpt lon="7.162803970277309" lat="46.17534499615431">
        <ele>1338.0</ele>
        <time>2015-10-21T11:05:54.000Z</time>
      </trkpt>
      <trkpt lon="7.162925926968455" lat="46.175489919260144">
        <ele>1341.5999755859375</ele>
        <time>2015-10-21T11:05:59.000Z</time>
      </trkpt>
      <trkpt lon="7.1630999352782965" lat="46.1756959464401">
        <ele>1347.199951171875</ele>
        <time>2015-10-21T11:06:06.000Z</time>
      </trkpt>
      <trkpt lon="7.163283918052912" lat="46.175899961963296">
        <ele>1352.4000244140625</ele>
        <time>2015-10-21T11:06:13.000Z</time>
      </trkpt>
      <trkpt lon="7.163495980203152" lat="46.17607899941504">
        <ele>1355.199951171875</ele>
        <time>2015-10-21T11:06:20.000Z</time>
      </trkpt>
      <trkpt lon="7.163680968806148" lat="46.17618595249951">
        <ele>1354.5999755859375</ele>
        <time>2015-10-21T11:06:25.000Z</time>
      </trkpt>
      <trkpt lon="7.163863945752382" lat="46.1762659996748">
        <ele>1352.4000244140625</ele>
        <time>2015-10-21T11:06:29.000Z</time>
      </trkpt>
      <trkpt lon="7.164156977087259" lat="46.17642098106444">
        <ele>1350.0</ele>
        <time>2015-10-21T11:06:36.000Z</time>
      </trkpt>
      <trkpt lon="7.164414972066879" lat="46.17657696828246">
        <ele>1351.199951171875</ele>
        <time>2015-10-21T11:06:43.000Z</time>
      </trkpt>
      <trkpt lon="7.164598954841495" lat="46.17680696770549">
        <ele>1364.0</ele>
        <time>2015-10-21T11:06:50.000Z</time>
      </trkpt>
      <trkpt lon="7.164859967306256" lat="46.17695993743837">
        <ele>1365.5999755859375</ele>
        <time>2015-10-21T11:06:57.000Z</time>
      </trkpt>
      <trkpt lon="7.16510497033596" lat="46.17714894935489">
        <ele>1369.800048828125</ele>
        <time>2015-10-21T11:07:05.000Z</time>
      </trkpt>
      <trkpt lon="7.165250983089209" lat="46.17731097154319">
        <ele>1377.0</ele>
        <time>2015-10-21T11:07:11.000Z</time>
      </trkpt>
      <trkpt lon="7.165394984185696" lat="46.177447931841016">
        <ele>1383.199951171875</ele>
        <time>2015-10-21T11:07:17.000Z</time>
      </trkpt>
      <trkpt lon="7.165452986955643" lat="46.17749797180295">
        <ele>1385.0</ele>
        <time>2015-10-21T11:07:21.000Z</time>
      </trkpt>
      <trkpt lon="7.16546799056232" lat="46.177511969581246">
        <ele>1385.5999755859375</ele>
        <time>2015-10-21T11:07:26.000Z</time>
      </trkpt>
      <trkpt lon="7.16546799056232" lat="46.177511969581246">
        <ele>1385.5999755859375</ele>
        <time>2015-10-21T11:07:28.000Z</time>
      </trkpt>
      <trkpt lon="7.1659469325095415" lat="46.17762898094952">
        <ele>1372.4000244140625</ele>
        <time>2015-10-21T11:07:46.000Z</time>
      </trkpt>
      <trkpt lon="7.166432999074459" lat="46.177640967071056">
        <ele>1355.199951171875</ele>
        <time>2015-10-21T11:07:50.000Z</time>
      </trkpt>
      <trkpt lon="7.167055942118168" lat="46.177831990644336">
        <ele>1349.4000244140625</ele>
        <time>2015-10-21T11:07:54.000Z</time>
      </trkpt>
      <trkpt lon="7.1672439482063055" lat="46.17790499702096">
        <ele>1348.5999755859375</ele>
        <time>2015-10-21T11:07:57.000Z</time>
      </trkpt>
      <trkpt lon="7.167355930432677" lat="46.17794296704233">
        <ele>1347.4000244140625</ele>
        <time>2015-10-21T11:07:59.000Z</time>
      </trkpt>
      <trkpt lon="7.16766195371747" lat="46.177984960377216">
        <ele>1337.5999755859375</ele>
        <time>2015-10-21T11:08:04.000Z</time>
      </trkpt>
      <trkpt lon="7.167870998382568" lat="46.17803793400526">
        <ele>1333.5999755859375</ele>
        <time>2015-10-21T11:08:07.000Z</time>
      </trkpt>
      <trkpt lon="7.168192947283387" lat="46.1782309692353">
        <ele>1333.0</ele>
        <time>2015-10-21T11:08:12.000Z</time>
      </trkpt>
      <trkpt lon="7.1683059353381395" lat="46.17833792231977">
        <ele>1333.4000244140625</ele>
        <time>2015-10-21T11:08:14.000Z</time>
      </trkpt>
      <trkpt lon="7.168609946966171" lat="46.17874695919454">
        <ele>1340.199951171875</ele>
        <time>2015-10-21T11:08:20.000Z</time>
      </trkpt>
      <trkpt lon="7.168874982744455" lat="46.17892096750438">
        <ele>1336.199951171875</ele>
        <time>2015-10-21T11:08:23.000Z</time>
      </trkpt>
      <trkpt lon="7.1691809222102165" lat="46.17923294194043">
        <ele>1337.4000244140625</ele>
        <time>2015-10-21T11:08:28.000Z</time>
      </trkpt>
      <trkpt lon="7.169548971578479" lat="46.17951993830502">
        <ele>1336.800048828125</ele>
        <time>2015-10-21T11:08:33.000Z</time>
      </trkpt>
      <trkpt lon="7.169643938541412" lat="46.17956696078181">
        <ele>1335.4000244140625</ele>
        <time>2015-10-21T11:08:34.000Z</time>
      </trkpt>
      <trkpt lon="7.170220948755741" lat="46.17985596880317">
        <ele>1329.0</ele>
        <time>2015-10-21T11:08:40.000Z</time>
      </trkpt>
      <trkpt lon="7.170877922326326" lat="46.1801599804312">
        <ele>1324.199951171875</ele>
        <time>2015-10-21T11:08:46.000Z</time>
      </trkpt>
      <trkpt lon="7.171236919239163" lat="46.18039894849062">
        <ele>1326.0</ele>
        <time>2015-10-21T11:08:51.000Z</time>
      </trkpt>
      <trkpt lon="7.171412939205766" lat="46.180515959858894">
        <ele>1327.0</ele>
        <time>2015-10-21T11:08:55.000Z</time>
      </trkpt>
      <trkpt lon="7.171558951959014" lat="46.18057496845722">
        <ele>1325.5999755859375</ele>
        <time>2015-10-21T11:09:00.000Z</time>
      </trkpt>
      <trkpt lon="7.171710999682546" lat="46.180647974833846">
        <ele>1324.800048828125</ele>
        <time>2015-10-21T11:09:07.000Z</time>
      </trkpt>
      <trkpt lon="7.1718929708004" lat="46.180749982595444">
        <ele>1324.5999755859375</ele>
        <time>2015-10-21T11:09:15.000Z</time>
      </trkpt>
      <trkpt lon="7.171922978013754" lat="46.18076892569661">
        <ele>1324.5999755859375</ele>
        <time>2015-10-21T11:09:17.000Z</time>
      </trkpt>
      <trkpt lon="7.171951979398727" lat="46.18078594096005">
        <ele>1324.5999755859375</ele>
        <time>2015-10-21T11:09:19.000Z</time>
      </trkpt>
      <trkpt lon="7.172063961625099" lat="46.18087093345821">
        <ele>1325.5999755859375</ele>
        <time>2015-10-21T11:09:27.000Z</time>
      </trkpt>
      <trkpt lon="7.172184996306896" lat="46.181008983403444">
        <ele>1328.5999755859375</ele>
        <time>2015-10-21T11:09:35.000Z</time>
      </trkpt>
      <trkpt lon="7.17227996326983" lat="46.18111593648791">
        <ele>1331.0</ele>
        <time>2015-10-21T11:09:42.000Z</time>
      </trkpt>
      <trkpt lon="7.172375936061144" lat="46.18121794424951">
        <ele>1333.199951171875</ele>
        <time>2015-10-21T11:09:49.000Z</time>
      </trkpt>
      <trkpt lon="7.1724779438227415" lat="46.18129698559642">
        <ele>1334.0</ele>
        <time>2015-10-21T11:09:55.000Z</time>
      </trkpt>
      <trkpt lon="7.17249596491456" lat="46.181309977546334">
        <ele>1334.0</ele>
        <time>2015-10-21T11:09:56.000Z</time>
      </trkpt>
      <trkpt lon="7.172586992383003" lat="46.18137996643782">
        <ele>1334.4000244140625</ele>
        <time>2015-10-21T11:10:02.000Z</time>
      </trkpt>
      <trkpt lon="7.172659998759627" lat="46.18143193423748">
        <ele>1334.5999755859375</ele>
        <time>2015-10-21T11:10:07.000Z</time>
      </trkpt>
      <trkpt lon="7.172765946015716" lat="46.18149597197771">
        <ele>1331.5999755859375</ele>
        <time>2015-10-21T11:10:13.000Z</time>
      </trkpt>
      <trkpt lon="7.172903995960951" lat="46.18162496946752">
        <ele>1326.4000244140625</ele>
        <time>2015-10-21T11:10:21.000Z</time>
      </trkpt>
      <trkpt lon="7.172977924346924" lat="46.18171691894531">
        <ele>1323.4000244140625</ele>
        <time>2015-10-21T11:10:27.000Z</time>
      </trkpt>
      <trkpt lon="7.173007931560278" lat="46.181869972497225">
        <ele>1321.4000244140625</ele>
        <time>2015-10-21T11:10:33.000Z</time>
      </trkpt>
      <trkpt lon="7.173047997057438" lat="46.18202897720039">
        <ele>1319.0</ele>
        <time>2015-10-21T11:10:40.000Z</time>
      </trkpt>
      <trkpt lon="7.173143969848752" lat="46.18224891833961">
        <ele>1316.0</ele>
        <time>2015-10-21T11:10:48.000Z</time>
      </trkpt>
      <trkpt lon="7.173118991777301" lat="46.18235796689987">
        <ele>1318.0</ele>
        <time>2015-10-21T11:10:53.000Z</time>
      </trkpt>
      <trkpt lon="7.173049924895167" lat="46.18246793746948">
        <ele>1322.0</ele>
        <time>2015-10-21T11:10:58.000Z</time>
      </trkpt>
      <trkpt lon="7.172895949333906" lat="46.18265292607248">
        <ele>1330.5999755859375</ele>
        <time>2015-10-21T11:11:05.000Z</time>
      </trkpt>
      <trkpt lon="7.172754965722561" lat="46.18287395685911">
        <ele>1335.199951171875</ele>
        <time>2015-10-21T11:11:11.000Z</time>
      </trkpt>
      <trkpt lon="7.172742979601026" lat="46.18306397460401">
        <ele>1334.5999755859375</ele>
        <time>2015-10-21T11:11:16.000Z</time>
      </trkpt>
      <trkpt lon="7.172756977379322" lat="46.18330193683505">
        <ele>1332.4000244140625</ele>
        <time>2015-10-21T11:11:22.000Z</time>
      </trkpt>
      <trkpt lon="7.172748930752277" lat="46.18355993181467">
        <ele>1330.199951171875</ele>
        <time>2015-10-21T11:11:29.000Z</time>
      </trkpt>
      <trkpt lon="7.172698974609375" lat="46.18375598452985">
        <ele>1330.0</ele>
        <time>2015-10-21T11:11:34.000Z</time>
      </trkpt>
      <trkpt lon="7.172672990709543" lat="46.18383997119963">
        <ele>1330.0</ele>
        <time>2015-10-21T11:11:36.000Z</time>
      </trkpt>
      <trkpt lon="7.172655975446105" lat="46.18407399393618">
        <ele>1324.0</ele>
        <time>2015-10-21T11:11:41.000Z</time>
      </trkpt>
      <trkpt lon="7.172508956864476" lat="46.18437993340194">
        <ele>1320.199951171875</ele>
        <time>2015-10-21T11:11:49.000Z</time>
      </trkpt>
      <trkpt lon="7.1724549774080515" lat="46.184495938941836">
        <ele>1319.199951171875</ele>
        <time>2015-10-21T11:11:54.000Z</time>
      </trkpt>
      <trkpt lon="7.1724349446594715" lat="46.18460398167372">
        <ele>1316.5999755859375</ele>
        <time>2015-10-21T11:12:00.000Z</time>
      </trkpt>
      <trkpt lon="7.172424970194697" lat="46.184706995263696">
        <ele>1313.800048828125</ele>
        <time>2015-10-21T11:12:07.000Z</time>
      </trkpt>
      <trkpt lon="7.172421952709556" lat="46.184746976941824">
        <ele>1312.800048828125</ele>
        <time>2015-10-21T11:12:10.000Z</time>
      </trkpt>
      <trkpt lon="7.172403931617737" lat="46.18477991782129">
        <ele>1312.4000244140625</ele>
        <time>2015-10-21T11:12:16.000Z</time>
      </trkpt>
      <trkpt lon="7.1722829807549715" lat="46.18488796055317">
        <ele>1311.4000244140625</ele>
        <time>2015-10-21T11:12:24.000Z</time>
      </trkpt>
      <trkpt lon="7.17213193885982" lat="46.184966918081045">
        <ele>1312.5999755859375</ele>
        <time>2015-10-21T11:12:29.000Z</time>
      </trkpt>
      <trkpt lon="7.17195893637836" lat="46.18505895137787">
        <ele>1314.0</ele>
        <time>2015-10-21T11:12:35.000Z</time>
      </trkpt>
      <trkpt lon="7.171795992180705" lat="46.18507898412645">
        <ele>1318.199951171875</ele>
        <time>2015-10-21T11:12:40.000Z</time>
      </trkpt>
      <trkpt lon="7.171588959172368" lat="46.18506498634815">
        <ele>1325.199951171875</ele>
        <time>2015-10-21T11:12:45.000Z</time>
      </trkpt>
      <trkpt lon="7.171431966125965" lat="46.18507596664131">
        <ele>1329.5999755859375</ele>
        <time>2015-10-21T11:12:51.000Z</time>
      </trkpt>
      <trkpt lon="7.17122795060277" lat="46.18514595553279">
        <ele>1333.0</ele>
        <time>2015-10-21T11:12:59.000Z</time>
      </trkpt>
      <trkpt lon="7.171111945062876" lat="46.18519892916083">
        <ele>1334.4000244140625</ele>
        <time>2015-10-21T11:13:06.000Z</time>
      </trkpt>
      <trkpt lon="7.171089984476566" lat="46.18520496413112">
        <ele>1335.0</ele>
        <time>2015-10-21T11:13:07.000Z</time>
      </trkpt>
      <trkpt lon="7.170972973108292" lat="46.18523497134447">
        <ele>1337.800048828125</ele>
        <time>2015-10-21T11:13:13.000Z</time>
      </trkpt>
      <trkpt lon="7.170852944254875" lat="46.185266990214586">
        <ele>1340.800048828125</ele>
        <time>2015-10-21T11:13:19.000Z</time>
      </trkpt>
      <trkpt lon="7.170829977840185" lat="46.18527294136584">
        <ele>1341.4000244140625</ele>
        <time>2015-10-21T11:13:20.000Z</time>
      </trkpt>
      <trkpt lon="7.170710954815149" lat="46.18530395440757">
        <ele>1344.0</ele>
        <time>2015-10-21T11:13:25.000Z</time>
      </trkpt>
      <trkpt lon="7.170552955940366" lat="46.185357933864">
        <ele>1346.800048828125</ele>
        <time>2015-10-21T11:13:32.000Z</time>
      </trkpt>
      <trkpt lon="7.170361932367086" lat="46.1854459438473">
        <ele>1349.5999755859375</ele>
        <time>2015-10-21T11:13:40.000Z</time>
      </trkpt>
      <trkpt lon="7.170222960412502" lat="46.18556899018586">
        <ele>1349.199951171875</ele>
        <time>2015-10-21T11:13:49.000Z</time>
      </trkpt>
      <trkpt lon="7.170127993449569" lat="46.18568197824061">
        <ele>1347.4000244140625</ele>
        <time>2015-10-21T11:13:57.000Z</time>
      </trkpt>
      <trkpt lon="7.170051969587803" lat="46.18574693799019">
        <ele>1346.800048828125</ele>
        <time>2015-10-21T11:14:03.000Z</time>
      </trkpt>
      <trkpt lon="7.169963959604502" lat="46.18581592105329">
        <ele>1346.4000244140625</ele>
        <time>2015-10-21T11:14:10.000Z</time>
      </trkpt>
      <trkpt lon="7.169882990419865" lat="46.18587199598551">
        <ele>1346.0</ele>
        <time>2015-10-21T11:14:16.000Z</time>
      </trkpt>
      <trkpt lon="7.169775953516364" lat="46.18594592437148">
        <ele>1345.4000244140625</ele>
        <time>2015-10-21T11:14:23.000Z</time>
      </trkpt>
      <trkpt lon="7.169641926884651" lat="46.18604399263859">
        <ele>1344.199951171875</ele>
        <time>2015-10-21T11:14:31.000Z</time>
      </trkpt>
      <trkpt lon="7.169512929394841" lat="46.18613191880286">
        <ele>1343.4000244140625</ele>
        <time>2015-10-21T11:14:39.000Z</time>
      </trkpt>
      <trkpt lon="7.169356942176819" lat="46.18620693683624">
        <ele>1343.5999755859375</ele>
        <time>2015-10-21T11:14:47.000Z</time>
      </trkpt>
      <trkpt lon="7.169199949130416" lat="46.18625999428332">
        <ele>1345.199951171875</ele>
        <time>2015-10-21T11:14:55.000Z</time>
      </trkpt>
      <trkpt lon="7.1690369211137295" lat="46.186315985396504">
        <ele>1346.5999755859375</ele>
        <time>2015-10-21T11:15:03.000Z</time>
      </trkpt>
      <trkpt lon="7.168892920017242" lat="46.186383962631226">
        <ele>1346.800048828125</ele>
        <time>2015-10-21T11:15:10.000Z</time>
      </trkpt>
      <trkpt lon="7.168762916699052" lat="46.186444982886314">
        <ele>1347.0</ele>
        <time>2015-10-21T11:15:17.000Z</time>
      </trkpt>
      <trkpt lon="7.168639954179525" lat="46.186493933200836">
        <ele>1347.4000244140625</ele>
        <time>2015-10-21T11:15:23.000Z</time>
      </trkpt>
      <trkpt lon="7.168473992496729" lat="46.186531987041235">
        <ele>1349.5999755859375</ele>
        <time>2015-10-21T11:15:30.000Z</time>
      </trkpt>
      <trkpt lon="7.168428981676698" lat="46.18653793819249">
        <ele>1350.4000244140625</ele>
        <time>2015-10-21T11:15:32.000Z</time>
      </trkpt>
      <trkpt lon="7.168270982801914" lat="46.18655897676945">
        <ele>1353.4000244140625</ele>
        <time>2015-10-21T11:15:40.000Z</time>
      </trkpt>
      <trkpt lon="7.168205939233303" lat="46.18656693957746">
        <ele>1354.4000244140625</ele>
        <time>2015-10-21T11:15:44.000Z</time>
      </trkpt>
      <trkpt lon="7.1680909395217896" lat="46.18658194318414">
        <ele>1356.0</ele>
        <time>2015-10-21T11:15:50.000Z</time>
      </trkpt>
      <trkpt lon="7.167992955073714" lat="46.18660499341786">
        <ele>1356.800048828125</ele>
        <time>2015-10-21T11:15:55.000Z</time>
      </trkpt>
      <trkpt lon="7.167855994775891" lat="46.18665092624724">
        <ele>1357.199951171875</ele>
        <time>2015-10-21T11:16:02.000Z</time>
      </trkpt>
      <trkpt lon="7.167697995901108" lat="46.18672292679548">
        <ele>1356.800048828125</ele>
        <time>2015-10-21T11:16:10.000Z</time>
      </trkpt>
      <trkpt lon="7.167662959545851" lat="46.18674295954406">
        <ele>1357.0</ele>
        <time>2015-10-21T11:16:12.000Z</time>
      </trkpt>
      <trkpt lon="7.167548965662718" lat="46.18680599145591">
        <ele>1357.800048828125</ele>
        <time>2015-10-21T11:16:19.000Z</time>
      </trkpt>
      <trkpt lon="7.167463973164558" lat="46.186853935942054">
        <ele>1358.4000244140625</ele>
        <time>2015-10-21T11:16:24.000Z</time>
      </trkpt>
      <trkpt lon="7.1673599537462" lat="46.186911938712">
        <ele>1358.800048828125</ele>
        <time>2015-10-21T11:16:30.000Z</time>
      </trkpt>
      <trkpt lon="7.16720899567008" lat="46.18698896840215">
        <ele>1359.800048828125</ele>
        <time>2015-10-21T11:16:38.000Z</time>
      </trkpt>
      <trkpt lon="7.167093995958567" lat="46.18703096173704">
        <ele>1362.5999755859375</ele>
        <time>2015-10-21T11:16:44.000Z</time>
      </trkpt>
      <trkpt lon="7.166976984590292" lat="46.187071949243546">
        <ele>1366.199951171875</ele>
        <time>2015-10-21T11:16:49.000Z</time>
      </trkpt>
      <trkpt lon="7.166871959343553" lat="46.1871069855988">
        <ele>1369.4000244140625</ele>
        <time>2015-10-21T11:16:55.000Z</time>
      </trkpt>
      <trkpt lon="7.166762994602323" lat="46.187158953398466">
        <ele>1372.4000244140625</ele>
        <time>2015-10-21T11:17:02.000Z</time>
      </trkpt>
      <trkpt lon="7.166666937991977" lat="46.187241934239864">
        <ele>1373.800048828125</ele>
        <time>2015-10-21T11:17:09.000Z</time>
      </trkpt>
      <trkpt lon="7.166647994890809" lat="46.18733698502183">
        <ele>1371.800048828125</ele>
        <time>2015-10-21T11:17:16.000Z</time>
      </trkpt>
      <trkpt lon="7.166604995727539" lat="46.18740395642817">
        <ele>1372.0</ele>
        <time>2015-10-21T11:17:22.000Z</time>
      </trkpt>
      <trkpt lon="7.1664899960160255" lat="46.18746899999678">
        <ele>1374.0</ele>
        <time>2015-10-21T11:17:30.000Z</time>
      </trkpt>
      <trkpt lon="7.166399974375963" lat="46.18758098222315">
        <ele>1374.0</ele>
        <time>2015-10-21T11:17:37.000Z</time>
      </trkpt>
      <trkpt lon="7.166331997141242" lat="46.18765499442816">
        <ele>1374.199951171875</ele>
        <time>2015-10-21T11:17:45.000Z</time>
      </trkpt>
      <trkpt lon="7.166231917217374" lat="46.187754990532994">
        <ele>1375.0</ele>
        <time>2015-10-21T11:17:53.000Z</time>
      </trkpt>
      <trkpt lon="7.166151953861117" lat="46.18783495388925">
        <ele>1376.800048828125</ele>
        <time>2015-10-21T11:18:00.000Z</time>
      </trkpt>
      <trkpt lon="7.166074924170971" lat="46.18791592307389">
        <ele>1378.4000244140625</ele>
        <time>2015-10-21T11:18:07.000Z</time>
      </trkpt>
      <trkpt lon="7.165999989956617" lat="46.18802094832063">
        <ele>1379.5999755859375</ele>
        <time>2015-10-21T11:18:15.000Z</time>
      </trkpt>
      <trkpt lon="7.165975933894515" lat="46.18810895830393">
        <ele>1379.0</ele>
        <time>2015-10-21T11:18:21.000Z</time>
      </trkpt>
      <trkpt lon="7.165937963873148" lat="46.18824399076402">
        <ele>1379.0</ele>
        <time>2015-10-21T11:18:29.000Z</time>
      </trkpt>
      <trkpt lon="7.1658809669315815" lat="46.188338957726955">
        <ele>1379.0</ele>
        <time>2015-10-21T11:18:36.000Z</time>
      </trkpt>
      <trkpt lon="7.165840985253453" lat="46.18843895383179">
        <ele>1378.199951171875</ele>
        <time>2015-10-21T11:18:42.000Z</time>
      </trkpt>
      <trkpt lon="7.165840985253453" lat="46.18843895383179">
        <ele>1378.199951171875</ele>
        <time>2015-10-21T11:18:43.000Z</time>
      </trkpt>
      <trkpt lon="7.165825981646776" lat="46.1884799413383">
        <ele>1377.5999755859375</ele>
        <time>2015-10-21T11:18:45.000Z</time>
      </trkpt>
      <trkpt lon="7.165788933634758" lat="46.18855697102845">
        <ele>1377.199951171875</ele>
        <time>2015-10-21T11:18:52.000Z</time>
      </trkpt>
      <trkpt lon="7.165783988311887" lat="46.18856593966484">
        <ele>1377.0</ele>
        <time>2015-10-21T11:18:53.000Z</time>
      </trkpt>
      <trkpt lon="7.16572992503643" lat="46.18866199627519">
        <ele>1376.5999755859375</ele>
        <time>2015-10-21T11:19:01.000Z</time>
      </trkpt>
      <trkpt lon="7.165724979713559" lat="46.1886699590832">
        <ele>1376.5999755859375</ele>
        <time>2015-10-21T11:19:02.000Z</time>
      </trkpt>
      <trkpt lon="7.1656229719519615" lat="46.188805997371674">
        <ele>1377.0</ele>
        <time>2015-10-21T11:19:11.000Z</time>
      </trkpt>
      <trkpt lon="7.165523981675506" lat="46.18889392353594">
        <ele>1378.5999755859375</ele>
        <time>2015-10-21T11:19:18.000Z</time>
      </trkpt>
      <trkpt lon="7.165439995005727" lat="46.18895494379103">
        <ele>1380.199951171875</ele>
        <time>2015-10-21T11:19:24.000Z</time>
      </trkpt>
      <trkpt lon="7.165302950888872" lat="46.189046977087855">
        <ele>1382.4000244140625</ele>
        <time>2015-10-21T11:19:32.000Z</time>
      </trkpt>
      <trkpt lon="7.165198931470513" lat="46.189109925180674">
        <ele>1384.4000244140625</ele>
        <time>2015-10-21T11:19:39.000Z</time>
      </trkpt>
      <trkpt lon="7.165145957842469" lat="46.18914194405079">
        <ele>1385.4000244140625</ele>
        <time>2015-10-21T11:19:46.000Z</time>
      </trkpt>
      <trkpt lon="7.165145957842469" lat="46.18914194405079">
        <ele>1385.4000244140625</ele>
        <time>2015-10-21T11:19:52.000Z</time>
      </trkpt>
      <trkpt lon="7.165145957842469" lat="46.18914194405079">
        <ele>1385.4000244140625</ele>
        <time>2015-10-21T11:19:54.000Z</time>
      </trkpt>
      <trkpt lon="7.164789978414774" lat="46.189669920131564">
        <ele>1378.0</ele>
        <time>2015-10-21T11:19:59.000Z</time>
      </trkpt>
      <trkpt lon="7.164574982598424" lat="46.18996697477996">
        <ele>1371.4000244140625</ele>
        <time>2015-10-21T11:20:03.000Z</time>
      </trkpt>
      <trkpt lon="7.164294943213463" lat="46.190292946994305">
        <ele>1366.4000244140625</ele>
        <time>2015-10-21T11:20:07.000Z</time>
      </trkpt>
      <trkpt lon="7.164027979597449" lat="46.19064196944237">
        <ele>1362.5999755859375</ele>
        <time>2015-10-21T11:20:11.000Z</time>
      </trkpt>
      <trkpt lon="7.163927983492613" lat="46.19088898412883">
        <ele>1364.5999755859375</ele>
        <time>2015-10-21T11:20:14.000Z</time>
      </trkpt>
      <trkpt lon="7.163782976567745" lat="46.191020999103785">
        <ele>1368.5999755859375</ele>
        <time>2015-10-21T11:20:16.000Z</time>
      </trkpt>
      <trkpt lon="7.163662947714329" lat="46.19117799215019">
        <ele>1371.0</ele>
        <time>2015-10-21T11:20:19.000Z</time>
      </trkpt>
      <trkpt lon="7.163809966295958" lat="46.191279999911785">
        <ele>1366.0</ele>
        <time>2015-10-21T11:20:22.000Z</time>
      </trkpt>
      <trkpt lon="7.1641309931874275" lat="46.19138192385435">
        <ele>1355.800048828125</ele>
        <time>2015-10-21T11:20:26.000Z</time>
      </trkpt>
      <trkpt lon="7.164295949041843" lat="46.1913949996233">
        <ele>1351.0</ele>
        <time>2015-10-21T11:20:28.000Z</time>
      </trkpt>
      <trkpt lon="7.164360992610455" lat="46.1913949996233">
        <ele>1349.0</ele>
        <time>2015-10-21T11:20:31.000Z</time>
      </trkpt>
      <trkpt lon="7.164518991485238" lat="46.19151494465768">
        <ele>1345.0</ele>
        <time>2015-10-21T11:21:26.000Z</time>
      </trkpt>
      <trkpt lon="7.164569953456521" lat="46.191624999046326">
        <ele>1344.5999755859375</ele>
        <time>2015-10-21T11:21:34.000Z</time>
      </trkpt>
      <trkpt lon="7.16458797454834" lat="46.19169498793781">
        <ele>1345.0</ele>
        <time>2015-10-21T11:21:41.000Z</time>
      </trkpt>
      <trkpt lon="7.164651928469539" lat="46.19178098626435">
        <ele>1344.0</ele>
        <time>2015-10-21T11:21:51.000Z</time>
      </trkpt>
      <trkpt lon="7.164695933461189" lat="46.191824991256">
        <ele>1343.199951171875</ele>
        <time>2015-10-21T11:21:57.000Z</time>
      </trkpt>
      <trkpt lon="7.1643919218331575" lat="46.19198299013078">
        <ele>1351.800048828125</ele>
        <time>2015-10-21T11:22:04.000Z</time>
      </trkpt>
      <trkpt lon="7.164328973740339" lat="46.19209094904363">
        <ele>1353.5999755859375</ele>
        <time>2015-10-21T11:22:14.000Z</time>
      </trkpt>
      <trkpt lon="7.1642599906772375" lat="46.192182982340455">
        <ele>1355.4000244140625</ele>
        <time>2015-10-21T11:22:23.000Z</time>
      </trkpt>
      <trkpt lon="7.164192935451865" lat="46.19226294569671">
        <ele>1357.199951171875</ele>
        <time>2015-10-21T11:22:30.000Z</time>
      </trkpt>
      <trkpt lon="7.164108948782086" lat="46.19236193597317">
        <ele>1360.4000244140625</ele>
        <time>2015-10-21T11:22:38.000Z</time>
      </trkpt>
      <trkpt lon="7.164013981819153" lat="46.1924759298563">
        <ele>1364.4000244140625</ele>
        <time>2015-10-21T11:22:47.000Z</time>
      </trkpt>
      <trkpt lon="7.1639089565724134" lat="46.19260098785162">
        <ele>1368.800048828125</ele>
        <time>2015-10-21T11:22:58.000Z</time>
      </trkpt>
      <trkpt lon="7.163828993216157" lat="46.192696960642934">
        <ele>1372.0</ele>
        <time>2015-10-21T11:23:06.000Z</time>
      </trkpt>
      <trkpt lon="7.163752969354391" lat="46.192786982282996">
        <ele>1374.800048828125</ele>
        <time>2015-10-21T11:23:14.000Z</time>
      </trkpt>
      <trkpt lon="7.163674933835864" lat="46.192891923710704">
        <ele>1376.4000244140625</ele>
        <time>2015-10-21T11:23:23.000Z</time>
      </trkpt>
      <trkpt lon="7.163628917187452" lat="46.193041959777474">
        <ele>1377.800048828125</ele>
        <time>2015-10-21T11:23:36.000Z</time>
      </trkpt>
      <trkpt lon="7.163658924400806" lat="46.193153942003846">
        <ele>1378.800048828125</ele>
        <time>2015-10-21T11:23:45.000Z</time>
      </trkpt>
      <trkpt lon="7.1637369599193335" lat="46.19326399639249">
        <ele>1380.199951171875</ele>
        <time>2015-10-21T11:23:54.000Z</time>
      </trkpt>
      <trkpt lon="7.163840979337692" lat="46.19333599694073">
        <ele>1380.5999755859375</ele>
        <time>2015-10-21T11:24:03.000Z</time>
      </trkpt>
      <trkpt lon="7.1639669593423605" lat="46.193408919498324">
        <ele>1380.800048828125</ele>
        <time>2015-10-21T11:24:13.000Z</time>
      </trkpt>
      <trkpt lon="7.164064943790436" lat="46.19345594197512">
        <ele>1380.800048828125</ele>
        <time>2015-10-21T11:24:21.000Z</time>
      </trkpt>
      <trkpt lon="7.164172986522317" lat="46.19350095279515">
        <ele>1380.199951171875</ele>
        <time>2015-10-21T11:24:28.000Z</time>
      </trkpt>
      <trkpt lon="7.1642909198999405" lat="46.19354898110032">
        <ele>1378.800048828125</ele>
        <time>2015-10-21T11:24:36.000Z</time>
      </trkpt>
      <trkpt lon="7.164451936259866" lat="46.19361494667828">
        <ele>1377.199951171875</ele>
        <time>2015-10-21T11:24:47.000Z</time>
      </trkpt>
      <trkpt lon="7.164572970941663" lat="46.193667920306325">
        <ele>1376.0</ele>
        <time>2015-10-21T11:24:55.000Z</time>
      </trkpt>
      <trkpt lon="7.164729963988066" lat="46.19376791641116">
        <ele>1375.199951171875</ele>
        <time>2015-10-21T11:25:06.000Z</time>
      </trkpt>
      <trkpt lon="7.16474094428122" lat="46.193878976628184">
        <ele>1377.4000244140625</ele>
        <time>2015-10-21T11:25:16.000Z</time>
      </trkpt>
      <trkpt lon="7.164708925411105" lat="46.19393396191299">
        <ele>1379.199951171875</ele>
        <time>2015-10-21T11:25:22.000Z</time>
      </trkpt>
      <trkpt lon="7.164609935134649" lat="46.1939939763397">
        <ele>1380.800048828125</ele>
        <time>2015-10-21T11:25:31.000Z</time>
      </trkpt>
      <trkpt lon="7.164379935711622" lat="46.1937849316746">
        <ele>1382.199951171875</ele>
        <time>2015-10-21T11:25:42.000Z</time>
      </trkpt>
      <trkpt lon="7.164175920188427" lat="46.193754924461246">
        <ele>1385.5999755859375</ele>
        <time>2015-10-21T11:25:50.000Z</time>
      </trkpt>
      <trkpt lon="7.1639669593423605" lat="46.193754924461246">
        <ele>1388.4000244140625</ele>
        <time>2015-10-21T11:26:00.000Z</time>
      </trkpt>
      <trkpt lon="7.163758920505643" lat="46.193754924461246">
        <ele>1391.199951171875</ele>
        <time>2015-10-21T11:26:11.000Z</time>
      </trkpt>
      <trkpt lon="7.163577955216169" lat="46.19376498274505">
        <ele>1394.0</ele>
        <time>2015-10-21T11:26:20.000Z</time>
      </trkpt>
      <trkpt lon="7.163452981039882" lat="46.193774957209826">
        <ele>1396.0</ele>
        <time>2015-10-21T11:26:27.000Z</time>
      </trkpt>
      <trkpt lon="7.163338987156749" lat="46.19376498274505">
        <ele>1397.4000244140625</ele>
        <time>2015-10-21T11:26:35.000Z</time>
      </trkpt>
      <trkpt lon="7.163217952474952" lat="46.19374796748161">
        <ele>1399.0</ele>
        <time>2015-10-21T11:26:43.000Z</time>
      </trkpt>
      <trkpt lon="7.163102952763438" lat="46.19372692890465">
        <ele>1400.800048828125</ele>
        <time>2015-10-21T11:26:51.000Z</time>
      </trkpt>
      <trkpt lon="7.16295694001019" lat="46.19369298219681">
        <ele>1403.0</ele>
        <time>2015-10-21T11:27:01.000Z</time>
      </trkpt>
      <trkpt lon="7.162825930863619" lat="46.19365392252803">
        <ele>1404.800048828125</ele>
        <time>2015-10-21T11:27:10.000Z</time>
      </trkpt>
      <trkpt lon="7.162682935595512" lat="46.19360991753638">
        <ele>1406.800048828125</ele>
        <time>2015-10-21T11:27:20.000Z</time>
      </trkpt>
      <trkpt lon="7.162527954205871" lat="46.19356197305024">
        <ele>1409.0</ele>
        <time>2015-10-21T11:27:30.000Z</time>
      </trkpt>
      <trkpt lon="7.162441955879331" lat="46.19351897388697">
        <ele>1409.5999755859375</ele>
        <time>2015-10-21T11:27:38.000Z</time>
      </trkpt>
      <trkpt lon="7.162347994744778" lat="46.19344395585358">
        <ele>1410.800048828125</ele>
        <time>2015-10-21T11:27:47.000Z</time>
      </trkpt>
      <trkpt lon="7.162280939519405" lat="46.193362986668944">
        <ele>1410.800048828125</ele>
        <time>2015-10-21T11:27:55.000Z</time>
      </trkpt>
      <trkpt lon="7.162221930921078" lat="46.19328495115042">
        <ele>1410.5999755859375</ele>
        <time>2015-10-21T11:28:03.000Z</time>
      </trkpt>
      <trkpt lon="7.162168957293034" lat="46.193215968087316">
        <ele>1410.4000244140625</ele>
        <time>2015-10-21T11:28:10.000Z</time>
      </trkpt>
      <trkpt lon="7.1621109545230865" lat="46.19313994422555">
        <ele>1410.199951171875</ele>
        <time>2015-10-21T11:28:18.000Z</time>
      </trkpt>
      <trkpt lon="7.1620679553598166" lat="46.19308294728398">
        <ele>1411.0</ele>
        <time>2015-10-21T11:28:24.000Z</time>
      </trkpt>
      <trkpt lon="7.162054963409901" lat="46.193065932020545">
        <ele>1411.4000244140625</ele>
        <time>2015-10-21T11:28:26.000Z</time>
      </trkpt>
      <trkpt lon="7.16198799200356" lat="46.19296895340085">
        <ele>1413.5999755859375</ele>
        <time>2015-10-21T11:28:36.000Z</time>
      </trkpt>
      <trkpt lon="7.161969970911741" lat="46.19288396090269">
        <ele>1414.199951171875</ele>
        <time>2015-10-21T11:28:44.000Z</time>
      </trkpt>
      <trkpt lon="7.161953961476684" lat="46.192807937040925">
        <ele>1414.5999755859375</ele>
        <time>2015-10-21T11:28:51.000Z</time>
      </trkpt>
      <trkpt lon="7.161936946213245" lat="46.19272797368467">
        <ele>1415.199951171875</ele>
        <time>2015-10-21T11:28:57.000Z</time>
      </trkpt>
      <trkpt lon="7.161926971748471" lat="46.19267298839986">
        <ele>1415.4000244140625</ele>
        <time>2015-10-21T11:29:01.000Z</time>
      </trkpt>
      <trkpt lon="7.161926971748471" lat="46.19255899451673">
        <ele>1415.4000244140625</ele>
        <time>2015-10-21T11:29:10.000Z</time>
      </trkpt>
      <trkpt lon="7.1619319170713425" lat="46.192464949563146">
        <ele>1415.199951171875</ele>
        <time>2015-10-21T11:29:19.000Z</time>
      </trkpt>
      <trkpt lon="7.161941975355148" lat="46.192376939579844">
        <ele>1414.800048828125</ele>
        <time>2015-10-21T11:29:28.000Z</time>
      </trkpt>
      <trkpt lon="7.161960918456316" lat="46.192269986495376">
        <ele>1414.199951171875</ele>
        <time>2015-10-21T11:29:38.000Z</time>
      </trkpt>
      <trkpt lon="7.161981957033277" lat="46.19219597429037">
        <ele>1413.5999755859375</ele>
        <time>2015-10-21T11:29:45.000Z</time>
      </trkpt>
      <trkpt lon="7.162008946761489" lat="46.19211693294346">
        <ele>1412.5999755859375</ele>
        <time>2015-10-21T11:29:52.000Z</time>
      </trkpt>
      <trkpt lon="7.1620449889451265" lat="46.19200193323195">
        <ele>1411.4000244140625</ele>
        <time>2015-10-21T11:30:03.000Z</time>
      </trkpt>
      <trkpt lon="7.162051945924759" lat="46.19197896681726">
        <ele>1411.199951171875</ele>
        <time>2015-10-21T11:30:06.000Z</time>
      </trkpt>
      <trkpt lon="7.161898976191878" lat="46.19198097847402">
        <ele>1416.4000244140625</ele>
        <time>2015-10-21T11:30:15.000Z</time>
      </trkpt>
      <trkpt lon="7.1618809551000595" lat="46.19199899956584">
        <ele>1417.0</ele>
        <time>2015-10-21T11:30:19.000Z</time>
      </trkpt>
      <trkpt lon="7.1618809551000595" lat="46.19199899956584">
        <ele>1417.0</ele>
        <time>2015-10-21T11:31:38.000Z</time>
      </trkpt>
      <trkpt lon="7.1618809551000595" lat="46.19199899956584">
        <ele>1417.0</ele>
        <time>2015-10-21T11:31:39.000Z</time>
      </trkpt>
      <trkpt lon="7.161810966208577" lat="46.19208994321525">
        <ele>1419.199951171875</ele>
        <time>2015-10-21T11:31:49.000Z</time>
      </trkpt>
      <trkpt lon="7.161797974258661" lat="46.19210595265031">
        <ele>1419.5999755859375</ele>
        <time>2015-10-21T11:31:50.000Z</time>
      </trkpt>
      <trkpt lon="7.161753969267011" lat="46.192162949591875">
        <ele>1421.199951171875</ele>
        <time>2015-10-21T11:31:58.000Z</time>
      </trkpt>
      <trkpt lon="7.161703929305077" lat="46.192229920998216">
        <ele>1422.800048828125</ele>
        <time>2015-10-21T11:32:06.000Z</time>
      </trkpt>
      <trkpt lon="7.1616739220917225" lat="46.192268980666995">
        <ele>1423.800048828125</ele>
        <time>2015-10-21T11:32:09.000Z</time>
      </trkpt>
      <trkpt lon="7.161601921543479" lat="46.19238398037851">
        <ele>1426.4000244140625</ele>
        <time>2015-10-21T11:32:18.000Z</time>
      </trkpt>
      <trkpt lon="7.161596976220608" lat="46.19241499342024">
        <ele>1426.5999755859375</ele>
        <time>2015-10-21T11:32:22.000Z</time>
      </trkpt>
      <trkpt lon="7.161582978442311" lat="46.19250099174678">
        <ele>1427.199951171875</ele>
        <time>2015-10-21T11:32:30.000Z</time>
      </trkpt>
      <trkpt lon="7.161572920158505" lat="46.192567963153124">
        <ele>1427.5999755859375</ele>
        <time>2015-10-21T11:32:36.000Z</time>
      </trkpt>
      <trkpt lon="7.1615569945424795" lat="46.19266896508634">
        <ele>1428.4000244140625</ele>
        <time>2015-10-21T11:32:44.000Z</time>
      </trkpt>
      <trkpt lon="7.161543918773532" lat="46.19275094009936">
        <ele>1428.800048828125</ele>
        <time>2015-10-21T11:32:51.000Z</time>
      </trkpt>
      <trkpt lon="7.161540985107422" lat="46.192889995872974">
        <ele>1429.199951171875</ele>
        <time>2015-10-21T11:32:59.000Z</time>
      </trkpt>
      <trkpt lon="7.161535955965519" lat="46.19298898614943">
        <ele>1429.4000244140625</ele>
        <time>2015-10-21T11:33:07.000Z</time>
      </trkpt>
      <trkpt lon="7.161526987329125" lat="46.193083953112364">
        <ele>1430.5999755859375</ele>
        <time>2015-10-21T11:33:16.000Z</time>
      </trkpt>
      <trkpt lon="7.1615219581872225" lat="46.19313893839717">
        <ele>1431.5999755859375</ele>
        <time>2015-10-21T11:33:20.000Z</time>
      </trkpt>
      <trkpt lon="7.1615139953792095" lat="46.19322191923857">
        <ele>1433.199951171875</ele>
        <time>2015-10-21T11:33:26.000Z</time>
      </trkpt>
      <trkpt lon="7.161505948752165" lat="46.19331294670701">
        <ele>1434.800048828125</ele>
        <time>2015-10-21T11:33:33.000Z</time>
      </trkpt>
      <trkpt lon="7.1614989917725325" lat="46.193384947255254">
        <ele>1436.199951171875</ele>
        <time>2015-10-21T11:33:39.000Z</time>
      </trkpt>
      <trkpt lon="7.161492956802249" lat="46.193495923653245">
        <ele>1438.199951171875</ele>
        <time>2015-10-21T11:33:47.000Z</time>
      </trkpt>
      <trkpt lon="7.161489939317107" lat="46.193563984707">
        <ele>1439.199951171875</ele>
        <time>2015-10-21T11:33:53.000Z</time>
      </trkpt>
      <trkpt lon="7.161488933488727" lat="46.19359399192035">
        <ele>1439.800048828125</ele>
        <time>2015-10-21T11:33:58.000Z</time>
      </trkpt>
      <trkpt lon="7.161484993994236" lat="46.19369893334806">
        <ele>1441.4000244140625</ele>
        <time>2015-10-21T11:34:03.000Z</time>
      </trkpt>
      <trkpt lon="7.161480970680714" lat="46.193774957209826">
        <ele>1442.800048828125</ele>
        <time>2015-10-21T11:34:09.000Z</time>
      </trkpt>
      <trkpt lon="7.161484993994236" lat="46.19390998966992">
        <ele>1443.5999755859375</ele>
        <time>2015-10-21T11:34:15.000Z</time>
      </trkpt>
      <trkpt lon="7.161546936258674" lat="46.194052984938025">
        <ele>1443.4000244140625</ele>
        <time>2015-10-21T11:34:23.000Z</time>
      </trkpt>
      <trkpt lon="7.161634946241975" lat="46.194155998528004">
        <ele>1442.5999755859375</ele>
        <time>2015-10-21T11:34:29.000Z</time>
      </trkpt>
      <trkpt lon="7.161755980923772" lat="46.19421894662082">
        <ele>1440.4000244140625</ele>
        <time>2015-10-21T11:34:37.000Z</time>
      </trkpt>
      <trkpt lon="7.161883972585201" lat="46.19429597631097">
        <ele>1438.199951171875</ele>
        <time>2015-10-21T11:34:45.000Z</time>
      </trkpt>
      <trkpt lon="7.162008946761489" lat="46.19435699656606">
        <ele>1435.800048828125</ele>
        <time>2015-10-21T11:34:53.000Z</time>
      </trkpt>
      <trkpt lon="7.162020932883024" lat="46.19436093606055">
        <ele>1435.5999755859375</ele>
        <time>2015-10-21T11:34:56.000Z</time>
      </trkpt>
      <trkpt lon="7.162063932046294" lat="46.194375939667225">
        <ele>1434.800048828125</ele>
        <time>2015-10-21T11:36:30.000Z</time>
      </trkpt>
      <trkpt lon="7.162171974778175" lat="46.19441592134535">
        <ele>1433.199951171875</ele>
        <time>2015-10-21T11:36:36.000Z</time>
      </trkpt>
      <trkpt lon="7.162290997803211" lat="46.1944429948926">
        <ele>1431.0</ele>
        <time>2015-10-21T11:36:43.000Z</time>
      </trkpt>
      <trkpt lon="7.162476992234588" lat="46.194481970742345">
        <ele>1427.4000244140625</ele>
        <time>2015-10-21T11:36:50.000Z</time>
      </trkpt>
      <trkpt lon="7.162678996101022" lat="46.194524969905615">
        <ele>1421.800048828125</ele>
        <time>2015-10-21T11:36:57.000Z</time>
      </trkpt>
      <trkpt lon="7.162946965545416" lat="46.194610968232155">
        <ele>1414.800048828125</ele>
        <time>2015-10-21T11:37:04.000Z</time>
      </trkpt>
      <trkpt lon="7.163007985800505" lat="46.19477592408657">
        <ele>1415.0</ele>
        <time>2015-10-21T11:37:11.000Z</time>
      </trkpt>
      <trkpt lon="7.1629199758172035" lat="46.19483593851328">
        <ele>1415.800048828125</ele>
        <time>2015-10-21T11:37:16.000Z</time>
      </trkpt>
      <trkpt lon="7.162746973335743" lat="46.194912968203425">
        <ele>1418.199951171875</ele>
        <time>2015-10-21T11:37:24.000Z</time>
      </trkpt>
      <trkpt lon="7.162549998611212" lat="46.194977927953005">
        <ele>1422.800048828125</ele>
        <time>2015-10-21T11:37:32.000Z</time>
      </trkpt>
      <trkpt lon="7.162346988916397" lat="46.1950799357146">
        <ele>1427.4000244140625</ele>
        <time>2015-10-21T11:37:41.000Z</time>
      </trkpt>
      <trkpt lon="7.162228971719742" lat="46.19517699815333">
        <ele>1428.199951171875</ele>
        <time>2015-10-21T11:37:48.000Z</time>
      </trkpt>
      <trkpt lon="7.162043983116746" lat="46.19530197232962">
        <ele>1430.4000244140625</ele>
        <time>2015-10-21T11:37:57.000Z</time>
      </trkpt>
      <trkpt lon="7.161886990070343" lat="46.1953579634428">
        <ele>1433.5999755859375</ele>
        <time>2015-10-21T11:38:03.000Z</time>
      </trkpt>
      <trkpt lon="7.161720944568515" lat="46.19541596621275">
        <ele>1436.800048828125</ele>
        <time>2015-10-21T11:38:09.000Z</time>
      </trkpt>
      <trkpt lon="7.161558922380209" lat="46.19549794122577">
        <ele>1439.800048828125</ele>
        <time>2015-10-21T11:38:15.000Z</time>
      </trkpt>
      <trkpt lon="7.1614509634673595" lat="46.19557396508753">
        <ele>1443.800048828125</ele>
        <time>2015-10-21T11:38:21.000Z</time>
      </trkpt>
      <trkpt lon="7.161352979019284" lat="46.19567999616265">
        <ele>1448.199951171875</ele>
        <time>2015-10-21T11:38:27.000Z</time>
      </trkpt>
      <trkpt lon="7.16127896681428" lat="46.19578099809587">
        <ele>1451.4000244140625</ele>
        <time>2015-10-21T11:38:33.000Z</time>
      </trkpt>
      <trkpt lon="7.161170924082398" lat="46.19592793285847">
        <ele>1456.0</ele>
        <time>2015-10-21T11:38:41.000Z</time>
      </trkpt>
      <trkpt lon="7.161085931584239" lat="46.1960469558835">
        <ele>1456.4000244140625</ele>
        <time>2015-10-21T11:38:48.000Z</time>
      </trkpt>
      <trkpt lon="7.161015942692757" lat="46.19615198113024">
        <ele>1454.5999755859375</ele>
        <time>2015-10-21T11:38:54.000Z</time>
      </trkpt>
      <trkpt lon="7.160923993214965" lat="46.196288941428065">
        <ele>1452.5999755859375</ele>
        <time>2015-10-21T11:39:02.000Z</time>
      </trkpt>
      <trkpt lon="7.160853920504451" lat="46.196394972503185">
        <ele>1450.800048828125</ele>
        <time>2015-10-21T11:39:09.000Z</time>
      </trkpt>
      <trkpt lon="7.160772951319814" lat="46.19648993946612">
        <ele>1452.0</ele>
        <time>2015-10-21T11:39:16.000Z</time>
      </trkpt>
      <trkpt lon="7.160648982971907" lat="46.196634946390986">
        <ele>1459.800048828125</ele>
        <time>2015-10-21T11:39:23.000Z</time>
      </trkpt>
      <trkpt lon="7.160582933574915" lat="46.19676595553756">
        <ele>1465.199951171875</ele>
        <time>2015-10-21T11:39:30.000Z</time>
      </trkpt>
      <trkpt lon="7.160574970766902" lat="46.19688296690583">
        <ele>1467.800048828125</ele>
        <time>2015-10-21T11:39:36.000Z</time>
      </trkpt>
      <trkpt lon="7.160573964938521" lat="46.197020933032036">
        <ele>1470.5999755859375</ele>
        <time>2015-10-21T11:39:42.000Z</time>
      </trkpt>
      <trkpt lon="7.160511938855052" lat="46.19716392830014">
        <ele>1473.0</ele>
        <time>2015-10-21T11:39:49.000Z</time>
      </trkpt>
      <trkpt lon="7.160520991310477" lat="46.19728898629546">
        <ele>1473.0</ele>
        <time>2015-10-21T11:39:56.000Z</time>
      </trkpt>
      <trkpt lon="7.160617969930172" lat="46.197359981015325">
        <ele>1474.800048828125</ele>
        <time>2015-10-21T11:40:02.000Z</time>
      </trkpt>
      <trkpt lon="7.160782925784588" lat="46.19735394604504">
        <ele>1471.5999755859375</ele>
        <time>2015-10-21T11:40:08.000Z</time>
      </trkpt>
      <trkpt lon="7.1609479654580355" lat="46.1973369307816">
        <ele>1468.5999755859375</ele>
        <time>2015-10-21T11:40:13.000Z</time>
      </trkpt>
      <trkpt lon="7.16121694073081" lat="46.197274988517165">
        <ele>1463.0</ele>
        <time>2015-10-21T11:40:20.000Z</time>
      </trkpt>
      <trkpt lon="7.161442916840315" lat="46.197231989353895">
        <ele>1459.800048828125</ele>
        <time>2015-10-21T11:40:26.000Z</time>
      </trkpt>
      <trkpt lon="7.161747934296727" lat="46.197209944948554">
        <ele>1454.800048828125</ele>
        <time>2015-10-21T11:40:33.000Z</time>
      </trkpt>
      <trkpt lon="7.162049934267998" lat="46.19726099073887">
        <ele>1453.0</ele>
        <time>2015-10-21T11:40:40.000Z</time>
      </trkpt>
      <trkpt lon="7.162280939519405" lat="46.19733399711549">
        <ele>1451.4000244140625</ele>
        <time>2015-10-21T11:40:46.000Z</time>
      </trkpt>
      <trkpt lon="7.162415971979499" lat="46.197450924664736">
        <ele>1451.0</ele>
        <time>2015-10-21T11:40:52.000Z</time>
      </trkpt>
      <trkpt lon="7.162502976134419" lat="46.19767296127975">
        <ele>1450.4000244140625</ele>
        <time>2015-10-21T11:41:00.000Z</time>
      </trkpt>
      <trkpt lon="7.162481937557459" lat="46.19787295348942">
        <ele>1453.199951171875</ele>
        <time>2015-10-21T11:41:07.000Z</time>
      </trkpt>
      <trkpt lon="7.162458971142769" lat="46.19802491739392">
        <ele>1455.5999755859375</ele>
        <time>2015-10-21T11:41:12.000Z</time>
      </trkpt>
      <trkpt lon="7.162438938394189" lat="46.198202949017286">
        <ele>1458.5999755859375</ele>
        <time>2015-10-21T11:41:17.000Z</time>
      </trkpt>
      <trkpt lon="7.162443967536092" lat="46.19846798479557">
        <ele>1462.800048828125</ele>
        <time>2015-10-21T11:41:25.000Z</time>
      </trkpt>
      <trkpt lon="7.162492917850614" lat="46.198693960905075">
        <ele>1464.199951171875</ele>
        <time>2015-10-21T11:41:33.000Z</time>
      </trkpt>
      <trkpt lon="7.162518985569477" lat="46.198847936466336">
        <ele>1465.4000244140625</ele>
        <time>2015-10-21T11:41:39.000Z</time>
      </trkpt>
      <trkpt lon="7.16254698112607" lat="46.1990449950099">
        <ele>1464.5999755859375</ele>
        <time>2015-10-21T11:41:46.000Z</time>
      </trkpt>
      <trkpt lon="7.162528960034251" lat="46.19913493283093">
        <ele>1464.199951171875</ele>
        <time>2015-10-21T11:41:49.000Z</time>
      </trkpt>
      <trkpt lon="7.16248394921422" lat="46.19929293170571">
        <ele>1463.800048828125</ele>
        <time>2015-10-21T11:41:55.000Z</time>
      </trkpt>
      <trkpt lon="7.16241798363626" lat="46.19943399913609">
        <ele>1464.5999755859375</ele>
        <time>2015-10-21T11:42:00.000Z</time>
      </trkpt>
      <trkpt lon="7.162398956716061" lat="46.19955092668533">
        <ele>1463.5999755859375</ele>
        <time>2015-10-21T11:42:04.000Z</time>
      </trkpt>
      <trkpt lon="7.162398956716061" lat="46.199677996337414">
        <ele>1461.5999755859375</ele>
        <time>2015-10-21T11:42:08.000Z</time>
      </trkpt>
      <trkpt lon="7.162313964217901" lat="46.19984898716211">
        <ele>1459.4000244140625</ele>
        <time>2015-10-21T11:42:15.000Z</time>
      </trkpt>
      <trkpt lon="7.16216292232275" lat="46.19999893940985">
        <ele>1457.800048828125</ele>
        <time>2015-10-21T11:42:21.000Z</time>
      </trkpt>
      <trkpt lon="7.161994948983192" lat="46.20013891719282">
        <ele>1457.4000244140625</ele>
        <time>2015-10-21T11:42:27.000Z</time>
      </trkpt>
      <trkpt lon="7.161855977028608" lat="46.200260957702994">
        <ele>1458.0</ele>
        <time>2015-10-21T11:42:33.000Z</time>
      </trkpt>
      <trkpt lon="7.161733936518431" lat="46.20037595741451">
        <ele>1458.4000244140625</ele>
        <time>2015-10-21T11:42:39.000Z</time>
      </trkpt>
      <trkpt lon="7.161581972613931" lat="46.200518952682614">
        <ele>1458.800048828125</ele>
        <time>2015-10-21T11:42:46.000Z</time>
      </trkpt>
      <trkpt lon="7.161429924890399" lat="46.2006629537791">
        <ele>1457.800048828125</ele>
        <time>2015-10-21T11:42:53.000Z</time>
      </trkpt>
      <trkpt lon="7.161260945722461" lat="46.200821958482265">
        <ele>1457.0</ele>
        <time>2015-10-21T11:43:00.000Z</time>
      </trkpt>
      <trkpt lon="7.161124991253018" lat="46.20094299316406">
        <ele>1456.5999755859375</ele>
        <time>2015-10-21T11:43:06.000Z</time>
      </trkpt>
      <trkpt lon="7.160959951579571" lat="46.20104592293501">
        <ele>1458.199951171875</ele>
        <time>2015-10-21T11:43:12.000Z</time>
      </trkpt>
      <trkpt lon="7.160718971863389" lat="46.20115094818175">
        <ele>1462.5999755859375</ele>
        <time>2015-10-21T11:43:19.000Z</time>
      </trkpt>
      <trkpt lon="7.1605259366333485" lat="46.20126795955002">
        <ele>1466.199951171875</ele>
        <time>2015-10-21T11:43:25.000Z</time>
      </trkpt>
      <trkpt lon="7.160401968285441" lat="46.201358987018466">
        <ele>1467.800048828125</ele>
        <time>2015-10-21T11:43:31.000Z</time>
      </trkpt>
      <trkpt lon="7.16027095913887" lat="46.201483961194754">
        <ele>1468.5999755859375</ele>
        <time>2015-10-21T11:43:38.000Z</time>
      </trkpt>
      <trkpt lon="7.160142967477441" lat="46.20160692371428">
        <ele>1470.0</ele>
        <time>2015-10-21T11:43:45.000Z</time>
      </trkpt>
      <trkpt lon="7.160002989694476" lat="46.201718989759684">
        <ele>1471.0</ele>
        <time>2015-10-21T11:43:52.000Z</time>
      </trkpt>
      <trkpt lon="7.159838955849409" lat="46.201831977814436">
        <ele>1472.800048828125</ele>
        <time>2015-10-21T11:44:00.000Z</time>
      </trkpt>
      <trkpt lon="7.159706940874457" lat="46.201916970312595">
        <ele>1474.4000244140625</ele>
        <time>2015-10-21T11:44:06.000Z</time>
      </trkpt>
      <trkpt lon="7.159611973911524" lat="46.20198494754732">
        <ele>1475.4000244140625</ele>
        <time>2015-10-21T11:44:11.000Z</time>
      </trkpt>
      <trkpt lon="7.159522958099842" lat="46.20208393782377">
        <ele>1474.800048828125</ele>
        <time>2015-10-21T11:44:17.000Z</time>
      </trkpt>
      <trkpt lon="7.159462943673134" lat="46.20220296084881">
        <ele>1472.4000244140625</ele>
        <time>2015-10-21T11:44:23.000Z</time>
      </trkpt>
      <trkpt lon="7.159396978095174" lat="46.20233497582376">
        <ele>1470.0</ele>
        <time>2015-10-21T11:44:29.000Z</time>
      </trkpt>
      <trkpt lon="7.159253982827067" lat="46.20246992446482">
        <ele>1470.5999755859375</ele>
        <time>2015-10-21T11:44:36.000Z</time>
      </trkpt>
      <trkpt lon="7.1591199561953545" lat="46.20254997164011">
        <ele>1470.800048828125</ele>
        <time>2015-10-21T11:44:42.000Z</time>
      </trkpt>
      <trkpt lon="7.158929938450456" lat="46.20263094082475">
        <ele>1473.199951171875</ele>
        <time>2015-10-21T11:44:49.000Z</time>
      </trkpt>
      <trkpt lon="7.158714942634106" lat="46.202711993828416">
        <ele>1476.4000244140625</ele>
        <time>2015-10-21T11:44:57.000Z</time>
      </trkpt>
      <trkpt lon="7.158584939315915" lat="46.20275893248618">
        <ele>1477.199951171875</ele>
        <time>2015-10-21T11:45:03.000Z</time>
      </trkpt>
      <trkpt lon="7.1583689376711845" lat="46.2028369680047">
        <ele>1478.4000244140625</ele>
        <time>2015-10-21T11:45:10.000Z</time>
      </trkpt>
      <trkpt lon="7.158192917704582" lat="46.2029009219259">
        <ele>1479.4000244140625</ele>
        <time>2015-10-21T11:45:16.000Z</time>
      </trkpt>
      <trkpt lon="7.157995942980051" lat="46.202971916645765">
        <ele>1480.800048828125</ele>
        <time>2015-10-21T11:45:23.000Z</time>
      </trkpt>
      <trkpt lon="7.157830987125635" lat="46.20303696021438">
        <ele>1481.5999755859375</ele>
        <time>2015-10-21T11:45:29.000Z</time>
      </trkpt>
      <trkpt lon="7.157689919695258" lat="46.20312597602606">
        <ele>1480.800048828125</ele>
        <time>2015-10-21T11:45:35.000Z</time>
      </trkpt>
      <trkpt lon="7.1575419791042805" lat="46.20321993716061">
        <ele>1481.199951171875</ele>
        <time>2015-10-21T11:45:41.000Z</time>
      </trkpt>
      <trkpt lon="7.157407952472568" lat="46.2032999843359">
        <ele>1479.800048828125</ele>
        <time>2015-10-21T11:45:47.000Z</time>
      </trkpt>
      <trkpt lon="7.157221958041191" lat="46.20337299071252">
        <ele>1477.5999755859375</ele>
        <time>2015-10-21T11:45:54.000Z</time>
      </trkpt>
      <trkpt lon="7.156968992203474" lat="46.2034329213202">
        <ele>1476.4000244140625</ele>
        <time>2015-10-21T11:46:02.000Z</time>
      </trkpt>
      <trkpt lon="7.156860949471593" lat="46.2034329213202">
        <ele>1477.5999755859375</ele>
        <time>2015-10-21T11:46:06.000Z</time>
      </trkpt>
      <trkpt lon="7.156661963090301" lat="46.2034329213202">
        <ele>1481.0</ele>
        <time>2015-10-21T11:46:13.000Z</time>
      </trkpt>
      <trkpt lon="7.156557943671942" lat="46.2034329213202">
        <ele>1482.4000244140625</ele>
        <time>2015-10-21T11:46:18.000Z</time>
      </trkpt>
      <trkpt lon="7.156444955617189" lat="46.2034329213202">
        <ele>1483.4000244140625</ele>
        <time>2015-10-21T11:46:24.000Z</time>
      </trkpt>
      <trkpt lon="7.156266923993826" lat="46.20341196656227">
        <ele>1485.4000244140625</ele>
        <time>2015-10-21T11:46:31.000Z</time>
      </trkpt>
      <trkpt lon="7.155918991193175" lat="46.2035399582237">
        <ele>1486.0</ele>
        <time>2015-10-21T11:46:40.000Z</time>
      </trkpt>
      <trkpt lon="7.155897952616215" lat="46.20365395210683">
        <ele>1483.5999755859375</ele>
        <time>2015-10-21T11:46:47.000Z</time>
      </trkpt>
      <trkpt lon="7.155789993703365" lat="46.20373299345374">
        <ele>1483.0</ele>
        <time>2015-10-21T11:46:54.000Z</time>
      </trkpt>
      <trkpt lon="7.155540967360139" lat="46.203808933496475">
        <ele>1485.0</ele>
        <time>2015-10-21T11:47:02.000Z</time>
      </trkpt>
      <trkpt lon="7.155332928523421" lat="46.203871965408325">
        <ele>1486.0</ele>
        <time>2015-10-21T11:47:09.000Z</time>
      </trkpt>
      <trkpt lon="7.155163949355483" lat="46.20403499342501">
        <ele>1485.4000244140625</ele>
        <time>2015-10-21T11:47:15.000Z</time>
      </trkpt>
      <trkpt lon="7.155117932707071" lat="46.204147981479764">
        <ele>1485.0</ele>
        <time>2015-10-21T11:47:21.000Z</time>
      </trkpt>
      <trkpt lon="7.154995976015925" lat="46.2043119315058">
        <ele>1484.800048828125</ele>
        <time>2015-10-21T11:47:29.000Z</time>
      </trkpt>
      <trkpt lon="7.154822973534465" lat="46.20442098006606">
        <ele>1487.0</ele>
        <time>2015-10-21T11:47:36.000Z</time>
      </trkpt>
      <trkpt lon="7.154688946902752" lat="46.20460596866906">
        <ele>1487.5999755859375</ele>
        <time>2015-10-21T11:47:43.000Z</time>
      </trkpt>
      <trkpt lon="7.154634967446327" lat="46.20473496615887">
        <ele>1486.800048828125</ele>
        <time>2015-10-21T11:47:49.000Z</time>
      </trkpt>
      <trkpt lon="7.154529942199588" lat="46.20488894172013">
        <ele>1486.0</ele>
        <time>2015-10-21T11:47:57.000Z</time>
      </trkpt>
      <trkpt lon="7.154442938044667" lat="46.204925989732146">
        <ele>1486.800048828125</ele>
        <time>2015-10-21T11:48:02.000Z</time>
      </trkpt>
      <trkpt lon="7.15431796386838" lat="46.20496395975351">
        <ele>1488.199951171875</ele>
        <time>2015-10-21T11:48:09.000Z</time>
      </trkpt>
      <trkpt lon="7.154282927513123" lat="46.2052649538964">
        <ele>1484.199951171875</ele>
        <time>2015-10-21T11:48:13.000Z</time>
      </trkpt>
      <trkpt lon="7.154050916433334" lat="46.205396968871355">
        <ele>1487.0</ele>
        <time>2015-10-21T11:48:16.000Z</time>
      </trkpt>
      <trkpt lon="7.153944969177246" lat="46.20547098107636">
        <ele>1488.5999755859375</ele>
        <time>2015-10-21T11:48:20.000Z</time>
      </trkpt>
      <trkpt lon="7.153944969177246" lat="46.20547098107636">
        <ele>1488.5999755859375</ele>
        <time>2015-10-21T11:48:24.000Z</time>
      </trkpt>
      <trkpt lon="7.153944969177246" lat="46.20547098107636">
        <ele>1488.5999755859375</ele>
        <time>2015-10-21T11:48:29.000Z</time>
      </trkpt>
      <trkpt lon="7.153944969177246" lat="46.20547098107636">
        <ele>1488.5999755859375</ele>
        <time>2015-10-21T11:48:31.000Z</time>
      </trkpt>
      <trkpt lon="7.154179997742176" lat="46.20609199628234">
        <ele>1473.199951171875</ele>
        <time>2015-10-21T11:48:37.000Z</time>
      </trkpt>
      <trkpt lon="7.1542369946837425" lat="46.206082943826914">
        <ele>1472.199951171875</ele>
        <time>2015-10-21T11:48:39.000Z</time>
      </trkpt>
      <trkpt lon="7.154531953856349" lat="46.20600298047066">
        <ele>1467.4000244140625</ele>
        <time>2015-10-21T11:48:45.000Z</time>
      </trkpt>
      <trkpt lon="7.154640918597579" lat="46.205956963822246">
        <ele>1466.0</ele>
        <time>2015-10-21T11:48:49.000Z</time>
      </trkpt>
      <trkpt lon="7.154824985191226" lat="46.20572897605598">
        <ele>1466.4000244140625</ele>
        <time>2015-10-21T11:48:53.000Z</time>
      </trkpt>
      <trkpt lon="7.1547959838062525" lat="46.20581497438252">
        <ele>1465.5999755859375</ele>
        <time>2015-10-21T11:48:59.000Z</time>
      </trkpt>
      <trkpt lon="7.154781986027956" lat="46.20588596910238">
        <ele>1464.5999755859375</ele>
        <time>2015-10-21T11:49:04.000Z</time>
      </trkpt>
      <trkpt lon="7.154781986027956" lat="46.20589996688068">
        <ele>1464.4000244140625</ele>
        <time>2015-10-21T11:49:08.000Z</time>
      </trkpt>
      <trkpt lon="7.154441932216287" lat="46.206039944663644">
        <ele>1468.5999755859375</ele>
        <time>2015-10-21T11:49:12.000Z</time>
      </trkpt>
      <trkpt lon="7.1545229852199554" lat="46.2060059979558">
        <ele>1467.5999755859375</ele>
        <time>2015-10-21T11:49:14.000Z</time>
      </trkpt>
      <trkpt lon="7.154781986027956" lat="46.20589996688068">
        <ele>1464.4000244140625</ele>
        <time>2015-10-21T11:49:19.000Z</time>
      </trkpt>
      <trkpt lon="7.154781986027956" lat="46.20589996688068">
        <ele>1464.4000244140625</ele>
        <time>2015-10-21T11:49:23.000Z</time>
      </trkpt>
      <trkpt lon="7.154997987672687" lat="46.20553392916918">
        <ele>1466.0</ele>
        <time>2015-10-21T11:49:26.000Z</time>
      </trkpt>
      <trkpt lon="7.155355978757143" lat="46.205290937796235">
        <ele>1460.4000244140625</ele>
        <time>2015-10-21T11:49:31.000Z</time>
      </trkpt>
      <trkpt lon="7.155440971255302" lat="46.20525497943163">
        <ele>1459.199951171875</ele>
        <time>2015-10-21T11:49:37.000Z</time>
      </trkpt>
      <trkpt lon="7.155440971255302" lat="46.20525497943163">
        <ele>1459.199951171875</ele>
        <time>2015-10-21T11:49:38.000Z</time>
      </trkpt>
      <trkpt lon="7.155512971803546" lat="46.205226983875036">
        <ele>1459.199951171875</ele>
        <time>2015-10-21T11:49:46.000Z</time>
      </trkpt>
      <trkpt lon="7.155683962628245" lat="46.205159928649664">
        <ele>1459.4000244140625</ele>
        <time>2015-10-21T11:49:52.000Z</time>
      </trkpt>
      <trkpt lon="7.155887978151441" lat="46.20506295002997">
        <ele>1459.4000244140625</ele>
        <time>2015-10-21T11:49:58.000Z</time>
      </trkpt>
      <trkpt lon="7.156214956194162" lat="46.20517099276185">
        <ele>1450.0</ele>
        <time>2015-10-21T11:50:03.000Z</time>
      </trkpt>
      <trkpt lon="7.15642592869699" lat="46.20517099276185">
        <ele>1448.0</ele>
        <time>2015-10-21T11:50:07.000Z</time>
      </trkpt>
      <trkpt lon="7.156527936458588" lat="46.20517099276185">
        <ele>1447.0</ele>
        <time>2015-10-21T11:50:09.000Z</time>
      </trkpt>
      <trkpt lon="7.156690964475274" lat="46.20515397749841">
        <ele>1446.199951171875</ele>
        <time>2015-10-21T11:50:12.000Z</time>
      </trkpt>
      <trkpt lon="7.15691895224154" lat="46.20510494336486">
        <ele>1446.199951171875</ele>
        <time>2015-10-21T11:50:16.000Z</time>
      </trkpt>
      <trkpt lon="7.1569909527897835" lat="46.20508792810142">
        <ele>1446.4000244140625</ele>
        <time>2015-10-21T11:50:17.000Z</time>
      </trkpt>
      <trkpt lon="7.157274931669235" lat="46.20506295002997">
        <ele>1445.5999755859375</ele>
        <time>2015-10-21T11:50:20.000Z</time>
      </trkpt>
      <trkpt lon="7.157527981325984" lat="46.20506295002997">
        <ele>1443.5999755859375</ele>
        <time>2015-10-21T11:50:23.000Z</time>
      </trkpt>
      <trkpt lon="7.157832998782396" lat="46.20508398860693">
        <ele>1439.5999755859375</ele>
        <time>2015-10-21T11:50:27.000Z</time>
      </trkpt>
      <trkpt lon="7.1579009760171175" lat="46.20508993975818">
        <ele>1438.4000244140625</ele>
        <time>2015-10-21T11:50:28.000Z</time>
      </trkpt>
      <trkpt lon="7.158536994829774" lat="46.204903945326805">
        <ele>1437.4000244140625</ele>
        <time>2015-10-21T11:50:32.000Z</time>
      </trkpt>
      <trkpt lon="7.157442988827825" lat="46.20433397591114">
        <ele>1454.800048828125</ele>
        <time>2015-10-21T11:50:36.000Z</time>
      </trkpt>
      <trkpt lon="7.157835932448506" lat="46.20508398860693">
        <ele>1439.5999755859375</ele>
        <time>2015-10-21T11:50:43.000Z</time>
      </trkpt>
      <trkpt lon="7.15771296992898" lat="46.205075941979885">
        <ele>1441.4000244140625</ele>
        <time>2015-10-21T11:50:48.000Z</time>
      </trkpt>
      <trkpt lon="7.1577289793640375" lat="46.20521994307637">
        <ele>1434.800048828125</ele>
        <time>2015-10-21T11:50:52.000Z</time>
      </trkpt>
      <trkpt lon="7.157811960205436" lat="46.20508197695017">
        <ele>1440.0</ele>
        <time>2015-10-21T11:50:54.000Z</time>
      </trkpt>
      <trkpt lon="7.158116977661848" lat="46.2051129899919">
        <ele>1434.800048828125</ele>
        <time>2015-10-21T11:50:59.000Z</time>
      </trkpt>
      <trkpt lon="7.158307917416096" lat="46.20513193309307">
        <ele>1431.5999755859375</ele>
        <time>2015-10-21T11:51:02.000Z</time>
      </trkpt>
      <trkpt lon="7.158586950972676" lat="46.20515397749841">
        <ele>1428.4000244140625</ele>
        <time>2015-10-21T11:51:06.000Z</time>
      </trkpt>
      <trkpt lon="7.158652916550636" lat="46.205156994983554">
        <ele>1427.5999755859375</ele>
        <time>2015-10-21T11:51:07.000Z</time>
      </trkpt>
      <trkpt lon="7.1590339578688145" lat="46.20486999861896">
        <ele>1428.800048828125</ele>
        <time>2015-10-21T11:51:13.000Z</time>
      </trkpt>
      <trkpt lon="7.159155998378992" lat="46.20490998029709">
        <ele>1426.0</ele>
        <time>2015-10-21T11:51:17.000Z</time>
      </trkpt>
      <trkpt lon="7.159158932045102" lat="46.20493294671178">
        <ele>1425.199951171875</ele>
        <time>2015-10-21T11:51:18.000Z</time>
      </trkpt>
      <trkpt lon="7.159158932045102" lat="46.20502296835184">
        <ele>1422.4000244140625</ele>
        <time>2015-10-21T11:51:20.000Z</time>
      </trkpt>
      <trkpt lon="7.159061953425407" lat="46.205156994983554">
        <ele>1419.800048828125</ele>
        <time>2015-10-21T11:51:24.000Z</time>
      </trkpt>
      <trkpt lon="7.158932955935597" lat="46.20518893003464">
        <ele>1421.199951171875</ele>
        <time>2015-10-21T11:51:26.000Z</time>
      </trkpt>
      <trkpt lon="7.158465916290879" lat="46.20530099608004">
        <ele>1423.4000244140625</ele>
        <time>2015-10-21T11:51:33.000Z</time>
      </trkpt>
      <trkpt lon="7.158008934929967" lat="46.20543292723596">
        <ele>1422.5999755859375</ele>
        <time>2015-10-21T11:51:38.000Z</time>
      </trkpt>
      <trkpt lon="7.157597970217466" lat="46.205548932775855">
        <ele>1420.800048828125</ele>
        <time>2015-10-21T11:51:42.000Z</time>
      </trkpt>
      <trkpt lon="7.157344920560718" lat="46.20560592971742">
        <ele>1420.4000244140625</ele>
        <time>2015-10-21T11:51:44.000Z</time>
      </trkpt>
      <trkpt lon="7.157012997195125" lat="46.20577197521925">
        <ele>1427.199951171875</ele>
        <time>2015-10-21T11:51:48.000Z</time>
      </trkpt>
      <trkpt lon="7.1569849178195" lat="46.205785972997546">
        <ele>1427.800048828125</ele>
        <time>2015-10-21T11:51:53.000Z</time>
      </trkpt>
      <trkpt lon="7.157051973044872" lat="46.20600993745029">
        <ele>1433.199951171875</ele>
        <time>2015-10-21T11:51:59.000Z</time>
      </trkpt>
      <trkpt lon="7.157078962773085" lat="46.20603499934077">
        <ele>1433.5999755859375</ele>
        <time>2015-10-21T11:52:00.000Z</time>
      </trkpt>
      <trkpt lon="7.157120956107974" lat="46.20607196353376">
        <ele>1434.0</ele>
        <time>2015-10-21T11:52:02.000Z</time>
      </trkpt>
      <trkpt lon="7.1574709843844175" lat="46.20604799129069">
        <ele>1430.199951171875</ele>
        <time>2015-10-21T11:52:07.000Z</time>
      </trkpt>
      <trkpt lon="7.157874992117286" lat="46.20602896437049">
        <ele>1427.800048828125</ele>
        <time>2015-10-21T11:52:11.000Z</time>
      </trkpt>
      <trkpt lon="7.15827296487987" lat="46.206189980730414">
        <ele>1429.199951171875</ele>
        <time>2015-10-21T11:52:15.000Z</time>
      </trkpt>
      <trkpt lon="7.158686947077513" lat="46.20622199960053">
        <ele>1431.199951171875</ele>
        <time>2015-10-21T11:52:20.000Z</time>
      </trkpt>
      <trkpt lon="7.158911917358637" lat="46.20621898211539">
        <ele>1431.199951171875</ele>
        <time>2015-10-21T11:52:25.000Z</time>
      </trkpt>
      <trkpt lon="7.159153986722231" lat="46.20620196685195">
        <ele>1428.800048828125</ele>
        <time>2015-10-21T11:52:30.000Z</time>
      </trkpt>
      <trkpt lon="7.159462943673134" lat="46.20622099377215">
        <ele>1428.800048828125</ele>
        <time>2015-10-21T11:52:35.000Z</time>
      </trkpt>
      <trkpt lon="7.1595569886267185" lat="46.20622199960053">
        <ele>1428.5999755859375</ele>
        <time>2015-10-21T11:52:37.000Z</time>
      </trkpt>
      <trkpt lon="7.159845996648073" lat="46.20622199960053">
        <ele>1427.199951171875</ele>
        <time>2015-10-21T11:52:42.000Z</time>
      </trkpt>
      <trkpt lon="7.1600759960711" lat="46.206192998215556">
        <ele>1425.5999755859375</ele>
        <time>2015-10-21T11:52:46.000Z</time>
      </trkpt>
      <trkpt lon="7.160397944971919" lat="46.20615896768868">
        <ele>1425.4000244140625</ele>
        <time>2015-10-21T11:52:52.000Z</time>
      </trkpt>
      <trkpt lon="7.160532977432013" lat="46.2061249371618">
        <ele>1423.800048828125</ele>
        <time>2015-10-21T11:52:54.000Z</time>
      </trkpt>
      <trkpt lon="7.160788960754871" lat="46.20607196353376">
        <ele>1420.4000244140625</ele>
        <time>2015-10-21T11:52:57.000Z</time>
      </trkpt>
      <trkpt lon="7.161138989031315" lat="46.205979930236936">
        <ele>1417.800048828125</ele>
        <time>2015-10-21T11:53:01.000Z</time>
      </trkpt>
      <trkpt lon="7.161467978730798" lat="46.20592796243727">
        <ele>1414.800048828125</ele>
        <time>2015-10-21T11:53:05.000Z</time>
      </trkpt>
      <trkpt lon="7.161806942895055" lat="46.205889992415905">
        <ele>1410.800048828125</ele>
        <time>2015-10-21T11:53:10.000Z</time>
      </trkpt>
      <trkpt lon="7.162025962024927" lat="46.205850932747126">
        <ele>1408.199951171875</ele>
        <time>2015-10-21T11:53:13.000Z</time>
      </trkpt>
      <trkpt lon="7.1621739864349365" lat="46.20573693886399">
        <ele>1402.800048828125</ele>
        <time>2015-10-21T11:53:16.000Z</time>
      </trkpt>
      <trkpt lon="7.162506999447942" lat="46.2055569794029">
        <ele>1395.199951171875</ele>
        <time>2015-10-21T11:53:20.000Z</time>
      </trkpt>
      <trkpt lon="7.162506999447942" lat="46.2055569794029">
        <ele>1395.199951171875</ele>
        <time>2015-10-21T11:53:24.000Z</time>
      </trkpt>
      <trkpt lon="7.162943948060274" lat="46.20540694333613">
        <ele>1391.199951171875</ele>
        <time>2015-10-21T11:53:25.000Z</time>
      </trkpt>
      <trkpt lon="7.1630999352782965" lat="46.20540292002261">
        <ele>1391.199951171875</ele>
        <time>2015-10-21T11:53:27.000Z</time>
      </trkpt>
      <trkpt lon="7.1633219718933105" lat="46.20532094500959">
        <ele>1388.4000244140625</ele>
        <time>2015-10-21T11:53:31.000Z</time>
      </trkpt>
      <trkpt lon="7.163371928036213" lat="46.20527098886669">
        <ele>1387.199951171875</ele>
        <time>2015-10-21T11:53:32.000Z</time>
      </trkpt>
      <trkpt lon="7.16355599462986" lat="46.20505993254483">
        <ele>1381.199951171875</ele>
        <time>2015-10-21T11:53:37.000Z</time>
      </trkpt>
      <trkpt lon="7.1635449305176735" lat="46.20503797195852">
        <ele>1380.199951171875</ele>
        <time>2015-10-21T11:53:38.000Z</time>
      </trkpt>
      <trkpt lon="7.163326917216182" lat="46.20499899610877">
        <ele>1376.5999755859375</ele>
        <time>2015-10-21T11:53:42.000Z</time>
      </trkpt>
      <trkpt lon="7.1632359735667706" lat="46.2049319408834">
        <ele>1373.5999755859375</ele>
        <time>2015-10-21T11:53:46.000Z</time>
      </trkpt>
      <trkpt lon="7.1632359735667706" lat="46.204904951155186">
        <ele>1372.5999755859375</ele>
        <time>2015-10-21T11:53:47.000Z</time>
      </trkpt>
      <trkpt lon="7.163557922467589" lat="46.2047419231385">
        <ele>1367.5999755859375</ele>
        <time>2015-10-21T11:53:54.000Z</time>
      </trkpt>
      <trkpt lon="7.163740983232856" lat="46.2045569345355">
        <ele>1363.199951171875</ele>
        <time>2015-10-21T11:53:58.000Z</time>
      </trkpt>
      <trkpt lon="7.1639389637857676" lat="46.204491974785924">
        <ele>1361.800048828125</ele>
        <time>2015-10-21T11:54:01.000Z</time>
      </trkpt>
      <trkpt lon="7.164109954610467" lat="46.204151920974255">
        <ele>1353.4000244140625</ele>
        <time>2015-10-21T11:54:06.000Z</time>
      </trkpt>
      <trkpt lon="7.164421929046512" lat="46.20396198704839">
        <ele>1347.5999755859375</ele>
        <time>2015-10-21T11:54:10.000Z</time>
      </trkpt>
      <trkpt lon="7.164578922092915" lat="46.203807927668095">
        <ele>1343.800048828125</ele>
        <time>2015-10-21T11:54:13.000Z</time>
      </trkpt>
      <trkpt lon="7.16458797454834" lat="46.20379694737494">
        <ele>1343.5999755859375</ele>
        <time>2015-10-21T11:54:19.000Z</time>
      </trkpt>
      <trkpt lon="7.164492923766375" lat="46.2038179859519">
        <ele>1344.199951171875</ele>
        <time>2015-10-21T11:54:23.000Z</time>
      </trkpt>
      <trkpt lon="7.1643109526485205" lat="46.20385696180165">
        <ele>1345.4000244140625</ele>
        <time>2015-10-21T11:54:27.000Z</time>
      </trkpt>
      <trkpt lon="7.164038959890604" lat="46.203890992328525">
        <ele>1348.4000244140625</ele>
        <time>2015-10-21T11:54:31.000Z</time>
      </trkpt>
      <trkpt lon="7.163919936865568" lat="46.20390398427844">
        <ele>1348.0</ele>
        <time>2015-10-21T11:54:33.000Z</time>
      </trkpt>
      <trkpt lon="7.163766967132688" lat="46.20387892238796">
        <ele>1347.800048828125</ele>
        <time>2015-10-21T11:54:36.000Z</time>
      </trkpt>
      <trkpt lon="7.163680968806148" lat="46.20384396985173">
        <ele>1348.0</ele>
        <time>2015-10-21T11:54:41.000Z</time>
      </trkpt>
      <trkpt lon="7.163881966844201" lat="46.203654957935214">
        <ele>1348.199951171875</ele>
        <time>2015-10-21T11:54:45.000Z</time>
      </trkpt>
      <trkpt lon="7.1640449948608875" lat="46.20360592380166">
        <ele>1342.4000244140625</ele>
        <time>2015-10-21T11:54:48.000Z</time>
      </trkpt>
      <trkpt lon="7.164331991225481" lat="46.203508945181966">
        <ele>1338.0</ele>
        <time>2015-10-21T11:54:53.000Z</time>
      </trkpt>
      <trkpt lon="7.1647049859166145" lat="46.20336293242872">
        <ele>1332.5999755859375</ele>
        <time>2015-10-21T11:54:59.000Z</time>
      </trkpt>
      <trkpt lon="7.1647609770298" lat="46.20334591716528">
        <ele>1331.800048828125</ele>
        <time>2015-10-21T11:55:00.000Z</time>
      </trkpt>
      <trkpt lon="7.165081920102239" lat="46.203249944373965">
        <ele>1328.0</ele>
        <time>2015-10-21T11:55:05.000Z</time>
      </trkpt>
      <trkpt lon="7.16525592841208" lat="46.20319697074592">
        <ele>1328.199951171875</ele>
        <time>2015-10-21T11:55:07.000Z</time>
      </trkpt>
      <trkpt lon="7.165549965575337" lat="46.20307291857898">
        <ele>1327.800048828125</ele>
        <time>2015-10-21T11:55:11.000Z</time>
      </trkpt>
      <trkpt lon="7.165592964738607" lat="46.20297795161605">
        <ele>1326.4000244140625</ele>
        <time>2015-10-21T11:55:13.000Z</time>
      </trkpt>
      <trkpt lon="7.16572699137032" lat="46.20269891805947">
        <ele>1321.199951171875</ele>
        <time>2015-10-21T11:55:18.000Z</time>
      </trkpt>
      <trkpt lon="7.1657799649983644" lat="46.20259297080338">
        <ele>1319.199951171875</ele>
        <time>2015-10-21T11:55:20.000Z</time>
      </trkpt>
      <trkpt lon="7.165833944454789" lat="46.20240597054362">
        <ele>1315.4000244140625</ele>
        <time>2015-10-21T11:55:24.000Z</time>
      </trkpt>
      <trkpt lon="7.165853977203369" lat="46.202300945296884">
        <ele>1313.800048828125</ele>
        <time>2015-10-21T11:55:26.000Z</time>
      </trkpt>
      <trkpt lon="7.165906950831413" lat="46.20201495476067">
        <ele>1311.5999755859375</ele>
        <time>2015-10-21T11:55:32.000Z</time>
      </trkpt>
      <trkpt lon="7.165906950831413" lat="46.20201495476067">
        <ele>1311.5999755859375</ele>
        <time>2015-10-21T11:55:34.000Z</time>
      </trkpt>
      <trkpt lon="7.1659009996801615" lat="46.20204797945917">
        <ele>1311.800048828125</ele>
        <time>2015-10-21T11:55:41.000Z</time>
      </trkpt>
      <trkpt lon="7.165863951668143" lat="46.20224596001208">
        <ele>1313.4000244140625</ele>
        <time>2015-10-21T11:55:46.000Z</time>
      </trkpt>
      <trkpt lon="7.165676951408386" lat="46.20227496139705">
        <ele>1312.5999755859375</ele>
        <time>2015-10-21T11:55:47.000Z</time>
      </trkpt>
      <trkpt lon="7.1655599400401115" lat="46.20239599607885">
        <ele>1314.4000244140625</ele>
        <time>2015-10-21T11:55:50.000Z</time>
      </trkpt>
      <trkpt lon="7.165530938655138" lat="46.20226993225515">
        <ele>1312.0</ele>
        <time>2015-10-21T11:55:54.000Z</time>
      </trkpt>
      <trkpt lon="7.165507972240448" lat="46.202259957790375">
        <ele>1312.0</ele>
        <time>2015-10-21T11:55:55.000Z</time>
      </trkpt>
      <trkpt lon="7.165488945320249" lat="46.20225199498236">
        <ele>1311.800048828125</ele>
        <time>2015-10-21T11:55:57.000Z</time>
      </trkpt>
      <trkpt lon="7.1654689963907" lat="46.202175971120596">
        <ele>1311.5999755859375</ele>
        <time>2015-10-21T11:56:01.000Z</time>
      </trkpt>
      <trkpt lon="7.165488945320249" lat="46.201938930898905">
        <ele>1310.800048828125</ele>
        <time>2015-10-21T11:56:06.000Z</time>
      </trkpt>
      <trkpt lon="7.165441922843456" lat="46.20174991898239">
        <ele>1309.0</ele>
        <time>2015-10-21T11:56:10.000Z</time>
      </trkpt>
      <trkpt lon="7.165443934500217" lat="46.20160097256303">
        <ele>1307.5999755859375</ele>
        <time>2015-10-21T11:56:14.000Z</time>
      </trkpt>
      <trkpt lon="7.165445946156979" lat="46.20154397562146">
        <ele>1307.0</ele>
        <time>2015-10-21T11:56:16.000Z</time>
      </trkpt>
      <trkpt lon="7.165453992784023" lat="46.20101993903518">
        <ele>1307.0</ele>
        <time>2015-10-21T11:56:21.000Z</time>
      </trkpt>
      <trkpt lon="7.165566980838776" lat="46.20089094154537">
        <ele>1302.199951171875</ele>
        <time>2015-10-21T11:56:23.000Z</time>
      </trkpt>
      <trkpt lon="7.165648955851793" lat="46.20078097097576">
        <ele>1298.5999755859375</ele>
        <time>2015-10-21T11:56:25.000Z</time>
      </trkpt>
      <trkpt lon="7.1657319366931915" lat="46.20066094212234">
        <ele>1294.800048828125</ele>
        <time>2015-10-21T11:56:27.000Z</time>
      </trkpt>
      <trkpt lon="7.166432999074459" lat="46.20062196627259">
        <ele>1291.5999755859375</ele>
        <time>2015-10-21T11:56:31.000Z</time>
      </trkpt>
      <trkpt lon="7.166490918025374" lat="46.20060193352401">
        <ele>1291.4000244140625</ele>
        <time>2015-10-21T11:56:34.000Z</time>
      </trkpt>
      <trkpt lon="7.166723934933543" lat="46.200606962665915">
        <ele>1290.5999755859375</ele>
        <time>2015-10-21T11:56:40.000Z</time>
      </trkpt>
      <trkpt lon="7.166937924921513" lat="46.20061794295907">
        <ele>1290.5999755859375</ele>
        <time>2015-10-21T11:56:47.000Z</time>
      </trkpt>
      <trkpt lon="7.1670999471098185" lat="46.20062196627259">
        <ele>1290.5999755859375</ele>
        <time>2015-10-21T11:56:54.000Z</time>
      </trkpt>
      <trkpt lon="7.167299939319491" lat="46.20061391964555">
        <ele>1290.199951171875</ele>
        <time>2015-10-21T11:57:01.000Z</time>
      </trkpt>
      <trkpt lon="7.167515940964222" lat="46.200582990422845">
        <ele>1289.0</ele>
        <time>2015-10-21T11:57:08.000Z</time>
      </trkpt>
      <trkpt lon="7.16772791929543" lat="46.200521970167756">
        <ele>1287.0</ele>
        <time>2015-10-21T11:57:17.000Z</time>
      </trkpt>
      <trkpt lon="7.167849959805608" lat="46.20048391632736">
        <ele>1285.800048828125</ele>
        <time>2015-10-21T11:57:22.000Z</time>
      </trkpt>
      <trkpt lon="7.168088927865028" lat="46.20040093548596">
        <ele>1283.199951171875</ele>
        <time>2015-10-21T11:57:28.000Z</time>
      </trkpt>
      <trkpt lon="7.168408948928118" lat="46.200282918289304">
        <ele>1280.199951171875</ele>
        <time>2015-10-21T11:57:33.000Z</time>
      </trkpt>
      <trkpt lon="7.1689089294523" lat="46.2000949960202">
        <ele>1277.0</ele>
        <time>2015-10-21T11:57:39.000Z</time>
      </trkpt>
      <trkpt lon="7.169146975502372" lat="46.19999994523823">
        <ele>1276.0</ele>
        <time>2015-10-21T11:57:42.000Z</time>
      </trkpt>
      <trkpt lon="7.169603956863284" lat="46.199702974408865">
        <ele>1272.800048828125</ele>
        <time>2015-10-21T11:57:49.000Z</time>
      </trkpt>
      <trkpt lon="7.169896988198161" lat="46.19948294945061">
        <ele>1271.199951171875</ele>
        <time>2015-10-21T11:57:54.000Z</time>
      </trkpt>
      <trkpt lon="7.1701969765126705" lat="46.199319921433926">
        <ele>1269.800048828125</ele>
        <time>2015-10-21T11:57:58.000Z</time>
      </trkpt>
      <trkpt lon="7.170642977580428" lat="46.1991779319942">
        <ele>1270.0</ele>
        <time>2015-10-21T11:58:03.000Z</time>
      </trkpt>
      <trkpt lon="7.1710799261927605" lat="46.1989569850266">
        <ele>1271.4000244140625</ele>
        <time>2015-10-21T11:58:09.000Z</time>
      </trkpt>
      <trkpt lon="7.1713449619710445" lat="46.19877493008971">
        <ele>1271.199951171875</ele>
        <time>2015-10-21T11:58:13.000Z</time>
      </trkpt>
      <trkpt lon="7.1715219877660275" lat="46.19866093620658">
        <ele>1271.199951171875</ele>
        <time>2015-10-21T11:58:16.000Z</time>
      </trkpt>
      <trkpt lon="7.1715829242020845" lat="46.198625983670354">
        <ele>1271.199951171875</ele>
        <time>2015-10-21T11:58:18.000Z</time>
      </trkpt>
      <trkpt lon="7.171687949448824" lat="46.19845197536051">
        <ele>1268.4000244140625</ele>
        <time>2015-10-21T11:58:22.000Z</time>
      </trkpt>
      <trkpt lon="7.171834968030453" lat="46.19823396205902">
        <ele>1264.4000244140625</ele>
        <time>2015-10-21T11:58:25.000Z</time>
      </trkpt>
      <trkpt lon="7.17217493802309" lat="46.197892986238">
        <ele>1259.0</ele>
        <time>2015-10-21T11:58:29.000Z</time>
      </trkpt>
      <trkpt lon="7.172584980726242" lat="46.19751697406173">
        <ele>1252.4000244140625</ele>
        <time>2015-10-21T11:58:33.000Z</time>
      </trkpt>
      <trkpt lon="7.172863930463791" lat="46.19723794050515">
        <ele>1245.800048828125</ele>
        <time>2015-10-21T11:58:36.000Z</time>
      </trkpt>
      <trkpt lon="7.173024946823716" lat="46.19705395773053">
        <ele>1241.5999755859375</ele>
        <time>2015-10-21T11:58:39.000Z</time>
      </trkpt>
      <trkpt lon="7.1731579676270485" lat="46.19690098799765">
        <ele>1239.0</ele>
        <time>2015-10-21T11:58:43.000Z</time>
      </trkpt>
      <trkpt lon="7.173240948468447" lat="46.19681792333722">
        <ele>1237.800048828125</ele>
        <time>2015-10-21T11:58:47.000Z</time>
      </trkpt>
      <trkpt lon="7.1732519287616014" lat="46.196806943044066">
        <ele>1237.5999755859375</ele>
        <time>2015-10-21T11:58:50.000Z</time>
      </trkpt>
      <trkpt lon="7.173247989267111" lat="46.196910962462425">
        <ele>1239.800048828125</ele>
        <time>2015-10-21T12:52:57.000Z</time>
      </trkpt>
      <trkpt lon="7.173192920163274" lat="46.196866957470775">
        <ele>1238.4000244140625</ele>
        <time>2015-10-21T12:53:00.000Z</time>
      </trkpt>
      <trkpt lon="7.172984965145588" lat="46.196889923885465">
        <ele>1237.800048828125</ele>
        <time>2015-10-21T12:53:04.000Z</time>
      </trkpt>
      <trkpt lon="7.172932997345924" lat="46.19689897634089">
        <ele>1237.5999755859375</ele>
        <time>2015-10-21T12:53:05.000Z</time>
      </trkpt>
      <trkpt lon="7.172653963789344" lat="46.19694599881768">
        <ele>1238.0</ele>
        <time>2015-10-21T12:53:12.000Z</time>
      </trkpt>
      <trkpt lon="7.172367973253131" lat="46.19698095135391">
        <ele>1237.800048828125</ele>
        <time>2015-10-21T12:53:19.000Z</time>
      </trkpt>
      <trkpt lon="7.172071924433112" lat="46.197019927203655">
        <ele>1236.800048828125</ele>
        <time>2015-10-21T12:53:27.000Z</time>
      </trkpt>
      <trkpt lon="7.171812923625112" lat="46.19709393940866">
        <ele>1238.5999755859375</ele>
        <time>2015-10-21T12:53:34.000Z</time>
      </trkpt>
      <trkpt lon="7.171556940302253" lat="46.19719695299864">
        <ele>1241.199951171875</ele>
        <time>2015-10-21T12:53:42.000Z</time>
      </trkpt>
      <trkpt lon="7.171280924230814" lat="46.19736794382334">
        <ele>1241.5999755859375</ele>
        <time>2015-10-21T12:53:51.000Z</time>
      </trkpt>
      <trkpt lon="7.171255946159363" lat="46.19738998822868">
        <ele>1241.800048828125</ele>
        <time>2015-10-21T12:53:52.000Z</time>
      </trkpt>
      <trkpt lon="7.171209929510951" lat="46.19744095019996">
        <ele>1242.199951171875</ele>
        <time>2015-10-21T12:53:57.000Z</time>
      </trkpt>
      <trkpt lon="7.171187968924642" lat="46.19746693409979">
        <ele>1242.4000244140625</ele>
        <time>2015-10-21T12:53:59.000Z</time>
      </trkpt>
      <trkpt lon="7.17112191952765" lat="46.197574976831675">
        <ele>1243.800048828125</ele>
        <time>2015-10-21T12:54:06.000Z</time>
      </trkpt>
      <trkpt lon="7.171057965606451" lat="46.197708919644356">
        <ele>1245.199951171875</ele>
        <time>2015-10-21T12:54:12.000Z</time>
      </trkpt>
      <trkpt lon="7.170964926481247" lat="46.19788996875286">
        <ele>1246.800048828125</ele>
        <time>2015-10-21T12:54:21.000Z</time>
      </trkpt>
      <trkpt lon="7.170819919556379" lat="46.198004968464375">
        <ele>1246.800048828125</ele>
        <time>2015-10-21T12:54:28.000Z</time>
      </trkpt>
      <trkpt lon="7.170577934011817" lat="46.19814092293382">
        <ele>1247.5999755859375</ele>
        <time>2015-10-21T12:54:36.000Z</time>
      </trkpt>
      <trkpt lon="7.170328991487622" lat="46.19825692847371">
        <ele>1249.0</ele>
        <time>2015-10-21T12:54:44.000Z</time>
      </trkpt>
      <trkpt lon="7.170188929885626" lat="46.19826095178723">
        <ele>1248.4000244140625</ele>
        <time>2015-10-21T12:54:49.000Z</time>
      </trkpt>
      <trkpt lon="7.169911991804838" lat="46.19821795262396">
        <ele>1246.0</ele>
        <time>2015-10-21T12:54:56.000Z</time>
      </trkpt>
      <trkpt lon="7.16970294713974" lat="46.19831694290042">
        <ele>1246.800048828125</ele>
        <time>2015-10-21T12:55:01.000Z</time>
      </trkpt>
      <trkpt lon="7.169591970741749" lat="46.19851794093847">
        <ele>1250.5999755859375</ele>
        <time>2015-10-21T12:55:08.000Z</time>
      </trkpt>
      <trkpt lon="7.169437995180488" lat="46.19873293675482">
        <ele>1253.199951171875</ele>
        <time>2015-10-21T12:55:17.000Z</time>
      </trkpt>
      <trkpt lon="7.1692239213734865" lat="46.19898992590606">
        <ele>1255.800048828125</ele>
        <time>2015-10-21T12:55:27.000Z</time>
      </trkpt>
      <trkpt lon="7.169084949418902" lat="46.199101991951466">
        <ele>1257.0</ele>
        <time>2015-10-21T12:55:33.000Z</time>
      </trkpt>
      <trkpt lon="7.1689429599791765" lat="46.19915697723627">
        <ele>1257.199951171875</ele>
        <time>2015-10-21T12:55:38.000Z</time>
      </trkpt>
      <trkpt lon="7.168737938627601" lat="46.19915597140789">
        <ele>1256.0</ele>
        <time>2015-10-21T12:55:44.000Z</time>
      </trkpt>
      <trkpt lon="7.168366955593228" lat="46.199121940881014">
        <ele>1253.0</ele>
        <time>2015-10-21T12:55:53.000Z</time>
      </trkpt>
      <trkpt lon="7.167984992265701" lat="46.199148930609226">
        <ele>1253.800048828125</ele>
        <time>2015-10-21T12:56:01.000Z</time>
      </trkpt>
      <trkpt lon="7.167715933173895" lat="46.19929293170571">
        <ele>1257.199951171875</ele>
        <time>2015-10-21T12:56:09.000Z</time>
      </trkpt>
      <trkpt lon="7.167497919872403" lat="46.19939695112407">
        <ele>1258.4000244140625</ele>
        <time>2015-10-21T12:56:16.000Z</time>
      </trkpt>
      <trkpt lon="7.167480988427997" lat="46.19940499775112">
        <ele>1258.5999755859375</ele>
        <time>2015-10-21T12:56:17.000Z</time>
      </trkpt>
      <trkpt lon="7.16699399985373" lat="46.19926694780588">
        <ele>1267.4000244140625</ele>
        <time>2015-10-21T12:56:21.000Z</time>
      </trkpt>
      <trkpt lon="7.167245959863067" lat="46.19953692890704">
        <ele>1265.199951171875</ele>
        <time>2015-10-21T12:56:28.000Z</time>
      </trkpt>
      <trkpt lon="7.167052924633026" lat="46.199657963588834">
        <ele>1268.0</ele>
        <time>2015-10-21T12:56:35.000Z</time>
      </trkpt>
      <trkpt lon="7.166868941858411" lat="46.19969895109534">
        <ele>1270.199951171875</ele>
        <time>2015-10-21T12:56:41.000Z</time>
      </trkpt>
      <trkpt lon="7.166717983782291" lat="46.199573976919055">
        <ele>1271.5999755859375</ele>
        <time>2015-10-21T12:56:45.000Z</time>
      </trkpt>
      <trkpt lon="7.166768945753574" lat="46.199422935023904">
        <ele>1270.800048828125</ele>
        <time>2015-10-21T12:56:51.000Z</time>
      </trkpt>
      <trkpt lon="7.166805993765593" lat="46.19931095279753">
        <ele>1270.4000244140625</ele>
        <time>2015-10-21T12:56:57.000Z</time>
      </trkpt>
      <trkpt lon="7.166853938251734" lat="46.1991829611361">
        <ele>1269.5999755859375</ele>
        <time>2015-10-21T12:57:05.000Z</time>
      </trkpt>
      <trkpt lon="7.166912946850061" lat="46.199036948382854">
        <ele>1266.0</ele>
        <time>2015-10-21T12:57:13.000Z</time>
      </trkpt>
      <trkpt lon="7.166969943791628" lat="46.19889294728637">
        <ele>1265.4000244140625</ele>
        <time>2015-10-21T12:57:21.000Z</time>
      </trkpt>
      <trkpt lon="7.167042950168252" lat="46.19872195646167">
        <ele>1269.4000244140625</ele>
        <time>2015-10-21T12:57:30.000Z</time>
      </trkpt>
      <trkpt lon="7.167147975414991" lat="46.19859396480024">
        <ele>1269.5999755859375</ele>
        <time>2015-10-21T12:57:38.000Z</time>
      </trkpt>
      <trkpt lon="7.167244954034686" lat="46.198457926511765">
        <ele>1266.0</ele>
        <time>2015-10-21T12:57:47.000Z</time>
      </trkpt>
      <trkpt lon="7.167312931269407" lat="46.19830998592079">
        <ele>1263.800048828125</ele>
        <time>2015-10-21T12:57:56.000Z</time>
      </trkpt>
      <trkpt lon="7.167377974838018" lat="46.19817294180393">
        <ele>1261.800048828125</ele>
        <time>2015-10-21T12:58:04.000Z</time>
      </trkpt>
      <trkpt lon="7.167419968172908" lat="46.1980449501425">
        <ele>1260.5999755859375</ele>
        <time>2015-10-21T12:58:12.000Z</time>
      </trkpt>
      <trkpt lon="7.167437989264727" lat="46.19793397374451">
        <ele>1261.800048828125</ele>
        <time>2015-10-21T12:58:18.000Z</time>
      </trkpt>
      <trkpt lon="7.167401947081089" lat="46.19779793545604">
        <ele>1264.5999755859375</ele>
        <time>2015-10-21T12:58:27.000Z</time>
      </trkpt>
      <trkpt lon="7.167318966239691" lat="46.19764496572316">
        <ele>1269.0</ele>
        <time>2015-10-21T12:58:36.000Z</time>
      </trkpt>
      <trkpt lon="7.167237997055054" lat="46.19749593548477">
        <ele>1273.199951171875</ele>
        <time>2015-10-21T12:58:45.000Z</time>
      </trkpt>
      <trkpt lon="7.167178988456726" lat="46.197385964915156">
        <ele>1276.199951171875</ele>
        <time>2015-10-21T12:58:52.000Z</time>
      </trkpt>
      <trkpt lon="7.167166918516159" lat="46.197363920509815">
        <ele>1276.800048828125</ele>
        <time>2015-10-21T12:58:56.000Z</time>
      </trkpt>
      <trkpt lon="7.1671379171311855" lat="46.19730499573052">
        <ele>1278.4000244140625</ele>
        <time>2015-10-21T12:59:28.000Z</time>
      </trkpt>
      <trkpt lon="7.167128948494792" lat="46.19726593606174">
        <ele>1278.5999755859375</ele>
        <time>2015-10-21T12:59:30.000Z</time>
      </trkpt>
      <trkpt lon="7.167203966528177" lat="46.19709393940866">
        <ele>1273.4000244140625</ele>
        <time>2015-10-21T12:59:39.000Z</time>
      </trkpt>
      <trkpt lon="7.167198937386274" lat="46.19700995273888">
        <ele>1272.0</ele>
        <time>2015-10-21T12:59:43.000Z</time>
      </trkpt>
      <trkpt lon="7.166943959891796" lat="46.196951949968934">
        <ele>1277.199951171875</ele>
        <time>2015-10-21T12:59:51.000Z</time>
      </trkpt>
      <trkpt lon="7.166664926335216" lat="46.196951949968934">
        <ele>1284.199951171875</ele>
        <time>2015-10-21T13:00:01.000Z</time>
      </trkpt>
      <trkpt lon="7.166417995467782" lat="46.19693795219064">
        <ele>1293.199951171875</ele>
        <time>2015-10-21T13:00:10.000Z</time>
      </trkpt>
      <trkpt lon="7.166182966902852" lat="46.19687994942069">
        <ele>1301.5999755859375</ele>
        <time>2015-10-21T13:00:20.000Z</time>
      </trkpt>
      <trkpt lon="7.165952967479825" lat="46.19679395109415">
        <ele>1309.199951171875</ele>
        <time>2015-10-21T13:00:31.000Z</time>
      </trkpt>
      <trkpt lon="7.165776947513223" lat="46.19668498635292">
        <ele>1314.199951171875</ele>
        <time>2015-10-21T13:00:40.000Z</time>
      </trkpt>
      <trkpt lon="7.165633952245116" lat="46.19657794944942">
        <ele>1317.0</ele>
        <time>2015-10-21T13:00:48.000Z</time>
      </trkpt>
      <trkpt lon="7.165574943646789" lat="46.19647099636495">
        <ele>1317.0</ele>
        <time>2015-10-21T13:00:56.000Z</time>
      </trkpt>
      <trkpt lon="7.165608974173665" lat="46.19638499803841">
        <ele>1316.800048828125</ele>
        <time>2015-10-21T13:01:03.000Z</time>
      </trkpt>
      <trkpt lon="7.165734954178333" lat="46.19632397778332">
        <ele>1312.800048828125</ele>
        <time>2015-10-21T13:01:10.000Z</time>
      </trkpt>
      <trkpt lon="7.165899993851781" lat="46.19628592394292">
        <ele>1306.0</ele>
        <time>2015-10-21T13:01:19.000Z</time>
      </trkpt>
      <trkpt lon="7.165999989956617" lat="46.19620897807181">
        <ele>1302.4000244140625</ele>
        <time>2015-10-21T13:01:26.000Z</time>
      </trkpt>
      <trkpt lon="7.166047934442759" lat="46.196011919528246">
        <ele>1301.5999755859375</ele>
        <time>2015-10-21T13:01:38.000Z</time>
      </trkpt>
      <trkpt lon="7.166066961362958" lat="46.19585098698735">
        <ele>1302.199951171875</ele>
        <time>2015-10-21T13:01:47.000Z</time>
      </trkpt>
      <trkpt lon="7.166057992726564" lat="46.19570296257734">
        <ele>1304.5999755859375</ele>
        <time>2015-10-21T13:01:55.000Z</time>
      </trkpt>
      <trkpt lon="7.166046928614378" lat="46.195535995066166">
        <ele>1307.199951171875</ele>
        <time>2015-10-21T13:02:04.000Z</time>
      </trkpt>
      <trkpt lon="7.1660329308360815" lat="46.195421917364">
        <ele>1308.800048828125</ele>
        <time>2015-10-21T13:02:11.000Z</time>
      </trkpt>
      <trkpt lon="7.166008958593011" lat="46.1952889803797">
        <ele>1311.0</ele>
        <time>2015-10-21T13:02:19.000Z</time>
      </trkpt>
      <trkpt lon="7.165985992178321" lat="46.19517993181944">
        <ele>1313.0</ele>
        <time>2015-10-21T13:02:26.000Z</time>
      </trkpt>
      <trkpt lon="7.165957996621728" lat="46.19504791684449">
        <ele>1315.199951171875</ele>
        <time>2015-10-21T13:02:33.000Z</time>
      </trkpt>
      <trkpt lon="7.165939975529909" lat="46.194913974031806">
        <ele>1317.0</ele>
        <time>2015-10-21T13:02:41.000Z</time>
      </trkpt>
      <trkpt lon="7.165956990793347" lat="46.19474591687322">
        <ele>1317.0</ele>
        <time>2015-10-21T13:02:50.000Z</time>
      </trkpt>
      <trkpt lon="7.166008958593011" lat="46.19457693770528">
        <ele>1317.800048828125</ele>
        <time>2015-10-21T13:02:59.000Z</time>
      </trkpt>
      <trkpt lon="7.166074924170971" lat="46.19440795853734">
        <ele>1317.800048828125</ele>
        <time>2015-10-21T13:03:09.000Z</time>
      </trkpt>
      <trkpt lon="7.166121946647763" lat="46.19431299157441">
        <ele>1317.4000244140625</ele>
        <time>2015-10-21T13:03:15.000Z</time>
      </trkpt>
      <trkpt lon="7.166137956082821" lat="46.19428197853267">
        <ele>1317.199951171875</ele>
        <time>2015-10-21T13:03:17.000Z</time>
      </trkpt>
      <trkpt lon="7.166175926104188" lat="46.19420696049929">
        <ele>1316.5999755859375</ele>
        <time>2015-10-21T13:03:22.000Z</time>
      </trkpt>
      <trkpt lon="7.166261924430728" lat="46.19405499659479">
        <ele>1315.0</ele>
        <time>2015-10-21T13:03:31.000Z</time>
      </trkpt>
      <trkpt lon="7.1663609985262156" lat="46.1939059663564">
        <ele>1312.199951171875</ele>
        <time>2015-10-21T13:03:40.000Z</time>
      </trkpt>
      <trkpt lon="7.166455965489149" lat="46.193792978301644">
        <ele>1308.4000244140625</ele>
        <time>2015-10-21T13:03:49.000Z</time>
      </trkpt>
      <trkpt lon="7.166495947167277" lat="46.19374394416809">
        <ele>1308.0</ele>
        <time>2015-10-21T13:03:53.000Z</time>
      </trkpt>
      <trkpt lon="7.166564930230379" lat="46.19365098886192">
        <ele>1307.4000244140625</ele>
        <time>2015-10-21T13:04:01.000Z</time>
      </trkpt>
      <trkpt lon="7.166604995727539" lat="46.193533977493644">
        <ele>1308.199951171875</ele>
        <time>2015-10-21T13:04:11.000Z</time>
      </trkpt>
      <trkpt lon="7.166604995727539" lat="46.19339098222554">
        <ele>1310.5999755859375</ele>
        <time>2015-10-21T13:04:21.000Z</time>
      </trkpt>
      <trkpt lon="7.166573982685804" lat="46.193255949765444">
        <ele>1313.800048828125</ele>
        <time>2015-10-21T13:04:31.000Z</time>
      </trkpt>
      <trkpt lon="7.166552944108844" lat="46.19320599362254">
        <ele>1315.4000244140625</ele>
        <time>2015-10-21T13:04:35.000Z</time>
      </trkpt>
      <trkpt lon="7.166460994631052" lat="46.19307498447597">
        <ele>1318.800048828125</ele>
        <time>2015-10-21T13:04:46.000Z</time>
      </trkpt>
      <trkpt lon="7.1663289796561" lat="46.192997954785824">
        <ele>1321.0</ele>
        <time>2015-10-21T13:04:55.000Z</time>
      </trkpt>
      <trkpt lon="7.16628598049283" lat="46.192978927865624">
        <ele>1321.800048828125</ele>
        <time>2015-10-21T13:04:58.000Z</time>
      </trkpt>
      <trkpt lon="7.166160922497511" lat="46.19293391704559">
        <ele>1324.5999755859375</ele>
        <time>2015-10-21T13:05:06.000Z</time>
      </trkpt>
      <trkpt lon="7.166014993563294" lat="46.192911956459284">
        <ele>1328.800048828125</ele>
        <time>2015-10-21T13:05:16.000Z</time>
      </trkpt>
      <trkpt lon="7.165887923911214" lat="46.192888990044594">
        <ele>1332.199951171875</ele>
        <time>2015-10-21T13:05:24.000Z</time>
      </trkpt>
      <trkpt lon="7.165750963613391" lat="46.192850936204195">
        <ele>1335.199951171875</ele>
        <time>2015-10-21T13:05:33.000Z</time>
      </trkpt>
      <trkpt lon="7.165671922266483" lat="46.192826963961124">
        <ele>1336.5999755859375</ele>
        <time>2015-10-21T13:05:41.000Z</time>
      </trkpt>
      <trkpt lon="7.165671922266483" lat="46.192826963961124">
        <ele>1336.5999755859375</ele>
        <time>2015-10-21T13:05:44.000Z</time>
      </trkpt>
      <trkpt lon="7.165744928643107" lat="46.192848924547434">
        <ele>1335.4000244140625</ele>
        <time>2015-10-21T13:06:23.000Z</time>
      </trkpt>
      <trkpt lon="7.165797986090183" lat="46.19286392815411">
        <ele>1334.4000244140625</ele>
        <time>2015-10-21T13:06:24.000Z</time>
      </trkpt>
      <trkpt lon="7.166243987157941" lat="46.19296099059284">
        <ele>1322.800048828125</ele>
        <time>2015-10-21T13:06:29.000Z</time>
      </trkpt>
      <trkpt lon="7.166335936635733" lat="46.193000972270966">
        <ele>1320.800048828125</ele>
        <time>2015-10-21T13:06:30.000Z</time>
      </trkpt>
      <trkpt lon="7.1665259543806314" lat="46.19316391646862">
        <ele>1316.800048828125</ele>
        <time>2015-10-21T13:06:33.000Z</time>
      </trkpt>
      <trkpt lon="7.1665989607572556" lat="46.19332996197045">
        <ele>1311.800048828125</ele>
        <time>2015-10-21T13:06:35.000Z</time>
      </trkpt>
      <trkpt lon="7.166441967710853" lat="46.1938089877367">
        <ele>1309.0</ele>
        <time>2015-10-21T13:06:40.000Z</time>
      </trkpt>
      <trkpt lon="7.166103925555944" lat="46.19434995576739">
        <ele>1317.5999755859375</ele>
        <time>2015-10-21T13:06:45.000Z</time>
      </trkpt>
      <trkpt lon="7.1660529635846615" lat="46.19445296935737">
        <ele>1318.0</ele>
        <time>2015-10-21T13:06:47.000Z</time>
      </trkpt>
      <trkpt lon="7.166021950542927" lat="46.19453796185553">
        <ele>1317.800048828125</ele>
        <time>2015-10-21T13:06:51.000Z</time>
      </trkpt>
      <trkpt lon="7.16596495360136" lat="46.19471096433699">
        <ele>1317.4000244140625</ele>
        <time>2015-10-21T13:06:55.000Z</time>
      </trkpt>
      <trkpt lon="7.165939975529909" lat="46.19494398124516">
        <ele>1317.0</ele>
        <time>2015-10-21T13:06:59.000Z</time>
      </trkpt>
      <trkpt lon="7.166018933057785" lat="46.19533197954297">
        <ele>1310.199951171875</ele>
        <time>2015-10-21T13:07:04.000Z</time>
      </trkpt>
      <trkpt lon="7.1660529635846615" lat="46.195623921230435">
        <ele>1306.0</ele>
        <time>2015-10-21T13:07:07.000Z</time>
      </trkpt>
      <trkpt lon="7.1660299971699715" lat="46.19613396003842">
        <ele>1301.5999755859375</ele>
        <time>2015-10-21T13:07:12.000Z</time>
      </trkpt>
      <trkpt lon="7.165883984416723" lat="46.19629397056997">
        <ele>1306.5999755859375</ele>
        <time>2015-10-21T13:07:15.000Z</time>
      </trkpt>
      <trkpt lon="7.165623977780342" lat="46.196373933926225">
        <ele>1316.4000244140625</ele>
        <time>2015-10-21T13:07:18.000Z</time>
      </trkpt>
      <trkpt lon="7.165574943646789" lat="46.196478959172964">
        <ele>1317.0</ele>
        <time>2015-10-21T13:07:20.000Z</time>
      </trkpt>
      <trkpt lon="7.16566295363009" lat="46.19659999385476">
        <ele>1316.4000244140625</ele>
        <time>2015-10-21T13:07:22.000Z</time>
      </trkpt>
      <trkpt lon="7.166145918890834" lat="46.196868969127536">
        <ele>1303.0</ele>
        <time>2015-10-21T13:07:27.000Z</time>
      </trkpt>
      <trkpt lon="7.166537940502167" lat="46.19694993831217">
        <ele>1288.5999755859375</ele>
        <time>2015-10-21T13:07:30.000Z</time>
      </trkpt>
      <trkpt lon="7.166941948235035" lat="46.196951949968934">
        <ele>1277.4000244140625</ele>
        <time>2015-10-21T13:07:33.000Z</time>
      </trkpt>
      <trkpt lon="7.167225927114487" lat="46.19703694246709">
        <ele>1271.800048828125</ele>
        <time>2015-10-21T13:07:36.000Z</time>
      </trkpt>
      <trkpt lon="7.167202960699797" lat="46.1970969568938">
        <ele>1273.5999755859375</ele>
        <time>2015-10-21T13:07:38.000Z</time>
      </trkpt>
      <trkpt lon="7.167153926566243" lat="46.197339948266745">
        <ele>1277.5999755859375</ele>
        <time>2015-10-21T13:07:42.000Z</time>
      </trkpt>
      <trkpt lon="7.16716893017292" lat="46.19736894965172">
        <ele>1276.800048828125</ele>
        <time>2015-10-21T13:07:43.000Z</time>
      </trkpt>
      <trkpt lon="7.167311925441027" lat="46.19763197377324">
        <ele>1269.4000244140625</ele>
        <time>2015-10-21T13:07:49.000Z</time>
      </trkpt>
      <trkpt lon="7.1673449501395226" lat="46.19769299402833">
        <ele>1267.5999755859375</ele>
        <time>2015-10-21T13:07:50.000Z</time>
      </trkpt>
      <trkpt lon="7.167433965951204" lat="46.19795098900795">
        <ele>1261.5999755859375</ele>
        <time>2015-10-21T13:07:54.000Z</time>
      </trkpt>
      <trkpt lon="7.167377974838018" lat="46.19817495346069">
        <ele>1261.800048828125</ele>
        <time>2015-10-21T13:07:57.000Z</time>
      </trkpt>
      <trkpt lon="7.167332964017987" lat="46.198265980929136">
        <ele>1263.199951171875</ele>
        <time>2015-10-21T13:08:00.000Z</time>
      </trkpt>
      <trkpt lon="7.167463973164558" lat="46.198196997866035">
        <ele>1258.199951171875</ele>
        <time>2015-10-21T13:08:02.000Z</time>
      </trkpt>
      <trkpt lon="7.167572937905788" lat="46.198196997866035">
        <ele>1257.0</ele>
        <time>2015-10-21T13:08:08.000Z</time>
      </trkpt>
      <trkpt lon="7.167678968980908" lat="46.19804293848574">
        <ele>1254.800048828125</ele>
        <time>2015-10-21T13:08:13.000Z</time>
      </trkpt>
      <trkpt lon="7.167750969529152" lat="46.19782693684101">
        <ele>1256.199951171875</ele>
        <time>2015-10-21T13:08:17.000Z</time>
      </trkpt>
      <trkpt lon="7.168046934530139" lat="46.19760699570179">
        <ele>1252.5999755859375</ele>
        <time>2015-10-21T13:08:22.000Z</time>
      </trkpt>
      <trkpt lon="7.168102925643325" lat="46.19747598655522">
        <ele>1253.199951171875</ele>
        <time>2015-10-21T13:08:24.000Z</time>
      </trkpt>
      <trkpt lon="7.168226977810264" lat="46.197148924693465">
        <ele>1251.800048828125</ele>
        <time>2015-10-21T13:08:30.000Z</time>
      </trkpt>
      <trkpt lon="7.168315993621945" lat="46.19696192443371">
        <ele>1250.199951171875</ele>
        <time>2015-10-21T13:08:35.000Z</time>
      </trkpt>
      <trkpt lon="7.168242987245321" lat="46.19684097357094">
        <ele>1250.5999755859375</ele>
        <time>2015-10-21T13:08:41.000Z</time>
      </trkpt>
      <trkpt lon="7.168155983090401" lat="46.19674399495125">
        <ele>1250.800048828125</ele>
        <time>2015-10-21T13:08:48.000Z</time>
      </trkpt>
      <trkpt lon="7.168063949793577" lat="46.196694960817695">
        <ele>1251.199951171875</ele>
        <time>2015-10-21T13:08:53.000Z</time>
      </trkpt>
      <trkpt lon="7.16791894286871" lat="46.19667291641235">
        <ele>1252.0</ele>
        <time>2015-10-21T13:08:58.000Z</time>
      </trkpt>
      <trkpt lon="7.167642926797271" lat="46.19668498635292">
        <ele>1254.199951171875</ele>
        <time>2015-10-21T13:09:04.000Z</time>
      </trkpt>
      <trkpt lon="7.16731796041131" lat="46.196714993566275">
        <ele>1262.800048828125</ele>
        <time>2015-10-21T13:09:11.000Z</time>
      </trkpt>
      <trkpt lon="7.166991988196969" lat="46.19675095193088">
        <ele>1272.0</ele>
        <time>2015-10-21T13:09:19.000Z</time>
      </trkpt>
      <trkpt lon="7.16671496629715" lat="46.19673192501068">
        <ele>1278.800048828125</ele>
        <time>2015-10-21T13:09:26.000Z</time>
      </trkpt>
      <trkpt lon="7.1666069235652685" lat="46.196695966646075">
        <ele>1281.0</ele>
        <time>2015-10-21T13:09:29.000Z</time>
      </trkpt>
      <trkpt lon="7.166528971865773" lat="46.19660594500601">
        <ele>1282.4000244140625</ele>
        <time>2015-10-21T13:09:34.000Z</time>
      </trkpt>
      <trkpt lon="7.16652293689549" lat="46.19658197276294">
        <ele>1282.199951171875</ele>
        <time>2015-10-21T13:09:35.000Z</time>
      </trkpt>
      <trkpt lon="7.166743967682123" lat="46.196263963356614">
        <ele>1275.199951171875</ele>
        <time>2015-10-21T13:09:43.000Z</time>
      </trkpt>
      <trkpt lon="7.166862990707159" lat="46.196157932281494">
        <ele>1273.5999755859375</ele>
        <time>2015-10-21T13:09:48.000Z</time>
      </trkpt>
      <trkpt lon="7.166980924084783" lat="46.19606195949018">
        <ele>1271.800048828125</ele>
        <time>2015-10-21T13:09:55.000Z</time>
      </trkpt>
      <trkpt lon="7.167097935453057" lat="46.195943942293525">
        <ele>1269.0</ele>
        <time>2015-10-21T13:10:03.000Z</time>
      </trkpt>
      <trkpt lon="7.167141940444708" lat="46.19582994841039">
        <ele>1267.800048828125</ele>
        <time>2015-10-21T13:10:10.000Z</time>
      </trkpt>
      <trkpt lon="7.167218970134854" lat="46.19567798450589">
        <ele>1265.800048828125</ele>
        <time>2015-10-21T13:10:18.000Z</time>
      </trkpt>
      <trkpt lon="7.167226932942867" lat="46.195664992555976">
        <ele>1265.5999755859375</ele>
        <time>2015-10-21T13:10:19.000Z</time>
      </trkpt>
      <trkpt lon="7.167216958478093" lat="46.195621993392706">
        <ele>1266.199951171875</ele>
        <time>2015-10-21T13:10:23.000Z</time>
      </trkpt>
      <trkpt lon="7.167117968201637" lat="46.195556949824095">
        <ele>1269.800048828125</ele>
        <time>2015-10-21T13:10:26.000Z</time>
      </trkpt>
      <trkpt lon="7.166928956285119" lat="46.195363998413086">
        <ele>1276.800048828125</ele>
        <time>2015-10-21T13:10:30.000Z</time>
      </trkpt>
      <trkpt lon="7.166968937963247" lat="46.19504699483514">
        <ele>1276.0</ele>
        <time>2015-10-21T13:10:35.000Z</time>
      </trkpt>
      <trkpt lon="7.167095923796296" lat="46.1949089448899">
        <ele>1271.800048828125</ele>
        <time>2015-10-21T13:10:38.000Z</time>
      </trkpt>
      <trkpt lon="7.167281918227673" lat="46.19471096433699">
        <ele>1266.5999755859375</ele>
        <time>2015-10-21T13:10:42.000Z</time>
      </trkpt>
      <trkpt lon="7.167351990938187" lat="46.194480964913964">
        <ele>1266.5999755859375</ele>
        <time>2015-10-21T13:10:46.000Z</time>
      </trkpt>
      <trkpt lon="7.167419968172908" lat="46.19435699656606">
        <ele>1265.0</ele>
        <time>2015-10-21T13:10:49.000Z</time>
      </trkpt>
      <trkpt lon="7.167603950947523" lat="46.19419396854937">
        <ele>1260.199951171875</ele>
        <time>2015-10-21T13:10:54.000Z</time>
      </trkpt>
      <trkpt lon="7.16763898730278" lat="46.194158932194114">
        <ele>1259.199951171875</ele>
        <time>2015-10-21T13:10:55.000Z</time>
      </trkpt>
      <trkpt lon="7.1678179409354925" lat="46.19399196468294">
        <ele>1257.4000244140625</ele>
        <time>2015-10-21T13:11:00.000Z</time>
      </trkpt>
      <trkpt lon="7.168104937300086" lat="46.19379096664488">
        <ele>1254.0</ele>
        <time>2015-10-21T13:11:07.000Z</time>
      </trkpt>
      <trkpt lon="7.168140979483724" lat="46.19367797859013">
        <ele>1254.5999755859375</ele>
        <time>2015-10-21T13:11:11.000Z</time>
      </trkpt>
      <trkpt lon="7.168178949505091" lat="46.19342098943889">
        <ele>1257.4000244140625</ele>
        <time>2015-10-21T13:11:18.000Z</time>
      </trkpt>
      <trkpt lon="7.168203927576542" lat="46.19322996586561">
        <ele>1259.5999755859375</ele>
        <time>2015-10-21T13:11:24.000Z</time>
      </trkpt>
      <trkpt lon="7.168213985860348" lat="46.1930959392339">
        <ele>1260.5999755859375</ele>
        <time>2015-10-21T13:11:29.000Z</time>
      </trkpt>
      <trkpt lon="7.168213985860348" lat="46.19307599030435">
        <ele>1260.199951171875</ele>
        <time>2015-10-21T13:11:30.000Z</time>
      </trkpt>
      <trkpt lon="7.168213985860348" lat="46.19302595034242">
        <ele>1259.0</ele>
        <time>2015-10-21T13:11:35.000Z</time>
      </trkpt>
      <trkpt lon="7.168149948120117" lat="46.19291799142957">
        <ele>1258.5999755859375</ele>
        <time>2015-10-21T13:11:45.000Z</time>
      </trkpt>
      <trkpt lon="7.168081970885396" lat="46.192655973136425">
        <ele>1254.4000244140625</ele>
        <time>2015-10-21T13:11:50.000Z</time>
      </trkpt>
      <trkpt lon="7.168020950630307" lat="46.19253292679787">
        <ele>1253.5999755859375</ele>
        <time>2015-10-21T13:11:55.000Z</time>
      </trkpt>
      <trkpt lon="7.168020950630307" lat="46.192488921806216">
        <ele>1252.4000244140625</ele>
        <time>2015-10-21T13:11:59.000Z</time>
      </trkpt>
      <trkpt lon="7.168020950630307" lat="46.192488921806216">
        <ele>1252.4000244140625</ele>
        <time>2015-10-21T13:12:00.000Z</time>
      </trkpt>
      <trkpt lon="7.168323956429958" lat="46.192482970654964">
        <ele>1241.800048828125</ele>
        <time>2015-10-21T13:12:07.000Z</time>
      </trkpt>
      <trkpt lon="7.168463934212923" lat="46.19250291958451">
        <ele>1238.5999755859375</ele>
        <time>2015-10-21T13:12:10.000Z</time>
      </trkpt>
      <trkpt lon="7.1687479969114065" lat="46.19254399091005">
        <ele>1232.199951171875</ele>
        <time>2015-10-21T13:12:15.000Z</time>
      </trkpt>
      <trkpt lon="7.168847993016243" lat="46.19255798868835">
        <ele>1230.0</ele>
        <time>2015-10-21T13:12:17.000Z</time>
      </trkpt>
      <trkpt lon="7.169058965519071" lat="46.19258397258818">
        <ele>1225.0</ele>
        <time>2015-10-21T13:12:21.000Z</time>
      </trkpt>
      <trkpt lon="7.169293994084001" lat="46.19260492734611">
        <ele>1218.4000244140625</ele>
        <time>2015-10-21T13:12:26.000Z</time>
      </trkpt>
      <trkpt lon="7.169629940763116" lat="46.19263191707432">
        <ele>1210.0</ele>
        <time>2015-10-21T13:12:31.000Z</time>
      </trkpt>
      <trkpt lon="7.169957924634218" lat="46.19263895787299">
        <ele>1202.5999755859375</ele>
        <time>2015-10-21T13:12:36.000Z</time>
      </trkpt>
      <trkpt lon="7.170122964307666" lat="46.19263895787299">
        <ele>1196.4000244140625</ele>
        <time>2015-10-21T13:12:39.000Z</time>
      </trkpt>
      <trkpt lon="7.170237964019179" lat="46.19263895787299">
        <ele>1192.0</ele>
        <time>2015-10-21T13:12:41.000Z</time>
      </trkpt>
      <trkpt lon="7.170581957325339" lat="46.192646920681">
        <ele>1182.4000244140625</ele>
        <time>2015-10-21T13:12:46.000Z</time>
      </trkpt>
      <trkpt lon="7.170835928991437" lat="46.19268396869302">
        <ele>1175.4000244140625</ele>
        <time>2015-10-21T13:12:50.000Z</time>
      </trkpt>
      <trkpt lon="7.170886974781752" lat="46.192700983956456">
        <ele>1173.5999755859375</ele>
        <time>2015-10-21T13:12:53.000Z</time>
      </trkpt>
      <trkpt lon="7.17098998837173" lat="46.192746916785836">
        <ele>1170.199951171875</ele>
        <time>2015-10-21T13:13:36.000Z</time>
      </trkpt>
      <trkpt lon="7.171067940071225" lat="46.19283794425428">
        <ele>1168.0</ele>
        <time>2015-10-21T13:13:39.000Z</time>
      </trkpt>
      <trkpt lon="7.171135917305946" lat="46.193001978099346">
        <ele>1166.4000244140625</ele>
        <time>2015-10-21T13:13:43.000Z</time>
      </trkpt>
      <trkpt lon="7.171233985573053" lat="46.19324698112905">
        <ele>1162.4000244140625</ele>
        <time>2015-10-21T13:13:48.000Z</time>
      </trkpt>
      <trkpt lon="7.171265920624137" lat="46.1933409422636">
        <ele>1160.199951171875</ele>
        <time>2015-10-21T13:13:51.000Z</time>
      </trkpt>
      <trkpt lon="7.171282935887575" lat="46.193409925326705">
        <ele>1159.0</ele>
        <time>2015-10-21T13:13:56.000Z</time>
      </trkpt>
      <trkpt lon="7.1712589636445045" lat="46.19352391920984">
        <ele>1158.800048828125</ele>
        <time>2015-10-21T13:14:00.000Z</time>
      </trkpt>
      <trkpt lon="7.1711659245193005" lat="46.193625926971436">
        <ele>1159.199951171875</ele>
        <time>2015-10-21T13:14:04.000Z</time>
      </trkpt>
      <trkpt lon="7.171090990304947" lat="46.193689964711666">
        <ele>1159.199951171875</ele>
        <time>2015-10-21T13:14:06.000Z</time>
      </trkpt>
      <trkpt lon="7.170859985053539" lat="46.193877970799804">
        <ele>1159.199951171875</ele>
        <time>2015-10-21T13:14:10.000Z</time>
      </trkpt>
      <trkpt lon="7.170810950919986" lat="46.19392599910498">
        <ele>1159.0</ele>
        <time>2015-10-21T13:14:12.000Z</time>
      </trkpt>
      <trkpt lon="7.171058971434832" lat="46.194138983264565">
        <ele>1157.5999755859375</ele>
        <time>2015-10-21T13:14:16.000Z</time>
      </trkpt>
      <trkpt lon="7.171147987246513" lat="46.19419598020613">
        <ele>1157.0</ele>
        <time>2015-10-21T13:14:19.000Z</time>
      </trkpt>
      <trkpt lon="7.171234991401434" lat="46.194225987419486">
        <ele>1156.0</ele>
        <time>2015-10-21T13:14:23.000Z</time>
      </trkpt>
      <trkpt lon="7.171234991401434" lat="46.194225987419486">
        <ele>1156.0</ele>
        <time>2015-10-21T13:14:24.000Z</time>
      </trkpt>
      <trkpt lon="7.171302968636155" lat="46.1941649671644">
        <ele>1153.199951171875</ele>
        <time>2015-10-21T13:14:43.000Z</time>
      </trkpt>
      <trkpt lon="7.1713929902762175" lat="46.19399598799646">
        <ele>1147.5999755859375</ele>
        <time>2015-10-21T13:14:46.000Z</time>
      </trkpt>
      <trkpt lon="7.1715829242020845" lat="46.19371796026826">
        <ele>1145.199951171875</ele>
        <time>2015-10-21T13:14:51.000Z</time>
      </trkpt>
      <trkpt lon="7.171686943620443" lat="46.193643948063254">
        <ele>1146.0</ele>
        <time>2015-10-21T13:14:55.000Z</time>
      </trkpt>
      <trkpt lon="7.171843936666846" lat="46.19356893002987">
        <ele>1149.0</ele>
        <time>2015-10-21T13:14:59.000Z</time>
      </trkpt>
      <trkpt lon="7.172029931098223" lat="46.19348695501685">
        <ele>1150.5999755859375</ele>
        <time>2015-10-21T13:15:03.000Z</time>
      </trkpt>
      <trkpt lon="7.172207962721586" lat="46.19335795752704">
        <ele>1142.199951171875</ele>
        <time>2015-10-21T13:15:07.000Z</time>
      </trkpt>
      <trkpt lon="7.172294966876507" lat="46.193275982514024">
        <ele>1137.5999755859375</ele>
        <time>2015-10-21T13:15:09.000Z</time>
      </trkpt>
      <trkpt lon="7.172529995441437" lat="46.1930129583925">
        <ele>1129.0</ele>
        <time>2015-10-21T13:15:14.000Z</time>
      </trkpt>
      <trkpt lon="7.172681959345937" lat="46.192825958132744">
        <ele>1128.800048828125</ele>
        <time>2015-10-21T13:15:18.000Z</time>
      </trkpt>
      <trkpt lon="7.1727509424090385" lat="46.19272495619953">
        <ele>1128.5999755859375</ele>
        <time>2015-10-21T13:15:21.000Z</time>
      </trkpt>
      <trkpt lon="7.172833923250437" lat="46.19260492734611">
        <ele>1126.4000244140625</ele>
        <time>2015-10-21T13:15:25.000Z</time>
      </trkpt>
      <trkpt lon="7.173019917681813" lat="46.19238297455013">
        <ele>1115.0</ele>
        <time>2015-10-21T13:15:29.000Z</time>
      </trkpt>
      <trkpt lon="7.173153944313526" lat="46.192248947918415">
        <ele>1108.4000244140625</ele>
        <time>2015-10-21T13:15:33.000Z</time>
      </trkpt>
      <trkpt lon="7.173170959576964" lat="46.19223193265498">
        <ele>1107.800048828125</ele>
        <time>2015-10-21T13:15:36.000Z</time>
      </trkpt>
      <trkpt lon="7.173170959576964" lat="46.19223193265498">
        <ele>1107.800048828125</ele>
        <time>2015-10-21T13:15:43.000Z</time>
      </trkpt>
      <trkpt lon="7.173170959576964" lat="46.19223193265498">
        <ele>1107.800048828125</ele>
        <time>2015-10-21T13:15:44.000Z</time>
      </trkpt>
      <trkpt lon="7.173170959576964" lat="46.19223193265498">
        <ele>1107.800048828125</ele>
        <time>2015-10-21T13:15:48.000Z</time>
      </trkpt>
      <trkpt lon="7.173411939293146" lat="46.192083992064">
        <ele>1106.4000244140625</ele>
        <time>2015-10-21T13:15:52.000Z</time>
      </trkpt>
      <trkpt lon="7.173396935686469" lat="46.19209296070039">
        <ele>1106.199951171875</ele>
        <time>2015-10-21T13:15:55.000Z</time>
      </trkpt>
      <trkpt lon="7.1734969317913055" lat="46.1920509673655">
        <ele>1108.4000244140625</ele>
        <time>2015-10-21T13:16:02.000Z</time>
      </trkpt>
      <trkpt lon="7.173584941774607" lat="46.19184594601393">
        <ele>1106.199951171875</ele>
        <time>2015-10-21T13:16:08.000Z</time>
      </trkpt>
      <trkpt lon="7.173646967858076" lat="46.19167495518923">
        <ele>1102.5999755859375</ele>
        <time>2015-10-21T13:16:13.000Z</time>
      </trkpt>
      <trkpt lon="7.173781916499138" lat="46.19154394604266">
        <ele>1100.800048828125</ele>
        <time>2015-10-21T13:16:17.000Z</time>
      </trkpt>
      <trkpt lon="7.1741419192403555" lat="46.19134998880327">
        <ele>1101.800048828125</ele>
        <time>2015-10-21T13:16:24.000Z</time>
      </trkpt>
      <trkpt lon="7.1743719186633825" lat="46.191240940243006">
        <ele>1104.5999755859375</ele>
        <time>2015-10-21T13:16:28.000Z</time>
      </trkpt>
      <trkpt lon="7.174610970541835" lat="46.19101194664836">
        <ele>1102.4000244140625</ele>
        <time>2015-10-21T13:16:34.000Z</time>
      </trkpt>
      <trkpt lon="7.174726976081729" lat="46.190810948610306">
        <ele>1097.199951171875</ele>
        <time>2015-10-21T13:16:39.000Z</time>
      </trkpt>
      <trkpt lon="7.174775926396251" lat="46.190679939463735">
        <ele>1092.800048828125</ele>
        <time>2015-10-21T13:16:42.000Z</time>
      </trkpt>
      <trkpt lon="7.174801994115114" lat="46.19032194837928">
        <ele>1084.199951171875</ele>
        <time>2015-10-21T13:16:49.000Z</time>
      </trkpt>
      <trkpt lon="7.174801994115114" lat="46.19025799445808">
        <ele>1081.800048828125</ele>
        <time>2015-10-21T13:16:50.000Z</time>
      </trkpt>
      <trkpt lon="7.174928979948163" lat="46.19003294035792">
        <ele>1072.0</ele>
        <time>2015-10-21T13:16:54.000Z</time>
      </trkpt>
      <trkpt lon="7.175191920250654" lat="46.18993395008147">
        <ele>1075.0</ele>
        <time>2015-10-21T13:16:57.000Z</time>
      </trkpt>
      <trkpt lon="7.1759669948369265" lat="46.18967696093023">
        <ele>1072.199951171875</ele>
        <time>2015-10-21T13:17:04.000Z</time>
      </trkpt>
      <trkpt lon="7.176323980093002" lat="46.189671931788325">
        <ele>1076.5999755859375</ele>
        <time>2015-10-21T13:17:08.000Z</time>
      </trkpt>
      <trkpt lon="7.176409978419542" lat="46.18968794122338">
        <ele>1078.5999755859375</ele>
        <time>2015-10-21T13:17:09.000Z</time>
      </trkpt>
      <trkpt lon="7.176736956462264" lat="46.1897939722985">
        <ele>1086.800048828125</ele>
        <time>2015-10-21T13:17:13.000Z</time>
      </trkpt>
      <trkpt lon="7.177101988345385" lat="46.18983797729015">
        <ele>1089.5999755859375</ele>
        <time>2015-10-21T13:17:17.000Z</time>
      </trkpt>
      <trkpt lon="7.177183963358402" lat="46.18981794454157">
        <ele>1089.0</ele>
        <time>2015-10-21T13:17:18.000Z</time>
      </trkpt>
      <trkpt lon="7.177499961107969" lat="46.189709985628724">
        <ele>1083.0</ele>
        <time>2015-10-21T13:17:22.000Z</time>
      </trkpt>
      <trkpt lon="7.177830962464213" lat="46.18959196843207">
        <ele>1073.800048828125</ele>
        <time>2015-10-21T13:17:26.000Z</time>
      </trkpt>
      <trkpt lon="7.177920984104276" lat="46.18959196843207">
        <ele>1073.4000244140625</ele>
        <time>2015-10-21T13:17:27.000Z</time>
      </trkpt>
      <trkpt lon="7.178100943565369" lat="46.18959599174559">
        <ele>1072.800048828125</ele>
        <time>2015-10-21T13:17:29.000Z</time>
      </trkpt>
      <trkpt lon="7.178539987653494" lat="46.18969397619367">
        <ele>1077.4000244140625</ele>
        <time>2015-10-21T13:17:35.000Z</time>
      </trkpt>
      <trkpt lon="7.178918933495879" lat="46.18967997841537">
        <ele>1074.800048828125</ele>
        <time>2015-10-21T13:17:40.000Z</time>
      </trkpt>
      <trkpt lon="7.179052960127592" lat="46.189627926796675">
        <ele>1072.800048828125</ele>
        <time>2015-10-21T13:17:42.000Z</time>
      </trkpt>
      <trkpt lon="7.179254963994026" lat="46.1895489692688">
        <ele>1069.0</ele>
        <time>2015-10-21T13:17:45.000Z</time>
      </trkpt>
      <trkpt lon="7.17960893176496" lat="46.18954695761204">
        <ele>1065.0</ele>
        <time>2015-10-21T13:17:50.000Z</time>
      </trkpt>
      <trkpt lon="7.179924929514527" lat="46.189690958708525">
        <ele>1068.5999755859375</ele>
        <time>2015-10-21T13:17:55.000Z</time>
      </trkpt>
      <trkpt lon="7.180095920339227" lat="46.189756924286485">
        <ele>1068.199951171875</ele>
        <time>2015-10-21T13:17:58.000Z</time>
      </trkpt>
      <trkpt lon="7.180264983326197" lat="46.18973798118532">
        <ele>1065.4000244140625</ele>
        <time>2015-10-21T13:18:02.000Z</time>
      </trkpt>
      <trkpt lon="7.180117964744568" lat="46.189604960381985">
        <ele>1064.0</ele>
        <time>2015-10-21T13:18:05.000Z</time>
      </trkpt>
      <trkpt lon="7.180054932832718" lat="46.18950597010553">
        <ele>1062.4000244140625</ele>
        <time>2015-10-21T13:18:07.000Z</time>
      </trkpt>
      <trkpt lon="7.180097931995988" lat="46.18939599953592">
        <ele>1059.0</ele>
        <time>2015-10-21T13:18:09.000Z</time>
      </trkpt>
      <trkpt lon="7.180139925330877" lat="46.18940195068717">
        <ele>1058.5999755859375</ele>
        <time>2015-10-21T13:18:10.000Z</time>
      </trkpt>
      <trkpt lon="7.180271940305829" lat="46.18941997177899">
        <ele>1057.199951171875</ele>
        <time>2015-10-21T13:18:12.000Z</time>
      </trkpt>
      <trkpt lon="7.180451983585954" lat="46.18944595567882">
        <ele>1055.199951171875</ele>
        <time>2015-10-21T13:18:14.000Z</time>
      </trkpt>
      <trkpt lon="7.180646946653724" lat="46.18947395123541">
        <ele>1053.4000244140625</ele>
        <time>2015-10-21T13:18:16.000Z</time>
      </trkpt>
      <trkpt lon="7.181118931621313" lat="46.189543940126896">
        <ele>1049.199951171875</ele>
        <time>2015-10-21T13:18:21.000Z</time>
      </trkpt>
      <trkpt lon="7.181487986817956" lat="46.18960194289684">
        <ele>1046.0</ele>
        <time>2015-10-21T13:18:26.000Z</time>
      </trkpt>
      <trkpt lon="7.181548923254013" lat="46.18961191736162">
        <ele>1045.4000244140625</ele>
        <time>2015-10-21T13:18:27.000Z</time>
      </trkpt>
      <trkpt lon="7.18179895542562" lat="46.18965198285878">
        <ele>1041.4000244140625</ele>
        <time>2015-10-21T13:18:31.000Z</time>
      </trkpt>
      <trkpt lon="7.182121993973851" lat="46.18970193900168">
        <ele>1035.800048828125</ele>
        <time>2015-10-21T13:18:35.000Z</time>
      </trkpt>
      <trkpt lon="7.182318968698382" lat="46.18969498202205">
        <ele>1031.4000244140625</ele>
        <time>2015-10-21T13:18:39.000Z</time>
      </trkpt>
      <trkpt lon="7.182427933439612" lat="46.18965298868716">
        <ele>1028.5999755859375</ele>
        <time>2015-10-21T13:18:41.000Z</time>
      </trkpt>
      <trkpt lon="7.182579981163144" lat="46.18950597010553">
        <ele>1020.7999877929688</ele>
        <time>2015-10-21T13:18:45.000Z</time>
      </trkpt>
      <trkpt lon="7.182605965062976" lat="46.189455930143595">
        <ele>1018.7999877929688</ele>
        <time>2015-10-21T13:18:46.000Z</time>
      </trkpt>
      <trkpt lon="7.1826219744980335" lat="46.18934093043208">
        <ele>1016.0</ele>
        <time>2015-10-21T13:18:48.000Z</time>
      </trkpt>
      <trkpt lon="7.182638989761472" lat="46.18916097097099">
        <ele>1011.5999755859375</ele>
        <time>2015-10-21T13:18:52.000Z</time>
      </trkpt>
      <trkpt lon="7.1826499700546265" lat="46.189064998179674">
        <ele>1010.2000122070312</ele>
        <time>2015-10-21T13:18:56.000Z</time>
      </trkpt>
      <trkpt lon="7.1825439389795065" lat="46.189002972096205">
        <ele>1012.2000122070312</ele>
        <time>2015-10-21T13:19:00.000Z</time>
      </trkpt>
      <trkpt lon="7.182785924524069" lat="46.18901395238936">
        <ele>1006.4000244140625</ele>
        <time>2015-10-21T13:19:03.000Z</time>
      </trkpt>
      <trkpt lon="7.1830239705741405" lat="46.18917195126414">
        <ele>1002.4000244140625</ele>
        <time>2015-10-21T13:19:06.000Z</time>
      </trkpt>
      <trkpt lon="7.1831579972058535" lat="46.18946699425578">
        <ele>1002.0</ele>
        <time>2015-10-21T13:19:11.000Z</time>
      </trkpt>
      <trkpt lon="7.183176940307021" lat="46.18960898369551">
        <ele>1002.7999877929688</ele>
        <time>2015-10-21T13:19:14.000Z</time>
      </trkpt>
      <trkpt lon="7.183220945298672" lat="46.189924981445074">
        <ele>1002.7999877929688</ele>
        <time>2015-10-21T13:19:19.000Z</time>
      </trkpt>
      <trkpt lon="7.183232931420207" lat="46.190012991428375">
        <ele>1001.7999877929688</ele>
        <time>2015-10-21T13:19:20.000Z</time>
      </trkpt>
      <trkpt lon="7.183729978278279" lat="46.19031993672252">
        <ele>986.2000122070312</ele>
        <time>2015-10-21T13:19:24.000Z</time>
      </trkpt>
      <trkpt lon="7.183842966333032" lat="46.19069091975689">
        <ele>980.7999877929688</ele>
        <time>2015-10-21T13:19:29.000Z</time>
      </trkpt>
      <trkpt lon="7.183856964111328" lat="46.191019993275404">
        <ele>980.0</ele>
        <time>2015-10-21T13:19:33.000Z</time>
      </trkpt>
      <trkpt lon="7.183973975479603" lat="46.19124798104167">
        <ele>976.7999877929688</ele>
        <time>2015-10-21T13:19:37.000Z</time>
      </trkpt>
      <trkpt lon="7.184028960764408" lat="46.19132995605469">
        <ele>975.2000122070312</ele>
        <time>2015-10-21T13:19:41.000Z</time>
      </trkpt>
      <trkpt lon="7.184029966592789" lat="46.19133397936821">
        <ele>975.2000122070312</ele>
        <time>2015-10-21T13:19:42.000Z</time>
      </trkpt>
      <trkpt lon="7.184081934392452" lat="46.19150597602129">
        <ele>974.4000244140625</ele>
        <time>2015-10-21T13:19:46.000Z</time>
      </trkpt>
      <trkpt lon="7.184190982952714" lat="46.19178794324398">
        <ele>974.2000122070312</ele>
        <time>2015-10-21T13:19:50.000Z</time>
      </trkpt>
      <trkpt lon="7.184351999312639" lat="46.19199698790908">
        <ele>971.5999755859375</ele>
        <time>2015-10-21T13:19:54.000Z</time>
      </trkpt>
      <trkpt lon="7.1843869518488646" lat="46.19202297180891">
        <ele>971.0</ele>
        <time>2015-10-21T13:19:56.000Z</time>
      </trkpt>
      <trkpt lon="7.184422994032502" lat="46.19204996153712">
        <ele>970.2000122070312</ele>
        <time>2015-10-21T13:19:58.000Z</time>
      </trkpt>
      <trkpt lon="7.184437997639179" lat="46.191971926018596">
        <ele>969.0</ele>
        <time>2015-10-21T13:20:03.000Z</time>
      </trkpt>
      <trkpt lon="7.184594990685582" lat="46.191924987360835">
        <ele>964.4000244140625</ele>
        <time>2015-10-21T13:20:06.000Z</time>
      </trkpt>
      <trkpt lon="7.184666991233826" lat="46.191869918257">
        <ele>961.7999877929688</ele>
        <time>2015-10-21T13:20:07.000Z</time>
      </trkpt>
      <trkpt lon="7.184835970401764" lat="46.19174092076719">
        <ele>955.7999877929688</ele>
        <time>2015-10-21T13:20:10.000Z</time>
      </trkpt>
      <trkpt lon="7.185007967054844" lat="46.19159599766135">
        <ele>950.4000244140625</ele>
        <time>2015-10-21T13:20:14.000Z</time>
      </trkpt>
      <trkpt lon="7.185120955109596" lat="46.19140396825969">
        <ele>945.2000122070312</ele>
        <time>2015-10-21T13:20:18.000Z</time>
      </trkpt>
      <trkpt lon="7.185110980644822" lat="46.19127094745636">
        <ele>945.0</ele>
        <time>2015-10-21T13:20:20.000Z</time>
      </trkpt>
      <trkpt lon="7.185252970084548" lat="46.19099291972816">
        <ele>940.4000244140625</ele>
        <time>2015-10-21T13:20:25.000Z</time>
      </trkpt>
      <trkpt lon="7.18538892455399" lat="46.19088496081531">
        <ele>935.4000244140625</ele>
        <time>2015-10-21T13:20:31.000Z</time>
      </trkpt>
      <trkpt lon="7.185460925102234" lat="46.19081497192383">
        <ele>932.4000244140625</ele>
        <time>2015-10-21T13:20:35.000Z</time>
      </trkpt>
      <trkpt lon="7.1854819636791945" lat="46.190786976367235">
        <ele>931.4000244140625</ele>
        <time>2015-10-21T13:20:36.000Z</time>
      </trkpt>
      <trkpt lon="7.185574918985367" lat="46.190635934472084">
        <ele>927.0</ele>
        <time>2015-10-21T13:20:39.000Z</time>
      </trkpt>
      <trkpt lon="7.1857469994574785" lat="46.190229998901486">
        <ele>915.2000122070312</ele>
        <time>2015-10-21T13:20:45.000Z</time>
      </trkpt>
      <trkpt lon="7.185798967257142" lat="46.190080968663096">
        <ele>911.0</ele>
        <time>2015-10-21T13:20:47.000Z</time>
      </trkpt>
      <trkpt lon="7.185848923400044" lat="46.1898129992187">
        <ele>904.7999877929688</ele>
        <time>2015-10-21T13:20:52.000Z</time>
      </trkpt>
      <trkpt lon="7.185834925621748" lat="46.18975994177163">
        <ele>904.4000244140625</ele>
        <time>2015-10-21T13:20:53.000Z</time>
      </trkpt>
      <trkpt lon="7.1858759969472885" lat="46.1895539984107">
        <ele>898.0</ele>
        <time>2015-10-21T13:20:57.000Z</time>
      </trkpt>
      <trkpt lon="7.1859219297766685" lat="46.18952197954059">
        <ele>895.4000244140625</ele>
        <time>2015-10-21T13:21:00.000Z</time>
      </trkpt>
      <trkpt lon="7.185948919504881" lat="46.18950194679201">
        <ele>893.7999877929688</ele>
        <time>2015-10-21T13:21:03.000Z</time>
      </trkpt>
      <trkpt lon="7.186011951416731" lat="46.189455930143595">
        <ele>890.2000122070312</ele>
        <time>2015-10-21T13:21:07.000Z</time>
      </trkpt>
      <trkpt lon="7.186166932806373" lat="46.189327938482165">
        <ele>881.0</ele>
        <time>2015-10-21T13:21:13.000Z</time>
      </trkpt>
      <trkpt lon="7.186335995793343" lat="46.18925593793392">
        <ele>872.5999755859375</ele>
        <time>2015-10-21T13:21:18.000Z</time>
      </trkpt>
      <trkpt lon="7.186381928622723" lat="46.189242945984006">
        <ele>870.5999755859375</ele>
        <time>2015-10-21T13:21:19.000Z</time>
      </trkpt>
      <trkpt lon="7.1864779852330685" lat="46.189215956255794">
        <ele>866.2000122070312</ele>
        <time>2015-10-21T13:21:21.000Z</time>
      </trkpt>
      <trkpt lon="7.186749977990985" lat="46.18915191851556">
        <ele>853.4000244140625</ele>
        <time>2015-10-21T13:21:27.000Z</time>
      </trkpt>
      <trkpt lon="7.1868169493973255" lat="46.18914194405079">
        <ele>850.4000244140625</ele>
        <time>2015-10-21T13:21:30.000Z</time>
      </trkpt>
      <trkpt lon="7.186934966593981" lat="46.18905292823911">
        <ele>846.5999755859375</ele>
        <time>2015-10-21T13:21:33.000Z</time>
      </trkpt>
      <trkpt lon="7.186989951878786" lat="46.18918494321406">
        <ele>845.7999877929688</ele>
        <time>2015-10-21T13:21:36.000Z</time>
      </trkpt>
      <trkpt lon="7.1870469488203526" lat="46.18929198011756">
        <ele>844.7999877929688</ele>
        <time>2015-10-21T13:21:39.000Z</time>
      </trkpt>
      <trkpt lon="7.187075950205326" lat="46.18933497928083">
        <ele>844.2000122070312</ele>
        <time>2015-10-21T13:21:44.000Z</time>
      </trkpt>
      <trkpt lon="7.1872189454734325" lat="46.18938292376697">
        <ele>840.4000244140625</ele>
        <time>2015-10-21T13:21:49.000Z</time>
      </trkpt>
      <trkpt lon="7.187075950205326" lat="46.18944997899234">
        <ele>845.4000244140625</ele>
        <time>2015-10-21T13:21:52.000Z</time>
      </trkpt>
      <trkpt lon="7.18708299100399" lat="46.18931997567415">
        <ele>843.7999877929688</ele>
        <time>2015-10-21T13:23:14.000Z</time>
      </trkpt>
      <trkpt lon="7.187166977673769" lat="46.1891829315573">
        <ele>840.7999877929688</ele>
        <time>2015-10-21T13:23:19.000Z</time>
      </trkpt>
      <trkpt lon="7.1872039418667555" lat="46.18898897431791">
        <ele>839.0</ele>
        <time>2015-10-21T13:23:24.000Z</time>
      </trkpt>
      <trkpt lon="7.187177957966924" lat="46.18887799791992">
        <ele>838.2000122070312</ele>
        <time>2015-10-21T13:23:27.000Z</time>
      </trkpt>
      <trkpt lon="7.187088942155242" lat="46.188680939376354">
        <ele>837.4000244140625</ele>
        <time>2015-10-21T13:23:31.000Z</time>
      </trkpt>
      <trkpt lon="7.186927925795317" lat="46.188509948551655">
        <ele>839.0</ele>
        <time>2015-10-21T13:23:34.000Z</time>
      </trkpt>
      <trkpt lon="7.186530958861113" lat="46.187948947772384">
        <ele>839.2000122070312</ele>
        <time>2015-10-21T13:23:42.000Z</time>
      </trkpt>
      <trkpt lon="7.186495922505856" lat="46.187873929739">
        <ele>838.2000122070312</ele>
        <time>2015-10-21T13:23:43.000Z</time>
      </trkpt>
      <trkpt lon="7.186315963044763" lat="46.18760998360813">
        <ele>836.7999877929688</ele>
        <time>2015-10-21T13:23:47.000Z</time>
      </trkpt>
      <trkpt lon="7.18624597415328" lat="46.18754795752466">
        <ele>837.2000122070312</ele>
        <time>2015-10-21T13:23:48.000Z</time>
      </trkpt>
      <trkpt lon="7.185852946713567" lat="46.18737696669996">
        <ele>845.2000122070312</ele>
        <time>2015-10-21T13:23:52.000Z</time>
      </trkpt>
      <trkpt lon="7.185905920341611" lat="46.187284933403134">
        <ele>841.0</ele>
        <time>2015-10-21T13:23:55.000Z</time>
      </trkpt>
      <trkpt lon="7.185978926718235" lat="46.18712995201349">
        <ele>837.0</ele>
        <time>2015-10-21T13:23:58.000Z</time>
      </trkpt>
      <trkpt lon="7.185958977788687" lat="46.187009923160076">
        <ele>836.4000244140625</ele>
        <time>2015-10-21T13:24:00.000Z</time>
      </trkpt>
      <trkpt lon="7.185936933383346" lat="46.186875980347395">
        <ele>835.5999755859375</ele>
        <time>2015-10-21T13:24:02.000Z</time>
      </trkpt>
      <trkpt lon="7.185895945876837" lat="46.18662494234741">
        <ele>834.2000122070312</ele>
        <time>2015-10-21T13:24:06.000Z</time>
      </trkpt>
      <trkpt lon="7.18594397418201" lat="46.18648597039282">
        <ele>828.7999877929688</ele>
        <time>2015-10-21T13:24:09.000Z</time>
      </trkpt>
      <trkpt lon="7.185908937826753" lat="46.18626393377781">
        <ele>824.5999755859375</ele>
        <time>2015-10-21T13:24:12.000Z</time>
      </trkpt>
      <trkpt lon="7.185483975335956" lat="46.18585598655045">
        <ele>832.2000122070312</ele>
        <time>2015-10-21T13:24:20.000Z</time>
      </trkpt>
      <trkpt lon="7.185249952599406" lat="46.18563897907734">
        <ele>835.5999755859375</ele>
        <time>2015-10-21T13:24:26.000Z</time>
      </trkpt>
      <trkpt lon="7.184981983155012" lat="46.18543999269605">
        <ele>838.4000244140625</ele>
        <time>2015-10-21T13:24:33.000Z</time>
      </trkpt>
      <trkpt lon="7.184694986790419" lat="46.18513899855316">
        <ele>837.5999755859375</ele>
        <time>2015-10-21T13:24:39.000Z</time>
      </trkpt>
      <trkpt lon="7.184566995128989" lat="46.18498192168772">
        <ele>836.4000244140625</ele>
        <time>2015-10-21T13:24:42.000Z</time>
      </trkpt>
      <trkpt lon="7.184471944347024" lat="46.18489399552345">
        <ele>836.7999877929688</ele>
        <time>2015-10-21T13:24:44.000Z</time>
      </trkpt>
      <trkpt lon="7.184245968237519" lat="46.18467698805034">
        <ele>837.0</ele>
        <time>2015-10-21T13:24:50.000Z</time>
      </trkpt>
      <trkpt lon="7.184015968814492" lat="46.18442494422197">
        <ele>834.4000244140625</ele>
        <time>2015-10-21T13:24:56.000Z</time>
      </trkpt>
      <trkpt lon="7.183846989646554" lat="46.18423995561898">
        <ele>831.4000244140625</ele>
        <time>2015-10-21T13:25:01.000Z</time>
      </trkpt>
      <trkpt lon="7.183735929429531" lat="46.18409494869411">
        <ele>828.2000122070312</ele>
        <time>2015-10-21T13:25:06.000Z</time>
      </trkpt>
      <trkpt lon="7.183657977730036" lat="46.18399193510413">
        <ele>826.0</ele>
        <time>2015-10-21T13:25:12.000Z</time>
      </trkpt>
      <trkpt lon="7.183584971353412" lat="46.18393192067742">
        <ele>825.4000244140625</ele>
        <time>2015-10-21T13:25:19.000Z</time>
      </trkpt>
      <trkpt lon="7.183549934998155" lat="46.18390895426273">
        <ele>825.2000122070312</ele>
        <time>2015-10-21T13:25:22.000Z</time>
      </trkpt>
      <trkpt lon="7.18349595554173" lat="46.18386293761432">
        <ele>824.4000244140625</ele>
        <time>2015-10-21T13:25:27.000Z</time>
      </trkpt>
      <trkpt lon="7.183466954156756" lat="46.183827985078096">
        <ele>823.4000244140625</ele>
        <time>2015-10-21T13:25:30.000Z</time>
      </trkpt>
      <trkpt lon="7.183451950550079" lat="46.1838089581579">
        <ele>823.0</ele>
        <time>2015-10-21T13:25:35.000Z</time>
      </trkpt>
      <trkpt lon="7.18343292362988" lat="46.18378599174321">
        <ele>822.2000122070312</ele>
        <time>2015-10-21T13:26:14.000Z</time>
      </trkpt>
      <trkpt lon="7.183417920023203" lat="46.18376696482301">
        <ele>821.7999877929688</ele>
        <time>2015-10-21T13:26:16.000Z</time>
      </trkpt>
      <trkpt lon="7.183396965265274" lat="46.183740980923176">
        <ele>821.0</ele>
        <time>2015-10-21T13:26:19.000Z</time>
      </trkpt>
      <trkpt lon="7.183363940566778" lat="46.18370099924505">
        <ele>819.7999877929688</ele>
        <time>2015-10-21T13:26:26.000Z</time>
      </trkpt>
      <trkpt lon="7.183363940566778" lat="46.18370099924505">
        <ele>819.7999877929688</ele>
        <time>2015-10-21T13:26:27.000Z</time>
      </trkpt>
      <trkpt lon="7.183320941403508" lat="46.18364894762635">
        <ele>818.4000244140625</ele>
        <time>2015-10-21T13:27:48.000Z</time>
      </trkpt>
      <trkpt lon="7.183320941403508" lat="46.18364894762635">
        <ele>818.4000244140625</ele>
        <time>2015-10-21T13:27:52.000Z</time>
      </trkpt>
      <trkpt lon="7.183320941403508" lat="46.18364894762635">
        <ele>818.4000244140625</ele>
        <time>2015-10-21T13:28:02.000Z</time>
      </trkpt>
      <trkpt lon="7.182984994724393" lat="46.18332398124039">
        <ele>816.4000244140625</ele>
        <time>2015-10-21T13:28:05.000Z</time>
      </trkpt>
      <trkpt lon="7.182675953954458" lat="46.18302399292588">
        <ele>819.0</ele>
        <time>2015-10-21T13:28:11.000Z</time>
      </trkpt>
      <trkpt lon="7.182642929255962" lat="46.18299096822739">
        <ele>820.4000244140625</ele>
        <time>2015-10-21T13:28:12.000Z</time>
      </trkpt>
      <trkpt lon="7.182634966447949" lat="46.18284897878766">
        <ele>819.7999877929688</ele>
        <time>2015-10-21T13:28:17.000Z</time>
      </trkpt>
      <trkpt lon="7.182647958397865" lat="46.18278494104743">
        <ele>818.7999877929688</ele>
        <time>2015-10-21T13:28:20.000Z</time>
      </trkpt>
      <trkpt lon="7.182676959782839" lat="46.18264093995094">
        <ele>816.5999755859375</ele>
        <time>2015-10-21T13:28:24.000Z</time>
      </trkpt>
      <trkpt lon="7.182812998071313" lat="46.18241798132658">
        <ele>809.2000122070312</ele>
        <time>2015-10-21T13:28:29.000Z</time>
      </trkpt>
      <trkpt lon="7.182826995849609" lat="46.182403983548284">
        <ele>808.4000244140625</ele>
        <time>2015-10-21T13:28:32.000Z</time>
      </trkpt>
      <trkpt lon="7.1828369703143835" lat="46.18247497826815">
        <ele>808.4000244140625</ele>
        <time>2015-10-21T13:28:36.000Z</time>
      </trkpt>
      <trkpt lon="7.182886926457286" lat="46.182602969929576">
        <ele>806.7999877929688</ele>
        <time>2015-10-21T13:28:42.000Z</time>
      </trkpt>
      <trkpt lon="7.182928919792175" lat="46.18265493772924">
        <ele>805.2000122070312</ele>
        <time>2015-10-21T13:28:45.000Z</time>
      </trkpt>
      <trkpt lon="7.182933948934078" lat="46.182661978527904">
        <ele>805.0</ele>
        <time>2015-10-21T13:28:46.000Z</time>
      </trkpt>
      <trkpt lon="7.183006955310702" lat="46.182406917214394">
        <ele>800.2000122070312</ele>
        <time>2015-10-21T13:28:51.000Z</time>
      </trkpt>
      <trkpt lon="7.183135952800512" lat="46.18207993917167">
        <ele>794.2000122070312</ele>
        <time>2015-10-21T13:28:55.000Z</time>
      </trkpt>
      <trkpt lon="7.183164954185486" lat="46.18197591975331">
        <ele>792.7999877929688</ele>
        <time>2015-10-21T13:28:56.000Z</time>
      </trkpt>
      <trkpt lon="7.183191943913698" lat="46.1816019192338">
        <ele>791.4000244140625</ele>
        <time>2015-10-21T13:29:00.000Z</time>
      </trkpt>
      <trkpt lon="7.183181969448924" lat="46.18122196756303">
        <ele>787.0</ele>
        <time>2015-10-21T13:29:04.000Z</time>
      </trkpt>
      <trkpt lon="7.1831379644572735" lat="46.180841932073236">
        <ele>780.2000122070312</ele>
        <time>2015-10-21T13:29:09.000Z</time>
      </trkpt>
      <trkpt lon="7.183061940595508" lat="46.180534986779094">
        <ele>775.4000244140625</ele>
        <time>2015-10-21T13:29:13.000Z</time>
      </trkpt>
      <trkpt lon="7.182971918955445" lat="46.18036097846925">
        <ele>773.0</ele>
        <time>2015-10-21T13:29:15.000Z</time>
      </trkpt>
      <trkpt lon="7.182694980874658" lat="46.1799009796232">
        <ele>769.7999877929688</ele>
        <time>2015-10-21T13:29:20.000Z</time>
      </trkpt>
      <trkpt lon="7.182588949799538" lat="46.179783968254924">
        <ele>770.5999755859375</ele>
        <time>2015-10-21T13:29:22.000Z</time>
      </trkpt>
      <trkpt lon="7.182489959523082" lat="46.179678943008184">
        <ele>769.5999755859375</ele>
        <time>2015-10-21T13:29:28.000Z</time>
      </trkpt>
      <trkpt lon="7.182390969246626" lat="46.17954793386161">
        <ele>767.5999755859375</ele>
        <time>2015-10-21T13:29:32.000Z</time>
      </trkpt>
      <trkpt lon="7.182318968698382" lat="46.17943393997848">
        <ele>765.0</ele>
        <time>2015-10-21T13:29:34.000Z</time>
      </trkpt>
      <trkpt lon="7.182024931535125" lat="46.17906999774277">
        <ele>760.2000122070312</ele>
        <time>2015-10-21T13:29:39.000Z</time>
      </trkpt>
      <trkpt lon="7.181654954329133" lat="46.17859692312777">
        <ele>756.0</ele>
        <time>2015-10-21T13:29:44.000Z</time>
      </trkpt>
      <trkpt lon="7.181334933266044" lat="46.17822493426502">
        <ele>754.7999877929688</ele>
        <time>2015-10-21T13:29:48.000Z</time>
      </trkpt>
      <trkpt lon="7.181207947432995" lat="46.17807799950242">
        <ele>754.4000244140625</ele>
        <time>2015-10-21T13:29:52.000Z</time>
      </trkpt>
      <trkpt lon="7.181207947432995" lat="46.17807799950242">
        <ele>754.4000244140625</ele>
        <time>2015-10-21T13:29:53.000Z</time>
      </trkpt>
      <trkpt lon="7.181207947432995" lat="46.17807799950242">
        <ele>754.4000244140625</ele>
        <time>2015-10-21T13:30:15.000Z</time>
      </trkpt>
      <trkpt lon="7.181207947432995" lat="46.17807799950242">
        <ele>754.4000244140625</ele>
        <time>2015-10-21T13:30:21.000Z</time>
      </trkpt>
      <trkpt lon="7.181136952713132" lat="46.17799996398389">
        <ele>754.2000122070312</ele>
        <time>2015-10-21T13:30:30.000Z</time>
      </trkpt>
      <trkpt lon="7.180963950231671" lat="46.17780399508774">
        <ele>753.4000244140625</ele>
        <time>2015-10-21T13:30:35.000Z</time>
      </trkpt>
      <trkpt lon="7.180743925273418" lat="46.17754398845136">
        <ele>752.0</ele>
        <time>2015-10-21T13:30:39.000Z</time>
      </trkpt>
      <trkpt lon="7.180366991087794" lat="46.17701391689479">
        <ele>742.2000122070312</ele>
        <time>2015-10-21T13:30:45.000Z</time>
      </trkpt>
      <trkpt lon="7.180224917829037" lat="46.17674997076392">
        <ele>734.0</ele>
        <time>2015-10-21T13:30:48.000Z</time>
      </trkpt>
      <trkpt lon="7.1801249217242" lat="46.1765799857676">
        <ele>729.7999877929688</ele>
        <time>2015-10-21T13:30:51.000Z</time>
      </trkpt>
      <trkpt lon="7.180194994434714" lat="46.17655299603939">
        <ele>726.0</ele>
        <time>2015-10-21T13:30:54.000Z</time>
      </trkpt>
      <trkpt lon="7.180252997204661" lat="46.17661192081869">
        <ele>726.5999755859375</ele>
        <time>2015-10-21T13:30:56.000Z</time>
      </trkpt>
      <trkpt lon="7.1806729305535555" lat="46.176930936053395">
        <ele>726.2000122070312</ele>
        <time>2015-10-21T13:31:02.000Z</time>
      </trkpt>
      <trkpt lon="7.180964956060052" lat="46.17715096101165">
        <ele>725.0</ele>
        <time>2015-10-21T13:31:05.000Z</time>
      </trkpt>
      <trkpt lon="7.1814969554543495" lat="46.177425971254706">
        <ele>715.0</ele>
        <time>2015-10-21T13:31:09.000Z</time>
      </trkpt>
      <trkpt lon="7.181761991232634" lat="46.1774589959532">
        <ele>706.4000244140625</ele>
        <time>2015-10-21T13:31:11.000Z</time>
      </trkpt>
      <trkpt lon="7.181982938200235" lat="46.177356988191605">
        <ele>700.7999877929688</ele>
        <time>2015-10-21T13:31:13.000Z</time>
      </trkpt>
      <trkpt lon="7.182206986472011" lat="46.17717895656824">
        <ele>694.0</ele>
        <time>2015-10-21T13:31:15.000Z</time>
      </trkpt>
      <trkpt lon="7.182542933151126" lat="46.177017940208316">
        <ele>690.5999755859375</ele>
        <time>2015-10-21T13:31:18.000Z</time>
      </trkpt>
      <trkpt lon="7.182668996974826" lat="46.17706697434187">
        <ele>690.5999755859375</ele>
        <time>2015-10-21T13:31:20.000Z</time>
      </trkpt>
      <trkpt lon="7.182743931189179" lat="46.17711399681866">
        <ele>690.7999877929688</ele>
        <time>2015-10-21T13:31:21.000Z</time>
      </trkpt>
      <trkpt lon="7.183156991377473" lat="46.1773469299078">
        <ele>691.5999755859375</ele>
        <time>2015-10-21T13:31:26.000Z</time>
      </trkpt>
      <trkpt lon="7.183692930266261" lat="46.17777792736888">
        <ele>690.0</ele>
        <time>2015-10-21T13:31:32.000Z</time>
      </trkpt>
      <trkpt lon="7.183954948559403" lat="46.17816299200058">
        <ele>689.4000244140625</ele>
        <time>2015-10-21T13:31:36.000Z</time>
      </trkpt>
      <trkpt lon="7.184319980442524" lat="46.178625924512744">
        <ele>681.7999877929688</ele>
        <time>2015-10-21T13:31:40.000Z</time>
      </trkpt>
      <trkpt lon="7.1845439448952675" lat="46.178841926157475">
        <ele>675.2000122070312</ele>
        <time>2015-10-21T13:31:42.000Z</time>
      </trkpt>
      <trkpt lon="7.185075944289565" lat="46.17919396609068">
        <ele>665.2000122070312</ele>
        <time>2015-10-21T13:31:46.000Z</time>
      </trkpt>
      <trkpt lon="7.185681955888867" lat="46.17952295579016">
        <ele>662.7999877929688</ele>
        <time>2015-10-21T13:31:52.000Z</time>
      </trkpt>
      <trkpt lon="7.186126951128244" lat="46.179661927744746">
        <ele>657.4000244140625</ele>
        <time>2015-10-21T13:31:55.000Z</time>
      </trkpt>
      <trkpt lon="7.186857936903834" lat="46.17984691634774">
        <ele>642.7999877929688</ele>
        <time>2015-10-21T13:31:59.000Z</time>
      </trkpt>
      <trkpt lon="7.187029933556914" lat="46.17991195991635">
        <ele>637.2000122070312</ele>
        <time>2015-10-21T13:32:00.000Z</time>
      </trkpt>
      <trkpt lon="7.1876919362694025" lat="46.18005696684122">
        <ele>621.0</ele>
        <time>2015-10-21T13:32:04.000Z</time>
      </trkpt>
      <trkpt lon="7.188189988955855" lat="46.18008295074105">
        <ele>611.5999755859375</ele>
        <time>2015-10-21T13:32:07.000Z</time>
      </trkpt>
      <trkpt lon="7.1883089281618595" lat="46.18011597543955">
        <ele>608.7999877929688</ele>
        <time>2015-10-21T13:32:08.000Z</time>
      </trkpt>
      <trkpt lon="7.187912967056036" lat="46.180064929649234">
        <ele>617.2000122070312</ele>
        <time>2015-10-21T13:32:12.000Z</time>
      </trkpt>
      <trkpt lon="7.188611933961511" lat="46.180066941305995">
        <ele>606.7999877929688</ele>
        <time>2015-10-21T13:32:15.000Z</time>
      </trkpt>
      <trkpt lon="7.188433986157179" lat="46.17978296242654">
        <ele>614.5999755859375</ele>
        <time>2015-10-21T13:32:23.000Z</time>
      </trkpt>
      <trkpt lon="7.1881569642573595" lat="46.179528990760446">
        <ele>619.0</ele>
        <time>2015-10-21T13:32:28.000Z</time>
      </trkpt>
      <trkpt lon="7.187935933470726" lat="46.179162953048944">
        <ele>621.0</ele>
        <time>2015-10-21T13:32:34.000Z</time>
      </trkpt>
      <trkpt lon="7.187907937914133" lat="46.17909195832908">
        <ele>621.2000122070312</ele>
        <time>2015-10-21T13:32:35.000Z</time>
      </trkpt>
      <trkpt lon="7.187669975683093" lat="46.17859792895615">
        <ele>617.7999877929688</ele>
        <time>2015-10-21T13:32:41.000Z</time>
      </trkpt>
      <trkpt lon="7.187531925737858" lat="46.17842593230307">
        <ele>616.5999755859375</ele>
        <time>2015-10-21T13:32:43.000Z</time>
      </trkpt>
      <trkpt lon="7.187315924093127" lat="46.17802091874182">
        <ele>614.5999755859375</ele>
        <time>2015-10-21T13:32:47.000Z</time>
      </trkpt>
      <trkpt lon="7.187208971008658" lat="46.17743393406272">
        <ele>606.2000122070312</ele>
        <time>2015-10-21T13:32:52.000Z</time>
      </trkpt>
      <trkpt lon="7.187013924121857" lat="46.17709195241332">
        <ele>605.5999755859375</ele>
        <time>2015-10-21T13:32:55.000Z</time>
      </trkpt>
      <trkpt lon="7.186544956639409" lat="46.17651091888547">
        <ele>609.4000244140625</ele>
        <time>2015-10-21T13:33:01.000Z</time>
      </trkpt>
      <trkpt lon="7.186063919216394" lat="46.176068941131234">
        <ele>607.7999877929688</ele>
        <time>2015-10-21T13:33:06.000Z</time>
      </trkpt>
      <trkpt lon="7.185415998101234" lat="46.17553694173694">
        <ele>605.2000122070312</ele>
        <time>2015-10-21T13:33:12.000Z</time>
      </trkpt>
      <trkpt lon="7.185139982029796" lat="46.175232930108905">
        <ele>599.4000244140625</ele>
        <time>2015-10-21T13:33:15.000Z</time>
      </trkpt>
      <trkpt lon="7.184607982635498" lat="46.17484895512462">
        <ele>595.5999755859375</ele>
        <time>2015-10-21T13:33:20.000Z</time>
      </trkpt>
      <trkpt lon="7.184128956869245" lat="46.17444494739175">
        <ele>592.4000244140625</ele>
        <time>2015-10-21T13:33:25.000Z</time>
      </trkpt>
      <trkpt lon="7.183915972709656" lat="46.17405996657908">
        <ele>582.0</ele>
        <time>2015-10-21T13:33:29.000Z</time>
      </trkpt>
      <trkpt lon="7.183828968554735" lat="46.17398293688893">
        <ele>581.0</ele>
        <time>2015-10-21T13:33:30.000Z</time>
      </trkpt>
      <trkpt lon="7.183512970805168" lat="46.173708932474256">
        <ele>576.2000122070312</ele>
        <time>2015-10-21T13:33:34.000Z</time>
      </trkpt>
      <trkpt lon="7.1830169297754765" lat="46.173401987180114">
        <ele>572.0</ele>
        <time>2015-10-21T13:33:40.000Z</time>
      </trkpt>
      <trkpt lon="7.182620968669653" lat="46.17321498692036">
        <ele>569.7999877929688</ele>
        <time>2015-10-21T13:33:44.000Z</time>
      </trkpt>
      <trkpt lon="7.182440925389528" lat="46.17313896305859">
        <ele>568.7999877929688</ele>
        <time>2015-10-21T13:33:46.000Z</time>
      </trkpt>
      <trkpt lon="7.182130962610245" lat="46.17300694808364">
        <ele>568.4000244140625</ele>
        <time>2015-10-21T13:33:49.000Z</time>
      </trkpt>
      <trkpt lon="7.181830974295735" lat="46.17270293645561">
        <ele>565.0</ele>
        <time>2015-10-21T13:33:53.000Z</time>
      </trkpt>
      <trkpt lon="7.181611955165863" lat="46.172097930684686">
        <ele>555.2000122070312</ele>
        <time>2015-10-21T13:33:59.000Z</time>
      </trkpt>
      <trkpt lon="7.181354966014624" lat="46.17181294597685">
        <ele>556.0</ele>
        <time>2015-10-21T13:34:02.000Z</time>
      </trkpt>
      <trkpt lon="7.181022958829999" lat="46.17128698155284">
        <ele>551.2000122070312</ele>
        <time>2015-10-21T13:34:07.000Z</time>
      </trkpt>
      <trkpt lon="7.180641917511821" lat="46.1709229554981">
        <ele>547.4000244140625</ele>
        <time>2015-10-21T13:34:11.000Z</time>
      </trkpt>
      <trkpt lon="7.180405966937542" lat="46.17077593691647">
        <ele>547.7999877929688</ele>
        <time>2015-10-21T13:34:13.000Z</time>
      </trkpt>
      <trkpt lon="7.18016398139298" lat="46.17063797079027">
        <ele>548.5999755859375</ele>
        <time>2015-10-21T13:34:15.000Z</time>
      </trkpt>
      <trkpt lon="7.18003791756928" lat="46.17049992084503">
        <ele>544.2000122070312</ele>
        <time>2015-10-21T13:34:18.000Z</time>
      </trkpt>
      <trkpt lon="7.18018694780767" lat="46.170507967472076">
        <ele>540.7999877929688</ele>
        <time>2015-10-21T13:34:20.000Z</time>
      </trkpt>
      <trkpt lon="7.180471932515502" lat="46.17064593359828">
        <ele>541.0</ele>
        <time>2015-10-21T13:34:24.000Z</time>
      </trkpt>
      <trkpt lon="7.180561954155564" lat="46.170701924711466">
        <ele>541.0</ele>
        <time>2015-10-21T13:34:28.000Z</time>
      </trkpt>
      <trkpt lon="7.180855991318822" lat="46.170783983543515">
        <ele>536.5999755859375</ele>
        <time>2015-10-21T13:34:32.000Z</time>
      </trkpt>
      <trkpt lon="7.181271985173225" lat="46.170935947448015">
        <ele>532.5999755859375</ele>
        <time>2015-10-21T13:34:36.000Z</time>
      </trkpt>
      <trkpt lon="7.181380949914455" lat="46.17098598740995">
        <ele>532.2000122070312</ele>
        <time>2015-10-21T13:34:37.000Z</time>
      </trkpt>
      <trkpt lon="7.181782945990562" lat="46.171065950766206">
        <ele>527.0</ele>
        <time>2015-10-21T13:34:40.000Z</time>
      </trkpt>
      <trkpt lon="7.181938933208585" lat="46.17103694938123">
        <ele>523.0</ele>
        <time>2015-10-21T13:34:41.000Z</time>
      </trkpt>
      <trkpt lon="7.182450983673334" lat="46.17103099822998">
        <ele>525.0</ele>
        <time>2015-10-21T13:34:45.000Z</time>
      </trkpt>
      <trkpt lon="7.182665979489684" lat="46.17114398628473">
        <ele>522.0</ele>
        <time>2015-10-21T13:34:48.000Z</time>
      </trkpt>
      <trkpt lon="7.182713923975825" lat="46.17117499932647">
        <ele>521.4000244140625</ele>
        <time>2015-10-21T13:34:49.000Z</time>
      </trkpt>
      <trkpt lon="7.182994969189167" lat="46.17132796905935">
        <ele>517.7999877929688</ele>
        <time>2015-10-21T13:34:57.000Z</time>
      </trkpt>
      <trkpt lon="7.183207953348756" lat="46.171410949900746">
        <ele>515.0</ele>
        <time>2015-10-21T13:35:02.000Z</time>
      </trkpt>
      <trkpt lon="7.183428984135389" lat="46.171532990410924">
        <ele>513.0</ele>
        <time>2015-10-21T13:35:07.000Z</time>
      </trkpt>
      <trkpt lon="7.183534931391478" lat="46.17158898152411">
        <ele>512.4000244140625</ele>
        <time>2015-10-21T13:35:09.000Z</time>
      </trkpt>
      <trkpt lon="7.18388294801116" lat="46.171835996210575">
        <ele>510.0</ele>
        <time>2015-10-21T13:35:16.000Z</time>
      </trkpt>
      <trkpt lon="7.1839849557727575" lat="46.171882934868336">
        <ele>509.3999938964844</ele>
        <time>2015-10-21T13:35:17.000Z</time>
      </trkpt>
      <trkpt lon="7.184224929660559" lat="46.171987960115075">
        <ele>507.79998779296875</ele>
        <time>2015-10-21T13:35:21.000Z</time>
      </trkpt>
      <trkpt lon="7.18452894128859" lat="46.17188595235348">
        <ele>506.3999938964844</ele>
        <time>2015-10-21T13:35:23.000Z</time>
      </trkpt>
      <trkpt lon="7.185112992301583" lat="46.17199692875147">
        <ele>500.79998779296875</ele>
        <time>2015-10-21T13:35:28.000Z</time>
      </trkpt>
      <trkpt lon="7.185315918177366" lat="46.17199692875147">
        <ele>498.6000061035156</ele>
        <time>2015-10-21T13:35:32.000Z</time>
      </trkpt>
      <trkpt lon="7.185315918177366" lat="46.17199692875147">
        <ele>498.6000061035156</ele>
        <time>2015-10-21T13:35:34.000Z</time>
      </trkpt>
      <trkpt lon="7.185315918177366" lat="46.17199692875147">
        <ele>498.6000061035156</ele>
        <time>2015-10-21T13:35:37.000Z</time>
      </trkpt>
      <trkpt lon="7.185819922015071" lat="46.17219993844628">
        <ele>491.3999938964844</ele>
        <time>2015-10-21T13:35:41.000Z</time>
      </trkpt>
      <trkpt lon="7.185829980298877" lat="46.17234595119953">
        <ele>492.20001220703125</ele>
        <time>2015-10-21T13:35:44.000Z</time>
      </trkpt>
      <trkpt lon="7.185809947550297" lat="46.17251199670136">
        <ele>493.0</ele>
        <time>2015-10-21T13:35:48.000Z</time>
      </trkpt>
      <trkpt lon="7.186362985521555" lat="46.172976940870285">
        <ele>482.79998779296875</ele>
        <time>2015-10-21T13:35:53.000Z</time>
      </trkpt>
      <trkpt lon="7.18644093722105" lat="46.17303594946861">
        <ele>481.3999938964844</ele>
        <time>2015-10-21T13:35:54.000Z</time>
      </trkpt>
      <trkpt lon="7.186989951878786" lat="46.17339192889631">
        <ele>475.79998779296875</ele>
        <time>2015-10-21T13:35:57.000Z</time>
      </trkpt>
      <trkpt lon="7.187397982925177" lat="46.17223296314478">
        <ele>466.0</ele>
        <time>2015-10-21T13:36:00.000Z</time>
      </trkpt>
      <trkpt lon="7.185809947550297" lat="46.17251199670136">
        <ele>493.0</ele>
        <time>2015-10-21T13:36:01.000Z</time>
      </trkpt>
      <trkpt lon="7.186840921640396" lat="46.17332797497511">
        <ele>477.3999938964844</ele>
        <time>2015-10-21T13:36:05.000Z</time>
      </trkpt>
      <trkpt lon="7.18691292218864" lat="46.17329495027661">
        <ele>475.79998779296875</ele>
        <time>2015-10-21T13:36:08.000Z</time>
      </trkpt>
      <trkpt lon="7.186919962987304" lat="46.173361921682954">
        <ele>476.6000061035156</ele>
        <time>2015-10-21T13:36:10.000Z</time>
      </trkpt>
      <trkpt lon="7.1871959790587425" lat="46.173405926674604">
        <ele>472.79998779296875</ele>
        <time>2015-10-21T13:36:13.000Z</time>
      </trkpt>
      <trkpt lon="7.18734391964972" lat="46.17341799661517">
        <ele>470.6000061035156</ele>
        <time>2015-10-21T13:36:14.000Z</time>
      </trkpt>
      <trkpt lon="7.187716998159885" lat="46.17346594110131">
        <ele>466.20001220703125</ele>
        <time>2015-10-21T13:36:17.000Z</time>
      </trkpt>
      <trkpt lon="7.187845995649695" lat="46.17346694692969">
        <ele>464.79998779296875</ele>
        <time>2015-10-21T13:36:20.000Z</time>
      </trkpt>
      <trkpt lon="7.188017992302775" lat="46.17338991723955">
        <ele>464.0</ele>
        <time>2015-10-21T13:36:25.000Z</time>
      </trkpt>
      <trkpt lon="7.188245980069041" lat="46.17327198386192">
        <ele>462.79998779296875</ele>
        <time>2015-10-21T13:36:31.000Z</time>
      </trkpt>
      <trkpt lon="7.188427951186895" lat="46.17317693307996">
        <ele>462.6000061035156</ele>
        <time>2015-10-21T13:36:39.000Z</time>
      </trkpt>
      <trkpt lon="7.188469944521785" lat="46.17296294309199">
        <ele>462.79998779296875</ele>
        <time>2015-10-21T13:36:45.000Z</time>
      </trkpt>
      <trkpt lon="7.188279926776886" lat="46.17279396392405">
        <ele>462.3999938964844</ele>
        <time>2015-10-21T13:36:48.000Z</time>
      </trkpt>
      <trkpt lon="7.188433986157179" lat="46.17257796227932">
        <ele>463.20001220703125</ele>
        <time>2015-10-21T13:36:53.000Z</time>
      </trkpt>
      <trkpt lon="7.18869399279356" lat="46.172441923990846">
        <ele>463.6000061035156</ele>
        <time>2015-10-21T13:36:59.000Z</time>
      </trkpt>
      <trkpt lon="7.189099928364158" lat="46.1722319573164">
        <ele>464.0</ele>
        <time>2015-10-21T13:37:08.000Z</time>
      </trkpt>
      <trkpt lon="7.189415926113725" lat="46.17205895483494">
        <ele>464.3999938964844</ele>
        <time>2015-10-21T13:37:16.000Z</time>
      </trkpt>
      <trkpt lon="7.189712980762124" lat="46.171901961788535">
        <ele>464.3999938964844</ele>
        <time>2015-10-21T13:37:24.000Z</time>
      </trkpt>
      <trkpt lon="7.189953960478306" lat="46.17178092710674">
        <ele>463.6000061035156</ele>
        <time>2015-10-21T13:37:30.000Z</time>
      </trkpt>
      <trkpt lon="7.190184965729713" lat="46.17165897041559">
        <ele>462.79998779296875</ele>
        <time>2015-10-21T13:37:36.000Z</time>
      </trkpt>
      <trkpt lon="7.190441954880953" lat="46.17151999846101">
        <ele>463.79998779296875</ele>
        <time>2015-10-21T13:37:43.000Z</time>
      </trkpt>
      <trkpt lon="7.1906649973243475" lat="46.17139594629407">
        <ele>464.6000061035156</ele>
        <time>2015-10-21T13:37:50.000Z</time>
      </trkpt>
      <trkpt lon="7.19086691737175" lat="46.171281952410936">
        <ele>465.20001220703125</ele>
        <time>2015-10-21T13:37:57.000Z</time>
      </trkpt>
      <trkpt lon="7.1909259259700775" lat="46.1713579762727">
        <ele>465.20001220703125</ele>
        <time>2015-10-21T13:38:01.000Z</time>
      </trkpt>
      <trkpt lon="7.191077973693609" lat="46.17150197736919">
        <ele>465.3999938964844</ele>
        <time>2015-10-21T13:38:07.000Z</time>
      </trkpt>
      <trkpt lon="7.191234966740012" lat="46.17165092378855">
        <ele>465.6000061035156</ele>
        <time>2015-10-21T13:38:14.000Z</time>
      </trkpt>
      <trkpt lon="7.19138097949326" lat="46.17178897373378">
        <ele>465.79998779296875</ele>
        <time>2015-10-21T13:38:21.000Z</time>
      </trkpt>
      <trkpt lon="7.191420961171389" lat="46.17176198400557">
        <ele>465.79998779296875</ele>
        <time>2015-10-21T13:38:25.000Z</time>
      </trkpt>
      <trkpt lon="7.191221974790096" lat="46.17163893766701">
        <ele>465.6000061035156</ele>
        <time>2015-10-21T13:38:32.000Z</time>
      </trkpt>
      <trkpt lon="7.190984934568405" lat="46.17141497321427">
        <ele>465.20001220703125</ele>
        <time>2015-10-21T13:38:41.000Z</time>
      </trkpt>
      <trkpt lon="7.19088795594871" lat="46.171322939917445">
        <ele>465.20001220703125</ele>
        <time>2015-10-21T13:38:45.000Z</time>
      </trkpt>
      <trkpt lon="7.191124996170402" lat="46.17114792577922">
        <ele>465.79998779296875</ele>
        <time>2015-10-21T13:38:50.000Z</time>
      </trkpt>
      <trkpt lon="7.191510982811451" lat="46.17094692774117">
        <ele>466.0</ele>
        <time>2015-10-21T13:38:59.000Z</time>
      </trkpt>
      <trkpt lon="7.1918359491974115" lat="46.17077895440161">
        <ele>466.0</ele>
        <time>2015-10-21T13:39:07.000Z</time>
      </trkpt>
      <trkpt lon="7.192132920026779" lat="46.17062397301197">
        <ele>465.3999938964844</ele>
        <time>2015-10-21T13:39:16.000Z</time>
      </trkpt>
      <trkpt lon="7.192361997440457" lat="46.170504949986935">
        <ele>465.0</ele>
        <time>2015-10-21T13:39:25.000Z</time>
      </trkpt>
      <trkpt lon="7.192381946370006" lat="46.17049497552216">
        <ele>465.0</ele>
        <time>2015-10-21T13:39:26.000Z</time>
      </trkpt>
      <trkpt lon="7.192010963335633" lat="46.17068792693317">
        <ele>465.6000061035156</ele>
        <time>2015-10-21T13:39:31.000Z</time>
      </trkpt>
      <trkpt lon="7.192010963335633" lat="46.17068792693317">
        <ele>465.6000061035156</ele>
        <time>2015-10-21T13:39:34.000Z</time>
      </trkpt>
      <trkpt lon="7.192417988553643" lat="46.17047594860196">
        <ele>465.20001220703125</ele>
        <time>2015-10-21T13:39:37.000Z</time>
      </trkpt>
    </trkseg>
  </trk>
</gpx>
